<?xml version="1.0" encoding="UTF-8" standalone="no" ?>
<gpx xmlns="http://www.topografix.com/GPX/1/1" xmlns:xsi="http://www.w3.org/2001/XMLSchema-instance" xsi:schemaLocation="http://www.topografix.com/GPX/1/1 http://www.topografix.com/GPX/1/1/gpx.xsd" version="1.1" creator="VisuGPX - https://www.visugpx.com">
  <metadata>
    <name>RIOM-LIMOGES</name>
    <desc><![CDATA[RIOM - LIMOGES en 5 jours
]]></desc>
  </metadata>
  <wpt lat="45.83344" lon="2.84863">
    <ele>679.3</ele>
    <name><![CDATA[Villa Colombier]]></name>
    <type><![CDATA[hotel]]></type>
  </wpt>
  <wpt lat="45.84478" lon="2.56172">
    <ele>688.7</ele>
    <name><![CDATA[Domaine du Balbuzard]]></name>
    <type><![CDATA[hotel]]></type>
  </wpt>
  <wpt lat="45.95737" lon="2.16688">
    <ele>434.7</ele>
    <name><![CDATA[La Maison du Pont]]></name>
    <type><![CDATA[hotel]]></type>
  </wpt>
  <wpt lat="46.02554" lon="1.65715">
    <ele>412.1</ele>
    <name><![CDATA[Les Filloux]]></name>
    <type><![CDATA[hotel]]></type>
  </wpt>
  <trk>
    <name><![CDATA[RIOM-LIMOGES_1]]></name>
    <trkseg>
      <trkpt lat="45.89046" lon="3.12">
        <ele>336.8</ele>
        <time>2016-12-04T17:11:25Z</time>
      </trkpt>
      <trkpt lat="45.89046" lon="3.12">
        <ele>336.8</ele>
        <time>2016-12-04T17:11:25Z</time>
      </trkpt>
      <trkpt lat="45.89046" lon="3.12">
        <ele>336.8</ele>
        <time>2016-12-04T17:11:25Z</time>
      </trkpt>
      <trkpt lat="45.89004" lon="3.11987">
        <ele>337</ele>
        <time>2016-12-04T17:11:45Z</time>
      </trkpt>
      <trkpt lat="45.89035" lon="3.11754">
        <ele>341.6</ele>
        <time>2016-12-04T17:12:05Z</time>
      </trkpt>
      <trkpt lat="45.89022" lon="3.11337">
        <ele>346</ele>
        <time>2016-12-04T17:12:25Z</time>
      </trkpt>
      <trkpt lat="45.89044" lon="3.11281">
        <ele>346.6</ele>
        <time>2016-12-04T17:12:45Z</time>
      </trkpt>
      <trkpt lat="45.89053" lon="3.11176">
        <ele>346.1</ele>
        <time>2016-12-04T17:13:05Z</time>
      </trkpt>
      <trkpt lat="45.89098" lon="3.11078">
        <ele>346.6</ele>
        <time>2016-12-04T17:13:25Z</time>
      </trkpt>
      <trkpt lat="45.89095" lon="3.11012">
        <ele>346</ele>
        <time>2016-12-04T17:13:45Z</time>
      </trkpt>
      <trkpt lat="45.89129" lon="3.10986">
        <ele>346.3</ele>
        <time>2016-12-04T17:14:05Z</time>
      </trkpt>
      <trkpt lat="45.88947" lon="3.10784">
        <ele>346.1</ele>
        <time>2016-12-04T17:14:25Z</time>
      </trkpt>
      <trkpt lat="45.88791" lon="3.10518">
        <ele>353.6</ele>
        <time>2016-12-04T17:14:45Z</time>
      </trkpt>
      <trkpt lat="45.88688" lon="3.10276">
        <ele>357.3</ele>
        <time>2016-12-04T17:15:05Z</time>
      </trkpt>
      <trkpt lat="45.88607" lon="3.1008">
        <ele>358.4</ele>
        <time>2016-12-04T17:15:25Z</time>
      </trkpt>
      <trkpt lat="45.88557" lon="3.09875">
        <ele>358.4</ele>
        <time>2016-12-04T17:15:45Z</time>
      </trkpt>
      <trkpt lat="45.88509" lon="3.09481">
        <ele>360.8</ele>
        <time>2016-12-04T17:16:05Z</time>
      </trkpt>
      <trkpt lat="45.88483" lon="3.09394">
        <ele>359.7</ele>
        <time>2016-12-04T17:16:25Z</time>
      </trkpt>
      <trkpt lat="45.88325" lon="3.09056">
        <ele>356.3</ele>
        <time>2016-12-04T17:16:45Z</time>
      </trkpt>
      <trkpt lat="45.8829" lon="3.08989">
        <ele>357.7</ele>
        <time>2016-12-04T17:17:05Z</time>
      </trkpt>
      <trkpt lat="45.88218" lon="3.08939">
        <ele>363.2</ele>
        <time>2016-12-04T17:17:25Z</time>
      </trkpt>
      <trkpt lat="45.8809" lon="3.08901">
        <ele>367.9</ele>
        <time>2016-12-04T17:17:45Z</time>
      </trkpt>
      <trkpt lat="45.88053" lon="3.08866">
        <ele>367.2</ele>
        <time>2016-12-04T17:18:05Z</time>
      </trkpt>
      <trkpt lat="45.88017" lon="3.08796">
        <ele>367</ele>
        <time>2016-12-04T17:18:25Z</time>
      </trkpt>
      <trkpt lat="45.88004" lon="3.08672">
        <ele>368</ele>
        <time>2016-12-04T17:18:45Z</time>
      </trkpt>
      <trkpt lat="45.87982" lon="3.08618">
        <ele>370.4</ele>
        <time>2016-12-04T17:19:05Z</time>
      </trkpt>
      <trkpt lat="45.8786" lon="3.08471">
        <ele>377.8</ele>
        <time>2016-12-04T17:19:25Z</time>
      </trkpt>
      <trkpt lat="45.87784" lon="3.0823">
        <ele>384.7</ele>
        <time>2016-12-04T17:19:45Z</time>
      </trkpt>
      <trkpt lat="45.87725" lon="3.08189">
        <ele>384.2</ele>
        <time>2016-12-04T17:20:05Z</time>
      </trkpt>
      <trkpt lat="45.87776" lon="3.08125">
        <ele>386.2</ele>
        <time>2016-12-04T17:20:25Z</time>
      </trkpt>
      <trkpt lat="45.87827" lon="3.07991">
        <ele>383.7</ele>
        <time>2016-12-04T17:20:45Z</time>
      </trkpt>
      <trkpt lat="45.87901" lon="3.07808">
        <ele>383.5</ele>
        <time>2016-12-04T17:21:05Z</time>
      </trkpt>
      <trkpt lat="45.87902" lon="3.07733">
        <ele>384.9</ele>
        <time>2016-12-04T17:21:25Z</time>
      </trkpt>
      <trkpt lat="45.87687" lon="3.07579">
        <ele>387.9</ele>
        <time>2016-12-04T17:21:45Z</time>
      </trkpt>
      <trkpt lat="45.87625" lon="3.07502">
        <ele>389.2</ele>
        <time>2016-12-04T17:22:05Z</time>
      </trkpt>
      <trkpt lat="45.87498" lon="3.07228">
        <ele>393.9</ele>
        <time>2016-12-04T17:22:25Z</time>
      </trkpt>
      <trkpt lat="45.87446" lon="3.06985">
        <ele>395.7</ele>
        <time>2016-12-04T17:22:45Z</time>
      </trkpt>
      <trkpt lat="45.87392" lon="3.06707">
        <ele>400</ele>
        <time>2016-12-04T17:23:05Z</time>
      </trkpt>
      <trkpt lat="45.87278" lon="3.06578">
        <ele>404.1</ele>
        <time>2016-12-04T17:23:25Z</time>
      </trkpt>
      <trkpt lat="45.87177" lon="3.06448">
        <ele>407.3</ele>
        <time>2016-12-04T17:23:45Z</time>
      </trkpt>
      <trkpt lat="45.87134" lon="3.06164">
        <ele>423</ele>
        <time>2016-12-04T17:24:05Z</time>
      </trkpt>
      <trkpt lat="45.8707" lon="3.05939">
        <ele>422</ele>
        <time>2016-12-04T17:24:25Z</time>
      </trkpt>
      <trkpt lat="45.87125" lon="3.05852">
        <ele>434.9</ele>
        <time>2016-12-04T17:24:45Z</time>
      </trkpt>
      <trkpt lat="45.87191" lon="3.05779">
        <ele>443.2</ele>
        <time>2016-12-04T17:25:05Z</time>
      </trkpt>
      <trkpt lat="45.87218" lon="3.05693">
        <ele>445.3</ele>
        <time>2016-12-04T17:25:25Z</time>
      </trkpt>
      <trkpt lat="45.8728" lon="3.05662">
        <ele>452.3</ele>
        <time>2016-12-04T17:25:45Z</time>
      </trkpt>
      <trkpt lat="45.87315" lon="3.05604">
        <ele>454</ele>
        <time>2016-12-04T17:26:05Z</time>
      </trkpt>
      <trkpt lat="45.87375" lon="3.05564">
        <ele>458.4</ele>
        <time>2016-12-04T17:26:25Z</time>
      </trkpt>
      <trkpt lat="45.87542" lon="3.05295">
        <ele>462.7</ele>
        <time>2016-12-04T17:26:45Z</time>
      </trkpt>
      <trkpt lat="45.8758" lon="3.05181">
        <ele>464.3</ele>
        <time>2016-12-04T17:27:05Z</time>
      </trkpt>
      <trkpt lat="45.87614" lon="3.04928">
        <ele>467.7</ele>
        <time>2016-12-04T17:27:25Z</time>
      </trkpt>
      <trkpt lat="45.87613" lon="3.04829">
        <ele>471.7</ele>
        <time>2016-12-04T17:27:45Z</time>
      </trkpt>
      <trkpt lat="45.87566" lon="3.0466">
        <ele>473.5</ele>
        <time>2016-12-04T17:28:05Z</time>
      </trkpt>
      <trkpt lat="45.87532" lon="3.04463">
        <ele>478.7</ele>
        <time>2016-12-04T17:28:25Z</time>
      </trkpt>
      <trkpt lat="45.87497" lon="3.04168">
        <ele>491.2</ele>
        <time>2016-12-04T17:28:45Z</time>
      </trkpt>
      <trkpt lat="45.87467" lon="3.04074">
        <ele>497.2</ele>
        <time>2016-12-04T17:29:05Z</time>
      </trkpt>
      <trkpt lat="45.8739" lon="3.03958">
        <ele>501.6</ele>
        <time>2016-12-04T17:29:25Z</time>
      </trkpt>
      <trkpt lat="45.87324" lon="3.03816">
        <ele>511.5</ele>
        <time>2016-12-04T17:29:45Z</time>
      </trkpt>
      <trkpt lat="45.87359" lon="3.03767">
        <ele>520.7</ele>
        <time>2016-12-04T17:30:05Z</time>
      </trkpt>
      <trkpt lat="45.87311" lon="3.03647">
        <ele>528.1</ele>
        <time>2016-12-04T17:30:25Z</time>
      </trkpt>
      <trkpt lat="45.87246" lon="3.0356">
        <ele>534.1</ele>
        <time>2016-12-04T17:30:45Z</time>
      </trkpt>
      <trkpt lat="45.87195" lon="3.03527">
        <ele>538.1</ele>
        <time>2016-12-04T17:31:05Z</time>
      </trkpt>
      <trkpt lat="45.87216" lon="3.03428">
        <ele>554.6</ele>
        <time>2016-12-04T17:31:25Z</time>
      </trkpt>
      <trkpt lat="45.87215" lon="3.03399">
        <ele>558.9</ele>
        <time>2016-12-04T17:31:45Z</time>
      </trkpt>
      <trkpt lat="45.87193" lon="3.03385">
        <ele>557.2</ele>
        <time>2016-12-04T17:32:05Z</time>
      </trkpt>
      <trkpt lat="45.87172" lon="3.03354">
        <ele>556.2</ele>
        <time>2016-12-04T17:32:25Z</time>
      </trkpt>
      <trkpt lat="45.87195" lon="3.03311">
        <ele>558.7</ele>
        <time>2016-12-04T17:32:45Z</time>
      </trkpt>
      <trkpt lat="45.87206" lon="3.03269">
        <ele>559.7</ele>
        <time>2016-12-04T17:33:05Z</time>
      </trkpt>
      <trkpt lat="45.87195" lon="3.03188">
        <ele>560.9</ele>
        <time>2016-12-04T17:33:25Z</time>
      </trkpt>
      <trkpt lat="45.87173" lon="3.03153">
        <ele>561.8</ele>
        <time>2016-12-04T17:33:45Z</time>
      </trkpt>
      <trkpt lat="45.87124" lon="3.03125">
        <ele>562.2</ele>
        <time>2016-12-04T17:34:05Z</time>
      </trkpt>
      <trkpt lat="45.87072" lon="3.03122">
        <ele>561.9</ele>
        <time>2016-12-04T17:34:25Z</time>
      </trkpt>
      <trkpt lat="45.87024" lon="3.03096">
        <ele>561.6</ele>
        <time>2016-12-04T17:34:45Z</time>
      </trkpt>
      <trkpt lat="45.87093" lon="3.02864">
        <ele>573.6</ele>
        <time>2016-12-04T17:35:05Z</time>
      </trkpt>
      <trkpt lat="45.87114" lon="3.02763">
        <ele>578.7</ele>
        <time>2016-12-04T17:35:25Z</time>
      </trkpt>
      <trkpt lat="45.87152" lon="3.02632">
        <ele>594.2</ele>
        <time>2016-12-04T17:35:45Z</time>
      </trkpt>
      <trkpt lat="45.87147" lon="3.02511">
        <ele>604</ele>
        <time>2016-12-04T17:36:05Z</time>
      </trkpt>
      <trkpt lat="45.87154" lon="3.02455">
        <ele>610.5</ele>
        <time>2016-12-04T17:36:25Z</time>
      </trkpt>
      <trkpt lat="45.87218" lon="3.0236">
        <ele>614.4</ele>
        <time>2016-12-04T17:36:45Z</time>
      </trkpt>
      <trkpt lat="45.87241" lon="3.02307">
        <ele>617.8</ele>
        <time>2016-12-04T17:37:05Z</time>
      </trkpt>
      <trkpt lat="45.87227" lon="3.02176">
        <ele>620.3</ele>
        <time>2016-12-04T17:37:25Z</time>
      </trkpt>
      <trkpt lat="45.87209" lon="3.02016">
        <ele>623.1</ele>
        <time>2016-12-04T17:37:45Z</time>
      </trkpt>
      <trkpt lat="45.87175" lon="3.01997">
        <ele>626.5</ele>
        <time>2016-12-04T17:38:05Z</time>
      </trkpt>
      <trkpt lat="45.87122" lon="3.01894">
        <ele>635.6</ele>
        <time>2016-12-04T17:38:25Z</time>
      </trkpt>
      <trkpt lat="45.8712" lon="3.01788">
        <ele>641.6</ele>
        <time>2016-12-04T17:38:45Z</time>
      </trkpt>
      <trkpt lat="45.8715" lon="3.01676">
        <ele>650</ele>
        <time>2016-12-04T17:39:05Z</time>
      </trkpt>
      <trkpt lat="45.87227" lon="3.01577">
        <ele>658.8</ele>
        <time>2016-12-04T17:39:25Z</time>
      </trkpt>
      <trkpt lat="45.87241" lon="3.01439">
        <ele>661</ele>
        <time>2016-12-04T17:39:45Z</time>
      </trkpt>
      <trkpt lat="45.87217" lon="3.01341">
        <ele>662.2</ele>
        <time>2016-12-04T17:40:05Z</time>
      </trkpt>
      <trkpt lat="45.87197" lon="3.012">
        <ele>667.6</ele>
        <time>2016-12-04T17:40:25Z</time>
      </trkpt>
      <trkpt lat="45.87159" lon="3.01086">
        <ele>673</ele>
        <time>2016-12-04T17:40:45Z</time>
      </trkpt>
      <trkpt lat="45.87126" lon="3.00812">
        <ele>688.2</ele>
        <time>2016-12-04T17:41:05Z</time>
      </trkpt>
      <trkpt lat="45.87115" lon="3.00772">
        <ele>689.3</ele>
        <time>2016-12-04T17:41:25Z</time>
      </trkpt>
      <trkpt lat="45.87054" lon="3.00757">
        <ele>692.8</ele>
        <time>2016-12-04T17:41:45Z</time>
      </trkpt>
      <trkpt lat="45.87028" lon="3.00756">
        <ele>694.6</ele>
        <time>2016-12-04T17:42:05Z</time>
      </trkpt>
      <trkpt lat="45.86994" lon="3.00769">
        <ele>698.1</ele>
        <time>2016-12-04T17:42:25Z</time>
      </trkpt>
      <trkpt lat="45.86936" lon="3.00749">
        <ele>702.2</ele>
        <time>2016-12-04T17:42:45Z</time>
      </trkpt>
      <trkpt lat="45.86911" lon="3.00734">
        <ele>704.5</ele>
        <time>2016-12-04T17:43:05Z</time>
      </trkpt>
      <trkpt lat="45.86881" lon="3.00762">
        <ele>702.3</ele>
        <time>2016-12-04T17:43:25Z</time>
      </trkpt>
      <trkpt lat="45.86653" lon="3.00584">
        <ele>735.8</ele>
        <time>2016-12-04T17:43:45Z</time>
      </trkpt>
      <trkpt lat="45.86401" lon="3.00411">
        <ele>761.3</ele>
        <time>2016-12-04T17:44:05Z</time>
      </trkpt>
      <trkpt lat="45.86446" lon="3.00294">
        <ele>761.2</ele>
        <time>2016-12-04T17:44:25Z</time>
      </trkpt>
      <trkpt lat="45.86342" lon="3.00226">
        <ele>768.5</ele>
        <time>2016-12-04T17:44:45Z</time>
      </trkpt>
      <trkpt lat="45.86261" lon="3.00105">
        <ele>781.4</ele>
        <time>2016-12-04T17:45:05Z</time>
      </trkpt>
      <trkpt lat="45.86277" lon="2.99904">
        <ele>812.3</ele>
        <time>2016-12-04T17:45:25Z</time>
      </trkpt>
      <trkpt lat="45.86317" lon="2.99735">
        <ele>852.9</ele>
        <time>2016-12-04T17:45:45Z</time>
      </trkpt>
      <trkpt lat="45.8639" lon="2.99715">
        <ele>855.5</ele>
        <time>2016-12-04T17:46:05Z</time>
      </trkpt>
      <trkpt lat="45.86455" lon="2.99663">
        <ele>864.9</ele>
        <time>2016-12-04T17:46:25Z</time>
      </trkpt>
      <trkpt lat="45.86508" lon="2.99481">
        <ele>869.4</ele>
        <time>2016-12-04T17:46:45Z</time>
      </trkpt>
      <trkpt lat="45.86399" lon="2.99494">
        <ele>871.9</ele>
        <time>2016-12-04T17:47:05Z</time>
      </trkpt>
      <trkpt lat="45.86369" lon="2.99422">
        <ele>872.3</ele>
        <time>2016-12-04T17:47:25Z</time>
      </trkpt>
      <trkpt lat="45.86236" lon="2.99253">
        <ele>877.5</ele>
        <time>2016-12-04T17:47:45Z</time>
      </trkpt>
      <trkpt lat="45.86181" lon="2.99201">
        <ele>880.6</ele>
        <time>2016-12-04T17:48:05Z</time>
      </trkpt>
      <trkpt lat="45.86159" lon="2.98873">
        <ele>922.4</ele>
        <time>2016-12-04T17:48:25Z</time>
      </trkpt>
      <trkpt lat="45.86123" lon="2.98837">
        <ele>925</ele>
        <time>2016-12-04T17:48:45Z</time>
      </trkpt>
      <trkpt lat="45.86211" lon="2.98791">
        <ele>928.8</ele>
        <time>2016-12-04T17:49:05Z</time>
      </trkpt>
      <trkpt lat="45.86238" lon="2.98743">
        <ele>931.8</ele>
        <time>2016-12-04T17:49:25Z</time>
      </trkpt>
      <trkpt lat="45.86222" lon="2.98655">
        <ele>936.5</ele>
        <time>2016-12-04T17:49:45Z</time>
      </trkpt>
      <trkpt lat="45.86218" lon="2.98638">
        <ele>937</ele>
        <time>2016-12-04T17:50:05Z</time>
      </trkpt>
      <trkpt lat="45.86142" lon="2.98564">
        <ele>935</ele>
        <time>2016-12-04T17:50:25Z</time>
      </trkpt>
      <trkpt lat="45.86083" lon="2.98543">
        <ele>935</ele>
        <time>2016-12-04T17:50:45Z</time>
      </trkpt>
      <trkpt lat="45.86029" lon="2.98549">
        <ele>937</ele>
        <time>2016-12-04T17:51:05Z</time>
      </trkpt>
      <trkpt lat="45.85989" lon="2.98632">
        <ele>945</ele>
        <time>2016-12-04T17:51:25Z</time>
      </trkpt>
      <trkpt lat="45.85953" lon="2.98698">
        <ele>951</ele>
        <time>2016-12-04T17:51:45Z</time>
      </trkpt>
      <trkpt lat="45.85936" lon="2.98696">
        <ele>952</ele>
        <time>2016-12-04T17:52:05Z</time>
      </trkpt>
      <trkpt lat="45.8591" lon="2.98586">
        <ele>955</ele>
        <time>2016-12-04T17:52:25Z</time>
      </trkpt>
      <trkpt lat="45.85879" lon="2.98431">
        <ele>962</ele>
        <time>2016-12-04T17:52:45Z</time>
      </trkpt>
      <trkpt lat="45.85845" lon="2.98396">
        <ele>956</ele>
        <time>2016-12-04T17:53:05Z</time>
      </trkpt>
      <trkpt lat="45.85803" lon="2.98319">
        <ele>935</ele>
        <time>2016-12-04T17:53:25Z</time>
      </trkpt>
      <trkpt lat="45.85797" lon="2.98238">
        <ele>927</ele>
        <time>2016-12-04T17:53:45Z</time>
      </trkpt>
      <trkpt lat="45.85815" lon="2.98201">
        <ele>927</ele>
        <time>2016-12-04T17:54:05Z</time>
      </trkpt>
      <trkpt lat="45.8587" lon="2.98134">
        <ele>926</ele>
        <time>2016-12-04T17:54:25Z</time>
      </trkpt>
      <trkpt lat="45.85868" lon="2.98097">
        <ele>923</ele>
        <time>2016-12-04T17:54:45Z</time>
      </trkpt>
      <trkpt lat="45.85836" lon="2.98048">
        <ele>907</ele>
        <time>2016-12-04T17:55:05Z</time>
      </trkpt>
      <trkpt lat="45.85777" lon="2.98021">
        <ele>898</ele>
        <time>2016-12-04T17:55:25Z</time>
      </trkpt>
      <trkpt lat="45.85737" lon="2.98031">
        <ele>893</ele>
        <time>2016-12-04T17:55:45Z</time>
      </trkpt>
      <trkpt lat="45.8566" lon="2.98109">
        <ele>887</ele>
        <time>2016-12-04T17:56:05Z</time>
      </trkpt>
      <trkpt lat="45.8566" lon="2.98061">
        <ele>889</ele>
        <time>2016-12-04T17:56:25Z</time>
      </trkpt>
      <trkpt lat="45.85625" lon="2.97955">
        <ele>893</ele>
        <time>2016-12-04T17:56:45Z</time>
      </trkpt>
      <trkpt lat="45.85554" lon="2.97885">
        <ele>905</ele>
        <time>2016-12-04T17:57:05Z</time>
      </trkpt>
      <trkpt lat="45.85461" lon="2.97818">
        <ele>914</ele>
        <time>2016-12-04T17:57:25Z</time>
      </trkpt>
      <trkpt lat="45.85371" lon="2.97792">
        <ele>920</ele>
        <time>2016-12-04T17:57:45Z</time>
      </trkpt>
      <trkpt lat="45.85324" lon="2.97696">
        <ele>930</ele>
        <time>2016-12-04T17:58:05Z</time>
      </trkpt>
      <trkpt lat="45.85257" lon="2.9761">
        <ele>939</ele>
        <time>2016-12-04T17:58:25Z</time>
      </trkpt>
      <trkpt lat="45.85135" lon="2.97388">
        <ele>982</ele>
        <time>2016-12-04T17:58:45Z</time>
      </trkpt>
      <trkpt lat="45.85085" lon="2.97349">
        <ele>987</ele>
        <time>2016-12-04T17:59:05Z</time>
      </trkpt>
      <trkpt lat="45.85157" lon="2.97242">
        <ele>1003</ele>
        <time>2016-12-04T22:35:25Z</time>
      </trkpt>
      <trkpt lat="45.85167" lon="2.97211">
        <ele>1003</ele>
        <time>2016-12-04T22:35:45Z</time>
      </trkpt>
      <trkpt lat="45.85211" lon="2.97134">
        <ele>1006</ele>
        <time>2017-03-24T16:49:35Z</time>
      </trkpt>
      <trkpt lat="45.85221" lon="2.97081">
        <ele>1009</ele>
        <time>2017-03-24T16:49:15Z</time>
      </trkpt>
      <trkpt lat="45.85246" lon="2.97016">
        <ele>1010</ele>
        <time>2017-03-24T16:48:55Z</time>
      </trkpt>
      <trkpt lat="45.85249" lon="2.96904">
        <ele>1017</ele>
        <time>2017-03-24T16:48:35Z</time>
      </trkpt>
      <trkpt lat="45.85233" lon="2.9684">
        <ele>1019</ele>
        <time>2017-03-24T16:48:15Z</time>
      </trkpt>
      <trkpt lat="45.85245" lon="2.96778">
        <ele>1023</ele>
        <time>2017-03-24T16:47:55Z</time>
      </trkpt>
      <trkpt lat="45.85283" lon="2.96717">
        <ele>1016</ele>
        <time>2017-03-24T16:47:35Z</time>
      </trkpt>
      <trkpt lat="45.85294" lon="2.96667">
        <ele>1016</ele>
        <time>2017-03-24T16:47:15Z</time>
      </trkpt>
      <trkpt lat="45.85254" lon="2.96575">
        <ele>1024</ele>
        <time>2017-03-24T16:46:55Z</time>
      </trkpt>
      <trkpt lat="45.85218" lon="2.96467">
        <ele>1036</ele>
        <time>2017-03-24T16:46:35Z</time>
      </trkpt>
      <trkpt lat="45.85162" lon="2.96399">
        <ele>1039</ele>
        <time>2017-03-24T16:46:15Z</time>
      </trkpt>
      <trkpt lat="45.85109" lon="2.96582">
        <ele>1061</ele>
        <time>2017-03-24T16:45:55Z</time>
      </trkpt>
      <trkpt lat="45.85054" lon="2.96654">
        <ele>1082</ele>
        <time>2017-03-24T16:45:35Z</time>
      </trkpt>
      <trkpt lat="45.84917" lon="2.96751">
        <ele>1114</ele>
        <time>2017-03-24T16:45:15Z</time>
      </trkpt>
      <trkpt lat="45.84888" lon="2.96821">
        <ele>1120</ele>
        <time>2017-03-24T16:44:55Z</time>
      </trkpt>
      <trkpt lat="45.84845" lon="2.96875">
        <ele>1127</ele>
        <time>2017-03-24T16:44:35Z</time>
      </trkpt>
      <trkpt lat="45.84788" lon="2.96879">
        <ele>1137</ele>
        <time>2017-03-24T16:44:15Z</time>
      </trkpt>
      <trkpt lat="45.84742" lon="2.9685">
        <ele>1137</ele>
        <time>2017-03-24T16:43:55Z</time>
      </trkpt>
      <trkpt lat="45.84696" lon="2.96787">
        <ele>1139</ele>
        <time>2017-03-24T16:43:35Z</time>
      </trkpt>
      <trkpt lat="45.84663" lon="2.96672">
        <ele>1148</ele>
        <time>2017-03-24T16:43:15Z</time>
      </trkpt>
      <trkpt lat="45.84605" lon="2.96641">
        <ele>1141</ele>
        <time>2017-03-24T16:42:55Z</time>
      </trkpt>
      <trkpt lat="45.8459" lon="2.96589">
        <ele>1137</ele>
        <time>2017-03-24T16:42:35Z</time>
      </trkpt>
      <trkpt lat="45.84571" lon="2.96583">
        <ele>1131</ele>
        <time>2017-03-24T16:42:15Z</time>
      </trkpt>
      <trkpt lat="45.84536" lon="2.96548">
        <ele>1127</ele>
        <time>2017-03-24T16:41:55Z</time>
      </trkpt>
      <trkpt lat="45.84521" lon="2.96552">
        <ele>1127</ele>
        <time>2017-03-24T16:41:35Z</time>
      </trkpt>
      <trkpt lat="45.84479" lon="2.9653">
        <ele>1131</ele>
        <time>2017-03-24T16:41:15Z</time>
      </trkpt>
      <trkpt lat="45.84464" lon="2.96471">
        <ele>1128</ele>
        <time>2017-03-24T16:40:55Z</time>
      </trkpt>
      <trkpt lat="45.84432" lon="2.96439">
        <ele>1129</ele>
        <time>2017-03-24T16:40:35Z</time>
      </trkpt>
      <trkpt lat="45.8439" lon="2.96459">
        <ele>1135</ele>
        <time>2017-03-24T16:40:15Z</time>
      </trkpt>
      <trkpt lat="45.84392" lon="2.96492">
        <ele>1137</ele>
        <time>2017-03-24T16:39:55Z</time>
      </trkpt>
      <trkpt lat="45.84377" lon="2.96511">
        <ele>1137</ele>
        <time>2017-03-24T16:39:35Z</time>
      </trkpt>
      <trkpt lat="45.84342" lon="2.96517">
        <ele>1137</ele>
        <time>2017-03-24T16:39:15Z</time>
      </trkpt>
      <trkpt lat="45.84295" lon="2.96491">
        <ele>1133</ele>
        <time>2017-03-24T16:38:55Z</time>
      </trkpt>
      <trkpt lat="45.8425" lon="2.96444">
        <ele>1129</ele>
        <time>2017-03-24T16:38:35Z</time>
      </trkpt>
      <trkpt lat="45.84193" lon="2.96362">
        <ele>1136</ele>
        <time>2017-03-24T16:38:15Z</time>
      </trkpt>
      <trkpt lat="45.84118" lon="2.96301">
        <ele>1126</ele>
        <time>2017-03-24T16:37:55Z</time>
      </trkpt>
      <trkpt lat="45.84067" lon="2.96244">
        <ele>1107</ele>
        <time>2017-03-24T16:37:35Z</time>
      </trkpt>
      <trkpt lat="45.83974" lon="2.96217">
        <ele>1092</ele>
        <time>2017-03-24T16:37:15Z</time>
      </trkpt>
      <trkpt lat="45.83952" lon="2.96203">
        <ele>1090</ele>
        <time>2017-03-24T16:36:55Z</time>
      </trkpt>
      <trkpt lat="45.83897" lon="2.96225">
        <ele>1082</ele>
        <time>2017-03-24T16:36:35Z</time>
      </trkpt>
      <trkpt lat="45.83814" lon="2.96229">
        <ele>1068</ele>
        <time>2017-03-24T16:36:15Z</time>
      </trkpt>
      <trkpt lat="45.83744" lon="2.96208">
        <ele>1047</ele>
        <time>2017-03-24T16:35:55Z</time>
      </trkpt>
      <trkpt lat="45.83725" lon="2.96023">
        <ele>1037</ele>
        <time>2017-03-24T16:35:35Z</time>
      </trkpt>
      <trkpt lat="45.83669" lon="2.95962">
        <ele>1031</ele>
        <time>2017-03-24T16:35:15Z</time>
      </trkpt>
      <trkpt lat="45.83686" lon="2.95923">
        <ele>1029</ele>
        <time>2017-03-24T16:34:55Z</time>
      </trkpt>
      <trkpt lat="45.83658" lon="2.95913">
        <ele>1030</ele>
        <time>2017-03-24T16:34:35Z</time>
      </trkpt>
      <trkpt lat="45.83599" lon="2.95905">
        <ele>1034</ele>
        <time>2017-03-24T16:33:35Z</time>
      </trkpt>
      <trkpt lat="45.83555" lon="2.9587">
        <ele>1042</ele>
        <time>2017-03-24T16:33:15Z</time>
      </trkpt>
      <trkpt lat="45.8361" lon="2.95766">
        <ele>1041</ele>
        <time>2017-03-24T16:32:55Z</time>
      </trkpt>
      <trkpt lat="45.83681" lon="2.95604">
        <ele>1032</ele>
        <time>2017-03-24T16:32:35Z</time>
      </trkpt>
      <trkpt lat="45.83656" lon="2.95543">
        <ele>1037</ele>
        <time>2017-03-24T16:32:15Z</time>
      </trkpt>
      <trkpt lat="45.83594" lon="2.95525">
        <ele>1040</ele>
        <time>2017-03-24T16:31:55Z</time>
      </trkpt>
      <trkpt lat="45.83508" lon="2.95464">
        <ele>1034</ele>
        <time>2017-03-24T16:31:35Z</time>
      </trkpt>
      <trkpt lat="45.83431" lon="2.9543">
        <ele>1035</ele>
        <time>2017-03-24T16:31:15Z</time>
      </trkpt>
      <trkpt lat="45.83406" lon="2.95395">
        <ele>1026</ele>
        <time>2017-03-24T16:30:55Z</time>
      </trkpt>
      <trkpt lat="45.83219" lon="2.95436">
        <ele>1028</ele>
        <time>2017-03-24T16:30:35Z</time>
      </trkpt>
      <trkpt lat="45.83164" lon="2.95435">
        <ele>1028</ele>
        <time>2017-03-24T16:30:15Z</time>
      </trkpt>
      <trkpt lat="45.83118" lon="2.95522">
        <ele>1035</ele>
        <time>2017-03-24T16:29:55Z</time>
      </trkpt>
      <trkpt lat="45.83106" lon="2.95428">
        <ele>1032</ele>
        <time>2017-03-24T16:29:35Z</time>
      </trkpt>
      <trkpt lat="45.8308" lon="2.95372">
        <ele>1039</ele>
        <time>2017-03-24T16:29:15Z</time>
      </trkpt>
      <trkpt lat="45.83044" lon="2.95258">
        <ele>1031</ele>
        <time>2017-03-24T16:28:55Z</time>
      </trkpt>
      <trkpt lat="45.83027" lon="2.95173">
        <ele>1028</ele>
        <time>2017-03-24T16:28:35Z</time>
      </trkpt>
      <trkpt lat="45.83" lon="2.95088">
        <ele>1023</ele>
        <time>2017-03-24T16:28:15Z</time>
      </trkpt>
      <trkpt lat="45.82984" lon="2.95064">
        <ele>1026</ele>
        <time>2017-03-24T16:27:55Z</time>
      </trkpt>
      <trkpt lat="45.82946" lon="2.95074">
        <ele>1031</ele>
        <time>2017-03-24T16:27:35Z</time>
      </trkpt>
      <trkpt lat="45.82879" lon="2.95125">
        <ele>1049</ele>
        <time>2017-03-24T16:27:15Z</time>
      </trkpt>
      <trkpt lat="45.82798" lon="2.95132">
        <ele>1065</ele>
        <time>2017-03-24T16:26:55Z</time>
      </trkpt>
      <trkpt lat="45.82715" lon="2.95188">
        <ele>1075</ele>
        <time>2017-03-24T16:26:35Z</time>
      </trkpt>
      <trkpt lat="45.82655" lon="2.95216">
        <ele>1083</ele>
        <time>2017-03-24T16:26:15Z</time>
      </trkpt>
      <trkpt lat="45.82606" lon="2.95194">
        <ele>1086</ele>
        <time>2017-03-24T16:25:55Z</time>
      </trkpt>
      <trkpt lat="45.82572" lon="2.9516">
        <ele>1091</ele>
        <time>2017-03-24T16:25:35Z</time>
      </trkpt>
      <trkpt lat="45.82528" lon="2.95139">
        <ele>1092</ele>
        <time>2017-03-24T16:25:15Z</time>
      </trkpt>
      <trkpt lat="45.82475" lon="2.95129">
        <ele>1096</ele>
        <time>2017-03-24T16:24:55Z</time>
      </trkpt>
      <trkpt lat="45.8246" lon="2.95093">
        <ele>1097</ele>
        <time>2017-03-24T16:24:35Z</time>
      </trkpt>
      <trkpt lat="45.82428" lon="2.95085">
        <ele>1099</ele>
        <time>2017-03-24T16:24:15Z</time>
      </trkpt>
      <trkpt lat="45.82404" lon="2.95022">
        <ele>1091</ele>
        <time>2017-03-24T16:23:55Z</time>
      </trkpt>
      <trkpt lat="45.82381" lon="2.95041">
        <ele>1089</ele>
        <time>2017-03-24T16:23:35Z</time>
      </trkpt>
      <trkpt lat="45.82372" lon="2.95098">
        <ele>1093</ele>
        <time>2017-03-24T16:23:15Z</time>
      </trkpt>
      <trkpt lat="45.82383" lon="2.95155">
        <ele>1096</ele>
        <time>2017-03-24T16:22:55Z</time>
      </trkpt>
      <trkpt lat="45.82386" lon="2.95215">
        <ele>1099</ele>
        <time>2017-03-24T16:22:35Z</time>
      </trkpt>
      <trkpt lat="45.82406" lon="2.95304">
        <ele>1103</ele>
        <time>2017-03-24T16:22:15Z</time>
      </trkpt>
      <trkpt lat="45.82469" lon="2.95404">
        <ele>1114</ele>
        <time>2017-03-24T16:21:55Z</time>
      </trkpt>
      <trkpt lat="45.82472" lon="2.95459">
        <ele>1110</ele>
        <time>2017-03-24T16:21:35Z</time>
      </trkpt>
      <trkpt lat="45.82488" lon="2.95554">
        <ele>1102</ele>
        <time>2017-03-24T16:21:15Z</time>
      </trkpt>
      <trkpt lat="45.82491" lon="2.95608">
        <ele>1093</ele>
        <time>2017-03-24T16:20:55Z</time>
      </trkpt>
      <trkpt lat="45.82515" lon="2.9569">
        <ele>1082</ele>
        <time>2017-03-24T16:20:35Z</time>
      </trkpt>
      <trkpt lat="45.82534" lon="2.95717">
        <ele>1078</ele>
        <time>2017-03-24T16:20:15Z</time>
      </trkpt>
      <trkpt lat="45.82543" lon="2.95757">
        <ele>1067</ele>
        <time>2017-03-24T16:19:55Z</time>
      </trkpt>
      <trkpt lat="45.82556" lon="2.95791">
        <ele>1065</ele>
        <time>2017-03-24T16:19:35Z</time>
      </trkpt>
      <trkpt lat="45.82503" lon="2.95849">
        <ele>1051</ele>
        <time>2017-03-24T16:19:15Z</time>
      </trkpt>
      <trkpt lat="45.82481" lon="2.95937">
        <ele>1028</ele>
        <time>2017-03-24T16:18:55Z</time>
      </trkpt>
      <trkpt lat="45.82464" lon="2.95972">
        <ele>1023</ele>
        <time>2017-03-24T16:18:35Z</time>
      </trkpt>
      <trkpt lat="45.82441" lon="2.95991">
        <ele>1020</ele>
        <time>2017-03-24T16:18:15Z</time>
      </trkpt>
      <trkpt lat="45.82431" lon="2.96011">
        <ele>1012</ele>
        <time>2017-03-24T16:17:55Z</time>
      </trkpt>
      <trkpt lat="45.82388" lon="2.96028">
        <ele>1002</ele>
        <time>2017-03-24T16:17:35Z</time>
      </trkpt>
      <trkpt lat="45.82386" lon="2.96068">
        <ele>999</ele>
        <time>2017-03-24T16:17:15Z</time>
      </trkpt>
      <trkpt lat="45.82443" lon="2.96136">
        <ele>994</ele>
        <time>2017-03-24T16:16:55Z</time>
      </trkpt>
      <trkpt lat="45.82453" lon="2.9614">
        <ele>995</ele>
        <time>2017-03-24T16:16:35Z</time>
      </trkpt>
      <trkpt lat="45.8248" lon="2.96165">
        <ele>993</ele>
        <time>2017-03-24T16:16:15Z</time>
      </trkpt>
      <trkpt lat="45.82476" lon="2.96194">
        <ele>984</ele>
        <time>2017-03-24T16:15:55Z</time>
      </trkpt>
      <trkpt lat="45.82476" lon="2.96294">
        <ele>978</ele>
        <time>2017-03-24T16:15:35Z</time>
      </trkpt>
      <trkpt lat="45.82444" lon="2.96317">
        <ele>979</ele>
        <time>2017-03-24T16:15:15Z</time>
      </trkpt>
      <trkpt lat="45.82374" lon="2.96313">
        <ele>980</ele>
        <time>2017-03-24T16:14:55Z</time>
      </trkpt>
      <trkpt lat="45.82374" lon="2.96313">
        <ele>980</ele>
        <time>2017-03-24T16:14:35Z</time>
      </trkpt>
      <trkpt lat="45.82298" lon="2.9632">
        <ele>977</ele>
        <time>2017-03-24T16:14:15Z</time>
      </trkpt>
      <trkpt lat="45.82258" lon="2.96298">
        <ele>976</ele>
        <time>2017-03-24T16:13:55Z</time>
      </trkpt>
      <trkpt lat="45.82044" lon="2.96249">
        <ele>967</ele>
        <time>2017-03-24T16:13:35Z</time>
      </trkpt>
      <trkpt lat="45.81829" lon="2.96094">
        <ele>962</ele>
        <time>2017-03-24T16:13:15Z</time>
      </trkpt>
      <trkpt lat="45.81766" lon="2.96026">
        <ele>958</ele>
        <time>2017-03-24T16:12:55Z</time>
      </trkpt>
      <trkpt lat="45.81426" lon="2.95811">
        <ele>956</ele>
        <time>2017-03-24T16:12:35Z</time>
      </trkpt>
      <trkpt lat="45.81409" lon="2.95532">
        <ele>958</ele>
        <time>2017-03-24T16:12:15Z</time>
      </trkpt>
      <trkpt lat="45.81461" lon="2.95363">
        <ele>954</ele>
        <time>2017-03-24T16:11:55Z</time>
      </trkpt>
      <trkpt lat="45.81437" lon="2.95328">
        <ele>958</ele>
        <time>2017-03-24T16:11:35Z</time>
      </trkpt>
      <trkpt lat="45.81376" lon="2.9524">
        <ele>960</ele>
        <time>2017-03-24T16:11:15Z</time>
      </trkpt>
      <trkpt lat="45.80568" lon="2.94245">
        <ele>932</ele>
        <time>2017-03-24T16:10:55Z</time>
      </trkpt>
      <trkpt lat="45.8046" lon="2.93841">
        <ele>938.9</ele>
        <time>2017-03-24T16:10:35Z</time>
      </trkpt>
      <trkpt lat="45.80278" lon="2.93484">
        <ele>959.6</ele>
        <time>2017-03-24T16:10:15Z</time>
      </trkpt>
      <trkpt lat="45.79856" lon="2.92976">
        <ele>971.4</ele>
        <time>2017-03-24T16:09:55Z</time>
      </trkpt>
      <trkpt lat="45.80143" lon="2.91359">
        <ele>904.7</ele>
        <time>2017-03-24T16:09:35Z</time>
      </trkpt>
      <trkpt lat="45.80965" lon="2.89798">
        <ele>830.9</ele>
        <time>2017-03-24T16:09:15Z</time>
      </trkpt>
      <trkpt lat="45.81441" lon="2.87056">
        <ele>788.8</ele>
        <time>2017-03-24T16:08:55Z</time>
      </trkpt>
      <trkpt lat="45.8145" lon="2.87039">
        <ele>788.8</ele>
        <time>2017-03-24T16:08:35Z</time>
      </trkpt>
      <trkpt lat="45.81449" lon="2.86881">
        <ele>787.5</ele>
        <time>2017-03-24T16:08:15Z</time>
      </trkpt>
      <trkpt lat="45.81543" lon="2.86836">
        <ele>788</ele>
        <time>2017-03-24T16:07:55Z</time>
      </trkpt>
      <trkpt lat="45.81546" lon="2.86711">
        <ele>783</ele>
        <time>2017-03-24T16:07:35Z</time>
      </trkpt>
      <trkpt lat="45.81528" lon="2.86654">
        <ele>781</ele>
        <time>2017-03-24T16:07:15Z</time>
      </trkpt>
      <trkpt lat="45.81524" lon="2.86576">
        <ele>782</ele>
        <time>2017-03-24T16:06:55Z</time>
      </trkpt>
      <trkpt lat="45.81509" lon="2.86502">
        <ele>782</ele>
        <time>2017-03-24T16:06:35Z</time>
      </trkpt>
      <trkpt lat="45.81552" lon="2.86548">
        <ele>781</ele>
        <time>2017-03-24T16:06:15Z</time>
      </trkpt>
      <trkpt lat="45.81657" lon="2.86565">
        <ele>780</ele>
        <time>2017-03-24T16:05:55Z</time>
      </trkpt>
      <trkpt lat="45.81746" lon="2.86548">
        <ele>779</ele>
        <time>2017-03-24T16:05:35Z</time>
      </trkpt>
      <trkpt lat="45.81785" lon="2.86483">
        <ele>778</ele>
        <time>2017-03-24T16:05:15Z</time>
      </trkpt>
      <trkpt lat="45.81845" lon="2.86427">
        <ele>776</ele>
        <time>2017-03-24T16:04:55Z</time>
      </trkpt>
      <trkpt lat="45.81889" lon="2.86441">
        <ele>777</ele>
        <time>2017-03-24T16:04:35Z</time>
      </trkpt>
      <trkpt lat="45.81963" lon="2.86572">
        <ele>772</ele>
        <time>2017-03-24T16:04:15Z</time>
      </trkpt>
      <trkpt lat="45.8196" lon="2.86611">
        <ele>772</ele>
        <time>2017-03-24T16:03:55Z</time>
      </trkpt>
      <trkpt lat="45.82014" lon="2.86631">
        <ele>771</ele>
        <time>2017-03-24T16:03:35Z</time>
      </trkpt>
      <trkpt lat="45.82093" lon="2.86691">
        <ele>771</ele>
        <time>2017-03-24T16:03:15Z</time>
      </trkpt>
      <trkpt lat="45.82139" lon="2.86656">
        <ele>770</ele>
        <time>2017-03-24T16:02:55Z</time>
      </trkpt>
      <trkpt lat="45.82179" lon="2.86594">
        <ele>768</ele>
        <time>2017-03-24T16:02:35Z</time>
      </trkpt>
      <trkpt lat="45.8225" lon="2.86568">
        <ele>766</ele>
        <time>2017-03-24T16:02:15Z</time>
      </trkpt>
      <trkpt lat="45.82331" lon="2.86587">
        <ele>755</ele>
        <time>2017-03-24T16:01:55Z</time>
      </trkpt>
      <trkpt lat="45.82375" lon="2.86557">
        <ele>754</ele>
        <time>2017-03-24T16:01:35Z</time>
      </trkpt>
      <trkpt lat="45.82449" lon="2.86565">
        <ele>753</ele>
        <time>2017-03-24T16:01:15Z</time>
      </trkpt>
      <trkpt lat="45.82514" lon="2.86683">
        <ele>750</ele>
        <time>2017-03-24T16:00:55Z</time>
      </trkpt>
      <trkpt lat="45.82543" lon="2.86694">
        <ele>750</ele>
        <time>2017-03-24T16:00:35Z</time>
      </trkpt>
      <trkpt lat="45.82586" lon="2.86668">
        <ele>751</ele>
        <time>2017-03-24T16:00:15Z</time>
      </trkpt>
      <trkpt lat="45.82618" lon="2.86672">
        <ele>750</ele>
        <time>2017-03-24T15:59:55Z</time>
      </trkpt>
      <trkpt lat="45.82678" lon="2.86631">
        <ele>747</ele>
        <time>2017-03-24T15:59:35Z</time>
      </trkpt>
      <trkpt lat="45.82767" lon="2.8648">
        <ele>752</ele>
        <time>2017-03-24T15:59:15Z</time>
      </trkpt>
      <trkpt lat="45.8284" lon="2.86485">
        <ele>751</ele>
        <time>2017-03-24T15:58:55Z</time>
      </trkpt>
      <trkpt lat="45.82865" lon="2.86437">
        <ele>750</ele>
        <time>2017-03-24T15:58:35Z</time>
      </trkpt>
      <trkpt lat="45.82992" lon="2.86404">
        <ele>744</ele>
        <time>2017-03-24T15:58:15Z</time>
      </trkpt>
      <trkpt lat="45.83032" lon="2.8636">
        <ele>742</ele>
        <time>2017-03-24T15:57:55Z</time>
      </trkpt>
      <trkpt lat="45.83088" lon="2.86329">
        <ele>738</ele>
        <time>2017-03-24T15:57:35Z</time>
      </trkpt>
      <trkpt lat="45.83096" lon="2.86254">
        <ele>737</ele>
        <time>2017-03-24T15:57:15Z</time>
      </trkpt>
      <trkpt lat="45.83158" lon="2.86135">
        <ele>731</ele>
        <time>2017-03-24T15:56:55Z</time>
      </trkpt>
      <trkpt lat="45.83199" lon="2.8611">
        <ele>727</ele>
        <time>2017-03-24T15:56:35Z</time>
      </trkpt>
      <trkpt lat="45.83232" lon="2.86066">
        <ele>723</ele>
        <time>2017-03-24T15:56:15Z</time>
      </trkpt>
      <trkpt lat="45.83269" lon="2.86042">
        <ele>721</ele>
        <time>2017-03-24T15:55:55Z</time>
      </trkpt>
      <trkpt lat="45.83289" lon="2.85996">
        <ele>719</ele>
        <time>2017-03-24T15:55:35Z</time>
      </trkpt>
      <trkpt lat="45.83319" lon="2.86059">
        <ele>722</ele>
        <time>2017-03-24T15:55:15Z</time>
      </trkpt>
      <trkpt lat="45.83367" lon="2.86055">
        <ele>723</ele>
        <time>2017-03-24T15:54:55Z</time>
      </trkpt>
      <trkpt lat="45.83366" lon="2.85917">
        <ele>719.8</ele>
        <time>2017-03-24T15:54:35Z</time>
      </trkpt>
      <trkpt lat="45.83302" lon="2.85636">
        <ele>707.8</ele>
        <time>2017-03-24T15:54:15Z</time>
      </trkpt>
      <trkpt lat="45.83214" lon="2.8528">
        <ele>689</ele>
        <time>2017-03-24T16:30:35Z</time>
      </trkpt>
      <trkpt lat="45.83214" lon="2.85194">
        <ele>679.5</ele>
        <time>2017-03-24T16:30:15Z</time>
      </trkpt>
      <trkpt lat="45.83222" lon="2.85133">
        <ele>674.3</ele>
        <time>2017-03-24T16:29:55Z</time>
      </trkpt>
      <trkpt lat="45.83255" lon="2.85074">
        <ele>671.7</ele>
        <time>2017-03-24T16:29:35Z</time>
      </trkpt>
      <trkpt lat="45.83308" lon="2.84989">
        <ele>669.9</ele>
        <time>2017-03-24T16:29:15Z</time>
      </trkpt>
      <trkpt lat="45.83336" lon="2.8487">
        <ele>678.6</ele>
        <time>2017-03-24T16:28:55Z</time>
      </trkpt>
      <trkpt lat="45.83346" lon="2.84869">
        <ele>679.2</ele>
        <time>2017-03-24T16:28:35Z</time>
      </trkpt>
      <trkpt lat="45.83317" lon="2.84986">
        <ele>670</ele>
        <time>2017-03-24T16:28:15Z</time>
      </trkpt>
      <trkpt lat="45.8324" lon="2.85115">
        <ele>673.8</ele>
        <time>2017-03-24T16:27:55Z</time>
      </trkpt>
      <trkpt lat="45.83221" lon="2.85173">
        <ele>678.8</ele>
        <time>2017-03-24T16:27:35Z</time>
      </trkpt>
      <trkpt lat="45.83221" lon="2.85274">
        <ele>688.1</ele>
        <time>2017-03-24T16:27:15Z</time>
      </trkpt>
      <trkpt lat="45.83379" lon="2.85915">
        <ele>719.1</ele>
        <time>2017-03-24T16:26:55Z</time>
      </trkpt>
      <trkpt lat="45.83376" lon="2.86058">
        <ele>723.2</ele>
        <time>2017-03-24T16:26:35Z</time>
      </trkpt>
      <trkpt lat="45.83456" lon="2.86298">
        <ele>725</ele>
        <time>2017-03-24T16:26:15Z</time>
      </trkpt>
      <trkpt lat="45.83477" lon="2.86393">
        <ele>726</ele>
        <time>2017-03-24T16:25:55Z</time>
      </trkpt>
      <trkpt lat="45.83502" lon="2.86484">
        <ele>732</ele>
        <time>2017-03-24T16:25:35Z</time>
      </trkpt>
      <trkpt lat="45.83513" lon="2.86487">
        <ele>732</ele>
        <time>2017-03-24T16:25:15Z</time>
      </trkpt>
      <trkpt lat="45.83531" lon="2.86509">
        <ele>735</ele>
        <time>2017-03-24T16:24:55Z</time>
      </trkpt>
      <trkpt lat="45.8358" lon="2.86499">
        <ele>738</ele>
        <time>2017-03-24T16:24:35Z</time>
      </trkpt>
      <trkpt lat="45.83628" lon="2.86505">
        <ele>747</ele>
        <time>2017-03-24T16:24:15Z</time>
      </trkpt>
      <trkpt lat="45.83675" lon="2.86487">
        <ele>752</ele>
        <time>2017-03-24T16:23:55Z</time>
      </trkpt>
      <trkpt lat="45.83728" lon="2.86486">
        <ele>751</ele>
        <time>2017-03-24T16:23:35Z</time>
      </trkpt>
      <trkpt lat="45.83773" lon="2.86415">
        <ele>750</ele>
        <time>2017-03-24T16:23:15Z</time>
      </trkpt>
      <trkpt lat="45.83864" lon="2.86344">
        <ele>749</ele>
        <time>2017-03-24T16:22:55Z</time>
      </trkpt>
      <trkpt lat="45.83895" lon="2.86348">
        <ele>749</ele>
        <time>2017-03-24T16:22:35Z</time>
      </trkpt>
      <trkpt lat="45.83944" lon="2.86296">
        <ele>745</ele>
        <time>2017-03-24T16:22:15Z</time>
      </trkpt>
      <trkpt lat="45.83969" lon="2.86331">
        <ele>744</ele>
        <time>2017-03-24T16:21:55Z</time>
      </trkpt>
      <trkpt lat="45.83987" lon="2.86341">
        <ele>745</ele>
        <time>2017-03-24T16:21:35Z</time>
      </trkpt>
      <trkpt lat="45.84047" lon="2.86318">
        <ele>739</ele>
        <time>2017-03-24T16:21:15Z</time>
      </trkpt>
      <trkpt lat="45.84069" lon="2.86255">
        <ele>737</ele>
        <time>2017-03-24T16:20:55Z</time>
      </trkpt>
      <trkpt lat="45.84108" lon="2.86195">
        <ele>737</ele>
        <time>2017-03-24T16:20:35Z</time>
      </trkpt>
      <trkpt lat="45.84151" lon="2.86189">
        <ele>739</ele>
        <time>2017-03-24T16:20:15Z</time>
      </trkpt>
      <trkpt lat="45.8418" lon="2.86196">
        <ele>741</ele>
        <time>2017-03-24T16:19:55Z</time>
      </trkpt>
      <trkpt lat="45.84296" lon="2.86211">
        <ele>741</ele>
        <time>2017-03-24T16:19:35Z</time>
      </trkpt>
      <trkpt lat="45.84365" lon="2.86259">
        <ele>737</ele>
        <time>2017-03-24T16:19:15Z</time>
      </trkpt>
      <trkpt lat="45.84451" lon="2.86277">
        <ele>730</ele>
        <time>2017-03-24T16:18:55Z</time>
      </trkpt>
      <trkpt lat="45.84487" lon="2.86317">
        <ele>730</ele>
        <time>2017-03-24T16:18:35Z</time>
      </trkpt>
      <trkpt lat="45.84513" lon="2.86362">
        <ele>733</ele>
        <time>2017-03-24T16:18:15Z</time>
      </trkpt>
      <trkpt lat="45.8459" lon="2.86361">
        <ele>731</ele>
        <time>2017-03-24T16:17:55Z</time>
      </trkpt>
      <trkpt lat="45.84604" lon="2.86396">
        <ele>734</ele>
        <time>2017-03-24T16:17:35Z</time>
      </trkpt>
      <trkpt lat="45.84627" lon="2.86444">
        <ele>740</ele>
        <time>2017-03-24T16:17:15Z</time>
      </trkpt>
      <trkpt lat="45.84657" lon="2.86479">
        <ele>740</ele>
        <time>2017-03-24T16:16:55Z</time>
      </trkpt>
      <trkpt lat="45.84722" lon="2.86611">
        <ele>751</ele>
        <time>2017-03-24T16:16:35Z</time>
      </trkpt>
      <trkpt lat="45.84666" lon="2.86701">
        <ele>759</ele>
        <time>2017-03-24T16:16:15Z</time>
      </trkpt>
      <trkpt lat="45.84634" lon="2.86985">
        <ele>776</ele>
        <time>2017-03-24T16:15:55Z</time>
      </trkpt>
      <trkpt lat="45.84685" lon="2.87342">
        <ele>782</ele>
        <time>2017-03-24T16:15:35Z</time>
      </trkpt>
      <trkpt lat="45.84683" lon="2.87549">
        <ele>775</ele>
        <time>2017-03-24T16:15:15Z</time>
      </trkpt>
      <trkpt lat="45.84689" lon="2.87649">
        <ele>775</ele>
        <time>2017-03-24T16:14:55Z</time>
      </trkpt>
      <trkpt lat="45.84676" lon="2.87901">
        <ele>785</ele>
        <time>2017-03-24T16:14:35Z</time>
      </trkpt>
      <trkpt lat="45.84635" lon="2.88111">
        <ele>784</ele>
        <time>2017-03-24T16:14:15Z</time>
      </trkpt>
      <trkpt lat="45.8464" lon="2.88228">
        <ele>787</ele>
        <time>2017-03-24T16:13:55Z</time>
      </trkpt>
      <trkpt lat="45.84664" lon="2.88339">
        <ele>791</ele>
        <time>2017-03-24T16:13:35Z</time>
      </trkpt>
      <trkpt lat="45.84735" lon="2.88525">
        <ele>792</ele>
        <time>2017-03-24T16:13:15Z</time>
      </trkpt>
      <trkpt lat="45.84782" lon="2.88709">
        <ele>796</ele>
        <time>2017-03-24T16:12:55Z</time>
      </trkpt>
      <trkpt lat="45.84806" lon="2.88844">
        <ele>801</ele>
        <time>2017-03-24T16:12:35Z</time>
      </trkpt>
      <trkpt lat="45.84907" lon="2.89003">
        <ele>804</ele>
        <time>2017-03-24T16:12:15Z</time>
      </trkpt>
      <trkpt lat="45.84889" lon="2.89104">
        <ele>810</ele>
        <time>2017-03-24T16:11:55Z</time>
      </trkpt>
      <trkpt lat="45.84879" lon="2.89229">
        <ele>815</ele>
        <time>2017-03-24T16:11:35Z</time>
      </trkpt>
      <trkpt lat="45.84864" lon="2.89278">
        <ele>816</ele>
        <time>2017-03-24T16:11:15Z</time>
      </trkpt>
      <trkpt lat="45.84891" lon="2.89422">
        <ele>815</ele>
        <time>2017-03-24T16:10:55Z</time>
      </trkpt>
      <trkpt lat="45.84823" lon="2.89641">
        <ele>808</ele>
        <time>2017-03-24T16:10:35Z</time>
      </trkpt>
      <trkpt lat="45.84835" lon="2.89756">
        <ele>809</ele>
        <time>2017-03-24T16:10:15Z</time>
      </trkpt>
      <trkpt lat="45.84752" lon="2.89812">
        <ele>809</ele>
        <time>2017-03-24T16:09:55Z</time>
      </trkpt>
      <trkpt lat="45.84691" lon="2.8992">
        <ele>821</ele>
        <time>2017-03-24T16:09:35Z</time>
      </trkpt>
      <trkpt lat="45.84685" lon="2.90009">
        <ele>823</ele>
        <time>2017-03-24T16:09:15Z</time>
      </trkpt>
      <trkpt lat="45.84641" lon="2.90091">
        <ele>826</ele>
        <time>2017-03-24T16:08:55Z</time>
      </trkpt>
      <trkpt lat="45.84563" lon="2.9015">
        <ele>827</ele>
        <time>2017-03-24T16:08:35Z</time>
      </trkpt>
      <trkpt lat="45.84585" lon="2.90238">
        <ele>829</ele>
        <time>2017-03-24T16:08:15Z</time>
      </trkpt>
      <trkpt lat="45.8463" lon="2.90359">
        <ele>838</ele>
        <time>2017-03-24T16:07:55Z</time>
      </trkpt>
      <trkpt lat="45.84642" lon="2.90514">
        <ele>844</ele>
        <time>2017-03-24T16:07:35Z</time>
      </trkpt>
      <trkpt lat="45.84615" lon="2.90615">
        <ele>848</ele>
        <time>2017-03-24T16:07:15Z</time>
      </trkpt>
      <trkpt lat="45.84628" lon="2.90701">
        <ele>851</ele>
        <time>2017-03-24T16:06:55Z</time>
      </trkpt>
      <trkpt lat="45.84618" lon="2.90778">
        <ele>854</ele>
        <time>2017-03-24T16:06:35Z</time>
      </trkpt>
      <trkpt lat="45.84646" lon="2.90887">
        <ele>856</ele>
        <time>2017-03-24T16:06:15Z</time>
      </trkpt>
      <trkpt lat="45.84641" lon="2.91018">
        <ele>858</ele>
        <time>2017-03-24T16:05:55Z</time>
      </trkpt>
      <trkpt lat="45.84737" lon="2.91036">
        <ele>864</ele>
        <time>2017-03-24T16:05:35Z</time>
      </trkpt>
      <trkpt lat="45.84808" lon="2.91071">
        <ele>874</ele>
        <time>2017-03-24T16:05:15Z</time>
      </trkpt>
      <trkpt lat="45.8484" lon="2.91172">
        <ele>873</ele>
        <time>2017-03-24T16:04:55Z</time>
      </trkpt>
      <trkpt lat="45.84896" lon="2.91221">
        <ele>874</ele>
        <time>2017-03-24T16:04:35Z</time>
      </trkpt>
      <trkpt lat="45.85003" lon="2.91232">
        <ele>875</ele>
        <time>2017-03-24T16:04:15Z</time>
      </trkpt>
      <trkpt lat="45.85107" lon="2.91272">
        <ele>876</ele>
        <time>2017-03-24T16:03:55Z</time>
      </trkpt>
      <trkpt lat="45.85156" lon="2.91266">
        <ele>877</ele>
        <time>2017-03-24T16:03:35Z</time>
      </trkpt>
      <trkpt lat="45.85239" lon="2.91318">
        <ele>880</ele>
        <time>2017-03-24T16:03:15Z</time>
      </trkpt>
      <trkpt lat="45.85284" lon="2.91302">
        <ele>879</ele>
        <time>2017-03-24T16:02:55Z</time>
      </trkpt>
      <trkpt lat="45.85412" lon="2.91353">
        <ele>881</ele>
        <time>2017-03-24T16:02:35Z</time>
      </trkpt>
      <trkpt lat="45.85434" lon="2.91418">
        <ele>883</ele>
        <time>2017-03-24T16:02:15Z</time>
      </trkpt>
      <trkpt lat="45.85447" lon="2.91508">
        <ele>885</ele>
        <time>2017-03-24T16:01:55Z</time>
      </trkpt>
      <trkpt lat="45.85476" lon="2.91521">
        <ele>885</ele>
        <time>2017-03-24T16:01:35Z</time>
      </trkpt>
      <trkpt lat="45.85554" lon="2.91518">
        <ele>879</ele>
        <time>2017-03-24T16:01:15Z</time>
      </trkpt>
      <trkpt lat="45.85584" lon="2.91584">
        <ele>878</ele>
        <time>2017-03-24T16:00:55Z</time>
      </trkpt>
      <trkpt lat="45.85668" lon="2.91573">
        <ele>869</ele>
        <time>2017-03-24T16:00:35Z</time>
      </trkpt>
      <trkpt lat="45.8579" lon="2.91666">
        <ele>872</ele>
        <time>2017-03-24T16:00:15Z</time>
      </trkpt>
      <trkpt lat="45.85887" lon="2.91823">
        <ele>876</ele>
        <time>2017-03-24T15:59:55Z</time>
      </trkpt>
      <trkpt lat="45.85881" lon="2.91812">
        <ele>875</ele>
        <time>2017-03-24T15:59:35Z</time>
      </trkpt>
      <trkpt lat="45.85877" lon="2.91775">
        <ele>875</ele>
        <time>2017-03-24T15:59:15Z</time>
      </trkpt>
      <trkpt lat="45.85891" lon="2.9177">
        <ele>875</ele>
        <time>2017-03-24T15:58:55Z</time>
      </trkpt>
      <trkpt lat="45.85912" lon="2.91798">
        <ele>875</ele>
        <time>2017-03-24T15:58:35Z</time>
      </trkpt>
      <trkpt lat="45.85989" lon="2.91809">
        <ele>873</ele>
        <time>2017-03-24T15:58:15Z</time>
      </trkpt>
      <trkpt lat="45.8617" lon="2.91793">
        <ele>869</ele>
        <time>2017-03-24T15:57:55Z</time>
      </trkpt>
      <trkpt lat="45.86212" lon="2.91644">
        <ele>869</ele>
        <time>2017-03-24T15:57:35Z</time>
      </trkpt>
      <trkpt lat="45.8626" lon="2.91594">
        <ele>871</ele>
        <time>2017-03-24T15:57:15Z</time>
      </trkpt>
      <trkpt lat="45.86348" lon="2.914">
        <ele>859</ele>
        <time>2017-03-24T15:56:55Z</time>
      </trkpt>
      <trkpt lat="45.86366" lon="2.91383">
        <ele>859</ele>
        <time>2017-03-24T15:56:35Z</time>
      </trkpt>
      <trkpt lat="45.8638" lon="2.91382">
        <ele>858</ele>
        <time>2017-03-24T15:56:15Z</time>
      </trkpt>
      <trkpt lat="45.86448" lon="2.91391">
        <ele>858</ele>
        <time>2017-03-24T15:55:55Z</time>
      </trkpt>
      <trkpt lat="45.86482" lon="2.91358">
        <ele>859</ele>
        <time>2017-03-24T15:55:35Z</time>
      </trkpt>
      <trkpt lat="45.86556" lon="2.91342">
        <ele>864</ele>
        <time>2017-03-24T15:55:15Z</time>
      </trkpt>
      <trkpt lat="45.86615" lon="2.91313">
        <ele>871</ele>
        <time>2017-03-24T15:54:55Z</time>
      </trkpt>
      <trkpt lat="45.86644" lon="2.91286">
        <ele>871</ele>
        <time>2017-03-24T15:54:35Z</time>
      </trkpt>
      <trkpt lat="45.86679" lon="2.91229">
        <ele>868</ele>
        <time>2017-03-24T15:54:15Z</time>
      </trkpt>
      <trkpt lat="45.86734" lon="2.91086">
        <ele>859</ele>
        <time>2017-03-24T15:53:55Z</time>
      </trkpt>
      <trkpt lat="45.86737" lon="2.91026">
        <ele>857</ele>
        <time>2017-03-24T15:53:35Z</time>
      </trkpt>
      <trkpt lat="45.86756" lon="2.90976">
        <ele>852</ele>
        <time>2017-03-24T15:53:15Z</time>
      </trkpt>
      <trkpt lat="45.86742" lon="2.90918">
        <ele>851</ele>
        <time>2017-03-24T15:52:55Z</time>
      </trkpt>
      <trkpt lat="45.86705" lon="2.90839">
        <ele>847</ele>
        <time>2017-03-24T15:52:35Z</time>
      </trkpt>
      <trkpt lat="45.86674" lon="2.90793">
        <ele>839</ele>
        <time>2017-03-24T15:52:15Z</time>
      </trkpt>
      <trkpt lat="45.86658" lon="2.90782">
        <ele>843</ele>
        <time>2017-03-24T15:51:55Z</time>
      </trkpt>
      <trkpt lat="45.86647" lon="2.90761">
        <ele>842</ele>
        <time>2017-03-24T15:51:35Z</time>
      </trkpt>
      <trkpt lat="45.8664" lon="2.90712">
        <ele>838</ele>
        <time>2017-03-24T15:51:15Z</time>
      </trkpt>
      <trkpt lat="45.86661" lon="2.90659">
        <ele>833</ele>
        <time>2017-03-24T15:50:55Z</time>
      </trkpt>
      <trkpt lat="45.86666" lon="2.90548">
        <ele>826</ele>
        <time>2017-03-24T15:50:35Z</time>
      </trkpt>
      <trkpt lat="45.86594" lon="2.90426">
        <ele>819</ele>
        <time>2017-03-24T15:50:15Z</time>
      </trkpt>
      <trkpt lat="45.86617" lon="2.90344">
        <ele>817</ele>
        <time>2017-03-24T15:49:55Z</time>
      </trkpt>
      <trkpt lat="45.86611" lon="2.90271">
        <ele>815</ele>
        <time>2017-03-24T15:49:35Z</time>
      </trkpt>
      <trkpt lat="45.8661" lon="2.90219">
        <ele>813</ele>
        <time>2017-03-24T15:49:15Z</time>
      </trkpt>
      <trkpt lat="45.86603" lon="2.90184">
        <ele>811</ele>
        <time>2017-03-24T15:48:55Z</time>
      </trkpt>
      <trkpt lat="45.86576" lon="2.90096">
        <ele>805</ele>
        <time>2017-03-24T15:48:35Z</time>
      </trkpt>
      <trkpt lat="45.8656" lon="2.90078">
        <ele>803</ele>
        <time>2017-03-24T15:48:15Z</time>
      </trkpt>
      <trkpt lat="45.86553" lon="2.90038">
        <ele>803</ele>
        <time>2017-03-24T15:47:55Z</time>
      </trkpt>
      <trkpt lat="45.86559" lon="2.90013">
        <ele>804</ele>
        <time>2017-03-24T15:47:35Z</time>
      </trkpt>
      <trkpt lat="45.86551" lon="2.89989">
        <ele>804</ele>
        <time>2017-03-24T15:47:15Z</time>
      </trkpt>
      <trkpt lat="45.86551" lon="2.89943">
        <ele>804</ele>
        <time>2017-03-24T15:46:55Z</time>
      </trkpt>
      <trkpt lat="45.86523" lon="2.89917">
        <ele>802</ele>
        <time>2017-03-24T15:46:35Z</time>
      </trkpt>
      <trkpt lat="45.86507" lon="2.89888">
        <ele>801</ele>
        <time>2017-03-24T15:46:15Z</time>
      </trkpt>
      <trkpt lat="45.86479" lon="2.89839">
        <ele>796</ele>
        <time>2017-03-24T15:45:55Z</time>
      </trkpt>
      <trkpt lat="45.86449" lon="2.89777">
        <ele>791</ele>
        <time>2017-03-24T15:45:35Z</time>
      </trkpt>
      <trkpt lat="45.86429" lon="2.89755">
        <ele>789</ele>
        <time>2017-03-24T15:45:15Z</time>
      </trkpt>
      <trkpt lat="45.86403" lon="2.89749">
        <ele>785</ele>
        <time>2017-03-24T15:44:55Z</time>
      </trkpt>
      <trkpt lat="45.86407" lon="2.89716">
        <ele>784</ele>
        <time>2017-03-24T15:44:35Z</time>
      </trkpt>
      <trkpt lat="45.86435" lon="2.89696">
        <ele>785</ele>
        <time>2017-03-24T15:44:15Z</time>
      </trkpt>
      <trkpt lat="45.86488" lon="2.89676">
        <ele>788</ele>
        <time>2017-03-24T15:43:55Z</time>
      </trkpt>
      <trkpt lat="45.86508" lon="2.89633">
        <ele>792</ele>
        <time>2017-03-24T15:43:35Z</time>
      </trkpt>
      <trkpt lat="45.8652" lon="2.89592">
        <ele>791</ele>
        <time>2017-03-24T15:43:15Z</time>
      </trkpt>
      <trkpt lat="45.86513" lon="2.89555">
        <ele>792</ele>
        <time>2017-03-24T15:42:55Z</time>
      </trkpt>
      <trkpt lat="45.86513" lon="2.89522">
        <ele>792</ele>
        <time>2017-03-24T15:42:35Z</time>
      </trkpt>
      <trkpt lat="45.8649" lon="2.89469">
        <ele>789</ele>
        <time>2017-03-24T15:42:15Z</time>
      </trkpt>
      <trkpt lat="45.86458" lon="2.89331">
        <ele>787</ele>
        <time>2017-03-24T15:41:55Z</time>
      </trkpt>
      <trkpt lat="45.86383" lon="2.89269">
        <ele>780</ele>
        <time>2017-03-24T15:41:35Z</time>
      </trkpt>
      <trkpt lat="45.86361" lon="2.89105">
        <ele>780</ele>
        <time>2017-03-24T15:41:15Z</time>
      </trkpt>
      <trkpt lat="45.86359" lon="2.89056">
        <ele>782</ele>
        <time>2017-03-24T15:40:55Z</time>
      </trkpt>
      <trkpt lat="45.86339" lon="2.88899">
        <ele>784</ele>
        <time>2017-03-24T15:40:35Z</time>
      </trkpt>
      <trkpt lat="45.86326" lon="2.88846">
        <ele>778</ele>
        <time>2017-03-24T15:40:15Z</time>
      </trkpt>
      <trkpt lat="45.86321" lon="2.88779">
        <ele>776</ele>
        <time>2017-03-24T15:39:55Z</time>
      </trkpt>
      <trkpt lat="45.86308" lon="2.88745">
        <ele>777</ele>
        <time>2017-03-24T15:39:35Z</time>
      </trkpt>
      <trkpt lat="45.86365" lon="2.88681">
        <ele>782</ele>
        <time>2017-03-24T15:39:15Z</time>
      </trkpt>
      <trkpt lat="45.86393" lon="2.8866">
        <ele>782</ele>
        <time>2017-03-24T15:38:55Z</time>
      </trkpt>
      <trkpt lat="45.86416" lon="2.88623">
        <ele>782</ele>
        <time>2017-03-24T15:38:35Z</time>
      </trkpt>
      <trkpt lat="45.86522" lon="2.88551">
        <ele>796</ele>
        <time>2017-03-24T15:38:15Z</time>
      </trkpt>
      <trkpt lat="45.86548" lon="2.88532">
        <ele>797</ele>
        <time>2017-03-24T15:37:55Z</time>
      </trkpt>
      <trkpt lat="45.86568" lon="2.88501">
        <ele>799</ele>
        <time>2017-03-24T15:37:35Z</time>
      </trkpt>
      <trkpt lat="45.8658" lon="2.88431">
        <ele>801</ele>
        <time>2017-03-24T15:37:15Z</time>
      </trkpt>
      <trkpt lat="45.86578" lon="2.88381">
        <ele>802</ele>
        <time>2017-03-24T15:36:55Z</time>
      </trkpt>
      <trkpt lat="45.86571" lon="2.88337">
        <ele>803</ele>
        <time>2017-03-24T15:36:35Z</time>
      </trkpt>
      <trkpt lat="45.8654" lon="2.88271">
        <ele>804</ele>
        <time>2017-03-24T15:36:15Z</time>
      </trkpt>
      <trkpt lat="45.86534" lon="2.88237">
        <ele>806</ele>
        <time>2017-03-24T15:35:55Z</time>
      </trkpt>
      <trkpt lat="45.86538" lon="2.88194">
        <ele>807</ele>
        <time>2017-03-24T15:35:35Z</time>
      </trkpt>
      <trkpt lat="45.86573" lon="2.88226">
        <ele>808</ele>
        <time>2017-03-24T15:35:15Z</time>
      </trkpt>
      <trkpt lat="45.86629" lon="2.88205">
        <ele>817</ele>
        <time>2017-03-24T15:34:55Z</time>
      </trkpt>
      <trkpt lat="45.86647" lon="2.88171">
        <ele>819</ele>
        <time>2017-03-24T15:34:35Z</time>
      </trkpt>
      <trkpt lat="45.86654" lon="2.8812">
        <ele>820</ele>
        <time>2017-03-24T15:34:15Z</time>
      </trkpt>
      <trkpt lat="45.86655" lon="2.88034">
        <ele>820</ele>
        <time>2017-03-24T15:33:55Z</time>
      </trkpt>
      <trkpt lat="45.86674" lon="2.87986">
        <ele>824</ele>
        <time>2017-03-24T15:33:35Z</time>
      </trkpt>
      <trkpt lat="45.86694" lon="2.87873">
        <ele>822</ele>
        <time>2017-03-24T15:33:15Z</time>
      </trkpt>
      <trkpt lat="45.86697" lon="2.87794">
        <ele>821</ele>
        <time>2017-03-24T15:32:55Z</time>
      </trkpt>
      <trkpt lat="45.86689" lon="2.8759">
        <ele>822</ele>
        <time>2017-03-24T15:32:35Z</time>
      </trkpt>
      <trkpt lat="45.86659" lon="2.87435">
        <ele>815</ele>
        <time>2017-03-24T15:32:15Z</time>
      </trkpt>
      <trkpt lat="45.86642" lon="2.87231">
        <ele>806</ele>
        <time>2017-03-24T15:31:55Z</time>
      </trkpt>
      <trkpt lat="45.86645" lon="2.87182">
        <ele>805</ele>
        <time>2017-03-24T15:31:35Z</time>
      </trkpt>
      <trkpt lat="45.86663" lon="2.87165">
        <ele>803</ele>
        <time>2017-03-24T15:31:15Z</time>
      </trkpt>
      <trkpt lat="45.8678" lon="2.87155">
        <ele>798</ele>
        <time>2017-03-24T15:30:55Z</time>
      </trkpt>
      <trkpt lat="45.86831" lon="2.8718">
        <ele>800</ele>
        <time>2017-03-24T15:30:35Z</time>
      </trkpt>
      <trkpt lat="45.86852" lon="2.87158">
        <ele>798</ele>
        <time>2017-03-24T15:30:15Z</time>
      </trkpt>
      <trkpt lat="45.86877" lon="2.87103">
        <ele>798</ele>
        <time>2017-03-24T15:29:55Z</time>
      </trkpt>
      <trkpt lat="45.86879" lon="2.87033">
        <ele>795</ele>
        <time>2017-03-24T15:29:35Z</time>
      </trkpt>
      <trkpt lat="45.86886" lon="2.86985">
        <ele>794</ele>
        <time>2017-03-24T15:29:15Z</time>
      </trkpt>
      <trkpt lat="45.86887" lon="2.8687">
        <ele>793</ele>
        <time>2017-03-24T15:28:55Z</time>
      </trkpt>
      <trkpt lat="45.86893" lon="2.86803">
        <ele>793</ele>
        <time>2017-03-24T15:28:35Z</time>
      </trkpt>
      <trkpt lat="45.86906" lon="2.86747">
        <ele>792</ele>
        <time>2017-03-24T15:28:15Z</time>
      </trkpt>
      <trkpt lat="45.86898" lon="2.86688">
        <ele>791</ele>
        <time>2017-03-24T15:27:55Z</time>
      </trkpt>
      <trkpt lat="45.86882" lon="2.8663">
        <ele>790</ele>
        <time>2017-03-24T15:27:35Z</time>
      </trkpt>
      <trkpt lat="45.8688" lon="2.86574">
        <ele>789</ele>
        <time>2017-03-24T15:27:15Z</time>
      </trkpt>
      <trkpt lat="45.86899" lon="2.86477">
        <ele>786</ele>
        <time>2017-03-24T15:26:55Z</time>
      </trkpt>
      <trkpt lat="45.86913" lon="2.86459">
        <ele>785</ele>
        <time>2017-03-24T15:26:35Z</time>
      </trkpt>
      <trkpt lat="45.86928" lon="2.8643">
        <ele>787</ele>
        <time>2017-03-24T15:26:15Z</time>
      </trkpt>
      <trkpt lat="45.87005" lon="2.86327">
        <ele>788</ele>
        <time>2017-03-24T15:25:55Z</time>
      </trkpt>
      <trkpt lat="45.87025" lon="2.86268">
        <ele>791</ele>
        <time>2017-03-24T15:25:35Z</time>
      </trkpt>
      <trkpt lat="45.87027" lon="2.86207">
        <ele>792</ele>
        <time>2017-03-24T15:25:15Z</time>
      </trkpt>
      <trkpt lat="45.87019" lon="2.86165">
        <ele>791</ele>
        <time>2017-03-24T15:24:55Z</time>
      </trkpt>
      <trkpt lat="45.86996" lon="2.86135">
        <ele>786</ele>
        <time>2017-03-24T15:24:35Z</time>
      </trkpt>
      <trkpt lat="45.86979" lon="2.8609">
        <ele>787</ele>
        <time>2017-03-24T15:24:15Z</time>
      </trkpt>
      <trkpt lat="45.86973" lon="2.86027">
        <ele>785</ele>
        <time>2017-03-24T15:23:55Z</time>
      </trkpt>
      <trkpt lat="45.86951" lon="2.85994">
        <ele>781</ele>
        <time>2017-03-24T15:23:35Z</time>
      </trkpt>
      <trkpt lat="45.86866" lon="2.85967">
        <ele>776</ele>
        <time>2017-03-24T15:23:15Z</time>
      </trkpt>
      <trkpt lat="45.86847" lon="2.85946">
        <ele>775</ele>
        <time>2017-03-24T15:22:55Z</time>
      </trkpt>
      <trkpt lat="45.8682" lon="2.85851">
        <ele>772</ele>
        <time>2017-03-24T15:22:35Z</time>
      </trkpt>
      <trkpt lat="45.86803" lon="2.85758">
        <ele>769</ele>
        <time>2017-03-24T15:22:15Z</time>
      </trkpt>
      <trkpt lat="45.86809" lon="2.85751">
        <ele>768</ele>
        <time>2017-03-24T15:21:55Z</time>
      </trkpt>
      <trkpt lat="45.86806" lon="2.85723">
        <ele>765</ele>
        <time>2017-03-24T15:21:35Z</time>
      </trkpt>
      <trkpt lat="45.86835" lon="2.8571">
        <ele>758</ele>
        <time>2017-03-24T15:21:15Z</time>
      </trkpt>
      <trkpt lat="45.86894" lon="2.85684">
        <ele>752</ele>
        <time>2017-03-24T15:20:55Z</time>
      </trkpt>
      <trkpt lat="45.86922" lon="2.85682">
        <ele>750</ele>
        <time>2017-03-24T15:20:35Z</time>
      </trkpt>
      <trkpt lat="45.86951" lon="2.8558">
        <ele>737</ele>
        <time>2017-03-24T15:20:15Z</time>
      </trkpt>
      <trkpt lat="45.86933" lon="2.85489">
        <ele>728</ele>
        <time>2017-03-24T15:19:55Z</time>
      </trkpt>
      <trkpt lat="45.86943" lon="2.85407">
        <ele>723</ele>
        <time>2017-03-24T15:19:35Z</time>
      </trkpt>
      <trkpt lat="45.86933" lon="2.85365">
        <ele>722</ele>
        <time>2017-03-24T15:19:15Z</time>
      </trkpt>
      <trkpt lat="45.86934" lon="2.85306">
        <ele>720</ele>
        <time>2017-03-24T15:18:55Z</time>
      </trkpt>
      <trkpt lat="45.86918" lon="2.85221">
        <ele>715</ele>
        <time>2017-03-24T15:18:35Z</time>
      </trkpt>
      <trkpt lat="45.86897" lon="2.85163">
        <ele>698</ele>
        <time>2017-03-24T15:18:15Z</time>
      </trkpt>
      <trkpt lat="45.86877" lon="2.85132">
        <ele>692</ele>
        <time>2017-03-24T15:17:55Z</time>
      </trkpt>
      <trkpt lat="45.86843" lon="2.84988">
        <ele>679</ele>
        <time>2017-03-24T15:17:35Z</time>
      </trkpt>
      <trkpt lat="45.86841" lon="2.84957">
        <ele>679</ele>
        <time>2017-03-24T15:17:15Z</time>
      </trkpt>
      <trkpt lat="45.86853" lon="2.84948">
        <ele>679</ele>
        <time>2017-03-24T15:16:55Z</time>
      </trkpt>
      <trkpt lat="45.86874" lon="2.84957">
        <ele>681</ele>
        <time>2017-03-24T15:16:35Z</time>
      </trkpt>
      <trkpt lat="45.86924" lon="2.85021">
        <ele>698</ele>
        <time>2017-03-24T15:16:15Z</time>
      </trkpt>
      <trkpt lat="45.86941" lon="2.85009">
        <ele>698</ele>
        <time>2017-03-24T15:15:55Z</time>
      </trkpt>
      <trkpt lat="45.86934" lon="2.84957">
        <ele>690</ele>
        <time>2017-03-24T15:15:35Z</time>
      </trkpt>
      <trkpt lat="45.8696" lon="2.84831">
        <ele>670</ele>
        <time>2017-03-24T15:15:15Z</time>
      </trkpt>
      <trkpt lat="45.86941" lon="2.8475">
        <ele>654</ele>
        <time>2017-03-24T15:14:55Z</time>
      </trkpt>
      <trkpt lat="45.86938" lon="2.84677">
        <ele>648</ele>
        <time>2017-03-24T15:14:35Z</time>
      </trkpt>
      <trkpt lat="45.86922" lon="2.84644">
        <ele>640</ele>
        <time>2017-03-24T15:14:15Z</time>
      </trkpt>
      <trkpt lat="45.86882" lon="2.84608">
        <ele>629</ele>
        <time>2017-03-24T15:13:55Z</time>
      </trkpt>
      <trkpt lat="45.8688" lon="2.84578">
        <ele>620</ele>
        <time>2017-03-24T15:13:35Z</time>
      </trkpt>
      <trkpt lat="45.86854" lon="2.84572">
        <ele>618</ele>
        <time>2017-03-24T15:13:15Z</time>
      </trkpt>
      <trkpt lat="45.86848" lon="2.8455">
        <ele>617</ele>
        <time>2017-03-24T15:12:55Z</time>
      </trkpt>
      <trkpt lat="45.86853" lon="2.84541">
        <ele>617</ele>
        <time>2017-03-24T15:12:35Z</time>
      </trkpt>
      <trkpt lat="45.86868" lon="2.84537">
        <ele>617</ele>
        <time>2017-03-24T15:12:15Z</time>
      </trkpt>
      <trkpt lat="45.86893" lon="2.84557">
        <ele>620</ele>
        <time>2017-03-24T15:11:55Z</time>
      </trkpt>
      <trkpt lat="45.86917" lon="2.84562">
        <ele>630</ele>
        <time>2017-03-24T15:11:35Z</time>
      </trkpt>
      <trkpt lat="45.86926" lon="2.84549">
        <ele>631</ele>
        <time>2017-03-24T15:11:15Z</time>
      </trkpt>
      <trkpt lat="45.86928" lon="2.8453">
        <ele>631</ele>
        <time>2017-03-24T15:10:55Z</time>
      </trkpt>
      <trkpt lat="45.86872" lon="2.84444">
        <ele>615</ele>
        <time>2017-03-24T15:10:35Z</time>
      </trkpt>
      <trkpt lat="45.86856" lon="2.84394">
        <ele>612</ele>
        <time>2017-03-24T15:10:15Z</time>
      </trkpt>
      <trkpt lat="45.86857" lon="2.84341">
        <ele>611</ele>
        <time>2017-03-24T15:09:55Z</time>
      </trkpt>
      <trkpt lat="45.86866" lon="2.84296">
        <ele>611</ele>
        <time>2017-03-24T15:09:35Z</time>
      </trkpt>
      <trkpt lat="45.86925" lon="2.84296">
        <ele>628</ele>
        <time>2017-03-24T15:09:15Z</time>
      </trkpt>
      <trkpt lat="45.86989" lon="2.84248">
        <ele>631</ele>
        <time>2017-03-24T15:08:55Z</time>
      </trkpt>
      <trkpt lat="45.86982" lon="2.84223">
        <ele>628</ele>
        <time>2017-03-24T15:08:35Z</time>
      </trkpt>
      <trkpt lat="45.87072" lon="2.84236">
        <ele>644</ele>
        <time>2017-03-24T15:08:15Z</time>
      </trkpt>
      <trkpt lat="45.87083" lon="2.84261">
        <ele>655</ele>
        <time>2017-03-24T15:07:55Z</time>
      </trkpt>
      <trkpt lat="45.87062" lon="2.84303">
        <ele>652</ele>
        <time>2017-03-24T15:07:35Z</time>
      </trkpt>
      <trkpt lat="45.8703" lon="2.84405">
        <ele>662</ele>
        <time>2017-03-24T15:07:15Z</time>
      </trkpt>
      <trkpt lat="45.87024" lon="2.84443">
        <ele>666</ele>
        <time>2017-03-24T15:06:55Z</time>
      </trkpt>
      <trkpt lat="45.87028" lon="2.84464">
        <ele>666</ele>
        <time>2017-03-24T15:06:35Z</time>
      </trkpt>
      <trkpt lat="45.87059" lon="2.84513">
        <ele>670</ele>
        <time>2017-03-24T15:06:15Z</time>
      </trkpt>
      <trkpt lat="45.8711" lon="2.84554">
        <ele>689</ele>
        <time>2017-03-24T15:05:55Z</time>
      </trkpt>
      <trkpt lat="45.87169" lon="2.8459">
        <ele>701</ele>
        <time>2017-03-24T15:05:35Z</time>
      </trkpt>
      <trkpt lat="45.87225" lon="2.84586">
        <ele>709</ele>
        <time>2017-03-24T15:05:15Z</time>
      </trkpt>
      <trkpt lat="45.87282" lon="2.84595">
        <ele>723</ele>
        <time>2017-03-24T15:04:55Z</time>
      </trkpt>
      <trkpt lat="45.8731" lon="2.84645">
        <ele>725</ele>
        <time>2017-03-24T15:04:35Z</time>
      </trkpt>
      <trkpt lat="45.87343" lon="2.84671">
        <ele>733</ele>
        <time>2017-03-24T15:04:15Z</time>
      </trkpt>
      <trkpt lat="45.8739" lon="2.84676">
        <ele>737</ele>
        <time>2017-03-24T15:03:55Z</time>
      </trkpt>
      <trkpt lat="45.87436" lon="2.84699">
        <ele>745</ele>
        <time>2017-03-24T15:03:35Z</time>
      </trkpt>
      <trkpt lat="45.87489" lon="2.84686">
        <ele>748</ele>
        <time>2017-03-24T15:03:15Z</time>
      </trkpt>
      <trkpt lat="45.87515" lon="2.84659">
        <ele>752</ele>
        <time>2017-03-24T15:02:55Z</time>
      </trkpt>
      <trkpt lat="45.87544" lon="2.84618">
        <ele>753</ele>
        <time>2017-03-24T15:02:35Z</time>
      </trkpt>
      <trkpt lat="45.8757" lon="2.84611">
        <ele>754</ele>
        <time>2017-03-24T15:02:15Z</time>
      </trkpt>
      <trkpt lat="45.87584" lon="2.84624">
        <ele>760</ele>
        <time>2017-03-24T15:01:55Z</time>
      </trkpt>
      <trkpt lat="45.87632" lon="2.84618">
        <ele>762</ele>
        <time>2017-03-24T15:01:35Z</time>
      </trkpt>
      <trkpt lat="45.87677" lon="2.84626">
        <ele>764</ele>
        <time>2017-03-24T15:01:15Z</time>
      </trkpt>
      <trkpt lat="45.87718" lon="2.8456">
        <ele>763</ele>
        <time>2017-03-24T15:00:55Z</time>
      </trkpt>
      <trkpt lat="45.87833" lon="2.84473">
        <ele>760</ele>
        <time>2017-03-24T15:00:35Z</time>
      </trkpt>
      <trkpt lat="45.87881" lon="2.84457">
        <ele>751</ele>
        <time>2017-03-24T15:00:15Z</time>
      </trkpt>
      <trkpt lat="45.87925" lon="2.84458">
        <ele>741</ele>
        <time>2017-03-24T14:59:55Z</time>
      </trkpt>
      <trkpt lat="45.87984" lon="2.84443">
        <ele>739</ele>
        <time>2017-03-24T14:59:35Z</time>
      </trkpt>
      <trkpt lat="45.88011" lon="2.84465">
        <ele>731</ele>
        <time>2017-03-24T14:59:15Z</time>
      </trkpt>
      <trkpt lat="45.8806" lon="2.84533">
        <ele>727</ele>
        <time>2017-03-24T14:58:55Z</time>
      </trkpt>
      <trkpt lat="45.88081" lon="2.84548">
        <ele>726</ele>
        <time>2017-03-24T14:58:35Z</time>
      </trkpt>
      <trkpt lat="45.88105" lon="2.84544">
        <ele>712</ele>
        <time>2017-03-24T14:58:15Z</time>
      </trkpt>
      <trkpt lat="45.8812" lon="2.84512">
        <ele>711</ele>
        <time>2017-03-24T14:57:55Z</time>
      </trkpt>
      <trkpt lat="45.88123" lon="2.84475">
        <ele>708</ele>
        <time>2017-03-24T14:57:35Z</time>
      </trkpt>
      <trkpt lat="45.88112" lon="2.84416">
        <ele>704</ele>
        <time>2017-03-24T14:57:15Z</time>
      </trkpt>
      <trkpt lat="45.88116" lon="2.84383">
        <ele>700</ele>
        <time>2017-03-24T14:56:55Z</time>
      </trkpt>
      <trkpt lat="45.88144" lon="2.84328">
        <ele>687</ele>
        <time>2017-03-24T14:56:35Z</time>
      </trkpt>
      <trkpt lat="45.88144" lon="2.84304">
        <ele>687</ele>
        <time>2017-03-24T14:56:15Z</time>
      </trkpt>
      <trkpt lat="45.88123" lon="2.84311">
        <ele>689</ele>
        <time>2017-03-24T14:55:55Z</time>
      </trkpt>
      <trkpt lat="45.88095" lon="2.84283">
        <ele>688</ele>
        <time>2017-03-24T14:55:35Z</time>
      </trkpt>
      <trkpt lat="45.8815" lon="2.84184">
        <ele>693</ele>
        <time>2017-03-24T14:55:15Z</time>
      </trkpt>
      <trkpt lat="45.88144" lon="2.84173">
        <ele>694</ele>
        <time>2017-03-24T14:54:55Z</time>
      </trkpt>
      <trkpt lat="45.88114" lon="2.84186">
        <ele>688</ele>
        <time>2017-03-24T14:54:35Z</time>
      </trkpt>
      <trkpt lat="45.88074" lon="2.84135">
        <ele>688</ele>
        <time>2017-03-24T14:54:15Z</time>
      </trkpt>
      <trkpt lat="45.88062" lon="2.84068">
        <ele>694</ele>
        <time>2017-03-24T14:53:55Z</time>
      </trkpt>
      <trkpt lat="45.88072" lon="2.83997">
        <ele>705</ele>
        <time>2017-03-24T14:53:35Z</time>
      </trkpt>
      <trkpt lat="45.88075" lon="2.83894">
        <ele>707</ele>
        <time>2017-03-24T14:53:15Z</time>
      </trkpt>
      <trkpt lat="45.88066" lon="2.83834">
        <ele>711</ele>
        <time>2017-03-24T14:52:55Z</time>
      </trkpt>
      <trkpt lat="45.88017" lon="2.83718">
        <ele>716</ele>
        <time>2017-03-24T14:52:35Z</time>
      </trkpt>
      <trkpt lat="45.88038" lon="2.83693">
        <ele>719</ele>
        <time>2017-03-24T14:52:15Z</time>
      </trkpt>
      <trkpt lat="45.87775" lon="2.8356">
        <ele>724</ele>
        <time>2017-03-24T14:51:55Z</time>
      </trkpt>
      <trkpt lat="45.877" lon="2.83495">
        <ele>721</ele>
        <time>2017-03-24T14:51:35Z</time>
      </trkpt>
      <trkpt lat="45.87644" lon="2.83414">
        <ele>716</ele>
        <time>2017-03-24T14:51:15Z</time>
      </trkpt>
      <trkpt lat="45.8759" lon="2.83403">
        <ele>717</ele>
        <time>2017-03-24T14:50:55Z</time>
      </trkpt>
      <trkpt lat="45.87532" lon="2.83337">
        <ele>710</ele>
        <time>2017-03-24T14:50:35Z</time>
      </trkpt>
      <trkpt lat="45.87417" lon="2.83281">
        <ele>709</ele>
        <time>2017-03-24T14:50:15Z</time>
      </trkpt>
      <trkpt lat="45.87349" lon="2.83261">
        <ele>708</ele>
        <time>2017-03-24T14:49:55Z</time>
      </trkpt>
      <trkpt lat="45.87337" lon="2.83197">
        <ele>706</ele>
        <time>2017-03-24T14:49:35Z</time>
      </trkpt>
      <trkpt lat="45.87382" lon="2.83008">
        <ele>700</ele>
        <time>2017-03-24T14:49:15Z</time>
      </trkpt>
      <trkpt lat="45.87403" lon="2.82946">
        <ele>698</ele>
        <time>2017-03-24T14:48:55Z</time>
      </trkpt>
      <trkpt lat="45.87402" lon="2.82871">
        <ele>691</ele>
        <time>2017-03-24T14:48:35Z</time>
      </trkpt>
      <trkpt lat="45.87458" lon="2.8277">
        <ele>691</ele>
        <time>2017-03-24T14:48:15Z</time>
      </trkpt>
      <trkpt lat="45.87451" lon="2.82727">
        <ele>685</ele>
        <time>2017-03-24T14:47:55Z</time>
      </trkpt>
      <trkpt lat="45.87458" lon="2.82656">
        <ele>681</ele>
        <time>2017-03-24T14:47:35Z</time>
      </trkpt>
      <trkpt lat="45.87487" lon="2.82504">
        <ele>680</ele>
        <time>2017-03-24T14:47:15Z</time>
      </trkpt>
      <trkpt lat="45.87538" lon="2.8241">
        <ele>675</ele>
        <time>2017-03-24T14:46:55Z</time>
      </trkpt>
      <trkpt lat="45.87596" lon="2.82341">
        <ele>672</ele>
        <time>2017-03-24T14:46:35Z</time>
      </trkpt>
      <trkpt lat="45.87587" lon="2.82289">
        <ele>655</ele>
        <time>2017-03-24T14:46:15Z</time>
      </trkpt>
      <trkpt lat="45.87627" lon="2.82298">
        <ele>653</ele>
        <time>2017-03-24T14:45:55Z</time>
      </trkpt>
      <trkpt lat="45.87689" lon="2.82375">
        <ele>651</ele>
        <time>2017-03-24T14:45:35Z</time>
      </trkpt>
      <trkpt lat="45.87715" lon="2.82384">
        <ele>646</ele>
        <time>2017-03-24T14:45:15Z</time>
      </trkpt>
      <trkpt lat="45.87714" lon="2.82216">
        <ele>606</ele>
        <time>2017-03-24T14:44:55Z</time>
      </trkpt>
      <trkpt lat="45.87751" lon="2.82304">
        <ele>604</ele>
        <time>2017-03-24T14:44:35Z</time>
      </trkpt>
      <trkpt lat="45.87771" lon="2.82294">
        <ele>600</ele>
        <time>2017-03-24T14:44:15Z</time>
      </trkpt>
      <trkpt lat="45.87759" lon="2.82227">
        <ele>594</ele>
        <time>2017-03-24T14:43:55Z</time>
      </trkpt>
      <trkpt lat="45.87756" lon="2.82146">
        <ele>581</ele>
        <time>2017-03-24T14:43:35Z</time>
      </trkpt>
      <trkpt lat="45.87796" lon="2.82107">
        <ele>577</ele>
        <time>2017-03-24T14:43:15Z</time>
      </trkpt>
      <trkpt lat="45.8783" lon="2.82096">
        <ele>576</ele>
        <time>2017-03-24T14:42:55Z</time>
      </trkpt>
      <trkpt lat="45.87854" lon="2.82043">
        <ele>583</ele>
        <time>2017-03-24T14:42:35Z</time>
      </trkpt>
      <trkpt lat="45.87905" lon="2.81974">
        <ele>582</ele>
        <time>2017-03-24T14:42:15Z</time>
      </trkpt>
      <trkpt lat="45.87928" lon="2.81905">
        <ele>583</ele>
        <time>2017-03-24T14:41:55Z</time>
      </trkpt>
      <trkpt lat="45.88035" lon="2.81667">
        <ele>590</ele>
        <time>2017-03-24T14:41:35Z</time>
      </trkpt>
      <trkpt lat="45.88035" lon="2.81667">
        <ele>590</ele>
        <time>2017-03-24T14:41:15Z</time>
      </trkpt>
      <trkpt lat="45.88064" lon="2.8155">
        <ele>577</ele>
        <time>2017-03-24T14:40:55Z</time>
      </trkpt>
      <trkpt lat="45.88094" lon="2.81525">
        <ele>583</ele>
        <time>2017-03-24T14:40:35Z</time>
      </trkpt>
      <trkpt lat="45.88141" lon="2.81557">
        <ele>587</ele>
        <time>2017-03-24T14:40:15Z</time>
      </trkpt>
      <trkpt lat="45.88212" lon="2.81515">
        <ele>586</ele>
        <time>2017-03-24T14:39:55Z</time>
      </trkpt>
      <trkpt lat="45.88235" lon="2.8153">
        <ele>587</ele>
        <time>2017-03-24T14:39:35Z</time>
      </trkpt>
      <trkpt lat="45.88283" lon="2.8153">
        <ele>593</ele>
        <time>2017-03-24T14:39:15Z</time>
      </trkpt>
      <trkpt lat="45.88366" lon="2.81486">
        <ele>588</ele>
        <time>2017-03-24T14:38:55Z</time>
      </trkpt>
      <trkpt lat="45.88477" lon="2.81243">
        <ele>576</ele>
        <time>2017-03-24T14:38:35Z</time>
      </trkpt>
      <trkpt lat="45.88493" lon="2.81111">
        <ele>569</ele>
        <time>2017-03-24T14:38:15Z</time>
      </trkpt>
      <trkpt lat="45.88491" lon="2.81009">
        <ele>568</ele>
        <time>2017-03-24T14:37:55Z</time>
      </trkpt>
      <trkpt lat="45.88452" lon="2.80922">
        <ele>571</ele>
        <time>2017-03-24T14:37:35Z</time>
      </trkpt>
      <trkpt lat="45.88406" lon="2.80855">
        <ele>569</ele>
        <time>2017-03-24T14:37:15Z</time>
      </trkpt>
      <trkpt lat="45.88347" lon="2.80821">
        <ele>565</ele>
        <time>2017-03-24T14:36:55Z</time>
      </trkpt>
      <trkpt lat="45.88302" lon="2.80773">
        <ele>559</ele>
        <time>2017-03-24T14:36:35Z</time>
      </trkpt>
      <trkpt lat="45.88298" lon="2.80718">
        <ele>563</ele>
        <time>2017-03-24T14:36:15Z</time>
      </trkpt>
      <trkpt lat="45.88374" lon="2.80632">
        <ele>569</ele>
        <time>2017-03-24T14:35:55Z</time>
      </trkpt>
      <trkpt lat="45.88425" lon="2.80541">
        <ele>572</ele>
        <time>2017-03-24T14:35:35Z</time>
      </trkpt>
      <trkpt lat="45.88436" lon="2.80501">
        <ele>569</ele>
        <time>2017-03-24T14:35:15Z</time>
      </trkpt>
      <trkpt lat="45.88438" lon="2.8047">
        <ele>565</ele>
        <time>2017-03-24T14:34:55Z</time>
      </trkpt>
      <trkpt lat="45.88424" lon="2.80431">
        <ele>563</ele>
        <time>2017-03-24T14:34:35Z</time>
      </trkpt>
      <trkpt lat="45.88373" lon="2.80375">
        <ele>560</ele>
        <time>2017-03-24T14:34:15Z</time>
      </trkpt>
      <trkpt lat="45.8836" lon="2.80324">
        <ele>559</ele>
        <time>2017-03-24T14:33:55Z</time>
      </trkpt>
      <trkpt lat="45.88371" lon="2.80309">
        <ele>559</ele>
        <time>2017-03-24T14:33:35Z</time>
      </trkpt>
      <trkpt lat="45.88391" lon="2.80302">
        <ele>559</ele>
        <time>2017-03-24T14:33:15Z</time>
      </trkpt>
      <trkpt lat="45.88533" lon="2.80431">
        <ele>566</ele>
        <time>2017-03-24T14:32:55Z</time>
      </trkpt>
      <trkpt lat="45.88565" lon="2.80474">
        <ele>567</ele>
        <time>2017-03-24T14:32:35Z</time>
      </trkpt>
      <trkpt lat="45.8861" lon="2.80545">
        <ele>575</ele>
        <time>2017-03-24T14:32:15Z</time>
      </trkpt>
      <trkpt lat="45.88734" lon="2.80593">
        <ele>574</ele>
        <time>2017-03-24T14:31:55Z</time>
      </trkpt>
      <trkpt lat="45.88833" lon="2.80603">
        <ele>574</ele>
        <time>2017-03-24T14:31:35Z</time>
      </trkpt>
      <trkpt lat="45.88892" lon="2.80561">
        <ele>569</ele>
        <time>2017-03-24T14:31:15Z</time>
      </trkpt>
      <trkpt lat="45.88938" lon="2.80463">
        <ele>572</ele>
        <time>2017-03-24T14:30:55Z</time>
      </trkpt>
      <trkpt lat="45.88946" lon="2.80375">
        <ele>572</ele>
        <time>2017-03-24T14:30:35Z</time>
      </trkpt>
      <trkpt lat="45.88914" lon="2.80292">
        <ele>559</ele>
        <time>2017-03-24T14:30:15Z</time>
      </trkpt>
      <trkpt lat="45.88891" lon="2.80237">
        <ele>554</ele>
        <time>2017-03-24T14:29:55Z</time>
      </trkpt>
      <trkpt lat="45.88871" lon="2.80145">
        <ele>548</ele>
        <time>2017-03-24T14:29:35Z</time>
      </trkpt>
      <trkpt lat="45.88868" lon="2.80075">
        <ele>545</ele>
        <time>2017-03-24T14:29:15Z</time>
      </trkpt>
      <trkpt lat="45.88852" lon="2.80041">
        <ele>544</ele>
        <time>2017-03-24T14:28:55Z</time>
      </trkpt>
      <trkpt lat="45.88864" lon="2.80033">
        <ele>544</ele>
        <time>2017-03-24T14:28:35Z</time>
      </trkpt>
      <trkpt lat="45.88976" lon="2.80114">
        <ele>549</ele>
        <time>2017-03-24T14:28:15Z</time>
      </trkpt>
      <trkpt lat="45.8915" lon="2.80266">
        <ele>555</ele>
        <time>2017-03-24T14:27:55Z</time>
      </trkpt>
      <trkpt lat="45.89306" lon="2.80459">
        <ele>554</ele>
        <time>2017-03-24T14:27:35Z</time>
      </trkpt>
      <trkpt lat="45.89383" lon="2.8054">
        <ele>568</ele>
        <time>2017-03-24T14:27:15Z</time>
      </trkpt>
      <trkpt lat="45.89441" lon="2.80557">
        <ele>572</ele>
        <time>2017-03-24T14:26:55Z</time>
      </trkpt>
      <trkpt lat="45.89496" lon="2.80526">
        <ele>566</ele>
        <time>2017-03-24T14:26:35Z</time>
      </trkpt>
      <trkpt lat="45.89527" lon="2.80481">
        <ele>565</ele>
        <time>2017-03-24T14:26:15Z</time>
      </trkpt>
      <trkpt lat="45.89541" lon="2.80448">
        <ele>565</ele>
        <time>2017-03-24T14:25:55Z</time>
      </trkpt>
      <trkpt lat="45.89534" lon="2.80305">
        <ele>556</ele>
        <time>2017-03-24T14:25:35Z</time>
      </trkpt>
      <trkpt lat="45.89536" lon="2.80184">
        <ele>550</ele>
        <time>2017-03-24T14:25:15Z</time>
      </trkpt>
      <trkpt lat="45.89588" lon="2.80036">
        <ele>550</ele>
        <time>2017-03-24T14:24:55Z</time>
      </trkpt>
      <trkpt lat="45.89635" lon="2.79969">
        <ele>544</ele>
        <time>2017-03-24T14:24:35Z</time>
      </trkpt>
      <trkpt lat="45.89672" lon="2.79904">
        <ele>540</ele>
        <time>2017-03-24T14:24:15Z</time>
      </trkpt>
      <trkpt lat="45.89754" lon="2.79841">
        <ele>538</ele>
        <time>2017-03-24T14:23:55Z</time>
      </trkpt>
      <trkpt lat="45.8984" lon="2.79801">
        <ele>537</ele>
        <time>2017-03-24T14:23:35Z</time>
      </trkpt>
      <trkpt lat="45.89903" lon="2.79806">
        <ele>536</ele>
        <time>2017-03-24T14:23:15Z</time>
      </trkpt>
      <trkpt lat="45.89928" lon="2.79831">
        <ele>536</ele>
        <time>2017-03-24T14:22:55Z</time>
      </trkpt>
      <trkpt lat="45.89954" lon="2.79845">
        <ele>538</ele>
        <time>2017-03-24T14:22:35Z</time>
      </trkpt>
      <trkpt lat="45.89976" lon="2.79861">
        <ele>537</ele>
        <time>2017-03-24T14:22:15Z</time>
      </trkpt>
      <trkpt lat="45.89999" lon="2.79899">
        <ele>540</ele>
        <time>2017-03-24T14:21:55Z</time>
      </trkpt>
      <trkpt lat="45.90047" lon="2.79934">
        <ele>543</ele>
        <time>2017-03-24T14:21:35Z</time>
      </trkpt>
      <trkpt lat="45.90091" lon="2.79942">
        <ele>538</ele>
        <time>2017-03-24T14:21:15Z</time>
      </trkpt>
      <trkpt lat="45.90148" lon="2.7999">
        <ele>537</ele>
        <time>2017-03-24T14:20:55Z</time>
      </trkpt>
      <trkpt lat="45.9018" lon="2.80009">
        <ele>539</ele>
        <time>2017-03-24T14:20:35Z</time>
      </trkpt>
      <trkpt lat="45.90227" lon="2.80069">
        <ele>545</ele>
        <time>2017-03-24T14:20:15Z</time>
      </trkpt>
      <trkpt lat="45.90289" lon="2.80105">
        <ele>558</ele>
        <time>2017-03-24T14:19:55Z</time>
      </trkpt>
      <trkpt lat="45.9034" lon="2.80117">
        <ele>562</ele>
        <time>2017-03-24T14:19:35Z</time>
      </trkpt>
      <trkpt lat="45.90407" lon="2.80095">
        <ele>561</ele>
        <time>2017-03-24T14:19:15Z</time>
      </trkpt>
      <trkpt lat="45.90493" lon="2.79988">
        <ele>547</ele>
        <time>2017-03-24T14:18:55Z</time>
      </trkpt>
      <trkpt lat="45.90508" lon="2.79942">
        <ele>545</ele>
        <time>2017-03-24T14:18:35Z</time>
      </trkpt>
      <trkpt lat="45.90542" lon="2.79906">
        <ele>535</ele>
        <time>2017-03-24T14:18:15Z</time>
      </trkpt>
      <trkpt lat="45.90591" lon="2.79891">
        <ele>538</ele>
        <time>2017-03-24T14:17:55Z</time>
      </trkpt>
      <trkpt lat="45.90618" lon="2.79903">
        <ele>536</ele>
        <time>2017-03-24T14:17:35Z</time>
      </trkpt>
      <trkpt lat="45.90626" lon="2.79898">
        <ele>536</ele>
        <time>2017-03-24T14:17:15Z</time>
      </trkpt>
      <trkpt lat="45.9056" lon="2.79841">
        <ele>530</ele>
        <time>2017-03-24T14:16:55Z</time>
      </trkpt>
      <trkpt lat="45.90521" lon="2.79769">
        <ele>540</ele>
        <time>2017-03-24T14:16:35Z</time>
      </trkpt>
      <trkpt lat="45.90499" lon="2.79778">
        <ele>544</ele>
        <time>2017-03-24T14:16:15Z</time>
      </trkpt>
      <trkpt lat="45.90453" lon="2.79776">
        <ele>546</ele>
        <time>2017-03-24T14:15:55Z</time>
      </trkpt>
      <trkpt lat="45.90437" lon="2.79751">
        <ele>551</ele>
        <time>2017-03-24T14:15:35Z</time>
      </trkpt>
      <trkpt lat="45.90344" lon="2.79698">
        <ele>568</ele>
        <time>2017-03-24T14:15:15Z</time>
      </trkpt>
      <trkpt lat="45.90307" lon="2.79647">
        <ele>576</ele>
        <time>2017-03-24T14:14:55Z</time>
      </trkpt>
      <trkpt lat="45.90265" lon="2.7958">
        <ele>587</ele>
        <time>2017-03-24T14:14:35Z</time>
      </trkpt>
      <trkpt lat="45.9025" lon="2.79566">
        <ele>587</ele>
        <time>2017-03-24T14:14:15Z</time>
      </trkpt>
      <trkpt lat="45.90246" lon="2.79543">
        <ele>584</ele>
        <time>2017-03-24T14:13:55Z</time>
      </trkpt>
      <trkpt lat="45.90254" lon="2.79516">
        <ele>592</ele>
        <time>2017-03-24T14:13:35Z</time>
      </trkpt>
      <trkpt lat="45.90274" lon="2.79503">
        <ele>593</ele>
        <time>2017-03-24T14:13:15Z</time>
      </trkpt>
      <trkpt lat="45.90283" lon="2.79443">
        <ele>605</ele>
        <time>2017-03-24T14:12:55Z</time>
      </trkpt>
      <trkpt lat="45.90273" lon="2.79404">
        <ele>617</ele>
        <time>2017-03-24T14:12:35Z</time>
      </trkpt>
      <trkpt lat="45.90225" lon="2.79375">
        <ele>613</ele>
        <time>2017-03-24T14:12:15Z</time>
      </trkpt>
      <trkpt lat="45.90185" lon="2.79338">
        <ele>612</ele>
        <time>2017-03-24T14:11:55Z</time>
      </trkpt>
      <trkpt lat="45.90153" lon="2.79223">
        <ele>623</ele>
        <time>2017-03-24T14:11:35Z</time>
      </trkpt>
      <trkpt lat="45.90127" lon="2.79103">
        <ele>636</ele>
        <time>2017-03-24T14:11:15Z</time>
      </trkpt>
      <trkpt lat="45.90125" lon="2.79068">
        <ele>645</ele>
        <time>2017-03-24T14:10:55Z</time>
      </trkpt>
      <trkpt lat="45.90133" lon="2.79034">
        <ele>648</ele>
        <time>2017-03-24T14:10:35Z</time>
      </trkpt>
      <trkpt lat="45.90161" lon="2.79017">
        <ele>652</ele>
        <time>2017-03-24T14:10:15Z</time>
      </trkpt>
      <trkpt lat="45.90221" lon="2.7896">
        <ele>660</ele>
        <time>2017-03-24T14:09:55Z</time>
      </trkpt>
      <trkpt lat="45.90225" lon="2.78939">
        <ele>661</ele>
        <time>2017-03-24T14:09:35Z</time>
      </trkpt>
      <trkpt lat="45.90143" lon="2.78679">
        <ele>662</ele>
        <time>2017-03-24T14:09:15Z</time>
      </trkpt>
      <trkpt lat="45.90134" lon="2.78609">
        <ele>662</ele>
        <time>2017-03-24T14:08:55Z</time>
      </trkpt>
      <trkpt lat="45.90136" lon="2.78565">
        <ele>662</ele>
        <time>2017-03-24T14:08:35Z</time>
      </trkpt>
      <trkpt lat="45.90118" lon="2.78354">
        <ele>664</ele>
        <time>2017-03-24T14:08:15Z</time>
      </trkpt>
      <trkpt lat="45.90107" lon="2.78273">
        <ele>664</ele>
        <time>2017-03-24T14:07:55Z</time>
      </trkpt>
      <trkpt lat="45.90116" lon="2.7824">
        <ele>667</ele>
        <time>2017-03-24T14:07:35Z</time>
      </trkpt>
      <trkpt lat="45.90099" lon="2.78165">
        <ele>672</ele>
        <time>2017-03-24T14:07:15Z</time>
      </trkpt>
      <trkpt lat="45.90085" lon="2.78077">
        <ele>677</ele>
        <time>2017-03-24T14:06:55Z</time>
      </trkpt>
      <trkpt lat="45.90098" lon="2.78051">
        <ele>678</ele>
        <time>2017-03-24T14:06:35Z</time>
      </trkpt>
      <trkpt lat="45.90136" lon="2.78037">
        <ele>678</ele>
        <time>2017-03-24T14:06:15Z</time>
      </trkpt>
      <trkpt lat="45.90155" lon="2.78009">
        <ele>677</ele>
        <time>2017-03-24T14:05:55Z</time>
      </trkpt>
      <trkpt lat="45.90185" lon="2.77845">
        <ele>680</ele>
        <time>2017-03-24T14:05:35Z</time>
      </trkpt>
      <trkpt lat="45.90223" lon="2.77712">
        <ele>685</ele>
        <time>2017-03-24T14:05:15Z</time>
      </trkpt>
      <trkpt lat="45.90218" lon="2.77684">
        <ele>685</ele>
        <time>2017-03-24T14:04:55Z</time>
      </trkpt>
      <trkpt lat="45.90236" lon="2.77652">
        <ele>685</ele>
        <time>2017-03-24T14:04:35Z</time>
      </trkpt>
      <trkpt lat="45.90225" lon="2.77606">
        <ele>686</ele>
        <time>2017-03-24T14:04:15Z</time>
      </trkpt>
      <trkpt lat="45.9027" lon="2.77586">
        <ele>686</ele>
        <time>2017-03-24T14:03:55Z</time>
      </trkpt>
      <trkpt lat="45.90334" lon="2.77558">
        <ele>687</ele>
        <time>2017-03-24T14:03:35Z</time>
      </trkpt>
      <trkpt lat="45.90398" lon="2.77485">
        <ele>684</ele>
        <time>2017-03-24T14:03:15Z</time>
      </trkpt>
      <trkpt lat="45.9043" lon="2.77406">
        <ele>683</ele>
        <time>2017-03-24T14:02:55Z</time>
      </trkpt>
      <trkpt lat="45.90421" lon="2.77162">
        <ele>678</ele>
        <time>2017-03-24T14:02:35Z</time>
      </trkpt>
      <trkpt lat="45.90461" lon="2.76969">
        <ele>679</ele>
        <time>2017-03-24T14:02:15Z</time>
      </trkpt>
      <trkpt lat="45.90449" lon="2.76928">
        <ele>678</ele>
        <time>2017-03-24T14:01:55Z</time>
      </trkpt>
      <trkpt lat="45.9042" lon="2.7692">
        <ele>677</ele>
        <time>2017-03-24T14:01:35Z</time>
      </trkpt>
      <trkpt lat="45.90262" lon="2.76963">
        <ele>667</ele>
        <time>2017-03-24T14:01:15Z</time>
      </trkpt>
      <trkpt lat="45.90177" lon="2.76817">
        <ele>650</ele>
        <time>2017-03-24T14:00:55Z</time>
      </trkpt>
      <trkpt lat="45.90228" lon="2.76781">
        <ele>654</ele>
        <time>2017-03-24T14:00:35Z</time>
      </trkpt>
      <trkpt lat="45.90214" lon="2.7671">
        <ele>648</ele>
        <time>2017-03-24T14:00:15Z</time>
      </trkpt>
      <trkpt lat="45.90226" lon="2.76659">
        <ele>649</ele>
        <time>2017-03-24T13:59:55Z</time>
      </trkpt>
      <trkpt lat="45.90201" lon="2.76605">
        <ele>644</ele>
        <time>2017-03-24T13:59:35Z</time>
      </trkpt>
      <trkpt lat="45.90188" lon="2.76551">
        <ele>640</ele>
        <time>2017-03-24T13:59:15Z</time>
      </trkpt>
      <trkpt lat="45.90181" lon="2.76512">
        <ele>635</ele>
        <time>2017-03-24T13:58:55Z</time>
      </trkpt>
      <trkpt lat="45.90184" lon="2.76468">
        <ele>630</ele>
        <time>2017-03-24T13:58:35Z</time>
      </trkpt>
      <trkpt lat="45.9024" lon="2.76294">
        <ele>604</ele>
        <time>2017-03-24T13:58:15Z</time>
      </trkpt>
      <trkpt lat="45.90267" lon="2.76248">
        <ele>604</ele>
        <time>2017-03-24T13:57:55Z</time>
      </trkpt>
      <trkpt lat="45.90296" lon="2.76228">
        <ele>607</ele>
        <time>2017-03-24T13:57:35Z</time>
      </trkpt>
      <trkpt lat="45.9032" lon="2.7613">
        <ele>584</ele>
        <time>2017-03-24T13:57:15Z</time>
      </trkpt>
      <trkpt lat="45.90373" lon="2.76051">
        <ele>579</ele>
        <time>2017-03-24T13:56:55Z</time>
      </trkpt>
      <trkpt lat="45.90407" lon="2.76055">
        <ele>586</ele>
        <time>2017-03-24T13:56:35Z</time>
      </trkpt>
      <trkpt lat="45.90409" lon="2.76028">
        <ele>580</ele>
        <time>2017-03-24T13:56:15Z</time>
      </trkpt>
      <trkpt lat="45.90424" lon="2.75963">
        <ele>573</ele>
        <time>2017-03-24T13:55:55Z</time>
      </trkpt>
      <trkpt lat="45.90469" lon="2.75908">
        <ele>555</ele>
        <time>2017-03-24T13:55:35Z</time>
      </trkpt>
      <trkpt lat="45.90598" lon="2.75805">
        <ele>535</ele>
        <time>2017-03-24T13:55:15Z</time>
      </trkpt>
      <trkpt lat="45.90478" lon="2.75839">
        <ele>542</ele>
        <time>2017-03-24T13:54:55Z</time>
      </trkpt>
      <trkpt lat="45.90443" lon="2.75826">
        <ele>532</ele>
        <time>2017-03-24T13:54:35Z</time>
      </trkpt>
      <trkpt lat="45.9053" lon="2.75754">
        <ele>528</ele>
        <time>2017-03-24T13:54:15Z</time>
      </trkpt>
      <trkpt lat="45.90547" lon="2.75729">
        <ele>526</ele>
        <time>2017-03-24T13:53:55Z</time>
      </trkpt>
      <trkpt lat="45.90558" lon="2.75699">
        <ele>527</ele>
        <time>2017-03-24T13:53:35Z</time>
      </trkpt>
      <trkpt lat="45.90629" lon="2.75637">
        <ele>517</ele>
        <time>2017-03-24T13:53:15Z</time>
      </trkpt>
      <trkpt lat="45.90636" lon="2.7561">
        <ele>517</ele>
        <time>2017-03-24T13:52:55Z</time>
      </trkpt>
      <trkpt lat="45.9062" lon="2.75542">
        <ele>523</ele>
        <time>2017-03-24T13:52:35Z</time>
      </trkpt>
      <trkpt lat="45.90626" lon="2.75514">
        <ele>523</ele>
        <time>2017-03-24T13:52:15Z</time>
      </trkpt>
      <trkpt lat="45.90725" lon="2.7536">
        <ele>534</ele>
        <time>2017-03-24T13:51:55Z</time>
      </trkpt>
      <trkpt lat="45.90741" lon="2.75313">
        <ele>540</ele>
        <time>2017-03-24T13:51:35Z</time>
      </trkpt>
      <trkpt lat="45.90751" lon="2.75235">
        <ele>537</ele>
        <time>2017-03-24T13:51:15Z</time>
      </trkpt>
      <trkpt lat="45.90742" lon="2.75217">
        <ele>551</ele>
        <time>2017-03-24T13:50:55Z</time>
      </trkpt>
      <trkpt lat="45.90759" lon="2.75105">
        <ele>545</ele>
        <time>2017-03-24T13:50:35Z</time>
      </trkpt>
      <trkpt lat="45.90812" lon="2.75033">
        <ele>537</ele>
        <time>2017-03-24T13:50:15Z</time>
      </trkpt>
      <trkpt lat="45.90806" lon="2.75001">
        <ele>536</ele>
        <time>2017-03-24T13:49:55Z</time>
      </trkpt>
      <trkpt lat="45.90766" lon="2.74939">
        <ele>530</ele>
        <time>2017-03-24T13:49:35Z</time>
      </trkpt>
      <trkpt lat="45.90696" lon="2.74875">
        <ele>529</ele>
        <time>2017-03-24T13:49:15Z</time>
      </trkpt>
      <trkpt lat="45.90584" lon="2.74792">
        <ele>523</ele>
        <time>2017-03-24T13:48:55Z</time>
      </trkpt>
      <trkpt lat="45.90539" lon="2.74742">
        <ele>519</ele>
        <time>2017-03-24T13:48:35Z</time>
      </trkpt>
      <trkpt lat="45.90487" lon="2.74671">
        <ele>517</ele>
        <time>2017-03-24T13:48:15Z</time>
      </trkpt>
      <trkpt lat="45.90391" lon="2.747">
        <ele>530</ele>
        <time>2017-03-24T13:47:55Z</time>
      </trkpt>
      <trkpt lat="45.90365" lon="2.74717">
        <ele>534</ele>
        <time>2017-03-24T13:47:35Z</time>
      </trkpt>
      <trkpt lat="45.90335" lon="2.74718">
        <ele>536</ele>
        <time>2017-03-24T13:47:15Z</time>
      </trkpt>
      <trkpt lat="45.90273" lon="2.74688">
        <ele>542</ele>
        <time>2017-03-24T13:46:55Z</time>
      </trkpt>
      <trkpt lat="45.902" lon="2.74687">
        <ele>548</ele>
        <time>2017-03-24T13:46:35Z</time>
      </trkpt>
      <trkpt lat="45.90154" lon="2.74715">
        <ele>553</ele>
        <time>2017-03-24T13:46:15Z</time>
      </trkpt>
      <trkpt lat="45.90089" lon="2.74737">
        <ele>556</ele>
        <time>2017-03-24T13:45:55Z</time>
      </trkpt>
      <trkpt lat="45.90007" lon="2.74774">
        <ele>572</ele>
        <time>2017-03-24T13:45:35Z</time>
      </trkpt>
      <trkpt lat="45.89935" lon="2.74785">
        <ele>583</ele>
        <time>2017-03-24T13:45:15Z</time>
      </trkpt>
      <trkpt lat="45.89922" lon="2.74778">
        <ele>583</ele>
        <time>2017-03-24T13:44:55Z</time>
      </trkpt>
      <trkpt lat="45.89916" lon="2.74743">
        <ele>581</ele>
        <time>2017-03-24T13:44:35Z</time>
      </trkpt>
      <trkpt lat="45.89927" lon="2.74711">
        <ele>573</ele>
        <time>2017-03-24T13:44:15Z</time>
      </trkpt>
      <trkpt lat="45.89923" lon="2.74682">
        <ele>573</ele>
        <time>2017-03-24T13:43:55Z</time>
      </trkpt>
      <trkpt lat="45.89885" lon="2.74634">
        <ele>581</ele>
        <time>2017-03-24T13:43:35Z</time>
      </trkpt>
      <trkpt lat="45.89851" lon="2.74606">
        <ele>584</ele>
        <time>2017-03-24T13:43:15Z</time>
      </trkpt>
      <trkpt lat="45.89827" lon="2.74601">
        <ele>598</ele>
        <time>2017-03-24T13:42:55Z</time>
      </trkpt>
      <trkpt lat="45.89797" lon="2.74496">
        <ele>597</ele>
        <time>2017-03-24T13:42:35Z</time>
      </trkpt>
      <trkpt lat="45.89841" lon="2.74338">
        <ele>591</ele>
        <time>2017-03-24T13:42:15Z</time>
      </trkpt>
      <trkpt lat="45.89849" lon="2.74284">
        <ele>591</ele>
        <time>2017-03-24T13:41:55Z</time>
      </trkpt>
      <trkpt lat="45.89862" lon="2.74256">
        <ele>591</ele>
        <time>2017-03-24T13:41:35Z</time>
      </trkpt>
      <trkpt lat="45.89913" lon="2.74223">
        <ele>588</ele>
        <time>2017-03-24T13:41:15Z</time>
      </trkpt>
      <trkpt lat="45.89925" lon="2.74189">
        <ele>580</ele>
        <time>2017-03-24T13:40:55Z</time>
      </trkpt>
      <trkpt lat="45.89938" lon="2.74174">
        <ele>580</ele>
        <time>2017-03-24T13:40:35Z</time>
      </trkpt>
      <trkpt lat="45.89945" lon="2.74075">
        <ele>587</ele>
        <time>2017-03-24T13:40:15Z</time>
      </trkpt>
      <trkpt lat="45.89939" lon="2.74034">
        <ele>589</ele>
        <time>2017-03-24T13:39:55Z</time>
      </trkpt>
      <trkpt lat="45.89916" lon="2.73969">
        <ele>601</ele>
        <time>2017-03-24T13:39:35Z</time>
      </trkpt>
      <trkpt lat="45.89905" lon="2.73917">
        <ele>602</ele>
        <time>2017-03-24T13:39:15Z</time>
      </trkpt>
      <trkpt lat="45.89893" lon="2.73889">
        <ele>607</ele>
        <time>2017-03-24T13:38:55Z</time>
      </trkpt>
      <trkpt lat="45.89855" lon="2.73861">
        <ele>608</ele>
        <time>2017-03-24T13:38:35Z</time>
      </trkpt>
      <trkpt lat="45.89846" lon="2.73846">
        <ele>609</ele>
        <time>2017-03-24T13:38:15Z</time>
      </trkpt>
      <trkpt lat="45.89997" lon="2.73704">
        <ele>628</ele>
        <time>2017-03-24T13:37:55Z</time>
      </trkpt>
      <trkpt lat="45.90056" lon="2.73683">
        <ele>635</ele>
        <time>2017-03-24T13:37:35Z</time>
      </trkpt>
      <trkpt lat="45.90093" lon="2.73675">
        <ele>637</ele>
        <time>2017-03-24T13:37:15Z</time>
      </trkpt>
      <trkpt lat="45.90142" lon="2.73685">
        <ele>634</ele>
        <time>2017-03-24T13:36:55Z</time>
      </trkpt>
      <trkpt lat="45.90194" lon="2.73674">
        <ele>634</ele>
        <time>2017-03-24T13:36:35Z</time>
      </trkpt>
      <trkpt lat="45.90245" lon="2.73642">
        <ele>640</ele>
        <time>2017-03-24T13:36:15Z</time>
      </trkpt>
      <trkpt lat="45.90294" lon="2.73591">
        <ele>639</ele>
        <time>2017-03-24T13:35:55Z</time>
      </trkpt>
      <trkpt lat="45.90302" lon="2.73523">
        <ele>643</ele>
        <time>2017-03-24T13:35:35Z</time>
      </trkpt>
      <trkpt lat="45.90268" lon="2.73472">
        <ele>646</ele>
        <time>2017-03-24T13:35:15Z</time>
      </trkpt>
      <trkpt lat="45.9026" lon="2.73444">
        <ele>646</ele>
        <time>2017-03-24T13:34:55Z</time>
      </trkpt>
      <trkpt lat="45.90257" lon="2.73401">
        <ele>645</ele>
        <time>2017-03-24T13:34:35Z</time>
      </trkpt>
      <trkpt lat="45.90257" lon="2.73295">
        <ele>637</ele>
        <time>2017-03-24T13:34:15Z</time>
      </trkpt>
      <trkpt lat="45.9027" lon="2.73256">
        <ele>635</ele>
        <time>2017-03-24T13:33:55Z</time>
      </trkpt>
      <trkpt lat="45.90255" lon="2.73233">
        <ele>631</ele>
        <time>2017-03-24T13:33:35Z</time>
      </trkpt>
      <trkpt lat="45.90242" lon="2.7315">
        <ele>632</ele>
        <time>2017-03-24T13:33:15Z</time>
      </trkpt>
      <trkpt lat="45.90243" lon="2.73023">
        <ele>621</ele>
        <time>2017-03-24T13:32:55Z</time>
      </trkpt>
      <trkpt lat="45.90208" lon="2.72946">
        <ele>608</ele>
        <time>2017-03-24T13:32:35Z</time>
      </trkpt>
      <trkpt lat="45.90148" lon="2.72912">
        <ele>602</ele>
        <time>2017-03-24T13:32:15Z</time>
      </trkpt>
      <trkpt lat="45.90066" lon="2.7281">
        <ele>574</ele>
        <time>2017-03-24T13:31:55Z</time>
      </trkpt>
      <trkpt lat="45.90051" lon="2.72811">
        <ele>572</ele>
        <time>2017-03-24T13:31:35Z</time>
      </trkpt>
      <trkpt lat="45.90035" lon="2.72839">
        <ele>587</ele>
        <time>2017-03-24T13:31:15Z</time>
      </trkpt>
      <trkpt lat="45.89997" lon="2.72879">
        <ele>581</ele>
        <time>2017-03-24T13:30:55Z</time>
      </trkpt>
      <trkpt lat="45.89976" lon="2.72881">
        <ele>579</ele>
        <time>2017-03-24T13:30:35Z</time>
      </trkpt>
      <trkpt lat="45.89943" lon="2.72857">
        <ele>573</ele>
        <time>2017-03-24T13:30:15Z</time>
      </trkpt>
      <trkpt lat="45.89882" lon="2.72851">
        <ele>560</ele>
        <time>2017-03-24T13:29:55Z</time>
      </trkpt>
      <trkpt lat="45.89851" lon="2.72833">
        <ele>544</ele>
        <time>2017-03-24T13:29:35Z</time>
      </trkpt>
      <trkpt lat="45.89905" lon="2.72809">
        <ele>546</ele>
        <time>2017-03-24T13:29:15Z</time>
      </trkpt>
      <trkpt lat="45.89928" lon="2.72785">
        <ele>551</ele>
        <time>2017-03-24T13:28:55Z</time>
      </trkpt>
      <trkpt lat="45.89949" lon="2.72728">
        <ele>538</ele>
        <time>2017-03-24T13:28:35Z</time>
      </trkpt>
      <trkpt lat="45.89967" lon="2.72625">
        <ele>527</ele>
        <time>2017-03-24T13:28:15Z</time>
      </trkpt>
      <trkpt lat="45.89983" lon="2.72611">
        <ele>525</ele>
        <time>2017-03-24T13:27:55Z</time>
      </trkpt>
      <trkpt lat="45.90042" lon="2.72626">
        <ele>525</ele>
        <time>2017-03-24T13:27:35Z</time>
      </trkpt>
      <trkpt lat="45.9006" lon="2.72604">
        <ele>522</ele>
        <time>2017-03-24T13:27:15Z</time>
      </trkpt>
      <trkpt lat="45.90077" lon="2.72495">
        <ele>521</ele>
        <time>2017-03-24T13:26:55Z</time>
      </trkpt>
      <trkpt lat="45.90097" lon="2.72468">
        <ele>526</ele>
        <time>2017-03-24T13:26:35Z</time>
      </trkpt>
      <trkpt lat="45.90138" lon="2.72447">
        <ele>529</ele>
        <time>2017-03-24T13:26:15Z</time>
      </trkpt>
      <trkpt lat="45.90238" lon="2.72444">
        <ele>527</ele>
        <time>2017-03-24T13:25:55Z</time>
      </trkpt>
      <trkpt lat="45.90272" lon="2.72437">
        <ele>525</ele>
        <time>2017-03-24T13:25:35Z</time>
      </trkpt>
      <trkpt lat="45.90297" lon="2.72409">
        <ele>527</ele>
        <time>2017-03-24T13:25:15Z</time>
      </trkpt>
      <trkpt lat="45.90307" lon="2.72355">
        <ele>528</ele>
        <time>2017-03-24T13:24:55Z</time>
      </trkpt>
      <trkpt lat="45.90301" lon="2.72299">
        <ele>529</ele>
        <time>2017-03-24T13:24:35Z</time>
      </trkpt>
      <trkpt lat="45.90277" lon="2.72232">
        <ele>529</ele>
        <time>2017-03-24T13:24:15Z</time>
      </trkpt>
      <trkpt lat="45.90224" lon="2.72139">
        <ele>525</ele>
        <time>2017-03-24T13:23:55Z</time>
      </trkpt>
      <trkpt lat="45.90173" lon="2.72068">
        <ele>519</ele>
        <time>2017-03-24T13:23:35Z</time>
      </trkpt>
      <trkpt lat="45.90117" lon="2.72024">
        <ele>516</ele>
        <time>2017-03-24T13:23:15Z</time>
      </trkpt>
      <trkpt lat="45.90074" lon="2.72016">
        <ele>514</ele>
        <time>2017-03-24T13:22:55Z</time>
      </trkpt>
      <trkpt lat="45.90049" lon="2.72">
        <ele>509</ele>
        <time>2017-03-24T13:22:35Z</time>
      </trkpt>
      <trkpt lat="45.89982" lon="2.71893">
        <ele>516</ele>
        <time>2017-03-24T13:22:15Z</time>
      </trkpt>
      <trkpt lat="45.89962" lon="2.71874">
        <ele>517</ele>
        <time>2017-03-24T13:21:55Z</time>
      </trkpt>
      <trkpt lat="45.89895" lon="2.71852">
        <ele>521</ele>
        <time>2017-03-24T13:21:35Z</time>
      </trkpt>
      <trkpt lat="45.89872" lon="2.71831">
        <ele>519</ele>
        <time>2017-03-24T13:21:15Z</time>
      </trkpt>
      <trkpt lat="45.89851" lon="2.71749">
        <ele>517</ele>
        <time>2017-03-24T13:20:55Z</time>
      </trkpt>
      <trkpt lat="45.89862" lon="2.71706">
        <ele>520</ele>
        <time>2017-03-24T13:20:35Z</time>
      </trkpt>
      <trkpt lat="45.89886" lon="2.71512">
        <ele>519</ele>
        <time>2017-03-24T13:20:15Z</time>
      </trkpt>
      <trkpt lat="45.89902" lon="2.71473">
        <ele>519</ele>
        <time>2017-03-24T13:19:55Z</time>
      </trkpt>
      <trkpt lat="45.8996" lon="2.71409">
        <ele>517</ele>
        <time>2017-03-24T13:19:35Z</time>
      </trkpt>
      <trkpt lat="45.89956" lon="2.71341">
        <ele>517</ele>
        <time>2017-03-24T13:19:15Z</time>
      </trkpt>
      <trkpt lat="45.89932" lon="2.71293">
        <ele>520</ele>
        <time>2017-03-24T13:18:55Z</time>
      </trkpt>
      <trkpt lat="45.89903" lon="2.71245">
        <ele>537</ele>
        <time>2017-03-24T13:18:35Z</time>
      </trkpt>
      <trkpt lat="45.89806" lon="2.71124">
        <ele>564</ele>
        <time>2017-03-24T13:18:15Z</time>
      </trkpt>
      <trkpt lat="45.89791" lon="2.71064">
        <ele>575</ele>
        <time>2017-03-24T13:17:55Z</time>
      </trkpt>
      <trkpt lat="45.89754" lon="2.71055">
        <ele>576</ele>
        <time>2017-03-24T13:17:35Z</time>
      </trkpt>
      <trkpt lat="45.89699" lon="2.71056">
        <ele>585</ele>
        <time>2017-03-24T13:17:15Z</time>
      </trkpt>
      <trkpt lat="45.8963" lon="2.71037">
        <ele>595</ele>
        <time>2017-03-24T13:16:55Z</time>
      </trkpt>
      <trkpt lat="45.896" lon="2.71021">
        <ele>597</ele>
        <time>2017-03-24T13:16:35Z</time>
      </trkpt>
      <trkpt lat="45.89574" lon="2.7099">
        <ele>601</ele>
        <time>2017-03-24T13:16:15Z</time>
      </trkpt>
      <trkpt lat="45.89522" lon="2.70897">
        <ele>603</ele>
        <time>2017-03-24T13:15:55Z</time>
      </trkpt>
      <trkpt lat="45.89507" lon="2.70883">
        <ele>603</ele>
        <time>2017-03-24T13:15:35Z</time>
      </trkpt>
      <trkpt lat="45.89515" lon="2.70752">
        <ele>605</ele>
        <time>2017-03-24T13:15:15Z</time>
      </trkpt>
      <trkpt lat="45.89453" lon="2.70687">
        <ele>607</ele>
        <time>2017-03-24T13:14:55Z</time>
      </trkpt>
      <trkpt lat="45.89437" lon="2.70609">
        <ele>612</ele>
        <time>2017-03-24T13:14:35Z</time>
      </trkpt>
      <trkpt lat="45.89351" lon="2.70268">
        <ele>606</ele>
        <time>2017-03-24T13:14:15Z</time>
      </trkpt>
      <trkpt lat="45.89299" lon="2.70127">
        <ele>610</ele>
        <time>2017-03-24T13:13:55Z</time>
      </trkpt>
      <trkpt lat="45.89287" lon="2.70038">
        <ele>609</ele>
        <time>2017-03-24T13:13:35Z</time>
      </trkpt>
      <trkpt lat="45.89233" lon="2.69843">
        <ele>608</ele>
        <time>2017-03-24T13:13:15Z</time>
      </trkpt>
      <trkpt lat="45.89208" lon="2.69788">
        <ele>612</ele>
        <time>2017-03-24T13:12:55Z</time>
      </trkpt>
      <trkpt lat="45.89188" lon="2.69727">
        <ele>616</ele>
        <time>2017-03-24T13:12:35Z</time>
      </trkpt>
      <trkpt lat="45.89085" lon="2.69569">
        <ele>622</ele>
        <time>2017-03-24T13:12:15Z</time>
      </trkpt>
      <trkpt lat="45.89065" lon="2.69543">
        <ele>623</ele>
        <time>2017-03-24T13:11:55Z</time>
      </trkpt>
      <trkpt lat="45.89006" lon="2.69501">
        <ele>625</ele>
        <time>2017-03-24T13:11:35Z</time>
      </trkpt>
      <trkpt lat="45.88991" lon="2.69499">
        <ele>627</ele>
        <time>2017-03-24T13:11:15Z</time>
      </trkpt>
      <trkpt lat="45.88951" lon="2.69508">
        <ele>624</ele>
        <time>2017-03-24T13:10:55Z</time>
      </trkpt>
      <trkpt lat="45.88923" lon="2.69495">
        <ele>627</ele>
        <time>2017-03-24T13:10:35Z</time>
      </trkpt>
      <trkpt lat="45.8886" lon="2.69423">
        <ele>631</ele>
        <time>2017-03-24T13:10:15Z</time>
      </trkpt>
      <trkpt lat="45.88836" lon="2.69389">
        <ele>634</ele>
        <time>2017-03-24T13:09:55Z</time>
      </trkpt>
      <trkpt lat="45.88779" lon="2.69218">
        <ele>634</ele>
        <time>2017-03-24T13:09:35Z</time>
      </trkpt>
      <trkpt lat="45.88723" lon="2.69071">
        <ele>633</ele>
        <time>2017-03-24T13:09:15Z</time>
      </trkpt>
      <trkpt lat="45.88703" lon="2.69037">
        <ele>633</ele>
        <time>2017-03-24T13:08:55Z</time>
      </trkpt>
      <trkpt lat="45.88645" lon="2.68997">
        <ele>635</ele>
        <time>2017-03-24T13:08:35Z</time>
      </trkpt>
      <trkpt lat="45.88552" lon="2.689">
        <ele>631</ele>
        <time>2017-03-24T13:08:15Z</time>
      </trkpt>
      <trkpt lat="45.88507" lon="2.68801">
        <ele>628</ele>
        <time>2017-03-24T13:07:55Z</time>
      </trkpt>
      <trkpt lat="45.88505" lon="2.68771">
        <ele>627</ele>
        <time>2017-03-24T13:07:35Z</time>
      </trkpt>
      <trkpt lat="45.88606" lon="2.68432">
        <ele>614</ele>
        <time>2017-03-24T13:07:15Z</time>
      </trkpt>
      <trkpt lat="45.88625" lon="2.6844">
        <ele>615</ele>
        <time>2017-03-24T13:06:55Z</time>
      </trkpt>
      <trkpt lat="45.88652" lon="2.68302">
        <ele>607</ele>
        <time>2017-03-24T13:06:35Z</time>
      </trkpt>
      <trkpt lat="45.88692" lon="2.68197">
        <ele>608</ele>
        <time>2017-03-24T13:06:15Z</time>
      </trkpt>
      <trkpt lat="45.88707" lon="2.68091">
        <ele>608</ele>
        <time>2017-03-24T13:05:55Z</time>
      </trkpt>
      <trkpt lat="45.88734" lon="2.68002">
        <ele>607</ele>
        <time>2017-03-24T13:05:35Z</time>
      </trkpt>
      <trkpt lat="45.88776" lon="2.67716">
        <ele>607</ele>
        <time>2017-03-24T13:05:15Z</time>
      </trkpt>
      <trkpt lat="45.88772" lon="2.67686">
        <ele>607</ele>
        <time>2017-03-24T13:04:55Z</time>
      </trkpt>
      <trkpt lat="45.88782" lon="2.67667">
        <ele>607</ele>
        <time>2017-03-24T13:04:35Z</time>
      </trkpt>
      <trkpt lat="45.88793" lon="2.67588">
        <ele>606</ele>
        <time>2017-03-24T13:04:15Z</time>
      </trkpt>
      <trkpt lat="45.88841" lon="2.67476">
        <ele>607</ele>
        <time>2017-03-24T13:03:55Z</time>
      </trkpt>
      <trkpt lat="45.88939" lon="2.67369">
        <ele>605</ele>
        <time>2017-03-24T13:03:35Z</time>
      </trkpt>
      <trkpt lat="45.8898" lon="2.67303">
        <ele>601</ele>
        <time>2017-03-24T13:03:15Z</time>
      </trkpt>
      <trkpt lat="45.89017" lon="2.67256">
        <ele>597</ele>
        <time>2017-03-24T13:02:55Z</time>
      </trkpt>
      <trkpt lat="45.89034" lon="2.67221">
        <ele>597</ele>
        <time>2017-03-24T13:02:35Z</time>
      </trkpt>
      <trkpt lat="45.89084" lon="2.6716">
        <ele>598</ele>
        <time>2017-03-24T13:02:15Z</time>
      </trkpt>
      <trkpt lat="45.89183" lon="2.6689">
        <ele>603</ele>
        <time>2017-03-24T13:01:55Z</time>
      </trkpt>
      <trkpt lat="45.89214" lon="2.66832">
        <ele>603</ele>
        <time>2017-03-24T13:01:35Z</time>
      </trkpt>
      <trkpt lat="45.89261" lon="2.66708">
        <ele>603</ele>
        <time>2017-03-24T13:01:15Z</time>
      </trkpt>
      <trkpt lat="45.89308" lon="2.66602">
        <ele>606</ele>
        <time>2017-03-24T13:00:55Z</time>
      </trkpt>
      <trkpt lat="45.89324" lon="2.66485">
        <ele>610</ele>
        <time>2017-03-24T13:00:35Z</time>
      </trkpt>
      <trkpt lat="45.89322" lon="2.66438">
        <ele>611</ele>
        <time>2017-03-24T13:00:15Z</time>
      </trkpt>
      <trkpt lat="45.89301" lon="2.66329">
        <ele>619</ele>
        <time>2017-03-24T12:59:55Z</time>
      </trkpt>
      <trkpt lat="45.89315" lon="2.66268">
        <ele>620</ele>
        <time>2017-03-24T12:59:35Z</time>
      </trkpt>
      <trkpt lat="45.89319" lon="2.66211">
        <ele>623</ele>
        <time>2017-03-24T12:59:15Z</time>
      </trkpt>
      <trkpt lat="45.89327" lon="2.66165">
        <ele>625</ele>
        <time>2017-03-24T12:58:55Z</time>
      </trkpt>
      <trkpt lat="45.89349" lon="2.66117">
        <ele>628</ele>
        <time>2017-03-24T12:58:35Z</time>
      </trkpt>
      <trkpt lat="45.89427" lon="2.66048">
        <ele>633</ele>
        <time>2017-03-24T12:58:15Z</time>
      </trkpt>
      <trkpt lat="45.89461" lon="2.66063">
        <ele>633</ele>
        <time>2017-03-24T12:57:55Z</time>
      </trkpt>
      <trkpt lat="45.89487" lon="2.66093">
        <ele>632</ele>
        <time>2017-03-24T12:57:35Z</time>
      </trkpt>
      <trkpt lat="45.89523" lon="2.66152">
        <ele>633</ele>
        <time>2017-03-24T12:57:15Z</time>
      </trkpt>
      <trkpt lat="45.89537" lon="2.66147">
        <ele>634</ele>
        <time>2017-03-24T12:56:55Z</time>
      </trkpt>
      <trkpt lat="45.89612" lon="2.65773">
        <ele>629</ele>
        <time>2017-03-24T12:56:35Z</time>
      </trkpt>
      <trkpt lat="45.897" lon="2.65438">
        <ele>639</ele>
        <time>2017-03-24T12:56:15Z</time>
      </trkpt>
      <trkpt lat="45.89627" lon="2.6547">
        <ele>638</ele>
        <time>2017-03-24T12:55:55Z</time>
      </trkpt>
      <trkpt lat="45.89511" lon="2.6555">
        <ele>634</ele>
        <time>2017-03-24T12:55:35Z</time>
      </trkpt>
      <trkpt lat="45.89499" lon="2.65544">
        <ele>630</ele>
        <time>2017-03-24T12:55:15Z</time>
      </trkpt>
      <trkpt lat="45.89461" lon="2.65352">
        <ele>628</ele>
        <time>2017-03-24T12:54:55Z</time>
      </trkpt>
      <trkpt lat="45.8944" lon="2.65215">
        <ele>626</ele>
        <time>2017-03-24T12:54:35Z</time>
      </trkpt>
      <trkpt lat="45.89411" lon="2.64922">
        <ele>628</ele>
        <time>2017-03-24T12:54:15Z</time>
      </trkpt>
      <trkpt lat="45.89403" lon="2.64758">
        <ele>632</ele>
        <time>2017-03-24T12:53:55Z</time>
      </trkpt>
      <trkpt lat="45.89417" lon="2.64737">
        <ele>633</ele>
        <time>2017-03-24T12:53:35Z</time>
      </trkpt>
      <trkpt lat="45.89414" lon="2.64726">
        <ele>633</ele>
        <time>2017-03-24T12:53:15Z</time>
      </trkpt>
      <trkpt lat="45.89447" lon="2.64638">
        <ele>637</ele>
        <time>2017-03-24T12:52:55Z</time>
      </trkpt>
      <trkpt lat="45.89312" lon="2.64487">
        <ele>637</ele>
        <time>2017-03-24T12:52:35Z</time>
      </trkpt>
      <trkpt lat="45.89249" lon="2.64392">
        <ele>635</ele>
        <time>2017-03-24T12:52:15Z</time>
      </trkpt>
      <trkpt lat="45.89206" lon="2.64277">
        <ele>638</ele>
        <time>2017-03-24T12:51:55Z</time>
      </trkpt>
      <trkpt lat="45.89194" lon="2.64249">
        <ele>639</ele>
        <time>2017-03-24T12:51:35Z</time>
      </trkpt>
      <trkpt lat="45.89097" lon="2.64115">
        <ele>638</ele>
        <time>2017-03-24T12:51:15Z</time>
      </trkpt>
      <trkpt lat="45.89004" lon="2.63883">
        <ele>637</ele>
        <time>2017-03-24T12:50:55Z</time>
      </trkpt>
      <trkpt lat="45.8876" lon="2.6395">
        <ele>628</ele>
        <time>2017-03-24T12:50:35Z</time>
      </trkpt>
      <trkpt lat="45.88727" lon="2.63936">
        <ele>624</ele>
        <time>2017-03-24T12:50:15Z</time>
      </trkpt>
      <trkpt lat="45.88705" lon="2.6391">
        <ele>620</ele>
        <time>2017-03-24T12:49:55Z</time>
      </trkpt>
      <trkpt lat="45.8869" lon="2.63877">
        <ele>619</ele>
        <time>2017-03-24T12:49:35Z</time>
      </trkpt>
      <trkpt lat="45.88593" lon="2.63894">
        <ele>610</ele>
        <time>2017-03-24T12:49:15Z</time>
      </trkpt>
      <trkpt lat="45.88583" lon="2.63903">
        <ele>605</ele>
        <time>2017-03-24T12:48:55Z</time>
      </trkpt>
      <trkpt lat="45.88576" lon="2.63949">
        <ele>609</ele>
        <time>2017-03-24T12:48:35Z</time>
      </trkpt>
      <trkpt lat="45.88566" lon="2.63966">
        <ele>609</ele>
        <time>2017-03-24T12:48:15Z</time>
      </trkpt>
      <trkpt lat="45.88447" lon="2.63956">
        <ele>598</ele>
        <time>2017-03-24T12:47:55Z</time>
      </trkpt>
      <trkpt lat="45.88405" lon="2.63932">
        <ele>593</ele>
        <time>2017-03-24T12:47:35Z</time>
      </trkpt>
      <trkpt lat="45.88379" lon="2.63925">
        <ele>593</ele>
        <time>2017-03-24T12:47:15Z</time>
      </trkpt>
      <trkpt lat="45.88345" lon="2.63912">
        <ele>588</ele>
        <time>2017-03-24T12:46:55Z</time>
      </trkpt>
      <trkpt lat="45.88321" lon="2.63913">
        <ele>587</ele>
        <time>2017-03-24T12:46:35Z</time>
      </trkpt>
      <trkpt lat="45.88304" lon="2.639">
        <ele>586</ele>
        <time>2017-03-24T12:46:15Z</time>
      </trkpt>
      <trkpt lat="45.88206" lon="2.63944">
        <ele>588</ele>
        <time>2017-03-24T12:45:55Z</time>
      </trkpt>
      <trkpt lat="45.88157" lon="2.63998">
        <ele>588</ele>
        <time>2017-03-24T12:45:35Z</time>
      </trkpt>
      <trkpt lat="45.88112" lon="2.64027">
        <ele>592</ele>
        <time>2017-03-24T12:45:15Z</time>
      </trkpt>
      <trkpt lat="45.88108" lon="2.64085">
        <ele>604</ele>
        <time>2017-03-24T12:44:55Z</time>
      </trkpt>
      <trkpt lat="45.88073" lon="2.64047">
        <ele>591</ele>
        <time>2017-03-24T12:44:35Z</time>
      </trkpt>
      <trkpt lat="45.88045" lon="2.64043">
        <ele>591</ele>
        <time>2017-03-24T12:44:15Z</time>
      </trkpt>
      <trkpt lat="45.87962" lon="2.64046">
        <ele>592</ele>
        <time>2017-03-24T12:43:55Z</time>
      </trkpt>
      <trkpt lat="45.87932" lon="2.64027">
        <ele>590</ele>
        <time>2017-03-24T12:43:35Z</time>
      </trkpt>
      <trkpt lat="45.87892" lon="2.64025">
        <ele>593</ele>
        <time>2017-03-24T12:43:15Z</time>
      </trkpt>
      <trkpt lat="45.87849" lon="2.64011">
        <ele>593</ele>
        <time>2017-03-24T12:42:55Z</time>
      </trkpt>
      <trkpt lat="45.87805" lon="2.63986">
        <ele>590</ele>
        <time>2017-03-24T12:42:35Z</time>
      </trkpt>
      <trkpt lat="45.87753" lon="2.63929">
        <ele>586</ele>
        <time>2017-03-24T12:42:15Z</time>
      </trkpt>
      <trkpt lat="45.87688" lon="2.63887">
        <ele>590</ele>
        <time>2017-03-24T12:41:55Z</time>
      </trkpt>
      <trkpt lat="45.87641" lon="2.63833">
        <ele>593</ele>
        <time>2017-03-24T12:41:35Z</time>
      </trkpt>
      <trkpt lat="45.87611" lon="2.63816">
        <ele>588</ele>
        <time>2017-03-24T12:41:15Z</time>
      </trkpt>
      <trkpt lat="45.87534" lon="2.63799">
        <ele>594</ele>
        <time>2017-03-24T12:40:55Z</time>
      </trkpt>
      <trkpt lat="45.87468" lon="2.63745">
        <ele>586</ele>
        <time>2017-03-24T12:40:35Z</time>
      </trkpt>
      <trkpt lat="45.87417" lon="2.63727">
        <ele>587</ele>
        <time>2017-03-24T12:40:15Z</time>
      </trkpt>
      <trkpt lat="45.87394" lon="2.63734">
        <ele>590</ele>
        <time>2017-03-24T12:39:55Z</time>
      </trkpt>
      <trkpt lat="45.87377" lon="2.63758">
        <ele>589</ele>
        <time>2017-03-24T12:39:35Z</time>
      </trkpt>
      <trkpt lat="45.87369" lon="2.63799">
        <ele>589</ele>
        <time>2017-03-24T12:39:15Z</time>
      </trkpt>
      <trkpt lat="45.87384" lon="2.63986">
        <ele>593</ele>
        <time>2017-03-24T12:38:55Z</time>
      </trkpt>
      <trkpt lat="45.87384" lon="2.64085">
        <ele>600</ele>
        <time>2017-03-24T12:38:35Z</time>
      </trkpt>
      <trkpt lat="45.8737" lon="2.6412">
        <ele>600</ele>
        <time>2017-03-24T12:38:15Z</time>
      </trkpt>
      <trkpt lat="45.87347" lon="2.64138">
        <ele>599</ele>
        <time>2017-03-24T12:37:55Z</time>
      </trkpt>
      <trkpt lat="45.87309" lon="2.64137">
        <ele>590</ele>
        <time>2017-03-24T12:37:35Z</time>
      </trkpt>
      <trkpt lat="45.87286" lon="2.64122">
        <ele>589</ele>
        <time>2017-03-24T12:37:15Z</time>
      </trkpt>
      <trkpt lat="45.87249" lon="2.6408">
        <ele>581</ele>
        <time>2017-03-24T12:36:55Z</time>
      </trkpt>
      <trkpt lat="45.87225" lon="2.64064">
        <ele>579</ele>
        <time>2017-03-24T12:36:35Z</time>
      </trkpt>
      <trkpt lat="45.87196" lon="2.64075">
        <ele>578</ele>
        <time>2017-03-24T12:36:15Z</time>
      </trkpt>
      <trkpt lat="45.87174" lon="2.64095">
        <ele>579</ele>
        <time>2017-03-24T12:36:15Z</time>
      </trkpt>
      <trkpt lat="45.87138" lon="2.64162">
        <ele>580</ele>
        <time>2017-03-24T17:53:46Z</time>
      </trkpt>
      <trkpt lat="45.87112" lon="2.64256">
        <ele>585</ele>
        <time>2017-03-24T17:53:26Z</time>
      </trkpt>
      <trkpt lat="45.8706" lon="2.64294">
        <ele>578</ele>
        <time>2017-03-24T17:53:06Z</time>
      </trkpt>
      <trkpt lat="45.8702" lon="2.64292">
        <ele>576</ele>
        <time>2017-03-24T17:52:46Z</time>
      </trkpt>
      <trkpt lat="45.86997" lon="2.64272">
        <ele>580</ele>
        <time>2017-03-24T17:52:26Z</time>
      </trkpt>
      <trkpt lat="45.86984" lon="2.64226">
        <ele>588</ele>
        <time>2017-03-24T17:52:06Z</time>
      </trkpt>
      <trkpt lat="45.86993" lon="2.64188">
        <ele>590</ele>
        <time>2017-03-24T17:51:46Z</time>
      </trkpt>
      <trkpt lat="45.87017" lon="2.6415">
        <ele>587</ele>
        <time>2017-03-24T17:51:26Z</time>
      </trkpt>
      <trkpt lat="45.87025" lon="2.64126">
        <ele>588</ele>
        <time>2017-03-24T17:51:06Z</time>
      </trkpt>
      <trkpt lat="45.87011" lon="2.64109">
        <ele>591</ele>
        <time>2017-03-24T17:50:46Z</time>
      </trkpt>
      <trkpt lat="45.86983" lon="2.64115">
        <ele>603</ele>
        <time>2017-03-24T17:50:26Z</time>
      </trkpt>
      <trkpt lat="45.86922" lon="2.64186">
        <ele>601</ele>
        <time>2017-03-24T17:50:06Z</time>
      </trkpt>
      <trkpt lat="45.86905" lon="2.64187">
        <ele>617</ele>
        <time>2017-03-24T17:49:46Z</time>
      </trkpt>
      <trkpt lat="45.86887" lon="2.64161">
        <ele>625</ele>
        <time>2017-03-24T17:49:26Z</time>
      </trkpt>
      <trkpt lat="45.8687" lon="2.64176">
        <ele>625</ele>
        <time>2017-03-24T17:49:06Z</time>
      </trkpt>
      <trkpt lat="45.86845" lon="2.64218">
        <ele>627</ele>
        <time>2017-03-24T17:48:46Z</time>
      </trkpt>
      <trkpt lat="45.86802" lon="2.64214">
        <ele>639</ele>
        <time>2017-03-24T17:48:26Z</time>
      </trkpt>
      <trkpt lat="45.86772" lon="2.64171">
        <ele>642</ele>
        <time>2017-03-24T17:48:06Z</time>
      </trkpt>
      <trkpt lat="45.86781" lon="2.6416">
        <ele>647</ele>
        <time>2017-03-24T17:47:46Z</time>
      </trkpt>
      <trkpt lat="45.86778" lon="2.64119">
        <ele>648</ele>
        <time>2017-03-24T17:47:26Z</time>
      </trkpt>
      <trkpt lat="45.8677" lon="2.64077">
        <ele>653</ele>
        <time>2017-03-24T17:47:06Z</time>
      </trkpt>
      <trkpt lat="45.86758" lon="2.64054">
        <ele>653</ele>
        <time>2017-03-24T17:46:46Z</time>
      </trkpt>
      <trkpt lat="45.86733" lon="2.63839">
        <ele>672</ele>
        <time>2017-03-24T17:46:26Z</time>
      </trkpt>
      <trkpt lat="45.86573" lon="2.63502">
        <ele>691</ele>
        <time>2017-03-24T17:46:06Z</time>
      </trkpt>
      <trkpt lat="45.86498" lon="2.63229">
        <ele>704</ele>
        <time>2017-03-24T17:45:46Z</time>
      </trkpt>
      <trkpt lat="45.86417" lon="2.62767">
        <ele>707</ele>
        <time>2017-03-24T17:45:26Z</time>
      </trkpt>
      <trkpt lat="45.86341" lon="2.62887">
        <ele>705</ele>
        <time>2017-03-24T17:45:06Z</time>
      </trkpt>
      <trkpt lat="45.8625" lon="2.62966">
        <ele>702</ele>
        <time>2017-03-24T17:44:46Z</time>
      </trkpt>
      <trkpt lat="45.86186" lon="2.63006">
        <ele>701</ele>
        <time>2017-03-24T17:44:26Z</time>
      </trkpt>
      <trkpt lat="45.86085" lon="2.63116">
        <ele>702</ele>
        <time>2017-03-24T17:44:06Z</time>
      </trkpt>
      <trkpt lat="45.86015" lon="2.63131">
        <ele>699</ele>
        <time>2017-03-24T17:43:46Z</time>
      </trkpt>
      <trkpt lat="45.85949" lon="2.62919">
        <ele>690</ele>
        <time>2017-03-24T17:43:26Z</time>
      </trkpt>
      <trkpt lat="45.8592" lon="2.6289">
        <ele>689</ele>
        <time>2017-03-24T17:43:06Z</time>
      </trkpt>
      <trkpt lat="45.85851" lon="2.62861">
        <ele>686</ele>
        <time>2017-03-24T17:42:46Z</time>
      </trkpt>
      <trkpt lat="45.85771" lon="2.62871">
        <ele>688</ele>
        <time>2017-03-24T17:42:26Z</time>
      </trkpt>
      <trkpt lat="45.85612" lon="2.62596">
        <ele>699</ele>
        <time>2017-03-24T17:42:06Z</time>
      </trkpt>
      <trkpt lat="45.8558" lon="2.62566">
        <ele>706</ele>
        <time>2017-03-24T17:41:46Z</time>
      </trkpt>
      <trkpt lat="45.8551" lon="2.624">
        <ele>712</ele>
        <time>2017-03-24T17:41:26Z</time>
      </trkpt>
      <trkpt lat="45.85479" lon="2.62265">
        <ele>712</ele>
        <time>2017-03-24T17:41:06Z</time>
      </trkpt>
      <trkpt lat="45.85442" lon="2.6215">
        <ele>722</ele>
        <time>2017-03-24T17:40:46Z</time>
      </trkpt>
      <trkpt lat="45.85379" lon="2.62033">
        <ele>726</ele>
        <time>2017-03-24T17:40:26Z</time>
      </trkpt>
      <trkpt lat="45.8525" lon="2.61825">
        <ele>715</ele>
        <time>2017-03-24T17:40:06Z</time>
      </trkpt>
      <trkpt lat="45.85218" lon="2.6179">
        <ele>714</ele>
        <time>2017-03-24T17:39:46Z</time>
      </trkpt>
      <trkpt lat="45.85214" lon="2.61817">
        <ele>715</ele>
        <time>2017-03-24T17:39:26Z</time>
      </trkpt>
      <trkpt lat="45.85186" lon="2.61834">
        <ele>715</ele>
        <time>2017-03-24T17:39:06Z</time>
      </trkpt>
      <trkpt lat="45.8513" lon="2.61838">
        <ele>713</ele>
        <time>2017-03-24T17:38:46Z</time>
      </trkpt>
      <trkpt lat="45.85099" lon="2.61834">
        <ele>713</ele>
        <time>2017-03-24T17:38:26Z</time>
      </trkpt>
      <trkpt lat="45.85066" lon="2.61842">
        <ele>711</ele>
        <time>2017-03-24T17:38:06Z</time>
      </trkpt>
      <trkpt lat="45.85012" lon="2.61884">
        <ele>709</ele>
        <time>2017-03-24T17:37:46Z</time>
      </trkpt>
      <trkpt lat="45.84965" lon="2.61912">
        <ele>706</ele>
        <time>2017-03-24T17:37:26Z</time>
      </trkpt>
      <trkpt lat="45.84922" lon="2.61872">
        <ele>704</ele>
        <time>2017-03-24T17:37:06Z</time>
      </trkpt>
      <trkpt lat="45.84924" lon="2.6183">
        <ele>699</ele>
        <time>2017-03-24T17:36:46Z</time>
      </trkpt>
      <trkpt lat="45.84852" lon="2.61739">
        <ele>689</ele>
        <time>2017-03-24T17:36:26Z</time>
      </trkpt>
      <trkpt lat="45.8484" lon="2.61713">
        <ele>689</ele>
        <time>2017-03-24T17:36:06Z</time>
      </trkpt>
      <trkpt lat="45.84813" lon="2.61677">
        <ele>685</ele>
        <time>2017-03-24T17:35:46Z</time>
      </trkpt>
      <trkpt lat="45.84816" lon="2.61649">
        <ele>684</ele>
        <time>2017-03-24T17:35:26Z</time>
      </trkpt>
      <trkpt lat="45.84825" lon="2.61632">
        <ele>684</ele>
        <time>2017-03-24T17:35:06Z</time>
      </trkpt>
      <trkpt lat="45.84835" lon="2.616">
        <ele>685</ele>
        <time>2017-03-24T17:34:46Z</time>
      </trkpt>
      <trkpt lat="45.84857" lon="2.61559">
        <ele>685</ele>
        <time>2017-03-24T17:34:26Z</time>
      </trkpt>
      <trkpt lat="45.84858" lon="2.61525">
        <ele>684</ele>
        <time>2017-03-24T17:34:06Z</time>
      </trkpt>
      <trkpt lat="45.84851" lon="2.61497">
        <ele>681</ele>
        <time>2017-03-24T17:33:46Z</time>
      </trkpt>
      <trkpt lat="45.8483" lon="2.61409">
        <ele>672</ele>
        <time>2017-03-24T17:33:26Z</time>
      </trkpt>
      <trkpt lat="45.84837" lon="2.6139">
        <ele>673</ele>
        <time>2017-03-24T17:33:06Z</time>
      </trkpt>
      <trkpt lat="45.84913" lon="2.61287">
        <ele>669</ele>
        <time>2017-03-24T17:32:46Z</time>
      </trkpt>
      <trkpt lat="45.84917" lon="2.61268">
        <ele>671</ele>
        <time>2017-03-24T17:32:26Z</time>
      </trkpt>
      <trkpt lat="45.8491" lon="2.61243">
        <ele>669</ele>
        <time>2017-03-24T17:32:06Z</time>
      </trkpt>
      <trkpt lat="45.84883" lon="2.61218">
        <ele>671</ele>
        <time>2017-03-24T17:31:46Z</time>
      </trkpt>
      <trkpt lat="45.84862" lon="2.61212">
        <ele>672</ele>
        <time>2017-03-24T17:31:26Z</time>
      </trkpt>
      <trkpt lat="45.84822" lon="2.61223">
        <ele>670</ele>
        <time>2017-03-24T17:31:06Z</time>
      </trkpt>
      <trkpt lat="45.84777" lon="2.61219">
        <ele>671</ele>
        <time>2017-03-24T17:30:46Z</time>
      </trkpt>
      <trkpt lat="45.84735" lon="2.61201">
        <ele>670</ele>
        <time>2017-03-24T17:30:26Z</time>
      </trkpt>
      <trkpt lat="45.84686" lon="2.61159">
        <ele>673</ele>
        <time>2017-03-24T17:30:06Z</time>
      </trkpt>
      <trkpt lat="45.84636" lon="2.61092">
        <ele>671</ele>
        <time>2017-03-24T17:29:46Z</time>
      </trkpt>
      <trkpt lat="45.84602" lon="2.61068">
        <ele>676</ele>
        <time>2017-03-24T17:29:26Z</time>
      </trkpt>
      <trkpt lat="45.84562" lon="2.61028">
        <ele>674</ele>
        <time>2017-03-24T17:29:06Z</time>
      </trkpt>
      <trkpt lat="45.84336" lon="2.60848">
        <ele>681</ele>
        <time>2017-03-24T17:28:46Z</time>
      </trkpt>
      <trkpt lat="45.84287" lon="2.60781">
        <ele>681</ele>
        <time>2017-03-24T17:28:26Z</time>
      </trkpt>
      <trkpt lat="45.8426" lon="2.60725">
        <ele>683</ele>
        <time>2017-03-24T17:28:06Z</time>
      </trkpt>
      <trkpt lat="45.84199" lon="2.60631">
        <ele>679</ele>
        <time>2017-03-24T17:27:46Z</time>
      </trkpt>
      <trkpt lat="45.84184" lon="2.60593">
        <ele>678</ele>
        <time>2017-03-24T17:27:26Z</time>
      </trkpt>
      <trkpt lat="45.84188" lon="2.6055">
        <ele>678</ele>
        <time>2017-03-24T17:27:06Z</time>
      </trkpt>
      <trkpt lat="45.84187" lon="2.60489">
        <ele>675</ele>
        <time>2017-03-24T17:26:46Z</time>
      </trkpt>
      <trkpt lat="45.84192" lon="2.60441">
        <ele>674</ele>
        <time>2017-03-24T17:26:26Z</time>
      </trkpt>
      <trkpt lat="45.84185" lon="2.60409">
        <ele>669</ele>
        <time>2017-03-24T17:26:06Z</time>
      </trkpt>
      <trkpt lat="45.84191" lon="2.60367">
        <ele>667</ele>
        <time>2017-03-24T17:25:46Z</time>
      </trkpt>
      <trkpt lat="45.84143" lon="2.60245">
        <ele>649</ele>
        <time>2017-03-24T17:25:26Z</time>
      </trkpt>
      <trkpt lat="45.84148" lon="2.60224">
        <ele>649</ele>
        <time>2017-03-24T17:25:06Z</time>
      </trkpt>
      <trkpt lat="45.84171" lon="2.60195">
        <ele>654</ele>
        <time>2017-03-24T17:24:46Z</time>
      </trkpt>
      <trkpt lat="45.84227" lon="2.60103">
        <ele>650</ele>
        <time>2017-03-24T17:24:26Z</time>
      </trkpt>
      <trkpt lat="45.8425" lon="2.60031">
        <ele>650</ele>
        <time>2017-03-24T17:24:06Z</time>
      </trkpt>
      <trkpt lat="45.84317" lon="2.59924">
        <ele>649</ele>
        <time>2017-03-24T17:23:46Z</time>
      </trkpt>
      <trkpt lat="45.84343" lon="2.59909">
        <ele>650</ele>
        <time>2017-03-24T17:23:26Z</time>
      </trkpt>
      <trkpt lat="45.84397" lon="2.59895">
        <ele>651</ele>
        <time>2017-03-24T17:23:06Z</time>
      </trkpt>
      <trkpt lat="45.84442" lon="2.59848">
        <ele>654</ele>
        <time>2017-03-24T17:22:46Z</time>
      </trkpt>
      <trkpt lat="45.84502" lon="2.59822">
        <ele>660</ele>
        <time>2017-03-24T17:22:26Z</time>
      </trkpt>
      <trkpt lat="45.84517" lon="2.59777">
        <ele>661</ele>
        <time>2017-03-24T17:22:06Z</time>
      </trkpt>
      <trkpt lat="45.84519" lon="2.59708">
        <ele>662</ele>
        <time>2017-03-24T17:21:46Z</time>
      </trkpt>
      <trkpt lat="45.84528" lon="2.59635">
        <ele>663</ele>
        <time>2017-03-24T17:21:26Z</time>
      </trkpt>
      <trkpt lat="45.84542" lon="2.59601">
        <ele>663</ele>
        <time>2017-03-24T17:21:06Z</time>
      </trkpt>
      <trkpt lat="45.84537" lon="2.59577">
        <ele>664</ele>
        <time>2017-03-24T17:20:46Z</time>
      </trkpt>
      <trkpt lat="45.84541" lon="2.59537">
        <ele>664</ele>
        <time>2017-03-24T17:20:26Z</time>
      </trkpt>
      <trkpt lat="45.84572" lon="2.59521">
        <ele>663</ele>
        <time>2017-03-24T17:20:06Z</time>
      </trkpt>
      <trkpt lat="45.84584" lon="2.59496">
        <ele>661</ele>
        <time>2017-03-24T17:19:46Z</time>
      </trkpt>
      <trkpt lat="45.84585" lon="2.59437">
        <ele>659</ele>
        <time>2017-03-24T17:19:26Z</time>
      </trkpt>
      <trkpt lat="45.84594" lon="2.59391">
        <ele>657</ele>
        <time>2017-03-24T17:19:06Z</time>
      </trkpt>
      <trkpt lat="45.84607" lon="2.59366">
        <ele>656</ele>
        <time>2017-03-24T17:18:46Z</time>
      </trkpt>
      <trkpt lat="45.84642" lon="2.59337">
        <ele>656</ele>
        <time>2017-03-24T17:18:26Z</time>
      </trkpt>
      <trkpt lat="45.84647" lon="2.59322">
        <ele>656</ele>
        <time>2017-03-24T17:18:06Z</time>
      </trkpt>
      <trkpt lat="45.84644" lon="2.59272">
        <ele>656</ele>
        <time>2017-03-24T17:17:46Z</time>
      </trkpt>
      <trkpt lat="45.84655" lon="2.59221">
        <ele>657</ele>
        <time>2017-03-24T17:17:26Z</time>
      </trkpt>
      <trkpt lat="45.84681" lon="2.59185">
        <ele>659</ele>
        <time>2017-03-24T17:17:06Z</time>
      </trkpt>
      <trkpt lat="45.84706" lon="2.59118">
        <ele>664</ele>
        <time>2017-03-24T17:16:46Z</time>
      </trkpt>
      <trkpt lat="45.84726" lon="2.59021">
        <ele>672</ele>
        <time>2017-03-24T17:16:26Z</time>
      </trkpt>
      <trkpt lat="45.84715" lon="2.58949">
        <ele>675</ele>
        <time>2017-03-24T17:16:06Z</time>
      </trkpt>
      <trkpt lat="45.84731" lon="2.58846">
        <ele>675</ele>
        <time>2017-03-24T17:15:46Z</time>
      </trkpt>
      <trkpt lat="45.84727" lon="2.58809">
        <ele>673</ele>
        <time>2017-03-24T17:15:26Z</time>
      </trkpt>
      <trkpt lat="45.84712" lon="2.58797">
        <ele>672</ele>
        <time>2017-03-24T17:15:06Z</time>
      </trkpt>
      <trkpt lat="45.84711" lon="2.58775">
        <ele>672</ele>
        <time>2017-03-24T17:14:46Z</time>
      </trkpt>
      <trkpt lat="45.84743" lon="2.58668">
        <ele>670</ele>
        <time>2017-03-24T17:14:26Z</time>
      </trkpt>
      <trkpt lat="45.84743" lon="2.58607">
        <ele>661</ele>
        <time>2017-03-24T17:14:06Z</time>
      </trkpt>
      <trkpt lat="45.84749" lon="2.58584">
        <ele>661</ele>
        <time>2017-03-24T17:13:46Z</time>
      </trkpt>
      <trkpt lat="45.84778" lon="2.58552">
        <ele>663</ele>
        <time>2017-03-24T17:13:26Z</time>
      </trkpt>
      <trkpt lat="45.84813" lon="2.58439">
        <ele>660</ele>
        <time>2017-03-24T17:13:06Z</time>
      </trkpt>
      <trkpt lat="45.84803" lon="2.58378">
        <ele>661</ele>
        <time>2017-03-24T17:12:46Z</time>
      </trkpt>
      <trkpt lat="45.84802" lon="2.58338">
        <ele>662</ele>
        <time>2017-03-24T17:12:26Z</time>
      </trkpt>
      <trkpt lat="45.84825" lon="2.58278">
        <ele>661</ele>
        <time>2017-03-24T17:12:06Z</time>
      </trkpt>
      <trkpt lat="45.84824" lon="2.58238">
        <ele>660</ele>
        <time>2017-03-24T17:11:46Z</time>
      </trkpt>
      <trkpt lat="45.84841" lon="2.58191">
        <ele>661</ele>
        <time>2017-03-24T17:11:26Z</time>
      </trkpt>
      <trkpt lat="45.84849" lon="2.58141">
        <ele>662</ele>
        <time>2017-03-24T17:11:06Z</time>
      </trkpt>
      <trkpt lat="45.84899" lon="2.58058">
        <ele>672</ele>
        <time>2017-03-24T17:10:46Z</time>
      </trkpt>
      <trkpt lat="45.84867" lon="2.58026">
        <ele>673</ele>
        <time>2017-03-24T17:10:26Z</time>
      </trkpt>
      <trkpt lat="45.84861" lon="2.57997">
        <ele>677</ele>
        <time>2017-03-24T17:10:06Z</time>
      </trkpt>
      <trkpt lat="45.84887" lon="2.57871">
        <ele>682</ele>
        <time>2017-03-24T17:09:46Z</time>
      </trkpt>
      <trkpt lat="45.84901" lon="2.57821">
        <ele>683</ele>
        <time>2017-03-24T17:09:26Z</time>
      </trkpt>
      <trkpt lat="45.84929" lon="2.57678">
        <ele>685</ele>
        <time>2017-03-24T17:09:06Z</time>
      </trkpt>
      <trkpt lat="45.8495" lon="2.57639">
        <ele>685</ele>
        <time>2017-03-24T17:08:46Z</time>
      </trkpt>
      <trkpt lat="45.84974" lon="2.57524">
        <ele>684</ele>
        <time>2017-03-24T17:08:26Z</time>
      </trkpt>
      <trkpt lat="45.84973" lon="2.57465">
        <ele>682</ele>
        <time>2017-03-24T17:08:06Z</time>
      </trkpt>
      <trkpt lat="45.84997" lon="2.57392">
        <ele>683</ele>
        <time>2017-03-24T17:07:46Z</time>
      </trkpt>
      <trkpt lat="45.85045" lon="2.57289">
        <ele>684</ele>
        <time>2017-03-24T17:07:26Z</time>
      </trkpt>
      <trkpt lat="45.85046" lon="2.57241">
        <ele>679</ele>
        <time>2017-03-24T17:07:06Z</time>
      </trkpt>
      <trkpt lat="45.85083" lon="2.57116">
        <ele>681</ele>
        <time>2017-03-24T17:06:46Z</time>
      </trkpt>
      <trkpt lat="45.85121" lon="2.57038">
        <ele>682</ele>
        <time>2017-03-24T17:06:26Z</time>
      </trkpt>
      <trkpt lat="45.85139" lon="2.56984">
        <ele>681</ele>
        <time>2017-03-24T17:06:06Z</time>
      </trkpt>
      <trkpt lat="45.85161" lon="2.56867">
        <ele>675</ele>
        <time>2017-03-24T17:05:46Z</time>
      </trkpt>
      <trkpt lat="45.85212" lon="2.56663">
        <ele>668</ele>
        <time>2017-03-24T17:05:46Z</time>
      </trkpt>
      <trkpt lat="45.85262" lon="2.5658">
        <ele>668</ele>
        <time>2017-03-24T17:04:26Z</time>
      </trkpt>
      <trkpt lat="45.8525" lon="2.56499">
        <ele>666</ele>
        <time>2017-03-24T17:04:06Z</time>
      </trkpt>
      <trkpt lat="45.85239" lon="2.56362">
        <ele>669</ele>
        <time>2017-03-24T17:03:46Z</time>
      </trkpt>
      <trkpt lat="45.85239" lon="2.56362">
        <ele>669</ele>
        <time>2017-03-24T17:03:26Z</time>
      </trkpt>
      <trkpt lat="45.85239" lon="2.56349">
        <ele>669</ele>
        <time>2017-03-24T17:03:06Z</time>
      </trkpt>
      <trkpt lat="45.85239" lon="2.56349">
        <ele>669</ele>
        <time>2017-03-24T17:02:46Z</time>
      </trkpt>
      <trkpt lat="45.85196" lon="2.56298">
        <ele>672</ele>
        <time>2017-03-24T17:02:26Z</time>
      </trkpt>
      <trkpt lat="45.85084" lon="2.56353">
        <ele>669.2</ele>
        <time>2017-03-24T17:02:06Z</time>
      </trkpt>
      <trkpt lat="45.84874" lon="2.56178">
        <ele>682.8</ele>
        <time>2017-03-24T17:01:46Z</time>
      </trkpt>
      <trkpt lat="45.84446" lon="2.56003">
        <ele>693.5</ele>
        <time>2017-03-24T17:01:26Z</time>
      </trkpt>
      <trkpt lat="45.84468" lon="2.56167">
        <ele>690</ele>
        <time>2017-03-24T17:01:06Z</time>
      </trkpt>
      <trkpt lat="45.8444" lon="2.55994">
        <ele>694.4</ele>
        <time>2017-03-24T17:00:46Z</time>
      </trkpt>
      <trkpt lat="45.84497" lon="2.56002">
        <ele>693.9</ele>
        <time>2017-03-24T17:00:26Z</time>
      </trkpt>
      <trkpt lat="45.84461" lon="2.5574">
        <ele>705.9</ele>
        <time>2017-03-24T17:00:06Z</time>
      </trkpt>
      <trkpt lat="45.84531" lon="2.55805">
        <ele>709.3</ele>
        <time>2017-03-24T16:59:46Z</time>
      </trkpt>
      <trkpt lat="45.84604" lon="2.5581">
        <ele>711.3</ele>
        <time>2017-03-24T16:59:26Z</time>
      </trkpt>
      <trkpt lat="45.84862" lon="2.55743">
        <ele>707.1</ele>
        <time>2017-03-24T16:59:06Z</time>
      </trkpt>
      <trkpt lat="45.84906" lon="2.55744">
        <ele>704.7</ele>
        <time>2017-03-24T16:58:46Z</time>
      </trkpt>
      <trkpt lat="45.85111" lon="2.55629">
        <ele>687.3</ele>
        <time>2017-03-24T16:58:26Z</time>
      </trkpt>
      <trkpt lat="45.85192" lon="2.55532">
        <ele>680.5</ele>
        <time>2017-03-24T16:58:06Z</time>
      </trkpt>
      <trkpt lat="45.85274" lon="2.55498">
        <ele>672.6</ele>
        <time>2017-03-24T16:57:46Z</time>
      </trkpt>
      <trkpt lat="45.85341" lon="2.55459">
        <ele>671</ele>
        <time>2017-03-24T16:57:26Z</time>
      </trkpt>
      <trkpt lat="45.85331" lon="2.55269">
        <ele>671</ele>
        <time>2017-03-24T16:57:06Z</time>
      </trkpt>
      <trkpt lat="45.85403" lon="2.55008">
        <ele>677</ele>
        <time>2017-03-24T16:56:46Z</time>
      </trkpt>
      <trkpt lat="45.85289" lon="2.54943">
        <ele>677</ele>
        <time>2017-03-24T16:56:26Z</time>
      </trkpt>
      <trkpt lat="45.85248" lon="2.5498">
        <ele>681</ele>
        <time>2017-03-24T16:56:06Z</time>
      </trkpt>
      <trkpt lat="45.85204" lon="2.55006">
        <ele>683</ele>
        <time>2017-03-24T16:55:46Z</time>
      </trkpt>
      <trkpt lat="45.85166" lon="2.54988">
        <ele>688</ele>
        <time>2017-03-24T16:55:26Z</time>
      </trkpt>
      <trkpt lat="45.85125" lon="2.54867">
        <ele>690</ele>
        <time>2017-03-24T16:55:06Z</time>
      </trkpt>
      <trkpt lat="45.85059" lon="2.54813">
        <ele>694</ele>
        <time>2017-03-24T16:54:46Z</time>
      </trkpt>
      <trkpt lat="45.85027" lon="2.54758">
        <ele>696</ele>
        <time>2017-03-24T16:54:26Z</time>
      </trkpt>
      <trkpt lat="45.84952" lon="2.54735">
        <ele>701</ele>
        <time>2017-03-24T16:54:06Z</time>
      </trkpt>
      <trkpt lat="45.84948" lon="2.54721">
        <ele>701</ele>
        <time>2017-03-24T16:53:46Z</time>
      </trkpt>
      <trkpt lat="45.84984" lon="2.54694">
        <ele>701</ele>
        <time>2017-03-24T16:53:26Z</time>
      </trkpt>
      <trkpt lat="45.8501" lon="2.54655">
        <ele>701</ele>
        <time>2017-03-24T16:53:06Z</time>
      </trkpt>
      <trkpt lat="45.8505" lon="2.54561">
        <ele>705</ele>
        <time>2017-03-24T16:52:46Z</time>
      </trkpt>
      <trkpt lat="45.85068" lon="2.54522">
        <ele>705</ele>
        <time>2017-03-24T16:52:26Z</time>
      </trkpt>
      <trkpt lat="45.85099" lon="2.54493">
        <ele>699</ele>
        <time>2017-03-24T16:52:06Z</time>
      </trkpt>
      <trkpt lat="45.85098" lon="2.54429">
        <ele>702</ele>
        <time>2017-03-24T16:51:46Z</time>
      </trkpt>
      <trkpt lat="45.85074" lon="2.5435">
        <ele>714</ele>
        <time>2017-03-24T16:51:26Z</time>
      </trkpt>
      <trkpt lat="45.85077" lon="2.54264">
        <ele>711</ele>
        <time>2017-03-24T16:51:06Z</time>
      </trkpt>
      <trkpt lat="45.85062" lon="2.54164">
        <ele>706</ele>
        <time>2017-03-24T16:50:46Z</time>
      </trkpt>
      <trkpt lat="45.85052" lon="2.54122">
        <ele>706</ele>
        <time>2017-03-24T16:50:26Z</time>
      </trkpt>
      <trkpt lat="45.85022" lon="2.54086">
        <ele>708</ele>
        <time>2017-03-24T16:50:06Z</time>
      </trkpt>
      <trkpt lat="45.84948" lon="2.54061">
        <ele>707</ele>
        <time>2017-03-24T16:49:46Z</time>
      </trkpt>
      <trkpt lat="45.84872" lon="2.54084">
        <ele>710</ele>
        <time>2017-03-24T16:49:26Z</time>
      </trkpt>
      <trkpt lat="45.84799" lon="2.54079">
        <ele>702</ele>
        <time>2017-03-24T16:49:06Z</time>
      </trkpt>
      <trkpt lat="45.84726" lon="2.54108">
        <ele>706</ele>
        <time>2017-03-24T16:48:46Z</time>
      </trkpt>
      <trkpt lat="45.84684" lon="2.54103">
        <ele>706</ele>
        <time>2017-03-24T16:48:26Z</time>
      </trkpt>
      <trkpt lat="45.84623" lon="2.54117">
        <ele>711</ele>
        <time>2017-03-24T16:48:06Z</time>
      </trkpt>
      <trkpt lat="45.84656" lon="2.53987">
        <ele>707</ele>
        <time>2017-03-24T16:47:46Z</time>
      </trkpt>
      <trkpt lat="45.84649" lon="2.53815">
        <ele>723</ele>
        <time>2017-03-24T16:47:26Z</time>
      </trkpt>
      <trkpt lat="45.84678" lon="2.5355">
        <ele>737</ele>
        <time>2017-03-24T16:47:06Z</time>
      </trkpt>
      <trkpt lat="45.84657" lon="2.53419">
        <ele>741</ele>
        <time>2017-03-24T16:46:46Z</time>
      </trkpt>
      <trkpt lat="45.84622" lon="2.53271">
        <ele>752</ele>
        <time>2017-03-24T16:46:26Z</time>
      </trkpt>
      <trkpt lat="45.84545" lon="2.52753">
        <ele>721</ele>
        <time>2017-03-24T16:46:06Z</time>
      </trkpt>
      <trkpt lat="45.84575" lon="2.52367">
        <ele>699</ele>
        <time>2017-03-24T16:45:46Z</time>
      </trkpt>
      <trkpt lat="45.846" lon="2.52286">
        <ele>695</ele>
        <time>2017-03-24T16:45:26Z</time>
      </trkpt>
      <trkpt lat="45.84638" lon="2.52252">
        <ele>694</ele>
        <time>2017-03-24T16:45:06Z</time>
      </trkpt>
      <trkpt lat="45.84613" lon="2.52238">
        <ele>693</ele>
        <time>2017-03-24T16:44:46Z</time>
      </trkpt>
      <trkpt lat="45.8459" lon="2.52192">
        <ele>693</ele>
        <time>2017-03-24T16:44:26Z</time>
      </trkpt>
      <trkpt lat="45.84554" lon="2.52061">
        <ele>702</ele>
        <time>2017-03-24T16:44:06Z</time>
      </trkpt>
      <trkpt lat="45.84598" lon="2.52011">
        <ele>697</ele>
        <time>2017-03-24T16:43:46Z</time>
      </trkpt>
      <trkpt lat="45.84669" lon="2.51953">
        <ele>693</ele>
        <time>2017-03-24T16:43:26Z</time>
      </trkpt>
      <trkpt lat="45.84733" lon="2.51981">
        <ele>692</ele>
        <time>2017-03-24T16:43:06Z</time>
      </trkpt>
      <trkpt lat="45.84777" lon="2.51951">
        <ele>692</ele>
        <time>2017-03-24T16:42:46Z</time>
      </trkpt>
      <trkpt lat="45.84783" lon="2.51858">
        <ele>694</ele>
        <time>2017-03-24T16:42:26Z</time>
      </trkpt>
      <trkpt lat="45.84798" lon="2.51784">
        <ele>696</ele>
        <time>2017-03-24T16:42:06Z</time>
      </trkpt>
      <trkpt lat="45.84862" lon="2.51597">
        <ele>699</ele>
        <time>2017-03-24T16:41:46Z</time>
      </trkpt>
      <trkpt lat="45.84931" lon="2.51293">
        <ele>712</ele>
        <time>2017-03-24T16:41:26Z</time>
      </trkpt>
      <trkpt lat="45.84974" lon="2.512">
        <ele>717</ele>
        <time>2017-03-24T16:41:06Z</time>
      </trkpt>
      <trkpt lat="45.85006" lon="2.51144">
        <ele>721</ele>
        <time>2017-03-24T16:40:46Z</time>
      </trkpt>
      <trkpt lat="45.85107" lon="2.51063">
        <ele>718</ele>
        <time>2017-03-24T16:40:26Z</time>
      </trkpt>
      <trkpt lat="45.85154" lon="2.50994">
        <ele>718</ele>
        <time>2017-03-24T16:40:06Z</time>
      </trkpt>
      <trkpt lat="45.8516" lon="2.50958">
        <ele>720</ele>
        <time>2017-03-24T16:39:46Z</time>
      </trkpt>
      <trkpt lat="45.85209" lon="2.50899">
        <ele>713</ele>
        <time>2017-03-24T16:39:26Z</time>
      </trkpt>
      <trkpt lat="45.85195" lon="2.50848">
        <ele>715</ele>
        <time>2017-03-24T16:39:06Z</time>
      </trkpt>
      <trkpt lat="45.85196" lon="2.50784">
        <ele>715</ele>
        <time>2017-03-24T16:38:46Z</time>
      </trkpt>
      <trkpt lat="45.85172" lon="2.50761">
        <ele>717</ele>
        <time>2017-03-24T16:38:26Z</time>
      </trkpt>
      <trkpt lat="45.85118" lon="2.50635">
        <ele>713</ele>
        <time>2017-03-24T16:38:06Z</time>
      </trkpt>
      <trkpt lat="45.85053" lon="2.50553">
        <ele>717</ele>
        <time>2017-03-24T16:37:46Z</time>
      </trkpt>
      <trkpt lat="45.84965" lon="2.50405">
        <ele>718</ele>
        <time>2017-03-24T16:37:26Z</time>
      </trkpt>
      <trkpt lat="45.84858" lon="2.50351">
        <ele>718</ele>
        <time>2017-03-24T16:37:06Z</time>
      </trkpt>
      <trkpt lat="45.84652" lon="2.50306">
        <ele>710</ele>
        <time>2017-03-24T16:36:46Z</time>
      </trkpt>
      <trkpt lat="45.84614" lon="2.50262">
        <ele>710</ele>
        <time>2017-03-24T16:36:26Z</time>
      </trkpt>
      <trkpt lat="45.84575" lon="2.5015">
        <ele>711</ele>
        <time>2017-03-24T16:36:06Z</time>
      </trkpt>
      <trkpt lat="45.84521" lon="2.50068">
        <ele>710</ele>
        <time>2017-03-24T16:35:46Z</time>
      </trkpt>
      <trkpt lat="45.84534" lon="2.49975">
        <ele>708</ele>
        <time>2017-03-24T16:35:26Z</time>
      </trkpt>
      <trkpt lat="45.84589" lon="2.49842">
        <ele>711</ele>
        <time>2017-03-24T16:35:06Z</time>
      </trkpt>
      <trkpt lat="45.84588" lon="2.49774">
        <ele>711</ele>
        <time>2017-03-24T16:34:46Z</time>
      </trkpt>
      <trkpt lat="45.84576" lon="2.497">
        <ele>710</ele>
        <time>2017-03-24T16:34:26Z</time>
      </trkpt>
      <trkpt lat="45.84604" lon="2.49697">
        <ele>709</ele>
        <time>2017-03-24T16:34:06Z</time>
      </trkpt>
      <trkpt lat="45.84642" lon="2.49667">
        <ele>708</ele>
        <time>2017-03-24T16:33:46Z</time>
      </trkpt>
      <trkpt lat="45.84687" lon="2.49664">
        <ele>709</ele>
        <time>2017-03-24T16:33:26Z</time>
      </trkpt>
      <trkpt lat="45.84787" lon="2.49567">
        <ele>720</ele>
        <time>2017-03-24T16:33:06Z</time>
      </trkpt>
      <trkpt lat="45.84963" lon="2.49547">
        <ele>718</ele>
        <time>2017-03-24T16:32:46Z</time>
      </trkpt>
      <trkpt lat="45.8498" lon="2.49522">
        <ele>718</ele>
        <time>2017-03-24T16:32:26Z</time>
      </trkpt>
      <trkpt lat="45.84953" lon="2.49404">
        <ele>722</ele>
        <time>2017-03-24T16:32:06Z</time>
      </trkpt>
      <trkpt lat="45.84989" lon="2.49302">
        <ele>723</ele>
        <time>2017-03-24T16:31:46Z</time>
      </trkpt>
      <trkpt lat="45.84899" lon="2.49182">
        <ele>730</ele>
        <time>2017-03-24T16:31:26Z</time>
      </trkpt>
      <trkpt lat="45.84856" lon="2.49086">
        <ele>730</ele>
        <time>2017-03-24T16:31:06Z</time>
      </trkpt>
      <trkpt lat="45.84871" lon="2.48969">
        <ele>733</ele>
        <time>2017-03-24T16:30:46Z</time>
      </trkpt>
      <trkpt lat="45.84912" lon="2.48878">
        <ele>738</ele>
        <time>2017-03-24T16:30:26Z</time>
      </trkpt>
      <trkpt lat="45.84924" lon="2.48789">
        <ele>739</ele>
        <time>2017-03-24T16:30:06Z</time>
      </trkpt>
      <trkpt lat="45.84964" lon="2.48718">
        <ele>742</ele>
        <time>2017-03-24T16:29:46Z</time>
      </trkpt>
      <trkpt lat="45.84978" lon="2.48634">
        <ele>742</ele>
        <time>2017-03-24T16:29:26Z</time>
      </trkpt>
      <trkpt lat="45.8498" lon="2.4858">
        <ele>739</ele>
        <time>2017-03-24T16:29:06Z</time>
      </trkpt>
      <trkpt lat="45.84966" lon="2.48516">
        <ele>740</ele>
        <time>2017-03-24T16:28:46Z</time>
      </trkpt>
      <trkpt lat="45.84956" lon="2.48353">
        <ele>740</ele>
        <time>2017-03-24T16:28:26Z</time>
      </trkpt>
      <trkpt lat="45.84879" lon="2.48357">
        <ele>745</ele>
        <time>2017-03-24T16:28:06Z</time>
      </trkpt>
      <trkpt lat="45.84769" lon="2.48295">
        <ele>750</ele>
        <time>2017-03-24T16:27:46Z</time>
      </trkpt>
      <trkpt lat="45.84827" lon="2.48172">
        <ele>743</ele>
        <time>2017-03-24T16:27:26Z</time>
      </trkpt>
      <trkpt lat="45.84863" lon="2.48098">
        <ele>737</ele>
        <time>2017-03-24T16:27:06Z</time>
      </trkpt>
      <trkpt lat="45.84905" lon="2.48052">
        <ele>734</ele>
        <time>2017-03-24T16:26:46Z</time>
      </trkpt>
      <trkpt lat="45.84943" lon="2.47942">
        <ele>736</ele>
        <time>2017-03-24T16:26:26Z</time>
      </trkpt>
      <trkpt lat="45.85035" lon="2.47883">
        <ele>735</ele>
        <time>2017-03-24T16:26:06Z</time>
      </trkpt>
      <trkpt lat="45.85107" lon="2.47926">
        <ele>731</ele>
        <time>2017-03-24T16:25:46Z</time>
      </trkpt>
      <trkpt lat="45.85134" lon="2.47947">
        <ele>729</ele>
        <time>2017-03-24T16:25:26Z</time>
      </trkpt>
      <trkpt lat="45.85176" lon="2.47951">
        <ele>727</ele>
        <time>2017-03-24T16:25:06Z</time>
      </trkpt>
      <trkpt lat="45.85257" lon="2.47749">
        <ele>721</ele>
        <time>2017-03-24T16:24:46Z</time>
      </trkpt>
      <trkpt lat="45.8532" lon="2.47732">
        <ele>718</ele>
        <time>2017-03-24T16:24:26Z</time>
      </trkpt>
      <trkpt lat="45.85384" lon="2.4768">
        <ele>717</ele>
        <time>2017-03-24T16:24:06Z</time>
      </trkpt>
      <trkpt lat="45.85392" lon="2.47616">
        <ele>720</ele>
        <time>2017-03-24T16:23:46Z</time>
      </trkpt>
      <trkpt lat="45.85409" lon="2.47611">
        <ele>719</ele>
        <time>2017-03-24T16:23:26Z</time>
      </trkpt>
      <trkpt lat="45.85415" lon="2.47527">
        <ele>720</ele>
        <time>2017-03-24T16:23:06Z</time>
      </trkpt>
      <trkpt lat="45.85449" lon="2.47451">
        <ele>716</ele>
        <time>2017-03-24T16:22:46Z</time>
      </trkpt>
      <trkpt lat="45.85454" lon="2.47325">
        <ele>718</ele>
        <time>2017-03-24T16:22:26Z</time>
      </trkpt>
      <trkpt lat="45.85415" lon="2.47181">
        <ele>718</ele>
        <time>2017-03-24T16:22:06Z</time>
      </trkpt>
      <trkpt lat="45.85413" lon="2.47104">
        <ele>719</ele>
        <time>2017-03-24T16:21:46Z</time>
      </trkpt>
      <trkpt lat="45.85442" lon="2.47041">
        <ele>721</ele>
        <time>2017-03-24T16:21:26Z</time>
      </trkpt>
      <trkpt lat="45.85444" lon="2.4699">
        <ele>724</ele>
        <time>2017-03-24T16:21:06Z</time>
      </trkpt>
      <trkpt lat="45.8542" lon="2.46927">
        <ele>728</ele>
        <time>2017-03-24T16:20:46Z</time>
      </trkpt>
      <trkpt lat="45.85403" lon="2.46823">
        <ele>730</ele>
        <time>2017-03-24T16:20:26Z</time>
      </trkpt>
      <trkpt lat="45.85425" lon="2.46682">
        <ele>734</ele>
        <time>2017-03-24T16:20:06Z</time>
      </trkpt>
      <trkpt lat="45.85585" lon="2.46542">
        <ele>750</ele>
        <time>2017-03-24T16:19:46Z</time>
      </trkpt>
      <trkpt lat="45.85621" lon="2.46461">
        <ele>753</ele>
        <time>2017-03-24T16:19:26Z</time>
      </trkpt>
      <trkpt lat="45.85693" lon="2.46379">
        <ele>742</ele>
        <time>2017-03-24T16:19:06Z</time>
      </trkpt>
      <trkpt lat="45.85751" lon="2.4622">
        <ele>728</ele>
        <time>2017-03-24T16:18:46Z</time>
      </trkpt>
      <trkpt lat="45.85854" lon="2.46198">
        <ele>727</ele>
        <time>2017-03-24T16:18:26Z</time>
      </trkpt>
      <trkpt lat="45.85873" lon="2.46161">
        <ele>727</ele>
        <time>2017-03-24T16:18:06Z</time>
      </trkpt>
      <trkpt lat="45.85872" lon="2.46087">
        <ele>727</ele>
        <time>2017-03-24T16:17:46Z</time>
      </trkpt>
      <trkpt lat="45.8592" lon="2.45926">
        <ele>727</ele>
        <time>2017-03-24T16:17:26Z</time>
      </trkpt>
      <trkpt lat="45.85923" lon="2.45855">
        <ele>726</ele>
        <time>2017-03-24T16:17:06Z</time>
      </trkpt>
      <trkpt lat="45.85885" lon="2.45743">
        <ele>728</ele>
        <time>2017-03-24T16:16:46Z</time>
      </trkpt>
      <trkpt lat="45.85874" lon="2.4562">
        <ele>733</ele>
        <time>2017-03-24T16:16:26Z</time>
      </trkpt>
      <trkpt lat="45.85912" lon="2.45529">
        <ele>738</ele>
        <time>2017-03-24T16:16:06Z</time>
      </trkpt>
      <trkpt lat="45.85966" lon="2.4538">
        <ele>745</ele>
        <time>2017-03-24T16:15:46Z</time>
      </trkpt>
      <trkpt lat="45.85902" lon="2.45229">
        <ele>745</ele>
        <time>2017-03-24T16:15:26Z</time>
      </trkpt>
      <trkpt lat="45.85856" lon="2.45176">
        <ele>744</ele>
        <time>2017-03-24T16:15:06Z</time>
      </trkpt>
      <trkpt lat="45.85809" lon="2.45098">
        <ele>740</ele>
        <time>2017-03-24T16:14:46Z</time>
      </trkpt>
      <trkpt lat="45.8582" lon="2.44966">
        <ele>741</ele>
        <time>2017-03-24T16:14:26Z</time>
      </trkpt>
      <trkpt lat="45.8581" lon="2.44901">
        <ele>744</ele>
        <time>2017-03-24T16:14:06Z</time>
      </trkpt>
      <trkpt lat="45.85814" lon="2.44782">
        <ele>749</ele>
        <time>2017-03-24T16:13:46Z</time>
      </trkpt>
      <trkpt lat="45.85808" lon="2.44555">
        <ele>747</ele>
        <time>2017-03-24T16:13:26Z</time>
      </trkpt>
      <trkpt lat="45.85857" lon="2.4445">
        <ele>749</ele>
        <time>2017-03-24T16:13:06Z</time>
      </trkpt>
      <trkpt lat="45.85851" lon="2.44349">
        <ele>745</ele>
        <time>2017-03-24T16:12:46Z</time>
      </trkpt>
      <trkpt lat="45.85753" lon="2.4426">
        <ele>738</ele>
        <time>2017-03-24T16:12:26Z</time>
      </trkpt>
      <trkpt lat="45.85684" lon="2.44252">
        <ele>737</ele>
        <time>2017-03-24T16:12:06Z</time>
      </trkpt>
      <trkpt lat="45.85609" lon="2.44249">
        <ele>739</ele>
        <time>2017-03-24T16:11:46Z</time>
      </trkpt>
      <trkpt lat="45.85511" lon="2.44212">
        <ele>744</ele>
        <time>2017-03-24T16:11:26Z</time>
      </trkpt>
      <trkpt lat="45.85438" lon="2.44203">
        <ele>749</ele>
        <time>2017-03-24T16:11:06Z</time>
      </trkpt>
      <trkpt lat="45.8542" lon="2.44214">
        <ele>750</ele>
        <time>2017-03-24T16:10:46Z</time>
      </trkpt>
      <trkpt lat="45.85256" lon="2.44239">
        <ele>759</ele>
        <time>2017-03-24T16:10:26Z</time>
      </trkpt>
      <trkpt lat="45.85216" lon="2.44276">
        <ele>760</ele>
        <time>2017-03-24T16:10:06Z</time>
      </trkpt>
      <trkpt lat="45.85204" lon="2.44177">
        <ele>760</ele>
        <time>2017-03-24T16:09:46Z</time>
      </trkpt>
      <trkpt lat="45.85217" lon="2.4409">
        <ele>762</ele>
        <time>2017-03-24T16:09:26Z</time>
      </trkpt>
      <trkpt lat="45.85216" lon="2.43991">
        <ele>766</ele>
        <time>2017-03-24T16:09:06Z</time>
      </trkpt>
      <trkpt lat="45.85236" lon="2.43892">
        <ele>767</ele>
        <time>2017-03-24T16:08:46Z</time>
      </trkpt>
      <trkpt lat="45.85235" lon="2.43768">
        <ele>768</ele>
        <time>2017-03-24T16:08:26Z</time>
      </trkpt>
      <trkpt lat="45.85256" lon="2.43658">
        <ele>772</ele>
        <time>2017-03-24T16:08:06Z</time>
      </trkpt>
      <trkpt lat="45.85267" lon="2.43589">
        <ele>773</ele>
        <time>2017-03-24T16:07:46Z</time>
      </trkpt>
      <trkpt lat="45.8533" lon="2.43448">
        <ele>769</ele>
        <time>2017-03-24T16:07:26Z</time>
      </trkpt>
      <trkpt lat="45.85339" lon="2.43356">
        <ele>769</ele>
        <time>2017-03-24T16:07:06Z</time>
      </trkpt>
      <trkpt lat="45.85366" lon="2.43208">
        <ele>763</ele>
        <time>2017-03-24T16:06:46Z</time>
      </trkpt>
      <trkpt lat="45.85385" lon="2.43115">
        <ele>757</ele>
        <time>2017-03-24T16:06:26Z</time>
      </trkpt>
      <trkpt lat="45.85385" lon="2.43115">
        <ele>757</ele>
        <time>2017-03-24T16:06:06Z</time>
      </trkpt>
      <trkpt lat="45.85392" lon="2.43032">
        <ele>753</ele>
        <time>2017-03-24T16:05:46Z</time>
      </trkpt>
      <trkpt lat="45.8532" lon="2.42938">
        <ele>756</ele>
        <time>2017-03-24T16:05:26Z</time>
      </trkpt>
      <trkpt lat="45.85282" lon="2.42921">
        <ele>756</ele>
        <time>2017-03-24T16:05:06Z</time>
      </trkpt>
      <trkpt lat="45.85199" lon="2.42979">
        <ele>761</ele>
        <time>2017-03-24T16:04:46Z</time>
      </trkpt>
      <trkpt lat="45.8517" lon="2.4298">
        <ele>761</ele>
        <time>2017-03-24T16:04:26Z</time>
      </trkpt>
      <trkpt lat="45.85059" lon="2.42813">
        <ele>768</ele>
        <time>2017-03-24T16:04:06Z</time>
      </trkpt>
      <trkpt lat="45.85022" lon="2.42788">
        <ele>768</ele>
        <time>2017-03-24T16:03:46Z</time>
      </trkpt>
      <trkpt lat="45.84964" lon="2.42785">
        <ele>764</ele>
        <time>2017-03-24T16:03:26Z</time>
      </trkpt>
      <trkpt lat="45.84935" lon="2.42646">
        <ele>757</ele>
        <time>2017-03-24T16:03:06Z</time>
      </trkpt>
      <trkpt lat="45.84899" lon="2.42495">
        <ele>755</ele>
        <time>2017-03-24T16:02:46Z</time>
      </trkpt>
      <trkpt lat="45.84903" lon="2.42436">
        <ele>754</ele>
        <time>2017-03-24T16:02:26Z</time>
      </trkpt>
      <trkpt lat="45.84988" lon="2.4238">
        <ele>752</ele>
        <time>2017-03-24T16:02:06Z</time>
      </trkpt>
      <trkpt lat="45.85026" lon="2.42295">
        <ele>757</ele>
        <time>2017-03-24T16:01:46Z</time>
      </trkpt>
      <trkpt lat="45.85056" lon="2.42267">
        <ele>759</ele>
        <time>2017-03-24T16:01:26Z</time>
      </trkpt>
      <trkpt lat="45.85135" lon="2.42238">
        <ele>759</ele>
        <time>2017-03-24T16:01:06Z</time>
      </trkpt>
      <trkpt lat="45.85146" lon="2.42139">
        <ele>763</ele>
        <time>2017-03-24T16:00:46Z</time>
      </trkpt>
      <trkpt lat="45.8516" lon="2.42089">
        <ele>763</ele>
        <time>2017-03-24T16:00:26Z</time>
      </trkpt>
      <trkpt lat="45.85151" lon="2.42042">
        <ele>764</ele>
        <time>2017-03-24T16:00:06Z</time>
      </trkpt>
      <trkpt lat="45.85158" lon="2.42009">
        <ele>764</ele>
        <time>2017-03-24T15:59:46Z</time>
      </trkpt>
      <trkpt lat="45.85194" lon="2.4201">
        <ele>763</ele>
        <time>2017-03-24T15:59:26Z</time>
      </trkpt>
      <trkpt lat="45.85213" lon="2.41971">
        <ele>763</ele>
        <time>2017-03-24T15:59:06Z</time>
      </trkpt>
      <trkpt lat="45.85214" lon="2.41797">
        <ele>766</ele>
        <time>2017-03-24T15:58:46Z</time>
      </trkpt>
      <trkpt lat="45.85252" lon="2.41666">
        <ele>758</ele>
        <time>2017-03-24T15:58:26Z</time>
      </trkpt>
      <trkpt lat="45.853" lon="2.41621">
        <ele>763</ele>
        <time>2017-03-24T15:58:06Z</time>
      </trkpt>
      <trkpt lat="45.85341" lon="2.41525">
        <ele>768</ele>
        <time>2017-03-24T15:57:46Z</time>
      </trkpt>
      <trkpt lat="45.85393" lon="2.41481">
        <ele>768</ele>
        <time>2017-03-24T15:57:26Z</time>
      </trkpt>
      <trkpt lat="45.85476" lon="2.4148">
        <ele>776</ele>
        <time>2017-03-24T15:57:06Z</time>
      </trkpt>
      <trkpt lat="45.85544" lon="2.41403">
        <ele>770</ele>
        <time>2017-03-24T15:56:46Z</time>
      </trkpt>
      <trkpt lat="45.85621" lon="2.4136">
        <ele>774</ele>
        <time>2017-03-24T15:56:26Z</time>
      </trkpt>
      <trkpt lat="45.85659" lon="2.41295">
        <ele>775</ele>
        <time>2017-03-24T15:56:06Z</time>
      </trkpt>
      <trkpt lat="45.8572" lon="2.41248">
        <ele>780</ele>
        <time>2017-03-24T15:55:46Z</time>
      </trkpt>
      <trkpt lat="45.85661" lon="2.41036">
        <ele>777</ele>
        <time>2017-03-24T15:55:26Z</time>
      </trkpt>
      <trkpt lat="45.85673" lon="2.40999">
        <ele>775</ele>
        <time>2017-03-24T15:55:06Z</time>
      </trkpt>
      <trkpt lat="45.85687" lon="2.4088">
        <ele>774</ele>
        <time>2017-03-24T15:54:46Z</time>
      </trkpt>
      <trkpt lat="45.85755" lon="2.40775">
        <ele>763</ele>
        <time>2017-03-24T15:54:26Z</time>
      </trkpt>
      <trkpt lat="45.85753" lon="2.40713">
        <ele>758</ele>
        <time>2017-03-24T15:54:06Z</time>
      </trkpt>
      <trkpt lat="45.85725" lon="2.40671">
        <ele>760</ele>
        <time>2017-03-24T15:53:46Z</time>
      </trkpt>
      <trkpt lat="45.85714" lon="2.40601">
        <ele>750</ele>
        <time>2017-03-24T15:53:26Z</time>
      </trkpt>
      <trkpt lat="45.85742" lon="2.40519">
        <ele>742</ele>
        <time>2017-03-24T15:53:06Z</time>
      </trkpt>
      <trkpt lat="45.85735" lon="2.40394">
        <ele>734</ele>
        <time>2017-03-24T15:52:46Z</time>
      </trkpt>
      <trkpt lat="45.85747" lon="2.40368">
        <ele>733</ele>
        <time>2017-03-24T15:52:26Z</time>
      </trkpt>
      <trkpt lat="45.85754" lon="2.40245">
        <ele>729</ele>
        <time>2017-03-24T15:52:06Z</time>
      </trkpt>
      <trkpt lat="45.85747" lon="2.40164">
        <ele>727</ele>
        <time>2017-03-24T15:51:46Z</time>
      </trkpt>
      <trkpt lat="45.85764" lon="2.40152">
        <ele>726</ele>
        <time>2017-03-24T15:51:26Z</time>
      </trkpt>
      <trkpt lat="45.85763" lon="2.40114">
        <ele>725</ele>
        <time>2017-03-24T15:51:06Z</time>
      </trkpt>
      <trkpt lat="45.85739" lon="2.40087">
        <ele>725</ele>
        <time>2017-03-24T15:50:46Z</time>
      </trkpt>
      <trkpt lat="45.85754" lon="2.40006">
        <ele>719</ele>
        <time>2017-03-24T15:50:26Z</time>
      </trkpt>
      <trkpt lat="45.85747" lon="2.39953">
        <ele>716</ele>
        <time>2017-03-24T15:50:06Z</time>
      </trkpt>
      <trkpt lat="45.85695" lon="2.39897">
        <ele>714</ele>
        <time>2017-03-24T15:49:46Z</time>
      </trkpt>
      <trkpt lat="45.85671" lon="2.39835">
        <ele>714</ele>
        <time>2017-03-24T15:49:26Z</time>
      </trkpt>
      <trkpt lat="45.85687" lon="2.3975">
        <ele>712</ele>
        <time>2017-03-24T15:49:06Z</time>
      </trkpt>
      <trkpt lat="45.8573" lon="2.39742">
        <ele>709</ele>
        <time>2017-03-24T15:48:46Z</time>
      </trkpt>
      <trkpt lat="45.85738" lon="2.39714">
        <ele>711</ele>
        <time>2017-03-24T15:48:26Z</time>
      </trkpt>
      <trkpt lat="45.85725" lon="2.3968">
        <ele>712</ele>
        <time>2017-03-24T15:48:06Z</time>
      </trkpt>
      <trkpt lat="45.85706" lon="2.39559">
        <ele>723</ele>
        <time>2017-03-24T15:47:46Z</time>
      </trkpt>
      <trkpt lat="45.85781" lon="2.39508">
        <ele>729</ele>
        <time>2017-03-24T15:47:26Z</time>
      </trkpt>
      <trkpt lat="45.85844" lon="2.39531">
        <ele>732</ele>
        <time>2017-03-24T15:47:06Z</time>
      </trkpt>
      <trkpt lat="45.85877" lon="2.39521">
        <ele>732</ele>
        <time>2017-03-24T15:46:46Z</time>
      </trkpt>
      <trkpt lat="45.85918" lon="2.3946">
        <ele>740</ele>
        <time>2017-03-24T15:46:26Z</time>
      </trkpt>
      <trkpt lat="45.85911" lon="2.39344">
        <ele>741</ele>
        <time>2017-03-24T15:46:06Z</time>
      </trkpt>
      <trkpt lat="45.85893" lon="2.39231">
        <ele>734</ele>
        <time>2017-03-24T15:45:46Z</time>
      </trkpt>
      <trkpt lat="45.85944" lon="2.39143">
        <ele>727</ele>
        <time>2017-03-24T15:45:26Z</time>
      </trkpt>
      <trkpt lat="45.85981" lon="2.39044">
        <ele>721</ele>
        <time>2017-03-24T15:45:06Z</time>
      </trkpt>
      <trkpt lat="45.86045" lon="2.38959">
        <ele>711</ele>
        <time>2017-03-24T15:44:46Z</time>
      </trkpt>
      <trkpt lat="45.8614" lon="2.38865">
        <ele>701</ele>
        <time>2017-03-24T15:44:26Z</time>
      </trkpt>
      <trkpt lat="45.86185" lon="2.38821">
        <ele>699</ele>
        <time>2017-03-24T15:44:06Z</time>
      </trkpt>
      <trkpt lat="45.86189" lon="2.38785">
        <ele>698</ele>
        <time>2017-03-24T15:43:46Z</time>
      </trkpt>
      <trkpt lat="45.86169" lon="2.38717">
        <ele>699</ele>
        <time>2017-03-24T15:43:26Z</time>
      </trkpt>
      <trkpt lat="45.86227" lon="2.38683">
        <ele>702</ele>
        <time>2017-03-24T15:43:06Z</time>
      </trkpt>
      <trkpt lat="45.86271" lon="2.38677">
        <ele>704</ele>
        <time>2017-03-24T15:42:46Z</time>
      </trkpt>
      <trkpt lat="45.86334" lon="2.38642">
        <ele>709</ele>
        <time>2017-03-24T15:42:26Z</time>
      </trkpt>
      <trkpt lat="45.86362" lon="2.38561">
        <ele>715</ele>
        <time>2017-03-24T15:42:06Z</time>
      </trkpt>
      <trkpt lat="45.8637" lon="2.38399">
        <ele>719</ele>
        <time>2017-03-24T15:41:46Z</time>
      </trkpt>
      <trkpt lat="45.86364" lon="2.38293">
        <ele>719</ele>
        <time>2017-03-24T15:41:26Z</time>
      </trkpt>
      <trkpt lat="45.86341" lon="2.3819">
        <ele>719</ele>
        <time>2017-03-24T15:41:06Z</time>
      </trkpt>
      <trkpt lat="45.86343" lon="2.38113">
        <ele>721</ele>
        <time>2017-03-24T15:40:46Z</time>
      </trkpt>
      <trkpt lat="45.86371" lon="2.38065">
        <ele>724</ele>
        <time>2017-03-24T15:40:26Z</time>
      </trkpt>
      <trkpt lat="45.86397" lon="2.37991">
        <ele>728</ele>
        <time>2017-03-24T15:40:06Z</time>
      </trkpt>
      <trkpt lat="45.86465" lon="2.37914">
        <ele>727</ele>
        <time>2017-03-24T15:39:46Z</time>
      </trkpt>
      <trkpt lat="45.8651" lon="2.37833">
        <ele>722</ele>
        <time>2017-03-24T15:39:26Z</time>
      </trkpt>
      <trkpt lat="45.86535" lon="2.37763">
        <ele>714</ele>
        <time>2017-03-24T15:39:06Z</time>
      </trkpt>
      <trkpt lat="45.86545" lon="2.37695">
        <ele>703</ele>
        <time>2017-03-24T15:38:46Z</time>
      </trkpt>
      <trkpt lat="45.86556" lon="2.37662">
        <ele>695</ele>
        <time>2017-03-24T15:38:26Z</time>
      </trkpt>
      <trkpt lat="45.86562" lon="2.37562">
        <ele>689</ele>
        <time>2017-03-24T15:38:06Z</time>
      </trkpt>
      <trkpt lat="45.8656" lon="2.37499">
        <ele>685</ele>
        <time>2017-03-24T15:37:46Z</time>
      </trkpt>
      <trkpt lat="45.86627" lon="2.37445">
        <ele>686</ele>
        <time>2017-03-24T15:37:26Z</time>
      </trkpt>
      <trkpt lat="45.86714" lon="2.37401">
        <ele>693</ele>
        <time>2017-03-24T15:37:06Z</time>
      </trkpt>
      <trkpt lat="45.86752" lon="2.37279">
        <ele>701</ele>
        <time>2017-03-24T15:36:46Z</time>
      </trkpt>
      <trkpt lat="45.86694" lon="2.37138">
        <ele>715</ele>
        <time>2017-03-24T15:36:26Z</time>
      </trkpt>
      <trkpt lat="45.86679" lon="2.3702">
        <ele>720</ele>
        <time>2017-03-24T15:36:06Z</time>
      </trkpt>
      <trkpt lat="45.86757" lon="2.36908">
        <ele>729</ele>
        <time>2017-03-24T15:35:46Z</time>
      </trkpt>
      <trkpt lat="45.86776" lon="2.36713">
        <ele>732</ele>
        <time>2017-03-24T15:35:26Z</time>
      </trkpt>
      <trkpt lat="45.86803" lon="2.36618">
        <ele>725</ele>
        <time>2017-03-24T15:35:06Z</time>
      </trkpt>
      <trkpt lat="45.86841" lon="2.36576">
        <ele>720</ele>
        <time>2017-03-24T15:34:46Z</time>
      </trkpt>
      <trkpt lat="45.86938" lon="2.36552">
        <ele>719</ele>
        <time>2017-03-24T15:34:26Z</time>
      </trkpt>
      <trkpt lat="45.86958" lon="2.36527">
        <ele>716</ele>
        <time>2017-03-24T15:34:06Z</time>
      </trkpt>
      <trkpt lat="45.8695" lon="2.36494">
        <ele>705</ele>
        <time>2017-03-24T15:33:46Z</time>
      </trkpt>
      <trkpt lat="45.8693" lon="2.3648">
        <ele>705</ele>
        <time>2017-03-24T15:33:26Z</time>
      </trkpt>
      <trkpt lat="45.86865" lon="2.36501">
        <ele>713</ele>
        <time>2017-03-24T15:33:06Z</time>
      </trkpt>
      <trkpt lat="45.86724" lon="2.36513">
        <ele>706</ele>
        <time>2017-03-24T15:32:46Z</time>
      </trkpt>
      <trkpt lat="45.86675" lon="2.36502">
        <ele>701</ele>
        <time>2017-03-24T15:32:26Z</time>
      </trkpt>
      <trkpt lat="45.86655" lon="2.36453">
        <ele>696</ele>
        <time>2017-03-24T15:32:06Z</time>
      </trkpt>
      <trkpt lat="45.8667" lon="2.364">
        <ele>697</ele>
        <time>2017-03-24T15:31:46Z</time>
      </trkpt>
      <trkpt lat="45.8672" lon="2.36362">
        <ele>698</ele>
        <time>2017-03-24T15:31:26Z</time>
      </trkpt>
      <trkpt lat="45.8675" lon="2.36314">
        <ele>697</ele>
        <time>2017-03-24T15:31:06Z</time>
      </trkpt>
      <trkpt lat="45.86755" lon="2.36243">
        <ele>689</ele>
        <time>2017-03-24T15:30:46Z</time>
      </trkpt>
      <trkpt lat="45.86721" lon="2.36178">
        <ele>691</ele>
        <time>2017-03-24T15:30:26Z</time>
      </trkpt>
      <trkpt lat="45.86688" lon="2.36047">
        <ele>684</ele>
        <time>2017-03-24T15:30:06Z</time>
      </trkpt>
      <trkpt lat="45.8672" lon="2.36007">
        <ele>683</ele>
        <time>2017-03-24T15:29:46Z</time>
      </trkpt>
      <trkpt lat="45.86742" lon="2.35935">
        <ele>685</ele>
        <time>2017-03-24T15:29:26Z</time>
      </trkpt>
      <trkpt lat="45.86776" lon="2.35781">
        <ele>699</ele>
        <time>2017-03-24T15:29:06Z</time>
      </trkpt>
      <trkpt lat="45.86833" lon="2.35643">
        <ele>706</ele>
        <time>2017-03-24T15:28:46Z</time>
      </trkpt>
      <trkpt lat="45.86848" lon="2.35581">
        <ele>715</ele>
        <time>2017-03-24T15:28:26Z</time>
      </trkpt>
      <trkpt lat="45.86806" lon="2.35318">
        <ele>726</ele>
        <time>2017-03-24T15:28:06Z</time>
      </trkpt>
      <trkpt lat="45.86723" lon="2.35151">
        <ele>728</ele>
        <time>2017-03-24T15:27:46Z</time>
      </trkpt>
      <trkpt lat="45.86709" lon="2.35002">
        <ele>728</ele>
        <time>2017-03-24T15:27:26Z</time>
      </trkpt>
      <trkpt lat="45.86725" lon="2.34915">
        <ele>724</ele>
        <time>2017-03-24T15:27:06Z</time>
      </trkpt>
      <trkpt lat="45.86713" lon="2.34837">
        <ele>720</ele>
        <time>2017-03-24T15:26:46Z</time>
      </trkpt>
      <trkpt lat="45.86704" lon="2.3465">
        <ele>708</ele>
        <time>2017-03-24T15:26:26Z</time>
      </trkpt>
      <trkpt lat="45.86712" lon="2.34564">
        <ele>709</ele>
        <time>2017-03-24T15:26:06Z</time>
      </trkpt>
      <trkpt lat="45.86712" lon="2.34512">
        <ele>710</ele>
        <time>2017-03-24T15:25:46Z</time>
      </trkpt>
      <trkpt lat="45.86697" lon="2.34491">
        <ele>711</ele>
        <time>2017-03-24T15:25:26Z</time>
      </trkpt>
      <trkpt lat="45.86731" lon="2.34421">
        <ele>711</ele>
        <time>2017-03-24T15:25:06Z</time>
      </trkpt>
      <trkpt lat="45.8675" lon="2.34327">
        <ele>709</ele>
        <time>2017-03-24T15:24:46Z</time>
      </trkpt>
      <trkpt lat="45.86805" lon="2.34206">
        <ele>714</ele>
        <time>2017-03-24T15:24:26Z</time>
      </trkpt>
      <trkpt lat="45.8684" lon="2.34099">
        <ele>717</ele>
        <time>2017-03-24T15:24:06Z</time>
      </trkpt>
      <trkpt lat="45.86879" lon="2.34022">
        <ele>714</ele>
        <time>2017-03-24T15:23:46Z</time>
      </trkpt>
      <trkpt lat="45.86912" lon="2.3387">
        <ele>702</ele>
        <time>2017-03-24T15:23:26Z</time>
      </trkpt>
      <trkpt lat="45.86955" lon="2.33805">
        <ele>704</ele>
        <time>2017-03-24T15:23:06Z</time>
      </trkpt>
      <trkpt lat="45.86989" lon="2.33688">
        <ele>699</ele>
        <time>2017-03-24T15:22:46Z</time>
      </trkpt>
      <trkpt lat="45.87019" lon="2.33603">
        <ele>696</ele>
        <time>2017-03-24T15:22:26Z</time>
      </trkpt>
      <trkpt lat="45.87069" lon="2.33538">
        <ele>688</ele>
        <time>2017-03-24T15:22:06Z</time>
      </trkpt>
      <trkpt lat="45.87109" lon="2.33466">
        <ele>682</ele>
        <time>2017-03-24T15:21:46Z</time>
      </trkpt>
      <trkpt lat="45.87288" lon="2.33287">
        <ele>672</ele>
        <time>2017-03-24T15:21:26Z</time>
      </trkpt>
      <trkpt lat="45.87303" lon="2.3318">
        <ele>673</ele>
        <time>2017-03-24T15:21:06Z</time>
      </trkpt>
      <trkpt lat="45.87321" lon="2.33143">
        <ele>673</ele>
        <time>2017-03-24T15:20:46Z</time>
      </trkpt>
      <trkpt lat="45.87378" lon="2.33128">
        <ele>676</ele>
        <time>2017-03-24T15:20:26Z</time>
      </trkpt>
      <trkpt lat="45.87476" lon="2.33126">
        <ele>683</ele>
        <time>2017-03-24T15:20:06Z</time>
      </trkpt>
      <trkpt lat="45.87498" lon="2.33133">
        <ele>683</ele>
        <time>2017-03-24T15:19:46Z</time>
      </trkpt>
      <trkpt lat="45.87606" lon="2.33089">
        <ele>678</ele>
        <time>2017-03-24T15:19:26Z</time>
      </trkpt>
      <trkpt lat="45.87626" lon="2.33096">
        <ele>676</ele>
        <time>2017-03-24T15:19:06Z</time>
      </trkpt>
      <trkpt lat="45.87661" lon="2.33154">
        <ele>673</ele>
        <time>2017-03-24T15:18:46Z</time>
      </trkpt>
      <trkpt lat="45.87681" lon="2.33213">
        <ele>669</ele>
        <time>2017-03-24T15:18:26Z</time>
      </trkpt>
      <trkpt lat="45.87703" lon="2.33231">
        <ele>668</ele>
        <time>2017-03-24T15:18:06Z</time>
      </trkpt>
      <trkpt lat="45.87825" lon="2.33231">
        <ele>673</ele>
        <time>2017-03-24T15:17:46Z</time>
      </trkpt>
      <trkpt lat="45.87755" lon="2.33042">
        <ele>684</ele>
        <time>2017-03-24T15:17:26Z</time>
      </trkpt>
      <trkpt lat="45.87783" lon="2.32969">
        <ele>688</ele>
        <time>2017-03-24T15:17:06Z</time>
      </trkpt>
      <trkpt lat="45.8785" lon="2.32869">
        <ele>689</ele>
        <time>2017-03-24T15:16:46Z</time>
      </trkpt>
      <trkpt lat="45.87854" lon="2.32676">
        <ele>690</ele>
        <time>2017-03-24T15:16:26Z</time>
      </trkpt>
      <trkpt lat="45.87838" lon="2.32524">
        <ele>689</ele>
        <time>2017-03-24T15:16:06Z</time>
      </trkpt>
      <trkpt lat="45.87769" lon="2.32226">
        <ele>689</ele>
        <time>2017-03-24T15:15:46Z</time>
      </trkpt>
      <trkpt lat="45.87791" lon="2.31983">
        <ele>686</ele>
        <time>2017-03-24T15:15:26Z</time>
      </trkpt>
      <trkpt lat="45.87795" lon="2.31804">
        <ele>690</ele>
        <time>2017-03-24T15:15:06Z</time>
      </trkpt>
      <trkpt lat="45.87823" lon="2.31723">
        <ele>688</ele>
        <time>2017-03-24T15:14:46Z</time>
      </trkpt>
      <trkpt lat="45.87855" lon="2.31661">
        <ele>685</ele>
        <time>2017-03-24T15:14:26Z</time>
      </trkpt>
      <trkpt lat="45.87891" lon="2.31567">
        <ele>679</ele>
        <time>2017-03-24T15:14:06Z</time>
      </trkpt>
      <trkpt lat="45.87912" lon="2.31538">
        <ele>678</ele>
        <time>2017-03-24T15:13:46Z</time>
      </trkpt>
      <trkpt lat="45.87992" lon="2.31497">
        <ele>683</ele>
        <time>2017-03-24T15:13:26Z</time>
      </trkpt>
      <trkpt lat="45.88023" lon="2.31498">
        <ele>683</ele>
        <time>2017-03-24T15:13:06Z</time>
      </trkpt>
      <trkpt lat="45.8807" lon="2.31459">
        <ele>683</ele>
        <time>2017-03-24T15:12:46Z</time>
      </trkpt>
      <trkpt lat="45.88122" lon="2.31461">
        <ele>681</ele>
        <time>2017-03-24T15:12:26Z</time>
      </trkpt>
      <trkpt lat="45.88256" lon="2.314">
        <ele>682</ele>
        <time>2017-03-24T15:12:06Z</time>
      </trkpt>
      <trkpt lat="45.88309" lon="2.31368">
        <ele>684</ele>
        <time>2017-03-24T15:11:46Z</time>
      </trkpt>
      <trkpt lat="45.88367" lon="2.31347">
        <ele>686</ele>
        <time>2017-03-24T15:11:26Z</time>
      </trkpt>
      <trkpt lat="45.88457" lon="2.31294">
        <ele>687</ele>
        <time>2017-03-24T15:11:06Z</time>
      </trkpt>
      <trkpt lat="45.88488" lon="2.31266">
        <ele>688</ele>
        <time>2017-03-24T15:10:46Z</time>
      </trkpt>
      <trkpt lat="45.88517" lon="2.31151">
        <ele>687</ele>
        <time>2017-03-24T15:10:26Z</time>
      </trkpt>
      <trkpt lat="45.88542" lon="2.31098">
        <ele>686</ele>
        <time>2017-03-24T15:10:06Z</time>
      </trkpt>
      <trkpt lat="45.88624" lon="2.31033">
        <ele>687</ele>
        <time>2017-03-24T15:09:46Z</time>
      </trkpt>
      <trkpt lat="45.88719" lon="2.3105">
        <ele>689</ele>
        <time>2017-03-24T15:09:26Z</time>
      </trkpt>
      <trkpt lat="45.88713" lon="2.31021">
        <ele>689</ele>
        <time>2017-03-24T15:09:06Z</time>
      </trkpt>
      <trkpt lat="45.88901" lon="2.31026">
        <ele>685</ele>
        <time>2017-03-24T15:08:46Z</time>
      </trkpt>
      <trkpt lat="45.88981" lon="2.30968">
        <ele>683</ele>
        <time>2017-03-24T15:08:26Z</time>
      </trkpt>
      <trkpt lat="45.89048" lon="2.3092">
        <ele>684</ele>
        <time>2017-03-24T15:08:06Z</time>
      </trkpt>
      <trkpt lat="45.89119" lon="2.30849">
        <ele>680</ele>
        <time>2017-03-24T15:07:46Z</time>
      </trkpt>
      <trkpt lat="45.89179" lon="2.30791">
        <ele>671</ele>
        <time>2017-03-24T15:07:26Z</time>
      </trkpt>
      <trkpt lat="45.89262" lon="2.30763">
        <ele>666</ele>
        <time>2017-03-24T15:07:06Z</time>
      </trkpt>
      <trkpt lat="45.89362" lon="2.30733">
        <ele>662</ele>
        <time>2017-03-24T15:06:46Z</time>
      </trkpt>
      <trkpt lat="45.89421" lon="2.30664">
        <ele>658</ele>
        <time>2017-03-24T15:06:26Z</time>
      </trkpt>
      <trkpt lat="45.8948" lon="2.30579">
        <ele>650</ele>
        <time>2017-03-24T15:06:06Z</time>
      </trkpt>
      <trkpt lat="45.89524" lon="2.30489">
        <ele>649</ele>
        <time>2017-03-24T15:05:46Z</time>
      </trkpt>
      <trkpt lat="45.89555" lon="2.30453">
        <ele>648</ele>
        <time>2017-03-24T15:05:26Z</time>
      </trkpt>
      <trkpt lat="45.89614" lon="2.30429">
        <ele>645</ele>
        <time>2017-03-24T15:05:06Z</time>
      </trkpt>
      <trkpt lat="45.89688" lon="2.30438">
        <ele>638</ele>
        <time>2017-03-24T15:04:46Z</time>
      </trkpt>
      <trkpt lat="45.89857" lon="2.30572">
        <ele>615</ele>
        <time>2017-03-24T15:04:26Z</time>
      </trkpt>
      <trkpt lat="45.89859" lon="2.30538">
        <ele>614</ele>
        <time>2017-03-24T15:04:06Z</time>
      </trkpt>
      <trkpt lat="45.8984" lon="2.30503">
        <ele>618</ele>
        <time>2017-03-24T15:03:46Z</time>
      </trkpt>
      <trkpt lat="45.89798" lon="2.30444">
        <ele>625</ele>
        <time>2017-03-24T15:03:26Z</time>
      </trkpt>
      <trkpt lat="45.89773" lon="2.30399">
        <ele>626</ele>
        <time>2017-03-24T15:03:06Z</time>
      </trkpt>
      <trkpt lat="45.89779" lon="2.30328">
        <ele>623</ele>
        <time>2017-03-24T15:02:46Z</time>
      </trkpt>
      <trkpt lat="45.89769" lon="2.30245">
        <ele>618</ele>
        <time>2017-03-24T15:02:26Z</time>
      </trkpt>
      <trkpt lat="45.89738" lon="2.3021">
        <ele>615</ele>
        <time>2017-03-24T15:02:06Z</time>
      </trkpt>
      <trkpt lat="45.89792" lon="2.3017">
        <ele>613</ele>
        <time>2017-03-24T15:01:46Z</time>
      </trkpt>
      <trkpt lat="45.89834" lon="2.30108">
        <ele>605</ele>
        <time>2017-03-24T15:01:26Z</time>
      </trkpt>
      <trkpt lat="45.89849" lon="2.30021">
        <ele>602</ele>
        <time>2017-03-24T15:01:06Z</time>
      </trkpt>
      <trkpt lat="45.89889" lon="2.29963">
        <ele>605</ele>
        <time>2017-03-24T15:00:46Z</time>
      </trkpt>
      <trkpt lat="45.89915" lon="2.29879">
        <ele>612</ele>
        <time>2017-03-24T15:00:26Z</time>
      </trkpt>
      <trkpt lat="45.89931" lon="2.29813">
        <ele>620</ele>
        <time>2017-03-24T15:00:06Z</time>
      </trkpt>
      <trkpt lat="45.89978" lon="2.29773">
        <ele>623</ele>
        <time>2017-03-24T14:59:46Z</time>
      </trkpt>
      <trkpt lat="45.89998" lon="2.29713">
        <ele>625</ele>
        <time>2017-03-24T14:59:26Z</time>
      </trkpt>
      <trkpt lat="45.90039" lon="2.29723">
        <ele>628</ele>
        <time>2017-03-24T14:59:06Z</time>
      </trkpt>
      <trkpt lat="45.90136" lon="2.29636">
        <ele>630</ele>
        <time>2017-03-24T14:58:46Z</time>
      </trkpt>
      <trkpt lat="45.90164" lon="2.29528">
        <ele>624</ele>
        <time>2017-03-24T14:58:26Z</time>
      </trkpt>
      <trkpt lat="45.90182" lon="2.29421">
        <ele>618</ele>
        <time>2017-03-24T14:58:06Z</time>
      </trkpt>
      <trkpt lat="45.90178" lon="2.29377">
        <ele>620</ele>
        <time>2017-03-24T14:57:46Z</time>
      </trkpt>
      <trkpt lat="45.90175" lon="2.29335">
        <ele>623</ele>
        <time>2017-03-24T14:57:26Z</time>
      </trkpt>
      <trkpt lat="45.90155" lon="2.2929">
        <ele>626</ele>
        <time>2017-03-24T14:57:06Z</time>
      </trkpt>
      <trkpt lat="45.90218" lon="2.29192">
        <ele>621</ele>
        <time>2017-03-24T14:56:46Z</time>
      </trkpt>
      <trkpt lat="45.90258" lon="2.29095">
        <ele>616</ele>
        <time>2017-03-24T14:56:26Z</time>
      </trkpt>
      <trkpt lat="45.90312" lon="2.2901">
        <ele>615</ele>
        <time>2017-03-24T14:56:06Z</time>
      </trkpt>
      <trkpt lat="45.90337" lon="2.28949">
        <ele>624</ele>
        <time>2017-03-24T14:55:46Z</time>
      </trkpt>
      <trkpt lat="45.90413" lon="2.28953">
        <ele>625</ele>
        <time>2017-03-24T14:55:26Z</time>
      </trkpt>
      <trkpt lat="45.9045" lon="2.28914">
        <ele>633</ele>
        <time>2017-03-24T14:55:06Z</time>
      </trkpt>
      <trkpt lat="45.905" lon="2.28908">
        <ele>629</ele>
        <time>2017-03-24T14:54:46Z</time>
      </trkpt>
      <trkpt lat="45.90541" lon="2.28875">
        <ele>629</ele>
        <time>2017-03-24T14:54:26Z</time>
      </trkpt>
      <trkpt lat="45.90591" lon="2.2879">
        <ele>627</ele>
        <time>2017-03-24T14:54:06Z</time>
      </trkpt>
      <trkpt lat="45.90641" lon="2.28768">
        <ele>625</ele>
        <time>2017-03-24T14:53:46Z</time>
      </trkpt>
      <trkpt lat="45.90657" lon="2.28744">
        <ele>626</ele>
        <time>2017-03-24T14:53:26Z</time>
      </trkpt>
      <trkpt lat="45.90637" lon="2.2863">
        <ele>630</ele>
        <time>2017-03-24T14:53:06Z</time>
      </trkpt>
      <trkpt lat="45.90665" lon="2.28524">
        <ele>630</ele>
        <time>2017-03-24T14:52:46Z</time>
      </trkpt>
      <trkpt lat="45.90665" lon="2.2846">
        <ele>630</ele>
        <time>2017-03-24T14:52:26Z</time>
      </trkpt>
      <trkpt lat="45.90588" lon="2.28378">
        <ele>629</ele>
        <time>2017-03-24T14:52:06Z</time>
      </trkpt>
      <trkpt lat="45.90589" lon="2.28348">
        <ele>628</ele>
        <time>2017-03-24T14:51:46Z</time>
      </trkpt>
      <trkpt lat="45.90704" lon="2.28068">
        <ele>635</ele>
        <time>2017-03-24T14:51:26Z</time>
      </trkpt>
      <trkpt lat="45.90734" lon="2.28">
        <ele>635</ele>
        <time>2017-03-24T14:51:06Z</time>
      </trkpt>
      <trkpt lat="45.90758" lon="2.2791">
        <ele>636</ele>
        <time>2017-03-24T14:50:46Z</time>
      </trkpt>
      <trkpt lat="45.9078" lon="2.27853">
        <ele>636</ele>
        <time>2017-03-24T14:50:26Z</time>
      </trkpt>
      <trkpt lat="45.90849" lon="2.27795">
        <ele>638</ele>
        <time>2017-03-24T14:50:06Z</time>
      </trkpt>
      <trkpt lat="45.90885" lon="2.27741">
        <ele>639</ele>
        <time>2017-03-24T14:49:46Z</time>
      </trkpt>
      <trkpt lat="45.90949" lon="2.2769">
        <ele>638</ele>
        <time>2017-03-24T14:49:26Z</time>
      </trkpt>
      <trkpt lat="45.90996" lon="2.27654">
        <ele>638</ele>
        <time>2017-03-24T14:49:06Z</time>
      </trkpt>
      <trkpt lat="45.91067" lon="2.27618">
        <ele>640</ele>
        <time>2017-03-24T14:48:46Z</time>
      </trkpt>
      <trkpt lat="45.91128" lon="2.27537">
        <ele>645</ele>
        <time>2017-03-24T14:48:26Z</time>
      </trkpt>
      <trkpt lat="45.91194" lon="2.27445">
        <ele>642</ele>
        <time>2017-03-24T14:48:06Z</time>
      </trkpt>
      <trkpt lat="45.91282" lon="2.27214">
        <ele>643</ele>
        <time>2017-03-24T14:47:46Z</time>
      </trkpt>
      <trkpt lat="45.91321" lon="2.2699">
        <ele>628</ele>
        <time>2017-03-24T14:47:26Z</time>
      </trkpt>
      <trkpt lat="45.91368" lon="2.26998">
        <ele>627</ele>
        <time>2017-03-24T14:47:06Z</time>
      </trkpt>
      <trkpt lat="45.91397" lon="2.27034">
        <ele>634</ele>
        <time>2017-03-24T14:46:46Z</time>
      </trkpt>
      <trkpt lat="45.91409" lon="2.2714">
        <ele>639</ele>
        <time>2017-03-24T14:46:26Z</time>
      </trkpt>
      <trkpt lat="45.91442" lon="2.27223">
        <ele>640</ele>
        <time>2017-03-24T14:46:06Z</time>
      </trkpt>
      <trkpt lat="45.91464" lon="2.272">
        <ele>639</ele>
        <time>2017-03-24T14:45:46Z</time>
      </trkpt>
      <trkpt lat="45.9147" lon="2.27168">
        <ele>638</ele>
        <time>2017-03-24T14:45:26Z</time>
      </trkpt>
      <trkpt lat="45.91442" lon="2.27012">
        <ele>631</ele>
        <time>2017-03-24T14:45:06Z</time>
      </trkpt>
      <trkpt lat="45.91442" lon="2.26967">
        <ele>623</ele>
        <time>2017-03-24T14:44:46Z</time>
      </trkpt>
      <trkpt lat="45.91429" lon="2.26919">
        <ele>619</ele>
        <time>2017-03-24T14:44:26Z</time>
      </trkpt>
      <trkpt lat="45.91386" lon="2.26848">
        <ele>613</ele>
        <time>2017-03-24T14:44:06Z</time>
      </trkpt>
      <trkpt lat="45.91399" lon="2.26622">
        <ele>596</ele>
        <time>2017-03-24T14:43:46Z</time>
      </trkpt>
      <trkpt lat="45.91397" lon="2.26448">
        <ele>590</ele>
        <time>2017-03-24T14:43:26Z</time>
      </trkpt>
      <trkpt lat="45.9141" lon="2.2642">
        <ele>590</ele>
        <time>2017-03-24T14:43:06Z</time>
      </trkpt>
      <trkpt lat="45.91504" lon="2.26336">
        <ele>587</ele>
        <time>2017-03-24T14:42:46Z</time>
      </trkpt>
      <trkpt lat="45.91524" lon="2.26207">
        <ele>589</ele>
        <time>2017-03-24T14:42:26Z</time>
      </trkpt>
      <trkpt lat="45.91524" lon="2.26071">
        <ele>590</ele>
        <time>2017-03-24T14:42:06Z</time>
      </trkpt>
      <trkpt lat="45.91509" lon="2.26014">
        <ele>590</ele>
        <time>2017-03-24T14:41:46Z</time>
      </trkpt>
      <trkpt lat="45.9153" lon="2.26015">
        <ele>590</ele>
        <time>2017-03-24T14:41:26Z</time>
      </trkpt>
      <trkpt lat="45.91557" lon="2.25926">
        <ele>588</ele>
        <time>2017-03-24T14:41:06Z</time>
      </trkpt>
      <trkpt lat="45.91651" lon="2.25813">
        <ele>588</ele>
        <time>2017-03-24T14:40:46Z</time>
      </trkpt>
      <trkpt lat="45.91692" lon="2.25784">
        <ele>593</ele>
        <time>2017-03-24T14:40:26Z</time>
      </trkpt>
      <trkpt lat="45.9174" lon="2.25779">
        <ele>594</ele>
        <time>2017-03-24T14:40:06Z</time>
      </trkpt>
      <trkpt lat="45.91763" lon="2.25748">
        <ele>600</ele>
        <time>2017-03-24T14:39:46Z</time>
      </trkpt>
      <trkpt lat="45.91829" lon="2.25691">
        <ele>605</ele>
        <time>2017-03-24T14:39:26Z</time>
      </trkpt>
      <trkpt lat="45.91897" lon="2.25566">
        <ele>603</ele>
        <time>2017-03-24T14:39:06Z</time>
      </trkpt>
      <trkpt lat="45.91973" lon="2.25465">
        <ele>599</ele>
        <time>2017-03-24T14:38:46Z</time>
      </trkpt>
      <trkpt lat="45.92007" lon="2.25435">
        <ele>602</ele>
        <time>2017-03-24T14:38:26Z</time>
      </trkpt>
      <trkpt lat="45.92041" lon="2.25403">
        <ele>602</ele>
        <time>2017-03-24T14:38:06Z</time>
      </trkpt>
      <trkpt lat="45.92113" lon="2.25241">
        <ele>603</ele>
        <time>2017-03-24T14:37:46Z</time>
      </trkpt>
      <trkpt lat="45.92177" lon="2.25161">
        <ele>599</ele>
        <time>2017-03-24T14:37:26Z</time>
      </trkpt>
      <trkpt lat="45.92179" lon="2.25103">
        <ele>601</ele>
        <time>2017-03-24T14:37:06Z</time>
      </trkpt>
      <trkpt lat="45.92199" lon="2.25075">
        <ele>602</ele>
        <time>2017-03-24T14:36:46Z</time>
      </trkpt>
      <trkpt lat="45.92256" lon="2.25096">
        <ele>597</ele>
        <time>2017-03-24T14:36:26Z</time>
      </trkpt>
      <trkpt lat="45.923" lon="2.24992">
        <ele>591</ele>
        <time>2017-03-24T14:36:06Z</time>
      </trkpt>
      <trkpt lat="45.9236" lon="2.24916">
        <ele>583</ele>
        <time>2017-03-24T14:35:46Z</time>
      </trkpt>
      <trkpt lat="45.92428" lon="2.24852">
        <ele>582</ele>
        <time>2017-03-24T14:35:26Z</time>
      </trkpt>
      <trkpt lat="45.92492" lon="2.24841">
        <ele>583</ele>
        <time>2017-03-24T14:35:06Z</time>
      </trkpt>
      <trkpt lat="45.92523" lon="2.24784">
        <ele>583</ele>
        <time>2017-03-24T14:34:46Z</time>
      </trkpt>
      <trkpt lat="45.92575" lon="2.24723">
        <ele>584</ele>
        <time>2017-03-24T14:34:26Z</time>
      </trkpt>
      <trkpt lat="45.9259" lon="2.24628">
        <ele>585</ele>
        <time>2017-03-24T14:34:06Z</time>
      </trkpt>
      <trkpt lat="45.92616" lon="2.24585">
        <ele>585</ele>
        <time>2017-03-24T14:33:46Z</time>
      </trkpt>
      <trkpt lat="45.92634" lon="2.24543">
        <ele>582</ele>
        <time>2017-03-24T14:33:26Z</time>
      </trkpt>
      <trkpt lat="45.92639" lon="2.24385">
        <ele>580</ele>
        <time>2017-03-24T14:33:06Z</time>
      </trkpt>
      <trkpt lat="45.92649" lon="2.24337">
        <ele>580</ele>
        <time>2017-03-24T14:32:46Z</time>
      </trkpt>
      <trkpt lat="45.9266" lon="2.24276">
        <ele>580</ele>
        <time>2017-03-24T14:32:26Z</time>
      </trkpt>
      <trkpt lat="45.92697" lon="2.24239">
        <ele>582</ele>
        <time>2017-03-24T14:32:06Z</time>
      </trkpt>
      <trkpt lat="45.92744" lon="2.24219">
        <ele>583</ele>
        <time>2017-03-24T14:31:46Z</time>
      </trkpt>
      <trkpt lat="45.92834" lon="2.24205">
        <ele>593</ele>
        <time>2017-03-24T14:31:26Z</time>
      </trkpt>
      <trkpt lat="45.92862" lon="2.24178">
        <ele>593</ele>
        <time>2017-03-24T14:31:06Z</time>
      </trkpt>
      <trkpt lat="45.92898" lon="2.24157">
        <ele>595</ele>
        <time>2017-03-24T14:30:46Z</time>
      </trkpt>
      <trkpt lat="45.92919" lon="2.24127">
        <ele>599</ele>
        <time>2017-03-24T14:30:26Z</time>
      </trkpt>
      <trkpt lat="45.92947" lon="2.24111">
        <ele>599</ele>
        <time>2017-03-24T14:30:06Z</time>
      </trkpt>
      <trkpt lat="45.92977" lon="2.24056">
        <ele>603</ele>
        <time>2017-03-24T14:29:46Z</time>
      </trkpt>
      <trkpt lat="45.93011" lon="2.23946">
        <ele>605</ele>
        <time>2017-03-24T14:29:26Z</time>
      </trkpt>
      <trkpt lat="45.93039" lon="2.23851">
        <ele>602</ele>
        <time>2017-03-24T14:29:06Z</time>
      </trkpt>
      <trkpt lat="45.93041" lon="2.23821">
        <ele>600</ele>
        <time>2017-03-24T14:28:46Z</time>
      </trkpt>
      <trkpt lat="45.93076" lon="2.23777">
        <ele>600</ele>
        <time>2017-03-24T14:28:26Z</time>
      </trkpt>
      <trkpt lat="45.931" lon="2.23731">
        <ele>600</ele>
        <time>2017-03-24T14:28:06Z</time>
      </trkpt>
      <trkpt lat="45.93172" lon="2.23662">
        <ele>598</ele>
        <time>2017-03-24T14:27:46Z</time>
      </trkpt>
      <trkpt lat="45.93197" lon="2.23565">
        <ele>594</ele>
        <time>2017-03-24T14:27:26Z</time>
      </trkpt>
      <trkpt lat="45.93219" lon="2.23446">
        <ele>590</ele>
        <time>2017-03-24T14:27:06Z</time>
      </trkpt>
      <trkpt lat="45.9321" lon="2.23337">
        <ele>588</ele>
        <time>2017-03-24T14:26:46Z</time>
      </trkpt>
      <trkpt lat="45.93195" lon="2.23283">
        <ele>587</ele>
        <time>2017-03-24T14:26:26Z</time>
      </trkpt>
      <trkpt lat="45.93195" lon="2.23283">
        <ele>587</ele>
        <time>2017-03-24T14:26:06Z</time>
      </trkpt>
      <trkpt lat="45.93274" lon="2.23227">
        <ele>590</ele>
        <time>2017-03-24T14:25:46Z</time>
      </trkpt>
      <trkpt lat="45.93355" lon="2.23127">
        <ele>594</ele>
        <time>2017-03-24T14:25:26Z</time>
      </trkpt>
      <trkpt lat="45.93416" lon="2.22986">
        <ele>591</ele>
        <time>2017-03-24T14:25:06Z</time>
      </trkpt>
      <trkpt lat="45.93436" lon="2.22768">
        <ele>585</ele>
        <time>2017-03-24T14:24:46Z</time>
      </trkpt>
      <trkpt lat="45.93472" lon="2.22693">
        <ele>584</ele>
        <time>2017-03-24T14:24:26Z</time>
      </trkpt>
      <trkpt lat="45.93739" lon="2.22866">
        <ele>589</ele>
        <time>2017-03-24T14:24:06Z</time>
      </trkpt>
      <trkpt lat="45.93862" lon="2.22917">
        <ele>594</ele>
        <time>2017-03-24T14:23:46Z</time>
      </trkpt>
      <trkpt lat="45.94043" lon="2.22894">
        <ele>581</ele>
        <time>2017-03-24T14:23:26Z</time>
      </trkpt>
      <trkpt lat="45.94061" lon="2.22927">
        <ele>579</ele>
        <time>2017-03-24T14:23:06Z</time>
      </trkpt>
      <trkpt lat="45.94109" lon="2.22926">
        <ele>576</ele>
        <time>2017-03-24T14:22:46Z</time>
      </trkpt>
      <trkpt lat="45.94143" lon="2.22852">
        <ele>578</ele>
        <time>2017-03-24T14:22:26Z</time>
      </trkpt>
      <trkpt lat="45.94064" lon="2.22794">
        <ele>579</ele>
        <time>2017-03-24T14:22:06Z</time>
      </trkpt>
      <trkpt lat="45.94041" lon="2.227">
        <ele>576</ele>
        <time>2017-03-24T14:21:46Z</time>
      </trkpt>
      <trkpt lat="45.94009" lon="2.22609">
        <ele>573</ele>
        <time>2017-03-24T14:21:26Z</time>
      </trkpt>
      <trkpt lat="45.93998" lon="2.225">
        <ele>571</ele>
        <time>2017-03-24T14:21:06Z</time>
      </trkpt>
      <trkpt lat="45.9406" lon="2.22496">
        <ele>568</ele>
        <time>2017-03-24T14:20:46Z</time>
      </trkpt>
      <trkpt lat="45.9409" lon="2.2253">
        <ele>569</ele>
        <time>2017-03-24T14:20:26Z</time>
      </trkpt>
      <trkpt lat="45.94129" lon="2.22449">
        <ele>568</ele>
        <time>2017-03-24T14:20:06Z</time>
      </trkpt>
      <trkpt lat="45.94231" lon="2.22473">
        <ele>569</ele>
        <time>2017-03-24T14:19:46Z</time>
      </trkpt>
      <trkpt lat="45.94212" lon="2.22389">
        <ele>570</ele>
        <time>2017-03-24T14:19:26Z</time>
      </trkpt>
      <trkpt lat="45.94194" lon="2.22392">
        <ele>570</ele>
        <time>2017-03-24T14:19:06Z</time>
      </trkpt>
      <trkpt lat="45.94186" lon="2.22259">
        <ele>573</ele>
        <time>2017-03-24T14:18:46Z</time>
      </trkpt>
      <trkpt lat="45.94167" lon="2.22123">
        <ele>585</ele>
        <time>2017-03-24T14:18:26Z</time>
      </trkpt>
      <trkpt lat="45.94123" lon="2.22017">
        <ele>590</ele>
        <time>2017-03-24T14:18:06Z</time>
      </trkpt>
      <trkpt lat="45.94101" lon="2.21983">
        <ele>590</ele>
        <time>2017-03-24T14:17:46Z</time>
      </trkpt>
      <trkpt lat="45.94109" lon="2.21892">
        <ele>588</ele>
        <time>2017-03-24T14:17:26Z</time>
      </trkpt>
      <trkpt lat="45.94108" lon="2.21834">
        <ele>586</ele>
        <time>2017-03-24T14:17:06Z</time>
      </trkpt>
      <trkpt lat="45.9408" lon="2.21739">
        <ele>580</ele>
        <time>2017-03-24T14:16:46Z</time>
      </trkpt>
      <trkpt lat="45.94054" lon="2.21684">
        <ele>579</ele>
        <time>2017-03-24T14:16:26Z</time>
      </trkpt>
      <trkpt lat="45.94045" lon="2.21642">
        <ele>576</ele>
        <time>2017-03-24T14:16:06Z</time>
      </trkpt>
      <trkpt lat="45.94003" lon="2.21574">
        <ele>573</ele>
        <time>2017-03-24T14:15:46Z</time>
      </trkpt>
      <trkpt lat="45.93995" lon="2.21275">
        <ele>564</ele>
        <time>2017-03-24T14:15:26Z</time>
      </trkpt>
      <trkpt lat="45.93944" lon="2.21121">
        <ele>568</ele>
        <time>2017-03-24T14:15:06Z</time>
      </trkpt>
      <trkpt lat="45.93925" lon="2.21021">
        <ele>567</ele>
        <time>2017-03-24T14:14:46Z</time>
      </trkpt>
      <trkpt lat="45.93864" lon="2.20895">
        <ele>565</ele>
        <time>2017-03-24T14:14:26Z</time>
      </trkpt>
      <trkpt lat="45.93825" lon="2.20912">
        <ele>567</ele>
        <time>2017-03-24T14:14:06Z</time>
      </trkpt>
      <trkpt lat="45.93794" lon="2.20825">
        <ele>563</ele>
        <time>2017-03-24T14:13:46Z</time>
      </trkpt>
      <trkpt lat="45.93759" lon="2.20781">
        <ele>562</ele>
        <time>2017-03-24T14:13:26Z</time>
      </trkpt>
      <trkpt lat="45.93686" lon="2.20795">
        <ele>565</ele>
        <time>2017-03-24T14:13:06Z</time>
      </trkpt>
      <trkpt lat="45.9367" lon="2.2074">
        <ele>556</ele>
        <time>2017-03-24T14:12:46Z</time>
      </trkpt>
      <trkpt lat="45.93552" lon="2.20671">
        <ele>553</ele>
        <time>2017-03-24T14:12:26Z</time>
      </trkpt>
      <trkpt lat="45.93462" lon="2.20614">
        <ele>551</ele>
        <time>2017-03-24T14:12:06Z</time>
      </trkpt>
      <trkpt lat="45.93483" lon="2.20539">
        <ele>539</ele>
        <time>2017-03-24T14:11:46Z</time>
      </trkpt>
      <trkpt lat="45.93457" lon="2.20483">
        <ele>535</ele>
        <time>2017-03-24T14:11:26Z</time>
      </trkpt>
      <trkpt lat="45.93481" lon="2.20391">
        <ele>534</ele>
        <time>2017-03-24T14:11:06Z</time>
      </trkpt>
      <trkpt lat="45.93469" lon="2.20317">
        <ele>533</ele>
        <time>2017-03-24T14:10:46Z</time>
      </trkpt>
      <trkpt lat="45.93412" lon="2.20197">
        <ele>522</ele>
        <time>2017-03-24T14:10:26Z</time>
      </trkpt>
      <trkpt lat="45.93434" lon="2.201">
        <ele>532</ele>
        <time>2017-03-24T14:10:06Z</time>
      </trkpt>
      <trkpt lat="45.93423" lon="2.20073">
        <ele>531</ele>
        <time>2017-03-24T14:09:46Z</time>
      </trkpt>
      <trkpt lat="45.93373" lon="2.2007">
        <ele>523</ele>
        <time>2017-03-24T14:09:26Z</time>
      </trkpt>
      <trkpt lat="45.93371" lon="2.20006">
        <ele>525</ele>
        <time>2017-03-24T13:46:26Z</time>
      </trkpt>
      <trkpt lat="45.93354" lon="2.19966">
        <ele>531</ele>
        <time>2017-03-24T13:46:06Z</time>
      </trkpt>
      <trkpt lat="45.93376" lon="2.19955">
        <ele>533</ele>
        <time>2017-03-24T13:45:46Z</time>
      </trkpt>
      <trkpt lat="45.93375" lon="2.19914">
        <ele>540</ele>
        <time>2017-03-24T13:45:26Z</time>
      </trkpt>
      <trkpt lat="45.93381" lon="2.19876">
        <ele>542</ele>
        <time>2017-03-24T13:45:06Z</time>
      </trkpt>
      <trkpt lat="45.93374" lon="2.19826">
        <ele>546</ele>
        <time>2017-03-24T13:44:46Z</time>
      </trkpt>
      <trkpt lat="45.93422" lon="2.19755">
        <ele>553</ele>
        <time>2017-03-24T13:44:26Z</time>
      </trkpt>
      <trkpt lat="45.93451" lon="2.19657">
        <ele>549</ele>
        <time>2017-03-24T13:44:06Z</time>
      </trkpt>
      <trkpt lat="45.93507" lon="2.19642">
        <ele>552</ele>
        <time>2017-03-24T13:43:46Z</time>
      </trkpt>
      <trkpt lat="45.93547" lon="2.19646">
        <ele>552</ele>
        <time>2017-03-24T13:43:26Z</time>
      </trkpt>
      <trkpt lat="45.93584" lon="2.1967">
        <ele>560</ele>
        <time>2017-03-24T13:43:06Z</time>
      </trkpt>
      <trkpt lat="45.93617" lon="2.19665">
        <ele>555</ele>
        <time>2017-03-24T13:42:46Z</time>
      </trkpt>
      <trkpt lat="45.93648" lon="2.19576">
        <ele>547</ele>
        <time>2017-03-24T13:42:26Z</time>
      </trkpt>
      <trkpt lat="45.93651" lon="2.19387">
        <ele>529</ele>
        <time>2017-03-24T13:42:06Z</time>
      </trkpt>
      <trkpt lat="45.93693" lon="2.19326">
        <ele>532</ele>
        <time>2017-03-24T13:41:46Z</time>
      </trkpt>
      <trkpt lat="45.93729" lon="2.19263">
        <ele>534</ele>
        <time>2017-03-24T13:41:26Z</time>
      </trkpt>
      <trkpt lat="45.93728" lon="2.19243">
        <ele>535</ele>
        <time>2017-03-24T13:41:06Z</time>
      </trkpt>
      <trkpt lat="45.93801" lon="2.19173">
        <ele>544</ele>
        <time>2017-03-24T13:40:46Z</time>
      </trkpt>
      <trkpt lat="45.93864" lon="2.19137">
        <ele>546</ele>
        <time>2017-03-24T13:40:26Z</time>
      </trkpt>
      <trkpt lat="45.93923" lon="2.19115">
        <ele>544</ele>
        <time>2017-03-24T13:40:06Z</time>
      </trkpt>
      <trkpt lat="45.93923" lon="2.19102">
        <ele>543</ele>
        <time>2017-03-24T13:39:46Z</time>
      </trkpt>
      <trkpt lat="45.9397" lon="2.19094">
        <ele>543</ele>
        <time>2017-03-24T13:39:26Z</time>
      </trkpt>
      <trkpt lat="45.93999" lon="2.18979">
        <ele>540</ele>
        <time>2017-03-24T13:39:06Z</time>
      </trkpt>
      <trkpt lat="45.94009" lon="2.18885">
        <ele>535</ele>
        <time>2017-03-24T13:38:46Z</time>
      </trkpt>
      <trkpt lat="45.94033" lon="2.18794">
        <ele>532</ele>
        <time>2017-03-24T13:38:26Z</time>
      </trkpt>
      <trkpt lat="45.94076" lon="2.18779">
        <ele>531</ele>
        <time>2017-03-24T13:38:06Z</time>
      </trkpt>
      <trkpt lat="45.94093" lon="2.18657">
        <ele>527</ele>
        <time>2017-03-24T13:37:46Z</time>
      </trkpt>
      <trkpt lat="45.94103" lon="2.18601">
        <ele>528</ele>
        <time>2017-03-24T13:37:26Z</time>
      </trkpt>
      <trkpt lat="45.94128" lon="2.18541">
        <ele>527</ele>
        <time>2017-03-24T13:37:06Z</time>
      </trkpt>
      <trkpt lat="45.94134" lon="2.18511">
        <ele>527</ele>
        <time>2017-03-24T13:36:46Z</time>
      </trkpt>
      <trkpt lat="45.94155" lon="2.18463">
        <ele>524</ele>
        <time>2017-03-24T13:36:26Z</time>
      </trkpt>
      <trkpt lat="45.94157" lon="2.18416">
        <ele>524</ele>
        <time>2017-03-24T13:36:06Z</time>
      </trkpt>
      <trkpt lat="45.94192" lon="2.18261">
        <ele>527</ele>
        <time>2017-03-24T13:35:46Z</time>
      </trkpt>
      <trkpt lat="45.94218" lon="2.18209">
        <ele>526</ele>
        <time>2017-03-24T13:35:26Z</time>
      </trkpt>
      <trkpt lat="45.94225" lon="2.18161">
        <ele>526</ele>
        <time>2017-03-24T13:35:06Z</time>
      </trkpt>
      <trkpt lat="45.94182" lon="2.18046">
        <ele>519</ele>
        <time>2017-03-24T13:34:46Z</time>
      </trkpt>
      <trkpt lat="45.94192" lon="2.17982">
        <ele>516</ele>
        <time>2017-03-24T13:34:26Z</time>
      </trkpt>
      <trkpt lat="45.94246" lon="2.17903">
        <ele>515</ele>
        <time>2017-03-24T13:34:06Z</time>
      </trkpt>
      <trkpt lat="45.94301" lon="2.17754">
        <ele>504</ele>
        <time>2017-03-24T13:33:46Z</time>
      </trkpt>
      <trkpt lat="45.94373" lon="2.17742">
        <ele>492</ele>
        <time>2017-03-24T13:33:26Z</time>
      </trkpt>
      <trkpt lat="45.94481" lon="2.17748">
        <ele>480</ele>
        <time>2017-03-24T13:33:06Z</time>
      </trkpt>
      <trkpt lat="45.94617" lon="2.17726">
        <ele>462</ele>
        <time>2017-03-24T13:32:46Z</time>
      </trkpt>
      <trkpt lat="45.94686" lon="2.17734">
        <ele>456</ele>
        <time>2017-03-24T13:32:26Z</time>
      </trkpt>
      <trkpt lat="45.94745" lon="2.17725">
        <ele>452</ele>
        <time>2017-03-24T13:32:06Z</time>
      </trkpt>
      <trkpt lat="45.94776" lon="2.17665">
        <ele>445</ele>
        <time>2017-03-24T13:31:46Z</time>
      </trkpt>
      <trkpt lat="45.94934" lon="2.17588">
        <ele>460</ele>
        <time>2017-03-24T13:31:26Z</time>
      </trkpt>
      <trkpt lat="45.95043" lon="2.17479">
        <ele>444</ele>
        <time>2017-03-24T13:31:06Z</time>
      </trkpt>
      <trkpt lat="45.95088" lon="2.17445">
        <ele>444</ele>
        <time>2017-03-24T13:30:46Z</time>
      </trkpt>
      <trkpt lat="45.95146" lon="2.17439">
        <ele>442</ele>
        <time>2017-03-24T13:30:26Z</time>
      </trkpt>
      <trkpt lat="45.95223" lon="2.17481">
        <ele>441</ele>
        <time>2017-03-24T13:30:06Z</time>
      </trkpt>
      <trkpt lat="45.95322" lon="2.17497">
        <ele>441</ele>
        <time>2017-03-24T13:29:46Z</time>
      </trkpt>
      <trkpt lat="45.95419" lon="2.17453">
        <ele>447</ele>
        <time>2017-03-24T13:29:26Z</time>
      </trkpt>
      <trkpt lat="45.95522" lon="2.17362">
        <ele>446</ele>
        <time>2017-03-24T13:29:06Z</time>
      </trkpt>
      <trkpt lat="45.95547" lon="2.17249">
        <ele>440</ele>
        <time>2017-03-24T13:28:46Z</time>
      </trkpt>
      <trkpt lat="45.95478" lon="2.17141">
        <ele>434</ele>
        <time>2017-03-24T13:28:26Z</time>
      </trkpt>
      <trkpt lat="45.95449" lon="2.16944">
        <ele>436</ele>
        <time>2017-03-24T13:28:06Z</time>
      </trkpt>
      <trkpt lat="45.95469" lon="2.16804">
        <ele>434</ele>
        <time>2017-03-24T13:27:46Z</time>
      </trkpt>
      <trkpt lat="45.95469" lon="2.16727">
        <ele>434</ele>
        <time>2017-03-24T13:27:26Z</time>
      </trkpt>
      <trkpt lat="45.95622" lon="2.16736">
        <ele>435</ele>
        <time>2017-03-24T13:27:06Z</time>
      </trkpt>
      <trkpt lat="45.95661" lon="2.16762">
        <ele>436</ele>
        <time>2017-03-24T13:26:46Z</time>
      </trkpt>
      <trkpt lat="45.95723" lon="2.16749">
        <ele>436</ele>
        <time>2017-03-24T13:26:26Z</time>
      </trkpt>
      <trkpt lat="45.95733" lon="2.16688">
        <ele>435</ele>
        <time>2017-03-24T13:26:06Z</time>
      </trkpt>
      <trkpt lat="45.95713" lon="2.16665">
        <ele>436</ele>
        <time>2017-03-24T13:25:46Z</time>
      </trkpt>
      <trkpt lat="45.95699" lon="2.16625">
        <ele>438</ele>
        <time>2017-03-24T13:25:26Z</time>
      </trkpt>
      <trkpt lat="45.95673" lon="2.16584">
        <ele>446</ele>
        <time>2017-03-24T13:25:06Z</time>
      </trkpt>
      <trkpt lat="45.95649" lon="2.16568">
        <ele>447</ele>
        <time>2017-03-24T13:24:46Z</time>
      </trkpt>
      <trkpt lat="45.95645" lon="2.16521">
        <ele>449</ele>
        <time>2017-03-24T13:24:26Z</time>
      </trkpt>
      <trkpt lat="45.95612" lon="2.16422">
        <ele>459</ele>
        <time>2017-03-24T13:24:06Z</time>
      </trkpt>
      <trkpt lat="45.956" lon="2.16281">
        <ele>476</ele>
        <time>2017-03-24T13:23:46Z</time>
      </trkpt>
      <trkpt lat="45.95653" lon="2.16124">
        <ele>487</ele>
        <time>2017-03-24T13:23:26Z</time>
      </trkpt>
      <trkpt lat="45.95681" lon="2.1602">
        <ele>489.4</ele>
        <time>2017-03-24T13:23:06Z</time>
      </trkpt>
      <trkpt lat="45.9568" lon="2.15979">
        <ele>490.6</ele>
        <time>2017-03-24T13:22:46Z</time>
      </trkpt>
      <trkpt lat="45.95678" lon="2.15947">
        <ele>491</ele>
        <time>2017-03-24T13:22:26Z</time>
      </trkpt>
      <trkpt lat="45.95685" lon="2.15941">
        <ele>490.8</ele>
        <time>2017-03-24T13:22:06Z</time>
      </trkpt>
      <trkpt lat="45.95499" lon="2.15192">
        <ele>548.4</ele>
        <time>2017-03-24T13:21:46Z</time>
      </trkpt>
      <trkpt lat="45.95599" lon="2.14538">
        <ele>560</ele>
        <time>2017-03-24T13:21:26Z</time>
      </trkpt>
      <trkpt lat="45.95631" lon="2.1429">
        <ele>571</ele>
        <time>2017-03-24T13:21:06Z</time>
      </trkpt>
      <trkpt lat="45.95559" lon="2.13854">
        <ele>575</ele>
        <time>2017-03-24T13:20:46Z</time>
      </trkpt>
      <trkpt lat="45.95577" lon="2.1365">
        <ele>579</ele>
        <time>2017-03-24T13:20:26Z</time>
      </trkpt>
      <trkpt lat="45.95558" lon="2.13598">
        <ele>577</ele>
        <time>2017-03-24T13:20:06Z</time>
      </trkpt>
      <trkpt lat="45.95571" lon="2.13484">
        <ele>570</ele>
        <time>2017-03-24T13:19:46Z</time>
      </trkpt>
      <trkpt lat="45.95593" lon="2.13408">
        <ele>569</ele>
        <time>2017-03-24T13:19:26Z</time>
      </trkpt>
      <trkpt lat="45.95634" lon="2.1336">
        <ele>567</ele>
        <time>2017-03-24T13:19:06Z</time>
      </trkpt>
      <trkpt lat="45.95677" lon="2.13294">
        <ele>560</ele>
        <time>2017-03-24T13:18:46Z</time>
      </trkpt>
      <trkpt lat="45.95694" lon="2.1324">
        <ele>557</ele>
        <time>2017-03-24T13:18:26Z</time>
      </trkpt>
      <trkpt lat="45.95682" lon="2.13193">
        <ele>557</ele>
        <time>2017-03-24T13:18:06Z</time>
      </trkpt>
      <trkpt lat="45.95676" lon="2.13126">
        <ele>558</ele>
        <time>2017-03-24T13:17:46Z</time>
      </trkpt>
      <trkpt lat="45.95721" lon="2.13095">
        <ele>556</ele>
        <time>2017-03-24T13:17:26Z</time>
      </trkpt>
      <trkpt lat="45.95729" lon="2.13005">
        <ele>563</ele>
        <time>2017-03-24T13:17:06Z</time>
      </trkpt>
      <trkpt lat="45.9577" lon="2.12957">
        <ele>563</ele>
        <time>2017-03-24T13:16:46Z</time>
      </trkpt>
      <trkpt lat="45.95788" lon="2.12916">
        <ele>565</ele>
        <time>2017-03-24T13:16:26Z</time>
      </trkpt>
      <trkpt lat="45.95786" lon="2.12875">
        <ele>565</ele>
        <time>2017-03-24T13:16:06Z</time>
      </trkpt>
      <trkpt lat="45.95835" lon="2.12829">
        <ele>566</ele>
        <time>2017-03-24T13:15:46Z</time>
      </trkpt>
      <trkpt lat="45.95844" lon="2.12808">
        <ele>569</ele>
        <time>2017-03-24T13:15:26Z</time>
      </trkpt>
      <trkpt lat="45.95856" lon="2.12649">
        <ele>574</ele>
        <time>2017-03-24T13:15:06Z</time>
      </trkpt>
      <trkpt lat="45.95928" lon="2.12532">
        <ele>583</ele>
        <time>2017-03-24T13:14:46Z</time>
      </trkpt>
      <trkpt lat="45.96005" lon="2.12253">
        <ele>591</ele>
        <time>2017-03-24T13:14:26Z</time>
      </trkpt>
      <trkpt lat="45.96019" lon="2.12152">
        <ele>592</ele>
        <time>2017-03-24T13:14:06Z</time>
      </trkpt>
      <trkpt lat="45.96008" lon="2.1204">
        <ele>595</ele>
        <time>2017-03-24T13:13:46Z</time>
      </trkpt>
      <trkpt lat="45.95948" lon="2.12031">
        <ele>597</ele>
        <time>2017-03-24T13:13:26Z</time>
      </trkpt>
      <trkpt lat="45.95858" lon="2.11938">
        <ele>604</ele>
        <time>2017-03-24T13:13:06Z</time>
      </trkpt>
      <trkpt lat="45.95826" lon="2.11845">
        <ele>608</ele>
        <time>2017-03-24T13:12:46Z</time>
      </trkpt>
      <trkpt lat="45.95769" lon="2.1183">
        <ele>608</ele>
        <time>2017-03-24T13:12:26Z</time>
      </trkpt>
      <trkpt lat="45.9571" lon="2.11702">
        <ele>612</ele>
        <time>2017-03-24T13:12:06Z</time>
      </trkpt>
      <trkpt lat="45.95677" lon="2.1164">
        <ele>613</ele>
        <time>2017-03-24T13:11:46Z</time>
      </trkpt>
      <trkpt lat="45.95657" lon="2.11548">
        <ele>612</ele>
        <time>2017-03-24T13:11:26Z</time>
      </trkpt>
      <trkpt lat="45.95698" lon="2.11279">
        <ele>618</ele>
        <time>2017-03-24T13:11:06Z</time>
      </trkpt>
      <trkpt lat="45.95724" lon="2.11203">
        <ele>620</ele>
        <time>2017-03-24T13:10:46Z</time>
      </trkpt>
      <trkpt lat="45.95732" lon="2.11129">
        <ele>620</ele>
        <time>2017-03-24T13:10:26Z</time>
      </trkpt>
      <trkpt lat="45.95732" lon="2.11129">
        <ele>620</ele>
        <time>2017-03-24T13:10:06Z</time>
      </trkpt>
      <trkpt lat="45.95716" lon="2.11043">
        <ele>622</ele>
        <time>2017-03-24T13:09:46Z</time>
      </trkpt>
      <trkpt lat="45.95682" lon="2.10934">
        <ele>629</ele>
        <time>2017-03-24T13:09:26Z</time>
      </trkpt>
      <trkpt lat="45.95633" lon="2.10861">
        <ele>631</ele>
        <time>2017-03-24T13:09:06Z</time>
      </trkpt>
      <trkpt lat="45.95579" lon="2.10782">
        <ele>627</ele>
        <time>2017-03-24T13:08:46Z</time>
      </trkpt>
      <trkpt lat="45.95484" lon="2.10686">
        <ele>623</ele>
        <time>2017-03-24T13:08:26Z</time>
      </trkpt>
      <trkpt lat="45.95343" lon="2.10579">
        <ele>625</ele>
        <time>2017-03-24T13:08:06Z</time>
      </trkpt>
      <trkpt lat="45.95252" lon="2.10473">
        <ele>628</ele>
        <time>2017-03-24T13:07:46Z</time>
      </trkpt>
      <trkpt lat="45.95207" lon="2.10434">
        <ele>631</ele>
        <time>2017-03-24T13:07:26Z</time>
      </trkpt>
      <trkpt lat="45.95286" lon="2.10233">
        <ele>618</ele>
        <time>2017-03-24T13:07:06Z</time>
      </trkpt>
      <trkpt lat="45.95321" lon="2.10228">
        <ele>617</ele>
        <time>2017-03-24T13:06:46Z</time>
      </trkpt>
      <trkpt lat="45.95338" lon="2.1019">
        <ele>612</ele>
        <time>2017-03-24T13:06:26Z</time>
      </trkpt>
      <trkpt lat="45.95374" lon="2.10212">
        <ele>612</ele>
        <time>2017-03-24T13:06:06Z</time>
      </trkpt>
      <trkpt lat="45.95441" lon="2.10213">
        <ele>608</ele>
        <time>2017-03-24T13:05:46Z</time>
      </trkpt>
      <trkpt lat="45.95483" lon="2.10229">
        <ele>608</ele>
        <time>2017-03-24T13:05:26Z</time>
      </trkpt>
      <trkpt lat="45.95558" lon="2.10227">
        <ele>607</ele>
        <time>2017-03-24T13:05:06Z</time>
      </trkpt>
      <trkpt lat="45.95599" lon="2.10211">
        <ele>609</ele>
        <time>2017-03-24T13:04:46Z</time>
      </trkpt>
      <trkpt lat="45.95683" lon="2.10213">
        <ele>614</ele>
        <time>2017-03-24T13:04:26Z</time>
      </trkpt>
      <trkpt lat="45.95721" lon="2.10123">
        <ele>612</ele>
        <time>2017-03-24T13:04:06Z</time>
      </trkpt>
      <trkpt lat="45.95747" lon="2.09997">
        <ele>608</ele>
        <time>2017-03-24T13:03:46Z</time>
      </trkpt>
      <trkpt lat="45.95866" lon="2.09883">
        <ele>595</ele>
        <time>2017-03-24T13:03:26Z</time>
      </trkpt>
      <trkpt lat="45.95895" lon="2.09811">
        <ele>592</ele>
        <time>2017-03-24T13:03:06Z</time>
      </trkpt>
      <trkpt lat="45.95908" lon="2.09678">
        <ele>592</ele>
        <time>2017-03-24T13:02:46Z</time>
      </trkpt>
      <trkpt lat="45.95875" lon="2.09543">
        <ele>589</ele>
        <time>2017-03-24T13:02:26Z</time>
      </trkpt>
      <trkpt lat="45.95845" lon="2.09449">
        <ele>583</ele>
        <time>2017-03-24T13:02:06Z</time>
      </trkpt>
      <trkpt lat="45.95803" lon="2.09395">
        <ele>582</ele>
        <time>2017-03-24T13:01:46Z</time>
      </trkpt>
      <trkpt lat="45.95761" lon="2.09326">
        <ele>584</ele>
        <time>2017-03-24T13:01:26Z</time>
      </trkpt>
      <trkpt lat="45.95798" lon="2.09318">
        <ele>585</ele>
        <time>2017-03-24T13:01:06Z</time>
      </trkpt>
      <trkpt lat="45.95834" lon="2.09284">
        <ele>586</ele>
        <time>2017-03-24T13:00:46Z</time>
      </trkpt>
      <trkpt lat="45.95913" lon="2.0927">
        <ele>587</ele>
        <time>2017-03-24T13:00:26Z</time>
      </trkpt>
      <trkpt lat="45.95992" lon="2.09159">
        <ele>588</ele>
        <time>2017-03-24T13:00:06Z</time>
      </trkpt>
      <trkpt lat="45.96037" lon="2.09072">
        <ele>585</ele>
        <time>2017-03-24T12:59:46Z</time>
      </trkpt>
      <trkpt lat="45.96074" lon="2.09027">
        <ele>582</ele>
        <time>2017-03-24T12:59:26Z</time>
      </trkpt>
      <trkpt lat="45.96146" lon="2.08983">
        <ele>572</ele>
        <time>2017-03-24T12:59:06Z</time>
      </trkpt>
      <trkpt lat="45.96192" lon="2.08932">
        <ele>571</ele>
        <time>2017-03-24T12:58:46Z</time>
      </trkpt>
      <trkpt lat="45.96456" lon="2.08772">
        <ele>577</ele>
        <time>2017-03-24T12:58:26Z</time>
      </trkpt>
      <trkpt lat="45.96451" lon="2.08717">
        <ele>579</ele>
        <time>2017-03-24T12:58:06Z</time>
      </trkpt>
      <trkpt lat="45.96458" lon="2.08676">
        <ele>580</ele>
        <time>2017-03-24T12:57:46Z</time>
      </trkpt>
      <trkpt lat="45.96503" lon="2.08642">
        <ele>579</ele>
        <time>2017-03-24T12:57:26Z</time>
      </trkpt>
      <trkpt lat="45.96493" lon="2.0851">
        <ele>586</ele>
        <time>2017-03-24T12:57:06Z</time>
      </trkpt>
      <trkpt lat="45.96479" lon="2.08462">
        <ele>588</ele>
        <time>2017-03-24T12:56:46Z</time>
      </trkpt>
      <trkpt lat="45.96481" lon="2.08414">
        <ele>588</ele>
        <time>2017-03-24T12:56:26Z</time>
      </trkpt>
      <trkpt lat="45.96512" lon="2.08365">
        <ele>586</ele>
        <time>2017-03-24T12:56:06Z</time>
      </trkpt>
      <trkpt lat="45.96492" lon="2.08245">
        <ele>578</ele>
        <time>2017-03-24T12:55:46Z</time>
      </trkpt>
      <trkpt lat="45.96419" lon="2.08104">
        <ele>569</ele>
        <time>2017-03-24T12:55:26Z</time>
      </trkpt>
      <trkpt lat="45.96332" lon="2.07868">
        <ele>560</ele>
        <time>2017-03-24T12:55:06Z</time>
      </trkpt>
      <trkpt lat="45.96324" lon="2.07801">
        <ele>559</ele>
        <time>2017-03-24T12:54:46Z</time>
      </trkpt>
      <trkpt lat="45.96331" lon="2.07693">
        <ele>561</ele>
        <time>2017-03-24T12:54:26Z</time>
      </trkpt>
      <trkpt lat="45.96342" lon="2.07634">
        <ele>564</ele>
        <time>2017-03-24T12:54:06Z</time>
      </trkpt>
      <trkpt lat="45.96303" lon="2.07578">
        <ele>572</ele>
        <time>2017-03-24T12:53:46Z</time>
      </trkpt>
      <trkpt lat="45.96269" lon="2.07554">
        <ele>573</ele>
        <time>2017-03-24T12:53:26Z</time>
      </trkpt>
      <trkpt lat="45.9617" lon="2.07526">
        <ele>579</ele>
        <time>2017-03-24T12:53:06Z</time>
      </trkpt>
      <trkpt lat="45.96204" lon="2.0749">
        <ele>585</ele>
        <time>2017-03-24T12:52:46Z</time>
      </trkpt>
      <trkpt lat="45.96198" lon="2.07437">
        <ele>587</ele>
        <time>2017-03-24T12:52:26Z</time>
      </trkpt>
      <trkpt lat="45.96076" lon="2.07145">
        <ele>607</ele>
        <time>2017-03-24T12:52:06Z</time>
      </trkpt>
      <trkpt lat="45.96046" lon="2.07013">
        <ele>611</ele>
        <time>2017-03-24T12:51:46Z</time>
      </trkpt>
      <trkpt lat="45.96034" lon="2.0693">
        <ele>614</ele>
        <time>2017-03-24T12:51:26Z</time>
      </trkpt>
      <trkpt lat="45.96003" lon="2.06891">
        <ele>614</ele>
        <time>2017-03-24T12:51:06Z</time>
      </trkpt>
      <trkpt lat="45.95939" lon="2.06922">
        <ele>616</ele>
        <time>2017-03-24T12:50:46Z</time>
      </trkpt>
      <trkpt lat="45.95717" lon="2.07031">
        <ele>622</ele>
        <time>2017-03-24T12:50:26Z</time>
      </trkpt>
      <trkpt lat="45.9567" lon="2.0707">
        <ele>623</ele>
        <time>2017-03-24T12:50:06Z</time>
      </trkpt>
      <trkpt lat="45.95604" lon="2.0709">
        <ele>629</ele>
        <time>2017-03-24T12:49:46Z</time>
      </trkpt>
      <trkpt lat="45.95502" lon="2.07084">
        <ele>643</ele>
        <time>2017-03-24T12:49:26Z</time>
      </trkpt>
      <trkpt lat="45.95381" lon="2.07134">
        <ele>649</ele>
        <time>2017-03-24T12:49:06Z</time>
      </trkpt>
      <trkpt lat="45.95267" lon="2.07192">
        <ele>653</ele>
        <time>2017-03-24T12:48:46Z</time>
      </trkpt>
      <trkpt lat="45.95111" lon="2.07195">
        <ele>656</ele>
        <time>2017-03-24T12:48:26Z</time>
      </trkpt>
      <trkpt lat="45.94988" lon="2.07172">
        <ele>656</ele>
        <time>2017-03-24T12:48:06Z</time>
      </trkpt>
      <trkpt lat="45.94882" lon="2.07127">
        <ele>663</ele>
        <time>2017-03-24T12:47:46Z</time>
      </trkpt>
      <trkpt lat="45.94774" lon="2.0704">
        <ele>669</ele>
        <time>2017-03-24T12:47:26Z</time>
      </trkpt>
      <trkpt lat="45.94695" lon="2.06927">
        <ele>675</ele>
        <time>2017-03-24T12:47:06Z</time>
      </trkpt>
      <trkpt lat="45.94626" lon="2.06819">
        <ele>672</ele>
        <time>2017-03-24T12:46:46Z</time>
      </trkpt>
      <trkpt lat="45.94602" lon="2.06707">
        <ele>670</ele>
        <time>2017-03-24T12:46:26Z</time>
      </trkpt>
      <trkpt lat="45.94552" lon="2.06643">
        <ele>668</ele>
        <time>2017-03-24T12:46:06Z</time>
      </trkpt>
      <trkpt lat="45.94502" lon="2.06545">
        <ele>666</ele>
        <time>2017-03-24T12:45:46Z</time>
      </trkpt>
      <trkpt lat="45.94482" lon="2.06382">
        <ele>663</ele>
        <time>2017-03-24T12:45:26Z</time>
      </trkpt>
      <trkpt lat="45.94539" lon="2.06228">
        <ele>660</ele>
        <time>2017-03-24T12:45:06Z</time>
      </trkpt>
      <trkpt lat="45.94593" lon="2.06118">
        <ele>659</ele>
        <time>2017-03-24T12:44:46Z</time>
      </trkpt>
      <trkpt lat="45.94658" lon="2.06008">
        <ele>655</ele>
        <time>2017-03-24T12:44:26Z</time>
      </trkpt>
      <trkpt lat="45.94806" lon="2.0591">
        <ele>644</ele>
        <time>2017-03-24T12:44:06Z</time>
      </trkpt>
      <trkpt lat="45.94758" lon="2.0589">
        <ele>644</ele>
        <time>2017-03-24T12:43:46Z</time>
      </trkpt>
      <trkpt lat="45.94621" lon="2.0581">
        <ele>643</ele>
        <time>2017-03-24T12:43:26Z</time>
      </trkpt>
      <trkpt lat="45.94445" lon="2.05731">
        <ele>638</ele>
        <time>2017-03-24T12:43:06Z</time>
      </trkpt>
      <trkpt lat="45.94402" lon="2.05736">
        <ele>635</ele>
        <time>2017-03-24T12:42:46Z</time>
      </trkpt>
      <trkpt lat="45.94358" lon="2.05765">
        <ele>634</ele>
        <time>2017-03-24T12:42:26Z</time>
      </trkpt>
      <trkpt lat="45.94323" lon="2.0582">
        <ele>631</ele>
        <time>2017-03-24T12:42:06Z</time>
      </trkpt>
      <trkpt lat="45.94299" lon="2.05831">
        <ele>629</ele>
        <time>2017-03-24T12:41:46Z</time>
      </trkpt>
      <trkpt lat="45.9426" lon="2.05758">
        <ele>628</ele>
        <time>2017-03-24T12:41:26Z</time>
      </trkpt>
      <trkpt lat="45.94255" lon="2.0571">
        <ele>628</ele>
        <time>2017-03-24T12:41:06Z</time>
      </trkpt>
      <trkpt lat="45.94139" lon="2.05693">
        <ele>638</ele>
        <time>2017-03-24T12:40:46Z</time>
      </trkpt>
      <trkpt lat="45.94035" lon="2.05641">
        <ele>651</ele>
        <time>2017-03-24T12:40:26Z</time>
      </trkpt>
      <trkpt lat="45.93955" lon="2.05644">
        <ele>658</ele>
        <time>2017-03-24T12:40:06Z</time>
      </trkpt>
      <trkpt lat="45.93881" lon="2.05621">
        <ele>665</ele>
        <time>2017-03-24T12:39:46Z</time>
      </trkpt>
      <trkpt lat="45.9382" lon="2.05564">
        <ele>670</ele>
        <time>2017-03-24T12:39:26Z</time>
      </trkpt>
      <trkpt lat="45.938" lon="2.05535">
        <ele>671</ele>
        <time>2017-03-24T12:39:06Z</time>
      </trkpt>
      <trkpt lat="45.93659" lon="2.05451">
        <ele>669</ele>
        <time>2017-03-24T12:38:46Z</time>
      </trkpt>
      <trkpt lat="45.93618" lon="2.05363">
        <ele>666</ele>
        <time>2017-03-24T12:38:26Z</time>
      </trkpt>
      <trkpt lat="45.93653" lon="2.05283">
        <ele>662</ele>
        <time>2017-03-24T12:38:06Z</time>
      </trkpt>
      <trkpt lat="45.93728" lon="2.05201">
        <ele>663</ele>
        <time>2017-03-24T12:37:46Z</time>
      </trkpt>
      <trkpt lat="45.93849" lon="2.05028">
        <ele>672</ele>
        <time>2017-03-24T12:37:26Z</time>
      </trkpt>
      <trkpt lat="45.93979" lon="2.04803">
        <ele>674</ele>
        <time>2017-03-24T12:37:06Z</time>
      </trkpt>
      <trkpt lat="45.93992" lon="2.04753">
        <ele>673</ele>
        <time>2017-03-24T12:36:46Z</time>
      </trkpt>
      <trkpt lat="45.93994" lon="2.04704">
        <ele>674</ele>
        <time>2017-03-24T12:36:26Z</time>
      </trkpt>
      <trkpt lat="45.93977" lon="2.04614">
        <ele>673</ele>
        <time>2017-03-24T12:36:06Z</time>
      </trkpt>
      <trkpt lat="45.93988" lon="2.045">
        <ele>673</ele>
        <time>2017-03-24T12:35:46Z</time>
      </trkpt>
      <trkpt lat="45.94072" lon="2.04273">
        <ele>669</ele>
        <time>2017-03-24T12:35:26Z</time>
      </trkpt>
      <trkpt lat="45.94138" lon="2.04231">
        <ele>661</ele>
        <time>2017-03-24T12:35:06Z</time>
      </trkpt>
      <trkpt lat="45.94282" lon="2.04118">
        <ele>652</ele>
        <time>2017-03-24T12:34:46Z</time>
      </trkpt>
      <trkpt lat="45.94223" lon="2.04001">
        <ele>651</ele>
        <time>2017-03-24T12:34:26Z</time>
      </trkpt>
      <trkpt lat="45.93997" lon="2.03828">
        <ele>641</ele>
        <time>2017-03-24T12:34:06Z</time>
      </trkpt>
      <trkpt lat="45.93959" lon="2.03816">
        <ele>638</ele>
        <time>2017-03-24T12:33:46Z</time>
      </trkpt>
      <trkpt lat="45.9392" lon="2.03838">
        <ele>640</ele>
        <time>2017-03-24T12:33:26Z</time>
      </trkpt>
      <trkpt lat="45.93842" lon="2.03953">
        <ele>633</ele>
        <time>2017-03-24T12:33:06Z</time>
      </trkpt>
      <trkpt lat="45.93831" lon="2.03987">
        <ele>627</ele>
        <time>2017-03-24T12:32:46Z</time>
      </trkpt>
      <trkpt lat="45.93801" lon="2.04031">
        <ele>626</ele>
        <time>2017-03-24T12:32:26Z</time>
      </trkpt>
      <trkpt lat="45.93737" lon="2.04072">
        <ele>619</ele>
        <time>2017-03-24T12:32:06Z</time>
      </trkpt>
      <trkpt lat="45.93795" lon="2.03986">
        <ele>621</ele>
        <time>2017-03-24T12:31:46Z</time>
      </trkpt>
      <trkpt lat="45.93797" lon="2.03888">
        <ele>616</ele>
        <time>2017-03-24T12:31:26Z</time>
      </trkpt>
      <trkpt lat="45.93832" lon="2.03778">
        <ele>612</ele>
        <time>2017-03-24T12:31:06Z</time>
      </trkpt>
      <trkpt lat="45.93882" lon="2.03681">
        <ele>617</ele>
        <time>2017-03-24T12:30:46Z</time>
      </trkpt>
      <trkpt lat="45.93945" lon="2.03619">
        <ele>615</ele>
        <time>2017-03-24T12:30:26Z</time>
      </trkpt>
      <trkpt lat="45.94041" lon="2.03553">
        <ele>614</ele>
        <time>2017-03-24T12:30:06Z</time>
      </trkpt>
      <trkpt lat="45.94037" lon="2.03458">
        <ele>611</ele>
        <time>2017-03-24T12:29:46Z</time>
      </trkpt>
      <trkpt lat="45.94083" lon="2.03336">
        <ele>620</ele>
        <time>2017-03-24T12:29:26Z</time>
      </trkpt>
      <trkpt lat="45.94067" lon="2.03259">
        <ele>617</ele>
        <time>2017-03-24T12:29:06Z</time>
      </trkpt>
      <trkpt lat="45.9406" lon="2.03117">
        <ele>618</ele>
        <time>2017-03-24T12:28:46Z</time>
      </trkpt>
      <trkpt lat="45.94134" lon="2.02862">
        <ele>615</ele>
        <time>2017-03-24T12:28:26Z</time>
      </trkpt>
      <trkpt lat="45.94157" lon="2.02815">
        <ele>612</ele>
        <time>2017-03-24T12:28:06Z</time>
      </trkpt>
      <trkpt lat="45.94244" lon="2.02735">
        <ele>604</ele>
        <time>2017-03-24T12:27:46Z</time>
      </trkpt>
      <trkpt lat="45.94302" lon="2.02696">
        <ele>601</ele>
        <time>2017-03-24T12:27:26Z</time>
      </trkpt>
      <trkpt lat="45.94329" lon="2.02656">
        <ele>598</ele>
        <time>2017-03-24T12:27:06Z</time>
      </trkpt>
      <trkpt lat="45.94333" lon="2.02587">
        <ele>597</ele>
        <time>2017-03-24T12:26:46Z</time>
      </trkpt>
      <trkpt lat="45.94348" lon="2.02561">
        <ele>597</ele>
        <time>2017-03-24T12:26:26Z</time>
      </trkpt>
      <trkpt lat="45.94345" lon="2.02544">
        <ele>597</ele>
        <time>2017-03-24T12:26:06Z</time>
      </trkpt>
      <trkpt lat="45.94367" lon="2.0246">
        <ele>596</ele>
        <time>2017-03-24T12:25:46Z</time>
      </trkpt>
      <trkpt lat="45.94369" lon="2.02425">
        <ele>595</ele>
        <time>2017-03-24T12:25:26Z</time>
      </trkpt>
      <trkpt lat="45.94333" lon="2.02283">
        <ele>591</ele>
        <time>2017-03-24T12:25:06Z</time>
      </trkpt>
      <trkpt lat="45.94292" lon="2.02244">
        <ele>593</ele>
        <time>2017-03-24T12:24:46Z</time>
      </trkpt>
      <trkpt lat="45.9422" lon="2.02195">
        <ele>590</ele>
        <time>2017-03-24T12:24:26Z</time>
      </trkpt>
      <trkpt lat="45.93938" lon="2.02108">
        <ele>568</ele>
        <time>2017-03-24T12:24:06Z</time>
      </trkpt>
      <trkpt lat="45.93902" lon="2.02057">
        <ele>566</ele>
        <time>2017-03-24T12:23:46Z</time>
      </trkpt>
      <trkpt lat="45.93845" lon="2.02066">
        <ele>566</ele>
        <time>2017-03-24T12:23:26Z</time>
      </trkpt>
      <trkpt lat="45.93811" lon="2.02051">
        <ele>568</ele>
        <time>2017-03-24T12:23:06Z</time>
      </trkpt>
      <trkpt lat="45.93767" lon="2.01966">
        <ele>564</ele>
        <time>2017-03-24T12:22:46Z</time>
      </trkpt>
      <trkpt lat="45.93717" lon="2.01906">
        <ele>564</ele>
        <time>2017-03-24T12:22:26Z</time>
      </trkpt>
      <trkpt lat="45.93625" lon="2.01841">
        <ele>573</ele>
        <time>2017-03-24T12:22:06Z</time>
      </trkpt>
      <trkpt lat="45.93606" lon="2.01713">
        <ele>573</ele>
        <time>2017-03-24T12:21:46Z</time>
      </trkpt>
      <trkpt lat="45.93583" lon="2.01669">
        <ele>578</ele>
        <time>2017-03-24T12:21:26Z</time>
      </trkpt>
      <trkpt lat="45.93494" lon="2.01603">
        <ele>579</ele>
        <time>2017-03-24T12:21:06Z</time>
      </trkpt>
      <trkpt lat="45.93382" lon="2.01536">
        <ele>581</ele>
        <time>2017-03-24T12:20:46Z</time>
      </trkpt>
      <trkpt lat="45.93321" lon="2.01495">
        <ele>579</ele>
        <time>2017-03-24T12:20:26Z</time>
      </trkpt>
      <trkpt lat="45.9326" lon="2.01451">
        <ele>579</ele>
        <time>2017-03-24T12:20:06Z</time>
      </trkpt>
      <trkpt lat="45.93251" lon="2.01295">
        <ele>578</ele>
        <time>2017-03-24T12:19:46Z</time>
      </trkpt>
      <trkpt lat="45.93227" lon="2.01121">
        <ele>578</ele>
        <time>2017-03-24T12:19:26Z</time>
      </trkpt>
      <trkpt lat="45.93208" lon="2.01029">
        <ele>575</ele>
        <time>2017-03-24T12:19:06Z</time>
      </trkpt>
      <trkpt lat="45.93165" lon="2.0098">
        <ele>572</ele>
        <time>2017-03-24T12:18:46Z</time>
      </trkpt>
      <trkpt lat="45.93125" lon="2.00861">
        <ele>566</ele>
        <time>2017-03-24T12:18:26Z</time>
      </trkpt>
      <trkpt lat="45.93103" lon="2.00827">
        <ele>563</ele>
        <time>2017-03-24T12:18:06Z</time>
      </trkpt>
      <trkpt lat="45.93101" lon="2.00788">
        <ele>562</ele>
        <time>2017-03-24T12:17:46Z</time>
      </trkpt>
      <trkpt lat="45.93021" lon="2.00473">
        <ele>543</ele>
        <time>2017-03-24T12:17:26Z</time>
      </trkpt>
      <trkpt lat="45.93014" lon="2.00396">
        <ele>540</ele>
        <time>2017-03-24T12:17:06Z</time>
      </trkpt>
      <trkpt lat="45.92981" lon="2.00334">
        <ele>534</ele>
        <time>2017-03-24T12:16:46Z</time>
      </trkpt>
      <trkpt lat="45.93001" lon="2.00192">
        <ele>521</ele>
        <time>2017-03-24T12:16:26Z</time>
      </trkpt>
      <trkpt lat="45.93031" lon="2.00149">
        <ele>514</ele>
        <time>2017-03-24T12:16:06Z</time>
      </trkpt>
      <trkpt lat="45.93057" lon="2.00085">
        <ele>511</ele>
        <time>2017-03-24T12:15:46Z</time>
      </trkpt>
      <trkpt lat="45.9305" lon="1.99962">
        <ele>514</ele>
        <time>2017-03-24T12:15:26Z</time>
      </trkpt>
      <trkpt lat="45.93013" lon="1.99881">
        <ele>519</ele>
        <time>2017-03-24T12:15:06Z</time>
      </trkpt>
      <trkpt lat="45.93018" lon="1.99792">
        <ele>523</ele>
        <time>2017-03-24T12:14:46Z</time>
      </trkpt>
      <trkpt lat="45.93048" lon="1.99741">
        <ele>525</ele>
        <time>2017-03-24T12:14:26Z</time>
      </trkpt>
      <trkpt lat="45.93145" lon="1.99453">
        <ele>535</ele>
        <time>2017-03-24T12:14:06Z</time>
      </trkpt>
      <trkpt lat="45.93226" lon="1.99243">
        <ele>535</ele>
        <time>2017-03-24T12:13:46Z</time>
      </trkpt>
      <trkpt lat="45.93238" lon="1.99036">
        <ele>533</ele>
        <time>2017-03-24T12:13:26Z</time>
      </trkpt>
      <trkpt lat="45.93263" lon="1.98931">
        <ele>534</ele>
        <time>2017-03-24T12:13:06Z</time>
      </trkpt>
      <trkpt lat="45.93321" lon="1.98849">
        <ele>533</ele>
        <time>2017-03-24T12:12:46Z</time>
      </trkpt>
      <trkpt lat="45.93359" lon="1.98827">
        <ele>533</ele>
        <time>2017-03-24T12:12:26Z</time>
      </trkpt>
      <trkpt lat="45.93345" lon="1.98737">
        <ele>533</ele>
        <time>2017-03-24T12:12:06Z</time>
      </trkpt>
      <trkpt lat="45.93274" lon="1.98633">
        <ele>537</ele>
        <time>2017-03-24T12:11:46Z</time>
      </trkpt>
      <trkpt lat="45.93283" lon="1.98547">
        <ele>536</ele>
        <time>2017-03-24T12:11:26Z</time>
      </trkpt>
      <trkpt lat="45.93274" lon="1.98487">
        <ele>532</ele>
        <time>2017-03-24T12:11:06Z</time>
      </trkpt>
      <trkpt lat="45.93251" lon="1.98453">
        <ele>531</ele>
        <time>2017-03-24T12:10:46Z</time>
      </trkpt>
      <trkpt lat="45.93266" lon="1.9842">
        <ele>529</ele>
        <time>2017-03-24T12:10:26Z</time>
      </trkpt>
      <trkpt lat="45.93336" lon="1.98421">
        <ele>525</ele>
        <time>2017-03-24T12:10:06Z</time>
      </trkpt>
      <trkpt lat="45.93376" lon="1.98271">
        <ele>511</ele>
        <time>2017-03-24T12:09:46Z</time>
      </trkpt>
      <trkpt lat="45.93416" lon="1.98256">
        <ele>506</ele>
        <time>2017-03-24T12:09:26Z</time>
      </trkpt>
      <trkpt lat="45.93424" lon="1.98151">
        <ele>508</ele>
        <time>2017-03-24T12:09:06Z</time>
      </trkpt>
      <trkpt lat="45.93387" lon="1.98037">
        <ele>503</ele>
        <time>2017-03-24T12:08:46Z</time>
      </trkpt>
      <trkpt lat="45.93357" lon="1.98041">
        <ele>502</ele>
        <time>2017-03-24T12:08:26Z</time>
      </trkpt>
      <trkpt lat="45.93304" lon="1.9802">
        <ele>498</ele>
        <time>2017-03-24T12:08:06Z</time>
      </trkpt>
      <trkpt lat="45.93242" lon="1.98024">
        <ele>499</ele>
        <time>2017-03-24T12:07:46Z</time>
      </trkpt>
      <trkpt lat="45.9323" lon="1.97996">
        <ele>499</ele>
        <time>2017-03-24T12:07:26Z</time>
      </trkpt>
      <trkpt lat="45.93191" lon="1.9799">
        <ele>502</ele>
        <time>2017-03-24T12:07:06Z</time>
      </trkpt>
      <trkpt lat="45.93192" lon="1.9796">
        <ele>501</ele>
        <time>2017-03-24T12:06:46Z</time>
      </trkpt>
      <trkpt lat="45.93215" lon="1.97898">
        <ele>502</ele>
        <time>2017-03-24T12:06:26Z</time>
      </trkpt>
      <trkpt lat="45.93246" lon="1.97849">
        <ele>502</ele>
        <time>2017-03-24T12:06:06Z</time>
      </trkpt>
      <trkpt lat="45.93277" lon="1.9783">
        <ele>500</ele>
        <time>2017-03-24T12:05:46Z</time>
      </trkpt>
      <trkpt lat="45.93333" lon="1.97876">
        <ele>495</ele>
        <time>2017-03-24T12:05:26Z</time>
      </trkpt>
      <trkpt lat="45.93337" lon="1.97764">
        <ele>497</ele>
        <time>2017-03-24T12:05:06Z</time>
      </trkpt>
      <trkpt lat="45.93366" lon="1.97731">
        <ele>499</ele>
        <time>2017-03-24T12:04:46Z</time>
      </trkpt>
      <trkpt lat="45.93442" lon="1.97577">
        <ele>498</ele>
        <time>2017-03-24T12:04:26Z</time>
      </trkpt>
      <trkpt lat="45.93427" lon="1.97508">
        <ele>495</ele>
        <time>2017-03-24T12:04:06Z</time>
      </trkpt>
      <trkpt lat="45.93473" lon="1.97425">
        <ele>498</ele>
        <time>2017-03-24T12:03:46Z</time>
      </trkpt>
      <trkpt lat="45.93545" lon="1.97331">
        <ele>498</ele>
        <time>2017-03-24T12:03:26Z</time>
      </trkpt>
      <trkpt lat="45.93553" lon="1.97226">
        <ele>497</ele>
        <time>2017-03-24T12:03:06Z</time>
      </trkpt>
      <trkpt lat="45.93601" lon="1.97068">
        <ele>494</ele>
        <time>2017-03-24T12:02:46Z</time>
      </trkpt>
      <trkpt lat="45.93654" lon="1.96946">
        <ele>495</ele>
        <time>2017-03-24T12:02:26Z</time>
      </trkpt>
      <trkpt lat="45.93662" lon="1.96872">
        <ele>494</ele>
        <time>2017-03-24T12:02:06Z</time>
      </trkpt>
      <trkpt lat="45.93653" lon="1.96794">
        <ele>492</ele>
        <time>2017-03-24T12:01:46Z</time>
      </trkpt>
      <trkpt lat="45.9363" lon="1.96752">
        <ele>491</ele>
        <time>2017-03-24T12:01:26Z</time>
      </trkpt>
      <trkpt lat="45.93651" lon="1.9673">
        <ele>489</ele>
        <time>2017-03-24T12:01:06Z</time>
      </trkpt>
      <trkpt lat="45.93645" lon="1.96635">
        <ele>488</ele>
        <time>2017-03-24T12:00:46Z</time>
      </trkpt>
      <trkpt lat="45.93616" lon="1.96601">
        <ele>487</ele>
        <time>2017-03-24T12:00:26Z</time>
      </trkpt>
      <trkpt lat="45.93609" lon="1.96535">
        <ele>487</ele>
        <time>2017-03-24T12:00:06Z</time>
      </trkpt>
      <trkpt lat="45.93647" lon="1.96456">
        <ele>486</ele>
        <time>2017-03-24T11:59:46Z</time>
      </trkpt>
      <trkpt lat="45.9369" lon="1.96371">
        <ele>490</ele>
        <time>2017-03-24T11:59:26Z</time>
      </trkpt>
      <trkpt lat="45.93693" lon="1.96319">
        <ele>486</ele>
        <time>2017-03-24T11:59:06Z</time>
      </trkpt>
      <trkpt lat="45.93741" lon="1.96211">
        <ele>483</ele>
        <time>2017-03-24T11:58:46Z</time>
      </trkpt>
      <trkpt lat="45.93804" lon="1.96118">
        <ele>483</ele>
        <time>2017-03-24T11:58:26Z</time>
      </trkpt>
      <trkpt lat="45.9386" lon="1.96065">
        <ele>487</ele>
        <time>2017-03-24T11:58:06Z</time>
      </trkpt>
      <trkpt lat="45.93943" lon="1.95904">
        <ele>486</ele>
        <time>2017-03-24T11:57:46Z</time>
      </trkpt>
      <trkpt lat="45.93973" lon="1.95894">
        <ele>487</ele>
        <time>2017-03-24T11:57:26Z</time>
      </trkpt>
      <trkpt lat="45.94009" lon="1.95914">
        <ele>492</ele>
        <time>2017-03-24T11:57:06Z</time>
      </trkpt>
      <trkpt lat="45.94027" lon="1.95909">
        <ele>493</ele>
        <time>2017-03-24T11:56:46Z</time>
      </trkpt>
      <trkpt lat="45.94033" lon="1.95799">
        <ele>489</ele>
        <time>2017-03-24T11:56:26Z</time>
      </trkpt>
      <trkpt lat="45.94049" lon="1.95736">
        <ele>486</ele>
        <time>2017-03-24T11:56:06Z</time>
      </trkpt>
      <trkpt lat="45.94118" lon="1.95641">
        <ele>489</ele>
        <time>2017-03-24T11:55:46Z</time>
      </trkpt>
      <trkpt lat="45.94134" lon="1.95593">
        <ele>488</ele>
        <time>2017-03-24T11:55:26Z</time>
      </trkpt>
      <trkpt lat="45.94129" lon="1.95564">
        <ele>483</ele>
        <time>2017-03-24T11:55:06Z</time>
      </trkpt>
      <trkpt lat="45.94079" lon="1.95513">
        <ele>480</ele>
        <time>2017-03-24T11:54:46Z</time>
      </trkpt>
      <trkpt lat="45.94056" lon="1.95464">
        <ele>485</ele>
        <time>2017-03-24T11:54:26Z</time>
      </trkpt>
      <trkpt lat="45.94054" lon="1.95399">
        <ele>488</ele>
        <time>2017-03-24T11:54:06Z</time>
      </trkpt>
      <trkpt lat="45.94067" lon="1.95268">
        <ele>489</ele>
        <time>2017-03-24T11:53:46Z</time>
      </trkpt>
      <trkpt lat="45.94121" lon="1.95003">
        <ele>495</ele>
        <time>2017-03-24T11:53:26Z</time>
      </trkpt>
      <trkpt lat="45.94111" lon="1.94962">
        <ele>502</ele>
        <time>2017-03-24T11:53:06Z</time>
      </trkpt>
      <trkpt lat="45.94081" lon="1.94951">
        <ele>508</ele>
        <time>2017-03-24T11:52:46Z</time>
      </trkpt>
      <trkpt lat="45.94036" lon="1.94984">
        <ele>508</ele>
        <time>2017-03-24T11:52:26Z</time>
      </trkpt>
      <trkpt lat="45.9395" lon="1.94983">
        <ele>514</ele>
        <time>2017-03-24T11:52:06Z</time>
      </trkpt>
      <trkpt lat="45.93903" lon="1.94965">
        <ele>519</ele>
        <time>2017-03-24T11:51:46Z</time>
      </trkpt>
      <trkpt lat="45.93879" lon="1.94963">
        <ele>521</ele>
        <time>2017-03-24T11:51:26Z</time>
      </trkpt>
      <trkpt lat="45.93845" lon="1.95">
        <ele>518</ele>
        <time>2017-03-24T11:51:06Z</time>
      </trkpt>
      <trkpt lat="45.93796" lon="1.95021">
        <ele>520</ele>
        <time>2017-03-24T11:50:46Z</time>
      </trkpt>
      <trkpt lat="45.93774" lon="1.95055">
        <ele>520</ele>
        <time>2017-03-24T11:50:26Z</time>
      </trkpt>
      <trkpt lat="45.93765" lon="1.95138">
        <ele>514</ele>
        <time>2017-03-24T11:50:06Z</time>
      </trkpt>
      <trkpt lat="45.93733" lon="1.95181">
        <ele>519</ele>
        <time>2017-03-24T11:49:46Z</time>
      </trkpt>
      <trkpt lat="45.93721" lon="1.95138">
        <ele>522</ele>
        <time>2017-03-24T11:49:26Z</time>
      </trkpt>
      <trkpt lat="45.93689" lon="1.95081">
        <ele>529</ele>
        <time>2017-03-24T11:49:06Z</time>
      </trkpt>
      <trkpt lat="45.93681" lon="1.95055">
        <ele>531</ele>
        <time>2017-03-24T11:48:46Z</time>
      </trkpt>
      <trkpt lat="45.9365" lon="1.95008">
        <ele>537</ele>
        <time>2017-03-24T11:48:26Z</time>
      </trkpt>
      <trkpt lat="45.93643" lon="1.94974">
        <ele>543</ele>
        <time>2017-03-24T11:48:06Z</time>
      </trkpt>
      <trkpt lat="45.9367" lon="1.94934">
        <ele>548</ele>
        <time>2017-03-24T11:47:46Z</time>
      </trkpt>
      <trkpt lat="45.93693" lon="1.94859">
        <ele>555</ele>
        <time>2017-03-24T11:47:26Z</time>
      </trkpt>
      <trkpt lat="45.93741" lon="1.94805">
        <ele>560</ele>
        <time>2017-03-24T11:47:06Z</time>
      </trkpt>
      <trkpt lat="45.9379" lon="1.94681">
        <ele>558</ele>
        <time>2017-03-24T11:46:46Z</time>
      </trkpt>
      <trkpt lat="45.93821" lon="1.94565">
        <ele>548</ele>
        <time>2017-03-24T11:46:26Z</time>
      </trkpt>
      <trkpt lat="45.93893" lon="1.94407">
        <ele>543</ele>
        <time>2017-03-24T11:46:06Z</time>
      </trkpt>
      <trkpt lat="45.93923" lon="1.9435">
        <ele>542</ele>
        <time>2017-03-24T11:45:46Z</time>
      </trkpt>
      <trkpt lat="45.93934" lon="1.94312">
        <ele>541</ele>
        <time>2017-03-24T11:45:26Z</time>
      </trkpt>
      <trkpt lat="45.93956" lon="1.94277">
        <ele>540</ele>
        <time>2017-03-24T11:45:06Z</time>
      </trkpt>
      <trkpt lat="45.93955" lon="1.94249">
        <ele>539</ele>
        <time>2017-03-24T11:44:46Z</time>
      </trkpt>
      <trkpt lat="45.94011" lon="1.94165">
        <ele>531</ele>
        <time>2017-03-24T11:44:26Z</time>
      </trkpt>
      <trkpt lat="45.93993" lon="1.94072">
        <ele>529</ele>
        <time>2017-03-24T11:44:06Z</time>
      </trkpt>
      <trkpt lat="45.94017" lon="1.93974">
        <ele>521</ele>
        <time>2017-03-24T11:43:46Z</time>
      </trkpt>
      <trkpt lat="45.94017" lon="1.93974">
        <ele>521</ele>
        <time>2017-03-24T11:43:26Z</time>
      </trkpt>
      <trkpt lat="45.94063" lon="1.93951">
        <ele>518</ele>
        <time>2017-03-24T11:38:26Z</time>
      </trkpt>
      <trkpt lat="45.94202" lon="1.93931">
        <ele>510</ele>
        <time>2017-03-24T11:38:06Z</time>
      </trkpt>
      <trkpt lat="45.94259" lon="1.93893">
        <ele>502</ele>
        <time>2017-03-24T11:37:46Z</time>
      </trkpt>
      <trkpt lat="45.94336" lon="1.93858">
        <ele>498</ele>
        <time>2017-03-24T11:37:26Z</time>
      </trkpt>
      <trkpt lat="45.94392" lon="1.93813">
        <ele>493</ele>
        <time>2017-03-24T11:37:06Z</time>
      </trkpt>
      <trkpt lat="45.94483" lon="1.9378">
        <ele>492</ele>
        <time>2017-03-24T11:36:46Z</time>
      </trkpt>
      <trkpt lat="45.94456" lon="1.93674">
        <ele>493</ele>
        <time>2017-03-24T11:36:26Z</time>
      </trkpt>
      <trkpt lat="45.94468" lon="1.93634">
        <ele>494</ele>
        <time>2017-03-24T11:36:06Z</time>
      </trkpt>
      <trkpt lat="45.94528" lon="1.93563">
        <ele>496</ele>
        <time>2017-03-24T11:35:46Z</time>
      </trkpt>
      <trkpt lat="45.94573" lon="1.93488">
        <ele>495</ele>
        <time>2017-03-24T11:35:26Z</time>
      </trkpt>
      <trkpt lat="45.94585" lon="1.93384">
        <ele>496</ele>
        <time>2017-03-24T11:35:06Z</time>
      </trkpt>
      <trkpt lat="45.94618" lon="1.93268">
        <ele>500</ele>
        <time>2017-03-24T11:34:46Z</time>
      </trkpt>
      <trkpt lat="45.94572" lon="1.93283">
        <ele>499</ele>
        <time>2017-03-24T11:34:26Z</time>
      </trkpt>
      <trkpt lat="45.94593" lon="1.93039">
        <ele>506</ele>
        <time>2017-03-24T11:34:06Z</time>
      </trkpt>
      <trkpt lat="45.94652" lon="1.92891">
        <ele>511</ele>
        <time>2017-03-24T11:33:46Z</time>
      </trkpt>
      <trkpt lat="45.94645" lon="1.92706">
        <ele>517</ele>
        <time>2017-03-24T11:33:26Z</time>
      </trkpt>
      <trkpt lat="45.9467" lon="1.92603">
        <ele>526</ele>
        <time>2017-03-24T11:33:06Z</time>
      </trkpt>
      <trkpt lat="45.94715" lon="1.92509">
        <ele>526</ele>
        <time>2017-03-24T11:32:46Z</time>
      </trkpt>
      <trkpt lat="45.94746" lon="1.9236">
        <ele>526</ele>
        <time>2017-03-24T11:32:26Z</time>
      </trkpt>
      <trkpt lat="45.94773" lon="1.92292">
        <ele>530</ele>
        <time>2017-03-24T11:32:06Z</time>
      </trkpt>
      <trkpt lat="45.94784" lon="1.92231">
        <ele>529</ele>
        <time>2017-03-24T11:31:46Z</time>
      </trkpt>
      <trkpt lat="45.94784" lon="1.9217">
        <ele>530</ele>
        <time>2017-03-24T11:31:26Z</time>
      </trkpt>
      <trkpt lat="45.94783" lon="1.92169">
        <ele>530</ele>
        <time>2017-03-24T11:31:06Z</time>
      </trkpt>
      <trkpt lat="45.9469" lon="1.91985">
        <ele>529</ele>
        <time>2017-03-24T11:30:46Z</time>
      </trkpt>
      <trkpt lat="45.9466" lon="1.91849">
        <ele>532</ele>
        <time>2017-03-24T11:30:26Z</time>
      </trkpt>
      <trkpt lat="45.94618" lon="1.91755">
        <ele>534</ele>
        <time>2017-03-24T11:30:06Z</time>
      </trkpt>
      <trkpt lat="45.94584" lon="1.91614">
        <ele>536</ele>
        <time>2017-03-24T11:29:46Z</time>
      </trkpt>
      <trkpt lat="45.94471" lon="1.91368">
        <ele>543</ele>
        <time>2017-03-24T11:29:26Z</time>
      </trkpt>
      <trkpt lat="45.94413" lon="1.91237">
        <ele>549</ele>
        <time>2017-03-24T11:29:06Z</time>
      </trkpt>
      <trkpt lat="45.94382" lon="1.91055">
        <ele>552</ele>
        <time>2017-03-24T11:28:46Z</time>
      </trkpt>
      <trkpt lat="45.94278" lon="1.9078">
        <ele>548</ele>
        <time>2017-03-24T11:28:26Z</time>
      </trkpt>
      <trkpt lat="45.94208" lon="1.9064">
        <ele>550</ele>
        <time>2017-03-24T11:28:06Z</time>
      </trkpt>
      <trkpt lat="45.94133" lon="1.90537">
        <ele>547</ele>
        <time>2017-03-24T11:04:26Z</time>
      </trkpt>
      <trkpt lat="45.94113" lon="1.90391">
        <ele>527</ele>
        <time>2017-03-24T11:04:06Z</time>
      </trkpt>
      <trkpt lat="45.94136" lon="1.90349">
        <ele>526</ele>
        <time>2017-03-24T11:03:46Z</time>
      </trkpt>
      <trkpt lat="45.94137" lon="1.90243">
        <ele>523</ele>
        <time>2017-03-24T11:03:26Z</time>
      </trkpt>
      <trkpt lat="45.94151" lon="1.90139">
        <ele>522</ele>
        <time>2017-03-24T11:03:06Z</time>
      </trkpt>
      <trkpt lat="45.94137" lon="1.90031">
        <ele>518</ele>
        <time>2017-03-24T11:02:46Z</time>
      </trkpt>
      <trkpt lat="45.94089" lon="1.90005">
        <ele>517</ele>
        <time>2017-03-24T11:02:26Z</time>
      </trkpt>
      <trkpt lat="45.94036" lon="1.89951">
        <ele>518</ele>
        <time>2017-03-24T11:02:06Z</time>
      </trkpt>
      <trkpt lat="45.94001" lon="1.89878">
        <ele>516</ele>
        <time>2017-03-24T11:01:46Z</time>
      </trkpt>
      <trkpt lat="45.93987" lon="1.89777">
        <ele>516</ele>
        <time>2017-03-24T11:01:26Z</time>
      </trkpt>
      <trkpt lat="45.94022" lon="1.89743">
        <ele>511</ele>
        <time>2017-03-24T11:01:06Z</time>
      </trkpt>
      <trkpt lat="45.94057" lon="1.89654">
        <ele>506</ele>
        <time>2017-03-24T11:00:46Z</time>
      </trkpt>
      <trkpt lat="45.94137" lon="1.89645">
        <ele>503</ele>
        <time>2017-03-24T11:00:26Z</time>
      </trkpt>
      <trkpt lat="45.94209" lon="1.89625">
        <ele>501</ele>
        <time>2017-03-24T11:00:06Z</time>
      </trkpt>
      <trkpt lat="45.94259" lon="1.89632">
        <ele>501</ele>
        <time>2017-03-24T10:59:46Z</time>
      </trkpt>
      <trkpt lat="45.94346" lon="1.89588">
        <ele>501</ele>
        <time>2017-03-24T10:59:26Z</time>
      </trkpt>
      <trkpt lat="45.94309" lon="1.89428">
        <ele>503.7</ele>
        <time>2017-03-24T10:59:06Z</time>
      </trkpt>
      <trkpt lat="45.94109" lon="1.89308">
        <ele>515</ele>
        <time>2017-03-24T10:58:46Z</time>
      </trkpt>
      <trkpt lat="45.93892" lon="1.89304">
        <ele>514.8</ele>
        <time>2017-03-24T10:58:26Z</time>
      </trkpt>
      <trkpt lat="45.93799" lon="1.89411">
        <ele>514.3</ele>
        <time>2017-03-24T10:58:06Z</time>
      </trkpt>
      <trkpt lat="45.93903" lon="1.89179">
        <ele>521.8</ele>
        <time>2017-03-24T10:57:46Z</time>
      </trkpt>
      <trkpt lat="45.93996" lon="1.89085">
        <ele>517.2</ele>
        <time>2017-03-24T10:57:26Z</time>
      </trkpt>
      <trkpt lat="45.94124" lon="1.89158">
        <ele>525.2</ele>
        <time>2017-03-24T10:57:06Z</time>
      </trkpt>
      <trkpt lat="45.94169" lon="1.89038">
        <ele>532.9</ele>
        <time>2017-03-24T10:56:46Z</time>
      </trkpt>
      <trkpt lat="45.94214" lon="1.88883">
        <ele>538.8</ele>
        <time>2017-03-24T10:56:26Z</time>
      </trkpt>
      <trkpt lat="45.94279" lon="1.88673">
        <ele>532.8</ele>
        <time>2017-03-24T10:56:06Z</time>
      </trkpt>
      <trkpt lat="45.94354" lon="1.88497">
        <ele>547.3</ele>
        <time>2017-03-24T10:55:46Z</time>
      </trkpt>
      <trkpt lat="45.94366" lon="1.8846">
        <ele>550</ele>
        <time>2017-03-24T10:55:26Z</time>
      </trkpt>
      <trkpt lat="45.94345" lon="1.88445">
        <ele>551</ele>
        <time>2017-03-24T10:55:06Z</time>
      </trkpt>
      <trkpt lat="45.94319" lon="1.88468">
        <ele>548</ele>
        <time>2017-03-24T10:54:46Z</time>
      </trkpt>
      <trkpt lat="45.9428" lon="1.88462">
        <ele>548</ele>
        <time>2017-03-24T10:54:26Z</time>
      </trkpt>
      <trkpt lat="45.94103" lon="1.88266">
        <ele>560</ele>
        <time>2017-03-24T10:54:06Z</time>
      </trkpt>
      <trkpt lat="45.93886" lon="1.88156">
        <ele>572</ele>
        <time>2017-03-24T10:53:46Z</time>
      </trkpt>
      <trkpt lat="45.93862" lon="1.88161">
        <ele>573</ele>
        <time>2017-03-24T10:53:26Z</time>
      </trkpt>
      <trkpt lat="45.93862" lon="1.88189">
        <ele>568</ele>
        <time>2017-03-24T10:53:06Z</time>
      </trkpt>
      <trkpt lat="45.93848" lon="1.88214">
        <ele>568</ele>
        <time>2017-03-24T10:52:46Z</time>
      </trkpt>
      <trkpt lat="45.93815" lon="1.8819">
        <ele>574</ele>
        <time>2017-03-24T10:52:26Z</time>
      </trkpt>
      <trkpt lat="45.93783" lon="1.8815">
        <ele>578</ele>
        <time>2017-03-24T10:52:06Z</time>
      </trkpt>
      <trkpt lat="45.93807" lon="1.88107">
        <ele>580</ele>
        <time>2017-03-24T10:51:46Z</time>
      </trkpt>
      <trkpt lat="45.93769" lon="1.88089">
        <ele>584</ele>
        <time>2017-03-24T10:51:26Z</time>
      </trkpt>
      <trkpt lat="45.93791" lon="1.879">
        <ele>610</ele>
        <time>2017-03-24T10:51:06Z</time>
      </trkpt>
      <trkpt lat="45.93818" lon="1.87833">
        <ele>619</ele>
        <time>2017-03-24T10:50:46Z</time>
      </trkpt>
      <trkpt lat="45.9378" lon="1.87783">
        <ele>625</ele>
        <time>2017-03-24T10:50:26Z</time>
      </trkpt>
      <trkpt lat="45.93803" lon="1.87761">
        <ele>625</ele>
        <time>2017-03-24T10:50:06Z</time>
      </trkpt>
      <trkpt lat="45.93777" lon="1.87722">
        <ele>639</ele>
        <time>2017-03-24T10:49:46Z</time>
      </trkpt>
      <trkpt lat="45.93768" lon="1.87663">
        <ele>654</ele>
        <time>2017-03-24T10:49:26Z</time>
      </trkpt>
      <trkpt lat="45.93747" lon="1.87607">
        <ele>661</ele>
        <time>2017-03-24T10:49:06Z</time>
      </trkpt>
      <trkpt lat="45.93674" lon="1.87503">
        <ele>679</ele>
        <time>2017-03-24T10:48:46Z</time>
      </trkpt>
      <trkpt lat="45.93684" lon="1.87452">
        <ele>678</ele>
        <time>2017-03-24T10:48:26Z</time>
      </trkpt>
      <trkpt lat="45.93657" lon="1.873">
        <ele>683</ele>
        <time>2017-03-24T10:48:06Z</time>
      </trkpt>
      <trkpt lat="45.93686" lon="1.87255">
        <ele>681</ele>
        <time>2017-03-24T10:47:46Z</time>
      </trkpt>
      <trkpt lat="45.93807" lon="1.87279">
        <ele>680</ele>
        <time>2017-03-24T10:47:26Z</time>
      </trkpt>
      <trkpt lat="45.93892" lon="1.87259">
        <ele>682</ele>
        <time>2017-03-24T10:47:06Z</time>
      </trkpt>
      <trkpt lat="45.93923" lon="1.87153">
        <ele>687</ele>
        <time>2017-03-24T10:46:46Z</time>
      </trkpt>
      <trkpt lat="45.93882" lon="1.86937">
        <ele>692</ele>
        <time>2017-03-24T10:46:26Z</time>
      </trkpt>
      <trkpt lat="45.93937" lon="1.86661">
        <ele>677</ele>
        <time>2017-03-24T10:46:06Z</time>
      </trkpt>
      <trkpt lat="45.94044" lon="1.86564">
        <ele>670</ele>
        <time>2017-03-24T10:45:46Z</time>
      </trkpt>
      <trkpt lat="45.94061" lon="1.86413">
        <ele>666</ele>
        <time>2017-03-24T10:45:26Z</time>
      </trkpt>
      <trkpt lat="45.94107" lon="1.86316">
        <ele>660</ele>
        <time>2017-03-24T10:45:06Z</time>
      </trkpt>
      <trkpt lat="45.94268" lon="1.86175">
        <ele>656.7</ele>
        <time>2017-03-24T10:44:46Z</time>
      </trkpt>
      <trkpt lat="45.94232" lon="1.85856">
        <ele>646.5</ele>
        <time>2017-03-24T10:44:26Z</time>
      </trkpt>
      <trkpt lat="45.94295" lon="1.85544">
        <ele>648</ele>
        <time>2017-03-24T10:44:06Z</time>
      </trkpt>
      <trkpt lat="45.94571" lon="1.85088">
        <ele>676</ele>
        <time>2017-03-24T10:43:46Z</time>
      </trkpt>
      <trkpt lat="45.94467" lon="1.84919">
        <ele>672.2</ele>
        <time>2017-03-24T10:43:26Z</time>
      </trkpt>
      <trkpt lat="45.94711" lon="1.84692">
        <ele>676.3</ele>
        <time>2017-03-24T10:43:06Z</time>
      </trkpt>
      <trkpt lat="45.94757" lon="1.84243">
        <ele>676.8</ele>
        <time>2017-03-24T10:42:46Z</time>
      </trkpt>
      <trkpt lat="45.94666" lon="1.83846">
        <ele>686.3</ele>
        <time>2017-03-24T10:42:26Z</time>
      </trkpt>
      <trkpt lat="45.94897" lon="1.8356">
        <ele>694.7</ele>
        <time>2017-03-24T10:42:06Z</time>
      </trkpt>
      <trkpt lat="45.94824" lon="1.83417">
        <ele>692.1</ele>
        <time>2017-03-24T10:41:46Z</time>
      </trkpt>
      <trkpt lat="45.94834" lon="1.83092">
        <ele>680.8</ele>
        <time>2017-03-24T10:41:26Z</time>
      </trkpt>
      <trkpt lat="45.94481" lon="1.82825">
        <ele>669.4</ele>
        <time>2017-03-24T10:41:06Z</time>
      </trkpt>
      <trkpt lat="45.94567" lon="1.82428">
        <ele>649.3</ele>
        <time>2017-03-24T10:40:46Z</time>
      </trkpt>
      <trkpt lat="45.9454" lon="1.82031">
        <ele>629</ele>
        <time>2017-03-24T10:40:26Z</time>
      </trkpt>
      <trkpt lat="45.94648" lon="1.81927">
        <ele>623.7</ele>
        <time>2017-03-24T10:40:06Z</time>
      </trkpt>
      <trkpt lat="45.94673" lon="1.81864">
        <ele>613</ele>
        <time>2017-03-24T10:39:46Z</time>
      </trkpt>
      <trkpt lat="45.94696" lon="1.81797">
        <ele>607</ele>
        <time>2017-03-24T10:39:26Z</time>
      </trkpt>
      <trkpt lat="45.94657" lon="1.8165">
        <ele>597</ele>
        <time>2017-03-24T10:39:06Z</time>
      </trkpt>
      <trkpt lat="45.94629" lon="1.8159">
        <ele>596</ele>
        <time>2017-03-24T10:38:46Z</time>
      </trkpt>
      <trkpt lat="45.94616" lon="1.81518">
        <ele>593</ele>
        <time>2017-03-24T10:38:26Z</time>
      </trkpt>
      <trkpt lat="45.94623" lon="1.81442">
        <ele>588</ele>
        <time>2017-03-24T10:38:06Z</time>
      </trkpt>
      <trkpt lat="45.94654" lon="1.81381">
        <ele>584</ele>
        <time>2017-03-24T10:37:46Z</time>
      </trkpt>
      <trkpt lat="45.94708" lon="1.81323">
        <ele>581</ele>
        <time>2017-03-24T10:37:26Z</time>
      </trkpt>
      <trkpt lat="45.94734" lon="1.81272">
        <ele>579</ele>
        <time>2017-03-24T10:37:06Z</time>
      </trkpt>
      <trkpt lat="45.946" lon="1.81262">
        <ele>577</ele>
        <time>2017-03-24T10:36:46Z</time>
      </trkpt>
      <trkpt lat="45.94523" lon="1.81223">
        <ele>576</ele>
        <time>2017-03-24T10:36:26Z</time>
      </trkpt>
      <trkpt lat="45.94438" lon="1.81136">
        <ele>571</ele>
        <time>2017-03-24T10:36:06Z</time>
      </trkpt>
      <trkpt lat="45.94339" lon="1.81075">
        <ele>567</ele>
        <time>2017-03-24T10:35:46Z</time>
      </trkpt>
      <trkpt lat="45.94301" lon="1.8103">
        <ele>566</ele>
        <time>2017-03-24T10:35:26Z</time>
      </trkpt>
      <trkpt lat="45.94271" lon="1.8096">
        <ele>568</ele>
        <time>2017-03-24T10:35:06Z</time>
      </trkpt>
      <trkpt lat="45.94243" lon="1.80866">
        <ele>572</ele>
        <time>2017-03-24T10:34:46Z</time>
      </trkpt>
      <trkpt lat="45.94112" lon="1.80695">
        <ele>585</ele>
        <time>2017-03-24T10:34:26Z</time>
      </trkpt>
      <trkpt lat="45.94134" lon="1.80609">
        <ele>585</ele>
        <time>2017-03-24T10:34:06Z</time>
      </trkpt>
      <trkpt lat="45.94155" lon="1.80464">
        <ele>575</ele>
        <time>2017-03-24T10:33:46Z</time>
      </trkpt>
      <trkpt lat="45.94191" lon="1.8028">
        <ele>563</ele>
        <time>2017-03-24T10:33:26Z</time>
      </trkpt>
      <trkpt lat="45.94267" lon="1.80156">
        <ele>556</ele>
        <time>2017-03-24T10:33:06Z</time>
      </trkpt>
      <trkpt lat="45.94354" lon="1.80065">
        <ele>543</ele>
        <time>2017-03-24T10:32:46Z</time>
      </trkpt>
      <trkpt lat="45.94379" lon="1.80026">
        <ele>539</ele>
        <time>2017-03-24T10:32:26Z</time>
      </trkpt>
      <trkpt lat="45.94451" lon="1.79953">
        <ele>533</ele>
        <time>2017-03-24T10:32:06Z</time>
      </trkpt>
      <trkpt lat="45.94421" lon="1.79874">
        <ele>533</ele>
        <time>2017-03-24T10:31:46Z</time>
      </trkpt>
      <trkpt lat="45.94432" lon="1.79808">
        <ele>536</ele>
        <time>2017-03-24T10:31:26Z</time>
      </trkpt>
      <trkpt lat="45.94469" lon="1.79713">
        <ele>537</ele>
        <time>2017-03-24T10:31:06Z</time>
      </trkpt>
      <trkpt lat="45.94484" lon="1.79648">
        <ele>536</ele>
        <time>2017-03-24T10:30:46Z</time>
      </trkpt>
      <trkpt lat="45.94499" lon="1.79632">
        <ele>536</ele>
        <time>2017-03-24T10:30:26Z</time>
      </trkpt>
      <trkpt lat="45.94485" lon="1.7957">
        <ele>535</ele>
        <time>2017-03-24T10:30:06Z</time>
      </trkpt>
      <trkpt lat="45.94516" lon="1.79508">
        <ele>532</ele>
        <time>2017-03-24T10:29:46Z</time>
      </trkpt>
      <trkpt lat="45.9459" lon="1.79427">
        <ele>534</ele>
        <time>2017-03-24T10:29:26Z</time>
      </trkpt>
      <trkpt lat="45.94709" lon="1.79337">
        <ele>531</ele>
        <time>2017-03-24T10:29:06Z</time>
      </trkpt>
      <trkpt lat="45.94779" lon="1.7932">
        <ele>536</ele>
        <time>2017-03-24T10:28:46Z</time>
      </trkpt>
      <trkpt lat="45.94802" lon="1.79297">
        <ele>537</ele>
        <time>2017-03-24T10:28:26Z</time>
      </trkpt>
      <trkpt lat="45.94848" lon="1.79293">
        <ele>533</ele>
        <time>2017-03-24T10:28:06Z</time>
      </trkpt>
      <trkpt lat="45.94901" lon="1.79226">
        <ele>538</ele>
        <time>2017-03-24T10:27:46Z</time>
      </trkpt>
      <trkpt lat="45.94898" lon="1.79197">
        <ele>539</ele>
        <time>2017-03-24T10:27:26Z</time>
      </trkpt>
      <trkpt lat="45.94855" lon="1.79154">
        <ele>540</ele>
        <time>2017-03-24T10:27:06Z</time>
      </trkpt>
      <trkpt lat="45.94816" lon="1.79027">
        <ele>537</ele>
        <time>2017-03-24T10:26:46Z</time>
      </trkpt>
      <trkpt lat="45.94792" lon="1.78966">
        <ele>533</ele>
        <time>2017-03-24T10:26:26Z</time>
      </trkpt>
      <trkpt lat="45.94713" lon="1.78851">
        <ele>536</ele>
        <time>2017-03-24T10:26:06Z</time>
      </trkpt>
      <trkpt lat="45.94674" lon="1.78725">
        <ele>524</ele>
        <time>2017-03-24T10:25:46Z</time>
      </trkpt>
      <trkpt lat="45.94629" lon="1.78696">
        <ele>527</ele>
        <time>2017-03-24T10:25:26Z</time>
      </trkpt>
      <trkpt lat="45.94603" lon="1.78652">
        <ele>527</ele>
        <time>2017-03-24T10:25:06Z</time>
      </trkpt>
      <trkpt lat="45.94608" lon="1.78595">
        <ele>529</ele>
        <time>2017-03-24T10:24:46Z</time>
      </trkpt>
      <trkpt lat="45.94634" lon="1.78541">
        <ele>532</ele>
        <time>2017-03-24T10:24:26Z</time>
      </trkpt>
      <trkpt lat="45.94646" lon="1.7845">
        <ele>540</ele>
        <time>2017-03-24T10:24:06Z</time>
      </trkpt>
      <trkpt lat="45.94673" lon="1.78363">
        <ele>535</ele>
        <time>2017-03-24T10:23:46Z</time>
      </trkpt>
      <trkpt lat="45.9466" lon="1.78395">
        <ele>543</ele>
        <time>2017-03-24T10:23:26Z</time>
      </trkpt>
      <trkpt lat="45.94679" lon="1.78324">
        <ele>538</ele>
        <time>2017-03-24T10:23:06Z</time>
      </trkpt>
      <trkpt lat="45.94674" lon="1.78168">
        <ele>539</ele>
        <time>2017-03-24T10:22:46Z</time>
      </trkpt>
      <trkpt lat="45.94593" lon="1.78003">
        <ele>552</ele>
        <time>2017-03-24T10:22:26Z</time>
      </trkpt>
      <trkpt lat="45.94586" lon="1.77964">
        <ele>555</ele>
        <time>2017-03-24T10:22:06Z</time>
      </trkpt>
      <trkpt lat="45.94592" lon="1.77923">
        <ele>560</ele>
        <time>2017-03-24T10:21:46Z</time>
      </trkpt>
      <trkpt lat="45.94624" lon="1.77883">
        <ele>559</ele>
        <time>2017-03-24T10:21:26Z</time>
      </trkpt>
      <trkpt lat="45.94631" lon="1.7784">
        <ele>559</ele>
        <time>2017-03-24T10:21:06Z</time>
      </trkpt>
      <trkpt lat="45.94616" lon="1.77697">
        <ele>565</ele>
        <time>2017-03-24T10:20:46Z</time>
      </trkpt>
      <trkpt lat="45.94616" lon="1.77697">
        <ele>565</ele>
        <time>2017-03-24T10:20:26Z</time>
      </trkpt>
      <trkpt lat="45.94614" lon="1.77617">
        <ele>570</ele>
        <time>2017-03-24T10:20:06Z</time>
      </trkpt>
      <trkpt lat="45.94612" lon="1.7757">
        <ele>575</ele>
        <time>2017-03-24T10:19:46Z</time>
      </trkpt>
      <trkpt lat="45.94714" lon="1.77596">
        <ele>561</ele>
        <time>2017-03-24T10:19:26Z</time>
      </trkpt>
      <trkpt lat="45.94766" lon="1.77549">
        <ele>564</ele>
        <time>2017-03-24T10:19:06Z</time>
      </trkpt>
      <trkpt lat="45.94843" lon="1.77566">
        <ele>555</ele>
        <time>2017-03-24T10:18:46Z</time>
      </trkpt>
      <trkpt lat="45.94943" lon="1.77507">
        <ele>546</ele>
        <time>2017-03-24T10:18:26Z</time>
      </trkpt>
      <trkpt lat="45.95045" lon="1.77486">
        <ele>535</ele>
        <time>2017-03-24T10:18:06Z</time>
      </trkpt>
      <trkpt lat="45.95115" lon="1.7744">
        <ele>526</ele>
        <time>2017-03-24T10:17:46Z</time>
      </trkpt>
      <trkpt lat="45.95158" lon="1.77348">
        <ele>519</ele>
        <time>2017-03-24T10:17:26Z</time>
      </trkpt>
      <trkpt lat="45.95153" lon="1.77235">
        <ele>502</ele>
        <time>2017-03-24T10:17:06Z</time>
      </trkpt>
      <trkpt lat="45.95133" lon="1.77144">
        <ele>494</ele>
        <time>2017-03-24T10:16:46Z</time>
      </trkpt>
      <trkpt lat="45.95139" lon="1.77113">
        <ele>492</ele>
        <time>2017-03-24T10:16:26Z</time>
      </trkpt>
      <trkpt lat="45.9517" lon="1.7711">
        <ele>490</ele>
        <time>2017-03-24T10:16:06Z</time>
      </trkpt>
      <trkpt lat="45.95188" lon="1.77052">
        <ele>499</ele>
        <time>2017-03-24T10:15:46Z</time>
      </trkpt>
      <trkpt lat="45.95146" lon="1.77009">
        <ele>495</ele>
        <time>2017-03-24T10:15:26Z</time>
      </trkpt>
      <trkpt lat="45.951" lon="1.76926">
        <ele>503</ele>
        <time>2017-03-24T10:15:06Z</time>
      </trkpt>
      <trkpt lat="45.95036" lon="1.76858">
        <ele>509</ele>
        <time>2017-03-24T10:14:46Z</time>
      </trkpt>
      <trkpt lat="45.94915" lon="1.7677">
        <ele>493</ele>
        <time>2017-03-24T10:14:26Z</time>
      </trkpt>
      <trkpt lat="45.94892" lon="1.76664">
        <ele>499</ele>
        <time>2017-03-24T10:14:06Z</time>
      </trkpt>
      <trkpt lat="45.94868" lon="1.76602">
        <ele>496</ele>
        <time>2017-03-24T10:13:46Z</time>
      </trkpt>
      <trkpt lat="45.94861" lon="1.76574">
        <ele>497</ele>
        <time>2017-03-24T10:13:26Z</time>
      </trkpt>
      <trkpt lat="45.94852" lon="1.76588">
        <ele>493</ele>
        <time>2017-03-24T10:13:06Z</time>
      </trkpt>
      <trkpt lat="45.94841" lon="1.76566">
        <ele>494</ele>
        <time>2017-03-24T10:12:46Z</time>
      </trkpt>
      <trkpt lat="45.94835" lon="1.76614">
        <ele>492</ele>
        <time>2017-03-24T10:12:26Z</time>
      </trkpt>
      <trkpt lat="45.94865" lon="1.76676">
        <ele>489</ele>
        <time>2017-03-24T10:12:06Z</time>
      </trkpt>
      <trkpt lat="45.94887" lon="1.7678">
        <ele>487</ele>
        <time>2017-03-24T10:11:46Z</time>
      </trkpt>
      <trkpt lat="45.94863" lon="1.76775">
        <ele>483</ele>
        <time>2017-03-24T10:11:26Z</time>
      </trkpt>
      <trkpt lat="45.94866" lon="1.76808">
        <ele>483</ele>
        <time>2017-03-24T10:11:06Z</time>
      </trkpt>
      <trkpt lat="45.94831" lon="1.76793">
        <ele>480</ele>
        <time>2017-03-24T10:10:46Z</time>
      </trkpt>
      <trkpt lat="45.94811" lon="1.76677">
        <ele>479</ele>
        <time>2017-03-24T10:10:26Z</time>
      </trkpt>
      <trkpt lat="45.94768" lon="1.76572">
        <ele>476</ele>
        <time>2017-03-24T10:10:06Z</time>
      </trkpt>
      <trkpt lat="45.94741" lon="1.76539">
        <ele>474</ele>
        <time>2017-03-24T10:09:46Z</time>
      </trkpt>
      <trkpt lat="45.9474" lon="1.76424">
        <ele>466</ele>
        <time>2017-03-24T10:09:26Z</time>
      </trkpt>
      <trkpt lat="45.94778" lon="1.76316">
        <ele>459</ele>
        <time>2017-03-24T10:09:06Z</time>
      </trkpt>
      <trkpt lat="45.94888" lon="1.76236">
        <ele>459</ele>
        <time>2017-03-24T10:08:46Z</time>
      </trkpt>
      <trkpt lat="45.94943" lon="1.76084">
        <ele>455</ele>
        <time>2017-03-24T10:08:26Z</time>
      </trkpt>
      <trkpt lat="45.94966" lon="1.76043">
        <ele>452</ele>
        <time>2017-03-24T10:08:06Z</time>
      </trkpt>
      <trkpt lat="45.95023" lon="1.75865">
        <ele>449</ele>
        <time>2017-03-24T10:07:46Z</time>
      </trkpt>
      <trkpt lat="45.95075" lon="1.75832">
        <ele>451</ele>
        <time>2017-03-24T10:07:26Z</time>
      </trkpt>
      <trkpt lat="45.95135" lon="1.75857">
        <ele>452</ele>
        <time>2017-03-24T10:07:06Z</time>
      </trkpt>
      <trkpt lat="45.95166" lon="1.75773">
        <ele>451</ele>
        <time>2017-03-24T10:06:46Z</time>
      </trkpt>
      <trkpt lat="45.95214" lon="1.757">
        <ele>448</ele>
        <time>2017-03-24T10:06:26Z</time>
      </trkpt>
      <trkpt lat="45.95348" lon="1.75709">
        <ele>446</ele>
        <time>2017-03-24T10:06:06Z</time>
      </trkpt>
      <trkpt lat="45.95365" lon="1.755">
        <ele>443</ele>
        <time>2017-03-24T10:05:46Z</time>
      </trkpt>
      <trkpt lat="45.95357" lon="1.75153">
        <ele>446</ele>
        <time>2017-03-24T10:05:26Z</time>
      </trkpt>
      <trkpt lat="45.95443" lon="1.75129">
        <ele>451</ele>
        <time>2017-03-24T10:05:06Z</time>
      </trkpt>
      <trkpt lat="45.95487" lon="1.75071">
        <ele>452</ele>
        <time>2017-03-24T10:04:46Z</time>
      </trkpt>
      <trkpt lat="45.95541" lon="1.7502">
        <ele>450</ele>
        <time>2017-03-24T10:04:26Z</time>
      </trkpt>
      <trkpt lat="45.95601" lon="1.74986">
        <ele>446</ele>
        <time>2017-03-24T10:04:06Z</time>
      </trkpt>
      <trkpt lat="45.95651" lon="1.74937">
        <ele>445</ele>
        <time>2017-03-24T10:03:46Z</time>
      </trkpt>
      <trkpt lat="45.95729" lon="1.74777">
        <ele>441</ele>
        <time>2017-03-24T10:03:26Z</time>
      </trkpt>
      <trkpt lat="45.95778" lon="1.74705">
        <ele>439</ele>
        <time>2017-03-24T10:03:06Z</time>
      </trkpt>
      <trkpt lat="45.95864" lon="1.74606">
        <ele>435</ele>
        <time>2017-03-24T10:02:46Z</time>
      </trkpt>
      <trkpt lat="45.95935" lon="1.74547">
        <ele>428</ele>
        <time>2017-03-24T10:02:26Z</time>
      </trkpt>
      <trkpt lat="45.96011" lon="1.74511">
        <ele>420</ele>
        <time>2017-03-24T10:02:26Z</time>
      </trkpt>
      <trkpt lat="45.96054" lon="1.74521">
        <ele>419</ele>
        <time>2017-03-24T15:46:39Z</time>
      </trkpt>
      <trkpt lat="45.96273" lon="1.74454">
        <ele>406</ele>
        <time>2017-03-24T15:46:19Z</time>
      </trkpt>
      <trkpt lat="45.96342" lon="1.74323">
        <ele>397</ele>
        <time>2017-03-24T15:45:59Z</time>
      </trkpt>
      <trkpt lat="45.96381" lon="1.7428">
        <ele>394</ele>
        <time>2017-03-24T15:45:39Z</time>
      </trkpt>
      <trkpt lat="45.9643" lon="1.74282">
        <ele>390</ele>
        <time>2017-03-24T15:45:19Z</time>
      </trkpt>
      <trkpt lat="45.96442" lon="1.74239">
        <ele>390</ele>
        <time>2017-03-24T15:44:59Z</time>
      </trkpt>
      <trkpt lat="45.96468" lon="1.74193">
        <ele>389</ele>
        <time>2017-03-24T15:44:39Z</time>
      </trkpt>
      <trkpt lat="45.96533" lon="1.74234">
        <ele>391</ele>
        <time>2017-03-24T15:44:19Z</time>
      </trkpt>
      <trkpt lat="45.9655" lon="1.74156">
        <ele>397</ele>
        <time>2017-03-24T15:43:59Z</time>
      </trkpt>
      <trkpt lat="45.96565" lon="1.74192">
        <ele>394</ele>
        <time>2017-03-24T15:43:39Z</time>
      </trkpt>
      <trkpt lat="45.96614" lon="1.74192">
        <ele>402</ele>
        <time>2017-03-24T15:43:19Z</time>
      </trkpt>
      <trkpt lat="45.96623" lon="1.74175">
        <ele>404</ele>
        <time>2017-03-24T15:42:59Z</time>
      </trkpt>
      <trkpt lat="45.96606" lon="1.74157">
        <ele>407</ele>
        <time>2017-03-24T15:42:39Z</time>
      </trkpt>
      <trkpt lat="45.96606" lon="1.74137">
        <ele>408</ele>
        <time>2017-03-24T15:42:19Z</time>
      </trkpt>
      <trkpt lat="45.96674" lon="1.74098">
        <ele>417</ele>
        <time>2017-03-24T15:41:59Z</time>
      </trkpt>
      <trkpt lat="45.96648" lon="1.74045">
        <ele>414</ele>
        <time>2017-03-24T15:41:39Z</time>
      </trkpt>
      <trkpt lat="45.9666" lon="1.74012">
        <ele>417</ele>
        <time>2017-03-24T15:41:19Z</time>
      </trkpt>
      <trkpt lat="45.96922" lon="1.73828">
        <ele>428</ele>
        <time>2017-03-24T15:40:59Z</time>
      </trkpt>
      <trkpt lat="45.97149" lon="1.73811">
        <ele>434</ele>
        <time>2017-03-24T15:40:39Z</time>
      </trkpt>
      <trkpt lat="45.97234" lon="1.73717">
        <ele>437</ele>
        <time>2017-03-24T15:40:19Z</time>
      </trkpt>
      <trkpt lat="45.97452" lon="1.73861">
        <ele>443</ele>
        <time>2017-03-24T15:39:59Z</time>
      </trkpt>
      <trkpt lat="45.9754" lon="1.73955">
        <ele>443</ele>
        <time>2017-03-24T15:39:39Z</time>
      </trkpt>
      <trkpt lat="45.9759" lon="1.73993">
        <ele>442</ele>
        <time>2017-03-24T15:39:19Z</time>
      </trkpt>
      <trkpt lat="45.97589" lon="1.7392">
        <ele>443</ele>
        <time>2017-03-24T15:38:59Z</time>
      </trkpt>
      <trkpt lat="45.9759" lon="1.73816">
        <ele>444</ele>
        <time>2017-03-24T15:38:39Z</time>
      </trkpt>
      <trkpt lat="45.97602" lon="1.73697">
        <ele>442</ele>
        <time>2017-03-24T15:38:19Z</time>
      </trkpt>
      <trkpt lat="45.97633" lon="1.73589">
        <ele>442</ele>
        <time>2017-03-24T15:37:59Z</time>
      </trkpt>
      <trkpt lat="45.97723" lon="1.73347">
        <ele>433</ele>
        <time>2017-03-24T15:37:39Z</time>
      </trkpt>
      <trkpt lat="45.97809" lon="1.73198">
        <ele>429</ele>
        <time>2017-03-24T15:37:19Z</time>
      </trkpt>
      <trkpt lat="45.9786" lon="1.73095">
        <ele>433</ele>
        <time>2017-03-24T15:36:59Z</time>
      </trkpt>
      <trkpt lat="45.9803" lon="1.72797">
        <ele>435</ele>
        <time>2017-03-24T15:36:39Z</time>
      </trkpt>
      <trkpt lat="45.98107" lon="1.72709">
        <ele>444</ele>
        <time>2017-03-24T15:36:19Z</time>
      </trkpt>
      <trkpt lat="45.98135" lon="1.72613">
        <ele>445</ele>
        <time>2017-03-24T15:35:59Z</time>
      </trkpt>
      <trkpt lat="45.98274" lon="1.72409">
        <ele>443</ele>
        <time>2017-03-24T15:35:39Z</time>
      </trkpt>
      <trkpt lat="45.98266" lon="1.72344">
        <ele>442</ele>
        <time>2017-03-24T14:19:59Z</time>
      </trkpt>
      <trkpt lat="45.98281" lon="1.72106">
        <ele>436</ele>
        <time>2017-03-24T14:19:39Z</time>
      </trkpt>
      <trkpt lat="45.98314" lon="1.7201">
        <ele>430</ele>
        <time>2017-03-24T14:19:19Z</time>
      </trkpt>
      <trkpt lat="45.98336" lon="1.71891">
        <ele>424</ele>
        <time>2017-03-24T14:19:19Z</time>
      </trkpt>
      <trkpt lat="45.98413" lon="1.71658">
        <ele>421</ele>
        <time>2017-03-24T14:18:59Z</time>
      </trkpt>
      <trkpt lat="45.98413" lon="1.7148">
        <ele>413</ele>
        <time>2017-03-24T14:18:39Z</time>
      </trkpt>
      <trkpt lat="45.98486" lon="1.71211">
        <ele>404</ele>
        <time>2017-03-24T14:18:19Z</time>
      </trkpt>
      <trkpt lat="45.98574" lon="1.7085">
        <ele>392</ele>
        <time>2017-03-24T14:17:59Z</time>
      </trkpt>
      <trkpt lat="45.98617" lon="1.70719">
        <ele>388</ele>
        <time>2017-03-24T14:17:39Z</time>
      </trkpt>
      <trkpt lat="45.98636" lon="1.70677">
        <ele>388</ele>
        <time>2017-03-24T14:17:19Z</time>
      </trkpt>
      <trkpt lat="45.98667" lon="1.70622">
        <ele>387</ele>
        <time>2017-03-24T14:16:59Z</time>
      </trkpt>
      <trkpt lat="45.98708" lon="1.70592">
        <ele>387</ele>
        <time>2017-03-24T14:16:39Z</time>
      </trkpt>
      <trkpt lat="45.9875" lon="1.70578">
        <ele>388</ele>
        <time>2017-03-24T14:16:19Z</time>
      </trkpt>
      <trkpt lat="45.98843" lon="1.70523">
        <ele>385</ele>
        <time>2017-03-24T14:15:59Z</time>
      </trkpt>
      <trkpt lat="45.98871" lon="1.70488">
        <ele>385</ele>
        <time>2017-03-24T14:15:39Z</time>
      </trkpt>
      <trkpt lat="45.98983" lon="1.70497">
        <ele>383</ele>
        <time>2017-03-24T14:15:19Z</time>
      </trkpt>
      <trkpt lat="45.99028" lon="1.7052">
        <ele>383</ele>
        <time>2017-03-24T14:14:59Z</time>
      </trkpt>
      <trkpt lat="45.99041" lon="1.70597">
        <ele>386</ele>
        <time>2017-03-24T14:14:39Z</time>
      </trkpt>
      <trkpt lat="45.9906" lon="1.70616">
        <ele>387</ele>
        <time>2017-03-24T14:14:19Z</time>
      </trkpt>
      <trkpt lat="45.99115" lon="1.70611">
        <ele>387</ele>
        <time>2017-03-24T14:13:59Z</time>
      </trkpt>
      <trkpt lat="45.99209" lon="1.70636">
        <ele>389</ele>
        <time>2017-03-24T14:13:39Z</time>
      </trkpt>
      <trkpt lat="45.99301" lon="1.70619">
        <ele>389</ele>
        <time>2017-03-24T14:13:19Z</time>
      </trkpt>
      <trkpt lat="45.99336" lon="1.7059">
        <ele>386</ele>
        <time>2017-03-24T14:12:59Z</time>
      </trkpt>
      <trkpt lat="45.99383" lon="1.70569">
        <ele>383</ele>
        <time>2017-03-24T14:12:39Z</time>
      </trkpt>
      <trkpt lat="45.99486" lon="1.70572">
        <ele>382</ele>
        <time>2017-03-24T13:52:59Z</time>
      </trkpt>
      <trkpt lat="45.99486" lon="1.70572">
        <ele>382</ele>
        <time>2017-03-24T13:52:39Z</time>
      </trkpt>
      <trkpt lat="45.99485" lon="1.7054">
        <ele>381</ele>
        <time>2017-03-24T13:52:19Z</time>
      </trkpt>
      <trkpt lat="45.99501" lon="1.70454">
        <ele>379</ele>
        <time>2017-03-24T13:51:59Z</time>
      </trkpt>
      <trkpt lat="45.99493" lon="1.70408">
        <ele>381</ele>
        <time>2017-03-24T13:51:39Z</time>
      </trkpt>
      <trkpt lat="45.99481" lon="1.70239">
        <ele>393</ele>
        <time>2017-03-24T13:51:19Z</time>
      </trkpt>
      <trkpt lat="45.99464" lon="1.70188">
        <ele>394</ele>
        <time>2017-03-24T13:50:59Z</time>
      </trkpt>
      <trkpt lat="45.99466" lon="1.70085">
        <ele>400</ele>
        <time>2017-03-24T13:50:39Z</time>
      </trkpt>
      <trkpt lat="45.99456" lon="1.69908">
        <ele>415</ele>
        <time>2017-03-24T13:50:19Z</time>
      </trkpt>
      <trkpt lat="45.99385" lon="1.697">
        <ele>420</ele>
        <time>2017-03-24T13:49:59Z</time>
      </trkpt>
      <trkpt lat="45.99321" lon="1.69583">
        <ele>433</ele>
        <time>2017-03-24T13:49:39Z</time>
      </trkpt>
      <trkpt lat="45.99333" lon="1.69523">
        <ele>438</ele>
        <time>2017-03-24T13:49:19Z</time>
      </trkpt>
      <trkpt lat="45.99339" lon="1.69422">
        <ele>446</ele>
        <time>2017-03-24T13:48:59Z</time>
      </trkpt>
      <trkpt lat="45.99364" lon="1.69284">
        <ele>458</ele>
        <time>2017-03-24T13:48:39Z</time>
      </trkpt>
      <trkpt lat="45.99409" lon="1.69168">
        <ele>467</ele>
        <time>2017-03-24T13:48:19Z</time>
      </trkpt>
      <trkpt lat="45.99432" lon="1.69065">
        <ele>475</ele>
        <time>2017-03-24T13:47:59Z</time>
      </trkpt>
      <trkpt lat="45.99405" lon="1.6887">
        <ele>484</ele>
        <time>2017-03-24T13:47:39Z</time>
      </trkpt>
      <trkpt lat="45.994" lon="1.68796">
        <ele>486</ele>
        <time>2017-03-24T13:47:19Z</time>
      </trkpt>
      <trkpt lat="45.99376" lon="1.68634">
        <ele>485</ele>
        <time>2017-03-24T13:46:59Z</time>
      </trkpt>
      <trkpt lat="45.99332" lon="1.68524">
        <ele>487</ele>
        <time>2017-03-24T13:46:39Z</time>
      </trkpt>
      <trkpt lat="45.99328" lon="1.68454">
        <ele>489</ele>
        <time>2017-03-24T13:46:19Z</time>
      </trkpt>
      <trkpt lat="45.99301" lon="1.68366">
        <ele>490</ele>
        <time>2017-03-24T13:45:59Z</time>
      </trkpt>
      <trkpt lat="45.99324" lon="1.68303">
        <ele>493.6</ele>
        <time>2017-03-24T13:45:39Z</time>
      </trkpt>
      <trkpt lat="45.99407" lon="1.68387">
        <ele>487.5</ele>
        <time>2017-03-24T13:45:19Z</time>
      </trkpt>
      <trkpt lat="45.9948" lon="1.68339">
        <ele>475.1</ele>
        <time>2017-03-24T13:44:59Z</time>
      </trkpt>
      <trkpt lat="45.99533" lon="1.68175">
        <ele>478.5</ele>
        <time>2017-03-24T13:44:39Z</time>
      </trkpt>
      <trkpt lat="45.99686" lon="1.68107">
        <ele>485.6</ele>
        <time>2017-03-24T13:44:19Z</time>
      </trkpt>
      <trkpt lat="45.99669" lon="1.67859">
        <ele>483.4</ele>
        <time>2017-03-24T13:43:59Z</time>
      </trkpt>
      <trkpt lat="45.99694" lon="1.67707">
        <ele>489.5</ele>
        <time>2017-03-24T13:43:39Z</time>
      </trkpt>
      <trkpt lat="45.99775" lon="1.67707">
        <ele>476.1</ele>
        <time>2017-03-24T13:43:19Z</time>
      </trkpt>
      <trkpt lat="45.99883" lon="1.67763">
        <ele>461.4</ele>
        <time>2017-03-24T13:42:59Z</time>
      </trkpt>
      <trkpt lat="45.99986" lon="1.67799">
        <ele>450.9</ele>
        <time>2017-03-24T13:42:39Z</time>
      </trkpt>
      <trkpt lat="46.00067" lon="1.67607">
        <ele>442.9</ele>
        <time>2017-03-24T13:42:19Z</time>
      </trkpt>
      <trkpt lat="46.00047" lon="1.6747">
        <ele>439.5</ele>
        <time>2017-03-24T13:41:59Z</time>
      </trkpt>
      <trkpt lat="45.99958" lon="1.67362">
        <ele>442.6</ele>
        <time>2017-03-24T13:41:39Z</time>
      </trkpt>
      <trkpt lat="45.99788" lon="1.67294">
        <ele>449.9</ele>
        <time>2017-03-24T13:41:19Z</time>
      </trkpt>
      <trkpt lat="45.99889" lon="1.67222">
        <ele>452</ele>
        <time>2017-03-24T13:40:59Z</time>
      </trkpt>
      <trkpt lat="46.0003" lon="1.67218">
        <ele>437.9</ele>
        <time>2017-03-24T13:40:39Z</time>
      </trkpt>
      <trkpt lat="46.00208" lon="1.67326">
        <ele>409.3</ele>
        <time>2017-03-24T13:40:19Z</time>
      </trkpt>
      <trkpt lat="46.00284" lon="1.66982">
        <ele>414</ele>
        <time>2017-03-24T13:39:59Z</time>
      </trkpt>
      <trkpt lat="46.00306" lon="1.67146">
        <ele>400.9</ele>
        <time>2017-03-24T13:39:39Z</time>
      </trkpt>
      <trkpt lat="46.00471" lon="1.67284">
        <ele>394</ele>
        <time>2017-03-24T13:39:19Z</time>
      </trkpt>
      <trkpt lat="46.00398" lon="1.67586">
        <ele>398.3</ele>
        <time>2017-03-24T13:38:59Z</time>
      </trkpt>
      <trkpt lat="46.00386" lon="1.67697">
        <ele>400.4</ele>
        <time>2017-03-24T13:38:39Z</time>
      </trkpt>
      <trkpt lat="46.00456" lon="1.67746">
        <ele>410.1</ele>
        <time>2017-03-24T13:38:19Z</time>
      </trkpt>
      <trkpt lat="46.00542" lon="1.67749">
        <ele>416.5</ele>
        <time>2017-03-24T13:37:59Z</time>
      </trkpt>
      <trkpt lat="46.00614" lon="1.67793">
        <ele>407</ele>
        <time>2017-03-24T13:37:39Z</time>
      </trkpt>
      <trkpt lat="46.00629" lon="1.67569">
        <ele>416.5</ele>
        <time>2017-03-24T13:37:19Z</time>
      </trkpt>
      <trkpt lat="46.00709" lon="1.67389">
        <ele>413.5</ele>
        <time>2017-03-24T13:36:59Z</time>
      </trkpt>
      <trkpt lat="46.00709" lon="1.67026">
        <ele>412.5</ele>
        <time>2017-03-24T13:36:39Z</time>
      </trkpt>
      <trkpt lat="46.00848" lon="1.66763">
        <ele>389.7</ele>
        <time>2017-03-24T13:36:19Z</time>
      </trkpt>
      <trkpt lat="46.00929" lon="1.66812">
        <ele>395.6</ele>
        <time>2017-03-24T13:35:59Z</time>
      </trkpt>
      <trkpt lat="46.00915" lon="1.66679">
        <ele>389.4</ele>
        <time>2017-03-24T13:35:39Z</time>
      </trkpt>
      <trkpt lat="46.01" lon="1.66565">
        <ele>404.1</ele>
        <time>2017-03-24T13:35:19Z</time>
      </trkpt>
      <trkpt lat="46.01052" lon="1.66541">
        <ele>405.2</ele>
        <time>2017-03-24T13:34:59Z</time>
      </trkpt>
      <trkpt lat="46.01204" lon="1.66832">
        <ele>427.4</ele>
        <time>2017-03-24T13:34:39Z</time>
      </trkpt>
      <trkpt lat="46.01309" lon="1.6675">
        <ele>423.1</ele>
        <time>2017-03-24T13:34:19Z</time>
      </trkpt>
      <trkpt lat="46.01333" lon="1.668">
        <ele>422.1</ele>
        <time>2017-03-24T13:33:59Z</time>
      </trkpt>
      <trkpt lat="46.01375" lon="1.6679">
        <ele>422.3</ele>
        <time>2017-03-24T13:33:39Z</time>
      </trkpt>
      <trkpt lat="46.01365" lon="1.66708">
        <ele>423.7</ele>
        <time>2017-03-24T13:33:19Z</time>
      </trkpt>
      <trkpt lat="46.01312" lon="1.66588">
        <ele>413.9</ele>
        <time>2017-03-24T13:32:59Z</time>
      </trkpt>
      <trkpt lat="46.01262" lon="1.66321">
        <ele>399.6</ele>
        <time>2017-03-24T13:32:39Z</time>
      </trkpt>
      <trkpt lat="46.01346" lon="1.66154">
        <ele>402.1</ele>
        <time>2017-03-24T13:32:19Z</time>
      </trkpt>
      <trkpt lat="46.0137" lon="1.66164">
        <ele>403.1</ele>
        <time>2017-03-24T13:31:59Z</time>
      </trkpt>
      <trkpt lat="46.01422" lon="1.66105">
        <ele>407.7</ele>
        <time>2017-03-24T13:31:39Z</time>
      </trkpt>
      <trkpt lat="46.01529" lon="1.6605">
        <ele>412.8</ele>
        <time>2017-03-24T13:31:19Z</time>
      </trkpt>
      <trkpt lat="46.01488" lon="1.65875">
        <ele>402.7</ele>
        <time>2017-03-24T13:30:59Z</time>
      </trkpt>
      <trkpt lat="46.01548" lon="1.65791">
        <ele>399.9</ele>
        <time>2017-03-24T13:30:39Z</time>
      </trkpt>
      <trkpt lat="46.01665" lon="1.65801">
        <ele>394.5</ele>
        <time>2017-03-24T13:30:19Z</time>
      </trkpt>
      <trkpt lat="46.01749" lon="1.65917">
        <ele>389.8</ele>
        <time>2017-03-24T13:29:59Z</time>
      </trkpt>
      <trkpt lat="46.01856" lon="1.65942">
        <ele>391</ele>
        <time>2017-03-24T13:29:39Z</time>
      </trkpt>
      <trkpt lat="46.01841" lon="1.65888">
        <ele>387.3</ele>
        <time>2017-03-24T13:29:19Z</time>
      </trkpt>
      <trkpt lat="46.0193" lon="1.65791">
        <ele>389.9</ele>
        <time>2017-03-24T13:28:59Z</time>
      </trkpt>
      <trkpt lat="46.0193" lon="1.6573">
        <ele>395.5</ele>
        <time>2017-03-24T13:28:39Z</time>
      </trkpt>
      <trkpt lat="46.01964" lon="1.65651">
        <ele>399.9</ele>
        <time>2017-03-24T13:28:19Z</time>
      </trkpt>
      <trkpt lat="46.02106" lon="1.65572">
        <ele>398.7</ele>
        <time>2017-03-24T13:27:59Z</time>
      </trkpt>
      <trkpt lat="46.02228" lon="1.65725">
        <ele>396.4</ele>
        <time>2017-03-24T13:27:39Z</time>
      </trkpt>
      <trkpt lat="46.02367" lon="1.658">
        <ele>405.4</ele>
        <time>2017-03-24T13:27:19Z</time>
      </trkpt>
      <trkpt lat="46.0239" lon="1.6578">
        <ele>406.2</ele>
        <time>2017-03-24T13:26:59Z</time>
      </trkpt>
      <trkpt lat="46.02399" lon="1.65756">
        <ele>407.4</ele>
        <time>2017-03-24T13:26:39Z</time>
      </trkpt>
      <trkpt lat="46.02437" lon="1.65743">
        <ele>411.7</ele>
        <time>2017-03-24T13:26:19Z</time>
      </trkpt>
      <trkpt lat="46.02542" lon="1.65718">
        <ele>412.3</ele>
        <time>2017-03-24T13:25:59Z</time>
      </trkpt>
      <trkpt lat="46.02484" lon="1.65726">
        <ele>413</ele>
        <time>2017-03-24T13:25:39Z</time>
      </trkpt>
      <trkpt lat="46.02434" lon="1.65737">
        <ele>411.8</ele>
        <time>2017-03-24T13:25:19Z</time>
      </trkpt>
      <trkpt lat="46.02385" lon="1.65752">
        <ele>406.9</ele>
        <time>2017-03-24T13:24:59Z</time>
      </trkpt>
      <trkpt lat="46.02356" lon="1.65732">
        <ele>410.5</ele>
        <time>2017-03-24T13:24:39Z</time>
      </trkpt>
      <trkpt lat="46.02308" lon="1.65585">
        <ele>413.3</ele>
        <time>2017-03-24T13:24:19Z</time>
      </trkpt>
      <trkpt lat="46.02315" lon="1.655">
        <ele>419.1</ele>
        <time>2017-03-24T13:23:59Z</time>
      </trkpt>
      <trkpt lat="46.02281" lon="1.6542">
        <ele>420.1</ele>
        <time>2017-03-24T13:23:39Z</time>
      </trkpt>
      <trkpt lat="46.02285" lon="1.65199">
        <ele>433.3</ele>
        <time>2017-03-24T13:23:19Z</time>
      </trkpt>
      <trkpt lat="46.02377" lon="1.65105">
        <ele>435.6</ele>
        <time>2017-03-24T13:22:59Z</time>
      </trkpt>
      <trkpt lat="46.02252" lon="1.64949">
        <ele>422.4</ele>
        <time>2017-03-24T13:22:39Z</time>
      </trkpt>
      <trkpt lat="46.02068" lon="1.64896">
        <ele>418.2</ele>
        <time>2017-03-24T13:22:19Z</time>
      </trkpt>
      <trkpt lat="46.02065" lon="1.64771">
        <ele>409.6</ele>
        <time>2017-03-24T13:21:59Z</time>
      </trkpt>
      <trkpt lat="46.02" lon="1.64684">
        <ele>402</ele>
        <time>2017-03-24T13:21:39Z</time>
      </trkpt>
      <trkpt lat="46.01908" lon="1.64687">
        <ele>403.6</ele>
        <time>2017-03-24T13:21:19Z</time>
      </trkpt>
      <trkpt lat="46.01842" lon="1.64583">
        <ele>396.7</ele>
        <time>2017-03-24T13:20:59Z</time>
      </trkpt>
      <trkpt lat="46.01721" lon="1.64569">
        <ele>387.7</ele>
        <time>2017-03-24T13:20:39Z</time>
      </trkpt>
      <trkpt lat="46.01678" lon="1.64632">
        <ele>388.9</ele>
        <time>2017-03-24T13:20:19Z</time>
      </trkpt>
      <trkpt lat="46.01677" lon="1.64759">
        <ele>385.5</ele>
        <time>2017-03-24T13:19:59Z</time>
      </trkpt>
      <trkpt lat="46.01754" lon="1.64882">
        <ele>389.9</ele>
        <time>2017-03-24T13:19:39Z</time>
      </trkpt>
      <trkpt lat="46.01722" lon="1.64957">
        <ele>379</ele>
        <time>2017-03-24T13:19:19Z</time>
      </trkpt>
      <trkpt lat="46.01683" lon="1.64985">
        <ele>379</ele>
        <time>2017-03-24T13:18:59Z</time>
      </trkpt>
      <trkpt lat="46.01521" lon="1.64893">
        <ele>395.6</ele>
        <time>2017-03-24T13:18:39Z</time>
      </trkpt>
      <trkpt lat="46.01501" lon="1.64774">
        <ele>392.7</ele>
        <time>2017-03-24T13:18:19Z</time>
      </trkpt>
      <trkpt lat="46.01467" lon="1.64673">
        <ele>402.4</ele>
        <time>2017-03-24T13:17:59Z</time>
      </trkpt>
      <trkpt lat="46.01448" lon="1.64705">
        <ele>405.7</ele>
        <time>2017-03-24T13:17:39Z</time>
      </trkpt>
      <trkpt lat="46.01467" lon="1.64759">
        <ele>405.5</ele>
        <time>2017-03-24T13:17:19Z</time>
      </trkpt>
      <trkpt lat="46.01435" lon="1.64735">
        <ele>408.9</ele>
        <time>2017-03-24T13:16:59Z</time>
      </trkpt>
      <trkpt lat="46.01397" lon="1.64727">
        <ele>420.2</ele>
        <time>2017-03-24T13:16:39Z</time>
      </trkpt>
      <trkpt lat="46.01369" lon="1.64722">
        <ele>423</ele>
        <time>2017-03-24T13:16:19Z</time>
      </trkpt>
      <trkpt lat="46.01338" lon="1.64712">
        <ele>424.9</ele>
        <time>2017-03-24T13:15:59Z</time>
      </trkpt>
      <trkpt lat="46.01313" lon="1.64658">
        <ele>431.3</ele>
        <time>2017-03-24T13:15:39Z</time>
      </trkpt>
      <trkpt lat="46.0126" lon="1.64505">
        <ele>440.2</ele>
        <time>2017-03-24T13:15:19Z</time>
      </trkpt>
      <trkpt lat="46.01308" lon="1.64378">
        <ele>454</ele>
        <time>2017-03-24T13:14:59Z</time>
      </trkpt>
      <trkpt lat="46.01327" lon="1.64184">
        <ele>469.1</ele>
        <time>2017-03-24T13:14:39Z</time>
      </trkpt>
      <trkpt lat="46.01325" lon="1.63984">
        <ele>476.1</ele>
        <time>2017-03-24T13:14:19Z</time>
      </trkpt>
      <trkpt lat="46.0126" lon="1.6378">
        <ele>479.6</ele>
        <time>2017-03-24T13:13:59Z</time>
      </trkpt>
      <trkpt lat="46.01208" lon="1.63474">
        <ele>479.3</ele>
        <time>2017-03-24T13:13:39Z</time>
      </trkpt>
      <trkpt lat="46.01044" lon="1.63103">
        <ele>472.2</ele>
        <time>2017-03-24T13:13:19Z</time>
      </trkpt>
      <trkpt lat="46.00867" lon="1.62896">
        <ele>462.5</ele>
        <time>2017-03-24T13:12:59Z</time>
      </trkpt>
      <trkpt lat="46.00657" lon="1.62967">
        <ele>482.7</ele>
        <time>2017-03-24T13:12:39Z</time>
      </trkpt>
      <trkpt lat="46.00635" lon="1.62738">
        <ele>463</ele>
        <time>2017-03-24T13:12:19Z</time>
      </trkpt>
      <trkpt lat="46.00546" lon="1.6261">
        <ele>471.1</ele>
        <time>2017-03-24T13:11:59Z</time>
      </trkpt>
      <trkpt lat="46.0048" lon="1.62443">
        <ele>478</ele>
        <time>2017-03-24T13:11:39Z</time>
      </trkpt>
      <trkpt lat="46.00491" lon="1.62288">
        <ele>478</ele>
        <time>2017-03-24T13:11:19Z</time>
      </trkpt>
      <trkpt lat="46.00523" lon="1.62115">
        <ele>468.9</ele>
        <time>2017-03-24T13:10:59Z</time>
      </trkpt>
      <trkpt lat="46.00464" lon="1.62064">
        <ele>471</ele>
        <time>2017-03-24T13:10:39Z</time>
      </trkpt>
      <trkpt lat="46.00391" lon="1.62047">
        <ele>473.7</ele>
        <time>2017-03-24T13:10:19Z</time>
      </trkpt>
      <trkpt lat="46.00265" lon="1.62021">
        <ele>472.3</ele>
        <time>2017-03-24T13:09:59Z</time>
      </trkpt>
      <trkpt lat="45.99815" lon="1.61713">
        <ele>442.2</ele>
        <time>2017-03-24T13:09:39Z</time>
      </trkpt>
      <trkpt lat="45.99671" lon="1.61517">
        <ele>412.4</ele>
        <time>2017-03-24T13:09:19Z</time>
      </trkpt>
      <trkpt lat="45.99459" lon="1.61138">
        <ele>360</ele>
        <time>2017-03-24T13:08:59Z</time>
      </trkpt>
      <trkpt lat="45.99441" lon="1.61056">
        <ele>349.9</ele>
        <time>2017-03-24T13:08:39Z</time>
      </trkpt>
      <trkpt lat="45.99406" lon="1.61025">
        <ele>358.2</ele>
        <time>2017-03-24T13:08:19Z</time>
      </trkpt>
      <trkpt lat="45.994" lon="1.61025">
        <ele>359</ele>
        <time>2017-03-24T13:07:59Z</time>
      </trkpt>
      <trkpt lat="45.99404" lon="1.60974">
        <ele>352</ele>
        <time>2017-03-24T13:07:39Z</time>
      </trkpt>
      <trkpt lat="45.99388" lon="1.60894">
        <ele>345</ele>
        <time>2017-03-24T13:07:19Z</time>
      </trkpt>
      <trkpt lat="45.99367" lon="1.60832">
        <ele>343</ele>
        <time>2017-03-24T13:06:59Z</time>
      </trkpt>
      <trkpt lat="45.99394" lon="1.60848">
        <ele>341</ele>
        <time>2017-03-24T13:06:39Z</time>
      </trkpt>
      <trkpt lat="45.99437" lon="1.60823">
        <ele>336</ele>
        <time>2017-03-24T13:06:19Z</time>
      </trkpt>
      <trkpt lat="45.99458" lon="1.60781">
        <ele>340</ele>
        <time>2017-03-24T13:05:59Z</time>
      </trkpt>
      <trkpt lat="45.99429" lon="1.60642">
        <ele>340</ele>
        <time>2017-03-24T13:05:39Z</time>
      </trkpt>
      <trkpt lat="45.99444" lon="1.60595">
        <ele>344</ele>
        <time>2017-03-24T13:52:59Z</time>
      </trkpt>
      <trkpt lat="45.99482" lon="1.60592">
        <ele>348</ele>
        <time>2017-03-24T13:52:59Z</time>
      </trkpt>
      <trkpt lat="45.99514" lon="1.60655">
        <ele>351</ele>
        <time>2017-03-24T13:52:39Z</time>
      </trkpt>
      <trkpt lat="45.99511" lon="1.60752">
        <ele>352</ele>
        <time>2017-03-24T13:52:19Z</time>
      </trkpt>
      <trkpt lat="45.99553" lon="1.60908">
        <ele>358</ele>
        <time>2017-03-24T13:51:59Z</time>
      </trkpt>
      <trkpt lat="45.99571" lon="1.609">
        <ele>361</ele>
        <time>2017-03-24T13:51:39Z</time>
      </trkpt>
      <trkpt lat="45.99558" lon="1.60821">
        <ele>360</ele>
        <time>2017-03-24T13:51:19Z</time>
      </trkpt>
      <trkpt lat="45.99566" lon="1.60774">
        <ele>359</ele>
        <time>2017-03-24T13:50:59Z</time>
      </trkpt>
      <trkpt lat="45.99593" lon="1.6076">
        <ele>365</ele>
        <time>2017-03-24T13:50:39Z</time>
      </trkpt>
      <trkpt lat="45.99867" lon="1.60862">
        <ele>387.4</ele>
        <time>2017-03-24T13:50:19Z</time>
      </trkpt>
      <trkpt lat="45.99898" lon="1.60855">
        <ele>387</ele>
        <time>2017-03-24T13:49:59Z</time>
      </trkpt>
      <trkpt lat="45.99911" lon="1.60844">
        <ele>386.6</ele>
        <time>2017-03-24T13:49:39Z</time>
      </trkpt>
      <trkpt lat="45.99918" lon="1.60796">
        <ele>387.1</ele>
        <time>2017-03-24T13:49:19Z</time>
      </trkpt>
      <trkpt lat="45.99923" lon="1.60785">
        <ele>387.4</ele>
        <time>2017-03-24T13:48:59Z</time>
      </trkpt>
      <trkpt lat="45.99928" lon="1.60737">
        <ele>391.7</ele>
        <time>2017-03-24T13:48:39Z</time>
      </trkpt>
      <trkpt lat="45.99936" lon="1.60688">
        <ele>394.9</ele>
        <time>2017-03-24T13:48:19Z</time>
      </trkpt>
      <trkpt lat="45.99924" lon="1.6065">
        <ele>398.8</ele>
        <time>2017-03-24T13:47:59Z</time>
      </trkpt>
      <trkpt lat="45.99918" lon="1.60384">
        <ele>409.2</ele>
        <time>2017-03-24T13:47:39Z</time>
      </trkpt>
      <trkpt lat="45.99932" lon="1.60395">
        <ele>409.4</ele>
        <time>2017-03-24T15:46:39Z</time>
      </trkpt>
      <trkpt lat="45.99932" lon="1.60395">
        <ele>409.4</ele>
        <time>2017-03-24T15:46:39Z</time>
      </trkpt>
      <trkpt lat="45.99932" lon="1.60395">
        <ele>409.4</ele>
        <time>2017-03-24T15:46:39Z</time>
      </trkpt>
      <trkpt lat="45.99932" lon="1.60395">
        <ele>409.4</ele>
        <time>2017-03-24T15:46:39Z</time>
      </trkpt>
      <trkpt lat="45.99973" lon="1.60424">
        <ele>413.6</ele>
        <time>2017-03-24T15:46:19Z</time>
      </trkpt>
      <trkpt lat="46.00069" lon="1.60547">
        <ele>426</ele>
        <time>2017-03-24T15:45:59Z</time>
      </trkpt>
      <trkpt lat="46.00104" lon="1.60569">
        <ele>435</ele>
        <time>2017-03-24T15:45:39Z</time>
      </trkpt>
      <trkpt lat="46.00206" lon="1.60525">
        <ele>444</ele>
        <time>2017-03-24T15:45:19Z</time>
      </trkpt>
      <trkpt lat="46.00224" lon="1.60479">
        <ele>449</ele>
        <time>2017-03-24T15:44:59Z</time>
      </trkpt>
      <trkpt lat="46.00298" lon="1.60374">
        <ele>453</ele>
        <time>2017-03-24T15:44:39Z</time>
      </trkpt>
      <trkpt lat="46.00429" lon="1.60289">
        <ele>461</ele>
        <time>2017-03-24T15:44:19Z</time>
      </trkpt>
      <trkpt lat="46.00522" lon="1.60267">
        <ele>461</ele>
        <time>2017-03-24T15:43:59Z</time>
      </trkpt>
      <trkpt lat="46.00659" lon="1.60208">
        <ele>463</ele>
        <time>2017-03-24T15:43:39Z</time>
      </trkpt>
      <trkpt lat="46.00799" lon="1.60205">
        <ele>469</ele>
        <time>2017-03-24T15:43:19Z</time>
      </trkpt>
      <trkpt lat="46.00819" lon="1.60218">
        <ele>470</ele>
        <time>2017-03-24T15:42:59Z</time>
      </trkpt>
      <trkpt lat="46.00993" lon="1.60105">
        <ele>475</ele>
        <time>2017-03-24T15:42:39Z</time>
      </trkpt>
      <trkpt lat="46.00993" lon="1.60105">
        <ele>475</ele>
        <time>2017-03-24T15:42:19Z</time>
      </trkpt>
      <trkpt lat="46.01079" lon="1.60021">
        <ele>492</ele>
        <time>2017-03-24T15:41:59Z</time>
      </trkpt>
      <trkpt lat="46.01088" lon="1.59965">
        <ele>499</ele>
        <time>2017-03-24T15:41:39Z</time>
      </trkpt>
      <trkpt lat="46.01156" lon="1.59967">
        <ele>503</ele>
        <time>2017-03-24T15:41:19Z</time>
      </trkpt>
      <trkpt lat="46.01292" lon="1.59927">
        <ele>505</ele>
        <time>2017-03-24T15:40:59Z</time>
      </trkpt>
      <trkpt lat="46.01519" lon="1.59788">
        <ele>508</ele>
        <time>2017-03-24T15:40:39Z</time>
      </trkpt>
      <trkpt lat="46.01787" lon="1.59664">
        <ele>501</ele>
        <time>2017-03-24T15:40:19Z</time>
      </trkpt>
      <trkpt lat="46.01877" lon="1.59648">
        <ele>496</ele>
        <time>2017-03-24T15:39:59Z</time>
      </trkpt>
      <trkpt lat="46.0194" lon="1.59596">
        <ele>495</ele>
        <time>2017-03-24T15:39:39Z</time>
      </trkpt>
      <trkpt lat="46.02101" lon="1.5949">
        <ele>486</ele>
        <time>2017-03-24T15:39:19Z</time>
      </trkpt>
      <trkpt lat="46.022" lon="1.59451">
        <ele>480</ele>
        <time>2017-03-24T15:38:59Z</time>
      </trkpt>
      <trkpt lat="46.02288" lon="1.59475">
        <ele>476</ele>
        <time>2017-03-24T15:38:39Z</time>
      </trkpt>
      <trkpt lat="46.02366" lon="1.5948">
        <ele>479</ele>
        <time>2017-03-24T15:38:19Z</time>
      </trkpt>
      <trkpt lat="46.02445" lon="1.59457">
        <ele>486</ele>
        <time>2017-03-24T15:37:59Z</time>
      </trkpt>
      <trkpt lat="46.02681" lon="1.59466">
        <ele>503</ele>
        <time>2017-03-24T15:37:39Z</time>
      </trkpt>
      <trkpt lat="46.02786" lon="1.59515">
        <ele>509</ele>
        <time>2017-03-24T15:37:19Z</time>
      </trkpt>
      <trkpt lat="46.02925" lon="1.59467">
        <ele>524</ele>
        <time>2017-03-24T15:36:59Z</time>
      </trkpt>
      <trkpt lat="46.03208" lon="1.59122">
        <ele>533</ele>
        <time>2017-03-24T15:36:39Z</time>
      </trkpt>
      <trkpt lat="46.03261" lon="1.59035">
        <ele>540</ele>
        <time>2017-03-24T15:36:19Z</time>
      </trkpt>
      <trkpt lat="46.03327" lon="1.5886">
        <ele>555</ele>
        <time>2017-03-24T15:35:59Z</time>
      </trkpt>
      <trkpt lat="46.03348" lon="1.58815">
        <ele>566</ele>
        <time>2017-03-24T15:35:39Z</time>
      </trkpt>
      <trkpt lat="46.0338" lon="1.58797">
        <ele>570</ele>
        <time>2017-03-24T15:35:19Z</time>
      </trkpt>
      <trkpt lat="46.0341" lon="1.58814">
        <ele>574</ele>
        <time>2017-03-24T15:34:59Z</time>
      </trkpt>
      <trkpt lat="46.03521" lon="1.58835">
        <ele>594</ele>
        <time>2017-03-24T15:34:39Z</time>
      </trkpt>
      <trkpt lat="46.03567" lon="1.58834">
        <ele>601</ele>
        <time>2017-03-24T15:34:19Z</time>
      </trkpt>
      <trkpt lat="46.03603" lon="1.58791">
        <ele>610</ele>
        <time>2017-03-24T15:33:59Z</time>
      </trkpt>
      <trkpt lat="46.03618" lon="1.58686">
        <ele>609</ele>
        <time>2017-03-24T15:33:39Z</time>
      </trkpt>
      <trkpt lat="46.03601" lon="1.58608">
        <ele>613</ele>
        <time>2017-03-24T15:33:19Z</time>
      </trkpt>
      <trkpt lat="46.03602" lon="1.58402">
        <ele>643</ele>
        <time>2017-03-24T15:32:59Z</time>
      </trkpt>
      <trkpt lat="46.03628" lon="1.58383">
        <ele>643</ele>
        <time>2017-03-24T15:32:39Z</time>
      </trkpt>
      <trkpt lat="46.0365" lon="1.58349">
        <ele>644</ele>
        <time>2017-03-24T15:32:19Z</time>
      </trkpt>
      <trkpt lat="46.03719" lon="1.5831">
        <ele>646</ele>
        <time>2017-03-24T15:31:59Z</time>
      </trkpt>
      <trkpt lat="46.0376" lon="1.58243">
        <ele>651</ele>
        <time>2017-03-24T15:31:39Z</time>
      </trkpt>
      <trkpt lat="46.03798" lon="1.58166">
        <ele>653</ele>
        <time>2017-03-24T15:31:19Z</time>
      </trkpt>
      <trkpt lat="46.03877" lon="1.58108">
        <ele>658</ele>
        <time>2017-03-24T15:30:59Z</time>
      </trkpt>
      <trkpt lat="46.03945" lon="1.58041">
        <ele>659</ele>
        <time>2017-03-24T15:30:39Z</time>
      </trkpt>
      <trkpt lat="46.04006" lon="1.57868">
        <ele>665</ele>
        <time>2017-03-24T15:30:19Z</time>
      </trkpt>
      <trkpt lat="46.0402" lon="1.57767">
        <ele>662</ele>
        <time>2017-03-24T15:29:59Z</time>
      </trkpt>
      <trkpt lat="46.04078" lon="1.57673">
        <ele>663</ele>
        <time>2017-03-24T15:29:39Z</time>
      </trkpt>
      <trkpt lat="46.03978" lon="1.57475">
        <ele>649</ele>
        <time>2017-03-24T15:29:19Z</time>
      </trkpt>
      <trkpt lat="46.03877" lon="1.57233">
        <ele>642</ele>
        <time>2017-03-24T15:28:59Z</time>
      </trkpt>
      <trkpt lat="46.03852" lon="1.56989">
        <ele>644</ele>
        <time>2017-03-24T15:28:39Z</time>
      </trkpt>
      <trkpt lat="46.03804" lon="1.56944">
        <ele>652</ele>
        <time>2017-03-24T15:28:19Z</time>
      </trkpt>
      <trkpt lat="46.03701" lon="1.56944">
        <ele>656</ele>
        <time>2017-03-24T15:27:59Z</time>
      </trkpt>
      <trkpt lat="46.03528" lon="1.56909">
        <ele>677</ele>
        <time>2017-03-24T15:27:39Z</time>
      </trkpt>
      <trkpt lat="46.03445" lon="1.56862">
        <ele>684</ele>
        <time>2017-03-24T15:27:19Z</time>
      </trkpt>
      <trkpt lat="46.03363" lon="1.56856">
        <ele>688</ele>
        <time>2017-03-24T15:26:59Z</time>
      </trkpt>
      <trkpt lat="46.03241" lon="1.56832">
        <ele>674</ele>
        <time>2017-03-24T15:26:39Z</time>
      </trkpt>
      <trkpt lat="46.03056" lon="1.56821">
        <ele>645</ele>
        <time>2017-03-24T15:26:19Z</time>
      </trkpt>
      <trkpt lat="46.02944" lon="1.56768">
        <ele>630</ele>
        <time>2017-03-24T15:25:59Z</time>
      </trkpt>
      <trkpt lat="46.0281" lon="1.56678">
        <ele>616</ele>
        <time>2017-03-24T15:25:39Z</time>
      </trkpt>
      <trkpt lat="46.0273" lon="1.56598">
        <ele>607</ele>
        <time>2017-03-24T15:25:19Z</time>
      </trkpt>
      <trkpt lat="46.02497" lon="1.56538">
        <ele>588</ele>
        <time>2017-03-24T15:24:59Z</time>
      </trkpt>
      <trkpt lat="46.02363" lon="1.56532">
        <ele>580</ele>
        <time>2017-03-24T15:24:39Z</time>
      </trkpt>
      <trkpt lat="46.0228" lon="1.56493">
        <ele>566</ele>
        <time>2017-03-24T15:24:19Z</time>
      </trkpt>
      <trkpt lat="46.02189" lon="1.56465">
        <ele>553</ele>
        <time>2017-03-24T15:23:59Z</time>
      </trkpt>
      <trkpt lat="46.02235" lon="1.56343">
        <ele>545</ele>
        <time>2017-03-24T15:23:39Z</time>
      </trkpt>
      <trkpt lat="46.02283" lon="1.56165">
        <ele>530</ele>
        <time>2017-03-24T15:23:19Z</time>
      </trkpt>
      <trkpt lat="46.02274" lon="1.56122">
        <ele>529</ele>
        <time>2017-03-24T15:22:59Z</time>
      </trkpt>
      <trkpt lat="46.02289" lon="1.56062">
        <ele>523</ele>
        <time>2017-03-24T15:22:39Z</time>
      </trkpt>
      <trkpt lat="46.02289" lon="1.55997">
        <ele>517</ele>
        <time>2017-03-24T15:22:19Z</time>
      </trkpt>
      <trkpt lat="46.02261" lon="1.55991">
        <ele>517</ele>
        <time>2017-03-24T15:21:59Z</time>
      </trkpt>
      <trkpt lat="46.02252" lon="1.55961">
        <ele>515</ele>
        <time>2017-03-24T15:21:39Z</time>
      </trkpt>
      <trkpt lat="46.0221" lon="1.55969">
        <ele>510</ele>
        <time>2017-03-24T15:21:19Z</time>
      </trkpt>
      <trkpt lat="46.02152" lon="1.5603">
        <ele>510</ele>
        <time>2017-03-24T15:20:59Z</time>
      </trkpt>
      <trkpt lat="46.02129" lon="1.56133">
        <ele>514</ele>
        <time>2017-03-24T15:20:39Z</time>
      </trkpt>
      <trkpt lat="46.02109" lon="1.5618">
        <ele>519</ele>
        <time>2017-03-24T15:20:19Z</time>
      </trkpt>
      <trkpt lat="46.02074" lon="1.5616">
        <ele>512</ele>
        <time>2017-03-24T15:19:59Z</time>
      </trkpt>
      <trkpt lat="46.01994" lon="1.5613">
        <ele>513</ele>
        <time>2017-03-24T15:19:39Z</time>
      </trkpt>
      <trkpt lat="46.01948" lon="1.56094">
        <ele>511</ele>
        <time>2017-03-24T15:19:19Z</time>
      </trkpt>
      <trkpt lat="46.01896" lon="1.56076">
        <ele>505</ele>
        <time>2017-03-24T15:18:59Z</time>
      </trkpt>
      <trkpt lat="46.01896" lon="1.56076">
        <ele>505</ele>
        <time>2017-03-24T15:18:39Z</time>
      </trkpt>
      <trkpt lat="46.01781" lon="1.5604">
        <ele>500</ele>
        <time>2017-03-24T15:18:19Z</time>
      </trkpt>
      <trkpt lat="46.01728" lon="1.56094">
        <ele>504</ele>
        <time>2017-03-24T15:17:59Z</time>
      </trkpt>
      <trkpt lat="46.01668" lon="1.56119">
        <ele>502</ele>
        <time>2017-03-24T15:17:39Z</time>
      </trkpt>
      <trkpt lat="46.01598" lon="1.56198">
        <ele>502</ele>
        <time>2017-03-24T15:17:19Z</time>
      </trkpt>
      <trkpt lat="46.01522" lon="1.56265">
        <ele>497</ele>
        <time>2017-03-24T15:16:59Z</time>
      </trkpt>
      <trkpt lat="46.01456" lon="1.56305">
        <ele>485</ele>
        <time>2017-03-24T15:16:39Z</time>
      </trkpt>
      <trkpt lat="46.01408" lon="1.56346">
        <ele>478</ele>
        <time>2017-03-24T15:16:19Z</time>
      </trkpt>
      <trkpt lat="46.01336" lon="1.56399">
        <ele>472</ele>
        <time>2017-03-24T15:15:59Z</time>
      </trkpt>
      <trkpt lat="46.01291" lon="1.56431">
        <ele>464</ele>
        <time>2017-03-24T15:15:39Z</time>
      </trkpt>
      <trkpt lat="46.01262" lon="1.56478">
        <ele>463</ele>
        <time>2017-03-24T15:15:19Z</time>
      </trkpt>
      <trkpt lat="46.01171" lon="1.56487">
        <ele>454</ele>
        <time>2017-03-24T15:14:59Z</time>
      </trkpt>
      <trkpt lat="46.01105" lon="1.56419">
        <ele>451</ele>
        <time>2017-03-24T15:14:39Z</time>
      </trkpt>
      <trkpt lat="46.01035" lon="1.56354">
        <ele>447</ele>
        <time>2017-03-24T15:14:19Z</time>
      </trkpt>
      <trkpt lat="46.00979" lon="1.56326">
        <ele>442</ele>
        <time>2017-03-24T15:13:59Z</time>
      </trkpt>
      <trkpt lat="46.00937" lon="1.56365">
        <ele>440</ele>
        <time>2017-03-24T15:13:39Z</time>
      </trkpt>
      <trkpt lat="46.00901" lon="1.56245">
        <ele>440</ele>
        <time>2017-03-24T15:13:19Z</time>
      </trkpt>
      <trkpt lat="46.00844" lon="1.56233">
        <ele>443</ele>
        <time>2017-03-24T15:12:59Z</time>
      </trkpt>
      <trkpt lat="46.00757" lon="1.56266">
        <ele>448</ele>
        <time>2017-03-24T15:12:39Z</time>
      </trkpt>
      <trkpt lat="46.0069" lon="1.56242">
        <ele>457</ele>
        <time>2017-03-24T15:12:19Z</time>
      </trkpt>
      <trkpt lat="46.00619" lon="1.56241">
        <ele>461</ele>
        <time>2017-03-24T15:11:59Z</time>
      </trkpt>
      <trkpt lat="46.00559" lon="1.56266">
        <ele>458</ele>
        <time>2017-03-24T15:11:39Z</time>
      </trkpt>
      <trkpt lat="46.00523" lon="1.56292">
        <ele>457</ele>
        <time>2017-03-24T15:11:19Z</time>
      </trkpt>
      <trkpt lat="46.00483" lon="1.56266">
        <ele>453</ele>
        <time>2017-03-24T15:11:19Z</time>
      </trkpt>
      <trkpt lat="46.00425" lon="1.5613">
        <ele>454</ele>
        <time>2017-03-24T13:34:19Z</time>
      </trkpt>
      <trkpt lat="46.00392" lon="1.56086">
        <ele>444</ele>
        <time>2017-03-24T13:33:59Z</time>
      </trkpt>
      <trkpt lat="46.003" lon="1.55904">
        <ele>439</ele>
        <time>2017-03-24T13:33:39Z</time>
      </trkpt>
      <trkpt lat="46.00282" lon="1.55915">
        <ele>438</ele>
        <time>2017-03-24T13:33:19Z</time>
      </trkpt>
      <trkpt lat="46.00076" lon="1.55842">
        <ele>436</ele>
        <time>2017-03-24T13:32:59Z</time>
      </trkpt>
      <trkpt lat="46.00032" lon="1.55751">
        <ele>437</ele>
        <time>2017-03-24T13:32:39Z</time>
      </trkpt>
      <trkpt lat="45.99973" lon="1.55703">
        <ele>439</ele>
        <time>2017-03-24T13:32:19Z</time>
      </trkpt>
      <trkpt lat="45.99938" lon="1.55644">
        <ele>438</ele>
        <time>2017-03-24T13:31:59Z</time>
      </trkpt>
      <trkpt lat="45.99806" lon="1.55472">
        <ele>437</ele>
        <time>2017-03-24T13:31:39Z</time>
      </trkpt>
      <trkpt lat="45.99662" lon="1.55414">
        <ele>438</ele>
        <time>2017-03-24T13:31:19Z</time>
      </trkpt>
      <trkpt lat="45.996" lon="1.55425">
        <ele>438</ele>
        <time>2017-03-24T13:30:59Z</time>
      </trkpt>
      <trkpt lat="45.99404" lon="1.55313">
        <ele>423</ele>
        <time>2017-03-24T13:30:39Z</time>
      </trkpt>
      <trkpt lat="45.99334" lon="1.55271">
        <ele>418</ele>
        <time>2017-03-24T13:30:19Z</time>
      </trkpt>
      <trkpt lat="45.99262" lon="1.55248">
        <ele>411</ele>
        <time>2017-03-24T13:29:59Z</time>
      </trkpt>
      <trkpt lat="45.9918" lon="1.55145">
        <ele>401</ele>
        <time>2017-03-24T13:29:39Z</time>
      </trkpt>
      <trkpt lat="45.99063" lon="1.5514">
        <ele>397</ele>
        <time>2017-03-24T13:29:39Z</time>
      </trkpt>
      <trkpt lat="45.98963" lon="1.55092">
        <ele>395</ele>
        <time>2017-03-24T13:29:39Z</time>
      </trkpt>
      <trkpt lat="45.98904" lon="1.55107">
        <ele>395</ele>
      </trkpt>
      <trkpt lat="45.98879" lon="1.55182">
        <ele>389</ele>
      </trkpt>
      <trkpt lat="45.98838" lon="1.55263">
        <ele>385</ele>
      </trkpt>
      <trkpt lat="45.98943" lon="1.55265">
        <ele>385</ele>
      </trkpt>
      <trkpt lat="45.98989" lon="1.55338">
        <ele>385</ele>
      </trkpt>
      <trkpt lat="45.98937" lon="1.55461">
        <ele>388</ele>
      </trkpt>
      <trkpt lat="45.9892" lon="1.55583">
        <ele>393</ele>
      </trkpt>
      <trkpt lat="45.98893" lon="1.55681">
        <ele>399</ele>
      </trkpt>
      <trkpt lat="45.98782" lon="1.55889">
        <ele>405</ele>
      </trkpt>
      <trkpt lat="45.98692" lon="1.5604">
        <ele>401</ele>
      </trkpt>
      <trkpt lat="45.98538" lon="1.56116">
        <ele>392.3</ele>
      </trkpt>
      <trkpt lat="45.98392" lon="1.56156">
        <ele>389.8</ele>
      </trkpt>
      <trkpt lat="45.9832" lon="1.56265">
        <ele>392</ele>
      </trkpt>
      <trkpt lat="45.98234" lon="1.56339">
        <ele>392.5</ele>
      </trkpt>
      <trkpt lat="45.98234" lon="1.56339">
        <ele>392.5</ele>
      </trkpt>
      <trkpt lat="45.9822" lon="1.56355">
        <ele>392.8</ele>
      </trkpt>
      <trkpt lat="45.98072" lon="1.56301">
        <ele>391</ele>
      </trkpt>
      <trkpt lat="45.97989" lon="1.56245">
        <ele>390</ele>
      </trkpt>
      <trkpt lat="45.97932" lon="1.56184">
        <ele>391</ele>
      </trkpt>
      <trkpt lat="45.98011" lon="1.56093">
        <ele>385</ele>
      </trkpt>
      <trkpt lat="45.9806" lon="1.55981">
        <ele>380</ele>
      </trkpt>
      <trkpt lat="45.98003" lon="1.55921">
        <ele>381</ele>
      </trkpt>
      <trkpt lat="45.97943" lon="1.55887">
        <ele>382</ele>
      </trkpt>
      <trkpt lat="45.97879" lon="1.55888">
        <ele>385</ele>
      </trkpt>
      <trkpt lat="45.97761" lon="1.55843">
        <ele>388</ele>
      </trkpt>
      <trkpt lat="45.97683" lon="1.55706">
        <ele>383</ele>
      </trkpt>
      <trkpt lat="45.97653" lon="1.55673">
        <ele>384</ele>
      </trkpt>
      <trkpt lat="45.9763" lon="1.55617">
        <ele>376</ele>
      </trkpt>
      <trkpt lat="45.97598" lon="1.55578">
        <ele>370</ele>
      </trkpt>
      <trkpt lat="45.97575" lon="1.55453">
        <ele>359</ele>
      </trkpt>
      <trkpt lat="45.97499" lon="1.55316">
        <ele>346</ele>
      </trkpt>
      <trkpt lat="45.97481" lon="1.55248">
        <ele>343</ele>
      </trkpt>
      <trkpt lat="45.97441" lon="1.55175">
        <ele>339</ele>
      </trkpt>
      <trkpt lat="45.97432" lon="1.55133">
        <ele>334</ele>
      </trkpt>
      <trkpt lat="45.97383" lon="1.55061">
        <ele>339</ele>
      </trkpt>
      <trkpt lat="45.97387" lon="1.54991">
        <ele>350</ele>
      </trkpt>
      <trkpt lat="45.97329" lon="1.54918">
        <ele>355</ele>
      </trkpt>
      <trkpt lat="45.97315" lon="1.5484">
        <ele>362</ele>
      </trkpt>
      <trkpt lat="45.97337" lon="1.54705">
        <ele>373</ele>
      </trkpt>
      <trkpt lat="45.97325" lon="1.54614">
        <ele>375</ele>
      </trkpt>
      <trkpt lat="45.9733" lon="1.54539">
        <ele>376</ele>
      </trkpt>
      <trkpt lat="45.97294" lon="1.54434">
        <ele>376</ele>
      </trkpt>
      <trkpt lat="45.97231" lon="1.54476">
        <ele>379</ele>
      </trkpt>
      <trkpt lat="45.97133" lon="1.54477">
        <ele>388</ele>
      </trkpt>
      <trkpt lat="45.97057" lon="1.54408">
        <ele>391</ele>
      </trkpt>
      <trkpt lat="45.97001" lon="1.5424">
        <ele>387</ele>
      </trkpt>
      <trkpt lat="45.96998" lon="1.54148">
        <ele>390</ele>
      </trkpt>
      <trkpt lat="45.97018" lon="1.54006">
        <ele>391</ele>
      </trkpt>
      <trkpt lat="45.97001" lon="1.53842">
        <ele>392</ele>
      </trkpt>
      <trkpt lat="45.96962" lon="1.53711">
        <ele>391</ele>
      </trkpt>
      <trkpt lat="45.9691" lon="1.53569">
        <ele>387</ele>
      </trkpt>
      <trkpt lat="45.96838" lon="1.534">
        <ele>388</ele>
      </trkpt>
      <trkpt lat="45.96739" lon="1.53344">
        <ele>392</ele>
      </trkpt>
      <trkpt lat="45.96675" lon="1.53332">
        <ele>394</ele>
      </trkpt>
      <trkpt lat="45.96587" lon="1.53116">
        <ele>384</ele>
      </trkpt>
      <trkpt lat="45.96586" lon="1.53009">
        <ele>377</ele>
      </trkpt>
      <trkpt lat="45.96551" lon="1.52969">
        <ele>374</ele>
      </trkpt>
      <trkpt lat="45.96517" lon="1.52888">
        <ele>368</ele>
      </trkpt>
      <trkpt lat="45.96526" lon="1.52837">
        <ele>366</ele>
      </trkpt>
      <trkpt lat="45.96562" lon="1.52719">
        <ele>360</ele>
      </trkpt>
      <trkpt lat="45.96541" lon="1.52622">
        <ele>356</ele>
      </trkpt>
      <trkpt lat="45.96547" lon="1.52468">
        <ele>349</ele>
      </trkpt>
      <trkpt lat="45.96453" lon="1.52339">
        <ele>348</ele>
      </trkpt>
      <trkpt lat="45.96406" lon="1.52247">
        <ele>347</ele>
      </trkpt>
      <trkpt lat="45.96333" lon="1.52129">
        <ele>341</ele>
      </trkpt>
      <trkpt lat="45.96302" lon="1.51948">
        <ele>325</ele>
      </trkpt>
      <trkpt lat="45.96309" lon="1.51839">
        <ele>321</ele>
      </trkpt>
      <trkpt lat="45.96338" lon="1.51781">
        <ele>323</ele>
      </trkpt>
      <trkpt lat="45.96336" lon="1.51738">
        <ele>323</ele>
      </trkpt>
      <trkpt lat="45.96272" lon="1.51558">
        <ele>337</ele>
      </trkpt>
      <trkpt lat="45.96238" lon="1.51367">
        <ele>345</ele>
      </trkpt>
      <trkpt lat="45.96238" lon="1.51367">
        <ele>345</ele>
      </trkpt>
      <trkpt lat="45.96206" lon="1.51248">
        <ele>349</ele>
      </trkpt>
      <trkpt lat="45.96155" lon="1.51167">
        <ele>353</ele>
      </trkpt>
      <trkpt lat="45.96119" lon="1.51082">
        <ele>357</ele>
      </trkpt>
      <trkpt lat="45.96126" lon="1.51027">
        <ele>358</ele>
      </trkpt>
      <trkpt lat="45.96179" lon="1.50929">
        <ele>358</ele>
      </trkpt>
      <trkpt lat="45.96176" lon="1.50863">
        <ele>362</ele>
      </trkpt>
      <trkpt lat="45.96189" lon="1.50778">
        <ele>368</ele>
      </trkpt>
      <trkpt lat="45.96167" lon="1.50631">
        <ele>374</ele>
      </trkpt>
      <trkpt lat="45.96179" lon="1.50588">
        <ele>375</ele>
      </trkpt>
      <trkpt lat="45.96106" lon="1.50543">
        <ele>382</ele>
      </trkpt>
      <trkpt lat="45.96003" lon="1.50551">
        <ele>389</ele>
      </trkpt>
      <trkpt lat="45.95922" lon="1.50578">
        <ele>392</ele>
      </trkpt>
      <trkpt lat="45.95796" lon="1.50667">
        <ele>391</ele>
      </trkpt>
      <trkpt lat="45.95724" lon="1.50683">
        <ele>389</ele>
      </trkpt>
      <trkpt lat="45.95568" lon="1.50617">
        <ele>383</ele>
      </trkpt>
      <trkpt lat="45.95518" lon="1.50578">
        <ele>383</ele>
      </trkpt>
      <trkpt lat="45.95487" lon="1.50514">
        <ele>381</ele>
      </trkpt>
      <trkpt lat="45.95383" lon="1.50267">
        <ele>373</ele>
      </trkpt>
      <trkpt lat="45.95284" lon="1.50176">
        <ele>370</ele>
      </trkpt>
      <trkpt lat="45.95254" lon="1.50091">
        <ele>372</ele>
      </trkpt>
      <trkpt lat="45.95182" lon="1.50031">
        <ele>374</ele>
      </trkpt>
      <trkpt lat="45.95132" lon="1.49934">
        <ele>381</ele>
      </trkpt>
      <trkpt lat="45.95046" lon="1.49815">
        <ele>388</ele>
      </trkpt>
      <trkpt lat="45.94714" lon="1.49308">
        <ele>385</ele>
      </trkpt>
      <trkpt lat="45.94717" lon="1.49131">
        <ele>382</ele>
      </trkpt>
      <trkpt lat="45.94737" lon="1.49076">
        <ele>382</ele>
      </trkpt>
      <trkpt lat="45.94715" lon="1.48864">
        <ele>378</ele>
      </trkpt>
      <trkpt lat="45.94698" lon="1.4859">
        <ele>377</ele>
      </trkpt>
      <trkpt lat="45.94665" lon="1.48449">
        <ele>375</ele>
      </trkpt>
      <trkpt lat="45.94614" lon="1.4827">
        <ele>375</ele>
      </trkpt>
      <trkpt lat="45.94518" lon="1.48036">
        <ele>377</ele>
      </trkpt>
      <trkpt lat="45.94487" lon="1.48001">
        <ele>378</ele>
      </trkpt>
      <trkpt lat="45.94371" lon="1.47986">
        <ele>377</ele>
      </trkpt>
      <trkpt lat="45.94336" lon="1.47942">
        <ele>376</ele>
      </trkpt>
      <trkpt lat="45.94321" lon="1.47847">
        <ele>367</ele>
      </trkpt>
      <trkpt lat="45.94253" lon="1.47651">
        <ele>351</ele>
      </trkpt>
      <trkpt lat="45.94208" lon="1.4762">
        <ele>347</ele>
      </trkpt>
      <trkpt lat="45.9418" lon="1.47566">
        <ele>340</ele>
      </trkpt>
      <trkpt lat="45.94191" lon="1.4751">
        <ele>337</ele>
      </trkpt>
      <trkpt lat="45.94297" lon="1.47482">
        <ele>331</ele>
      </trkpt>
      <trkpt lat="45.94336" lon="1.47451">
        <ele>329</ele>
      </trkpt>
      <trkpt lat="45.94383" lon="1.47424">
        <ele>329</ele>
      </trkpt>
      <trkpt lat="45.94424" lon="1.47274">
        <ele>314</ele>
      </trkpt>
      <trkpt lat="45.94453" lon="1.47201">
        <ele>311</ele>
      </trkpt>
      <trkpt lat="45.94431" lon="1.47121">
        <ele>312</ele>
      </trkpt>
      <trkpt lat="45.94386" lon="1.47117">
        <ele>313</ele>
      </trkpt>
      <trkpt lat="45.94366" lon="1.47101">
        <ele>314</ele>
      </trkpt>
      <trkpt lat="45.94379" lon="1.47054">
        <ele>322</ele>
      </trkpt>
      <trkpt lat="45.94419" lon="1.47001">
        <ele>325</ele>
      </trkpt>
      <trkpt lat="45.94421" lon="1.46857">
        <ele>335</ele>
      </trkpt>
      <trkpt lat="45.94393" lon="1.46722">
        <ele>346</ele>
      </trkpt>
      <trkpt lat="45.94365" lon="1.46657">
        <ele>350</ele>
      </trkpt>
      <trkpt lat="45.94346" lon="1.46576">
        <ele>354</ele>
      </trkpt>
      <trkpt lat="45.94344" lon="1.46449">
        <ele>360</ele>
      </trkpt>
      <trkpt lat="45.94312" lon="1.46282">
        <ele>362</ele>
      </trkpt>
      <trkpt lat="45.94275" lon="1.46184">
        <ele>367</ele>
      </trkpt>
      <trkpt lat="45.9422" lon="1.45941">
        <ele>377</ele>
      </trkpt>
      <trkpt lat="45.94218" lon="1.45884">
        <ele>378</ele>
      </trkpt>
      <trkpt lat="45.94185" lon="1.45729">
        <ele>375</ele>
      </trkpt>
      <trkpt lat="45.9419" lon="1.4558">
        <ele>371</ele>
      </trkpt>
      <trkpt lat="45.94174" lon="1.45457">
        <ele>366</ele>
      </trkpt>
      <trkpt lat="45.94149" lon="1.45338">
        <ele>362</ele>
      </trkpt>
      <trkpt lat="45.94093" lon="1.45215">
        <ele>359</ele>
      </trkpt>
      <trkpt lat="45.94079" lon="1.45156">
        <ele>359</ele>
      </trkpt>
      <trkpt lat="45.94005" lon="1.45054">
        <ele>365</ele>
      </trkpt>
      <trkpt lat="45.93955" lon="1.44992">
        <ele>371</ele>
      </trkpt>
      <trkpt lat="45.93917" lon="1.44974">
        <ele>370</ele>
      </trkpt>
      <trkpt lat="45.9386" lon="1.44981">
        <ele>369</ele>
      </trkpt>
      <trkpt lat="45.93826" lon="1.44965">
        <ele>365</ele>
      </trkpt>
      <trkpt lat="45.93782" lon="1.44938">
        <ele>364</ele>
      </trkpt>
      <trkpt lat="45.93732" lon="1.44924">
        <ele>361</ele>
      </trkpt>
      <trkpt lat="45.93682" lon="1.44837">
        <ele>366</ele>
      </trkpt>
      <trkpt lat="45.93702" lon="1.44769">
        <ele>369</ele>
      </trkpt>
      <trkpt lat="45.93728" lon="1.44638">
        <ele>378</ele>
      </trkpt>
      <trkpt lat="45.9375" lon="1.44596">
        <ele>381</ele>
      </trkpt>
      <trkpt lat="45.93809" lon="1.44538">
        <ele>383</ele>
      </trkpt>
      <trkpt lat="45.93867" lon="1.44447">
        <ele>385</ele>
      </trkpt>
      <trkpt lat="45.93922" lon="1.44293">
        <ele>385</ele>
      </trkpt>
      <trkpt lat="45.93972" lon="1.44171">
        <ele>382</ele>
      </trkpt>
      <trkpt lat="45.93991" lon="1.44008">
        <ele>381</ele>
      </trkpt>
      <trkpt lat="45.94024" lon="1.43862">
        <ele>376</ele>
      </trkpt>
      <trkpt lat="45.94016" lon="1.43809">
        <ele>375</ele>
      </trkpt>
      <trkpt lat="45.93982" lon="1.43713">
        <ele>369</ele>
      </trkpt>
      <trkpt lat="45.94" lon="1.43643">
        <ele>367</ele>
      </trkpt>
      <trkpt lat="45.94138" lon="1.43482">
        <ele>371</ele>
      </trkpt>
      <trkpt lat="45.94101" lon="1.43409">
        <ele>370</ele>
      </trkpt>
      <trkpt lat="45.93973" lon="1.4327">
        <ele>375</ele>
      </trkpt>
      <trkpt lat="45.93893" lon="1.43162">
        <ele>372</ele>
      </trkpt>
      <trkpt lat="45.93819" lon="1.43173">
        <ele>368</ele>
      </trkpt>
      <trkpt lat="45.93785" lon="1.43167">
        <ele>366</ele>
      </trkpt>
      <trkpt lat="45.93739" lon="1.43097">
        <ele>365</ele>
      </trkpt>
      <trkpt lat="45.93747" lon="1.43018">
        <ele>368</ele>
      </trkpt>
      <trkpt lat="45.93727" lon="1.42873">
        <ele>380</ele>
      </trkpt>
      <trkpt lat="45.93716" lon="1.42607">
        <ele>381</ele>
      </trkpt>
      <trkpt lat="45.93709" lon="1.42436">
        <ele>378</ele>
      </trkpt>
      <trkpt lat="45.9371" lon="1.42346">
        <ele>378</ele>
      </trkpt>
      <trkpt lat="45.93695" lon="1.42223">
        <ele>378</ele>
      </trkpt>
      <trkpt lat="45.93712" lon="1.42153">
        <ele>376</ele>
      </trkpt>
      <trkpt lat="45.93726" lon="1.42081">
        <ele>376</ele>
      </trkpt>
      <trkpt lat="45.93677" lon="1.41945">
        <ele>371</ele>
      </trkpt>
      <trkpt lat="45.93756" lon="1.41844">
        <ele>371</ele>
      </trkpt>
      <trkpt lat="45.93695" lon="1.41765">
        <ele>368</ele>
      </trkpt>
      <trkpt lat="45.93567" lon="1.41696">
        <ele>367</ele>
      </trkpt>
      <trkpt lat="45.93408" lon="1.41572">
        <ele>369</ele>
      </trkpt>
      <trkpt lat="45.9332" lon="1.4145">
        <ele>364</ele>
      </trkpt>
      <trkpt lat="45.93209" lon="1.41359">
        <ele>366</ele>
      </trkpt>
      <trkpt lat="45.93079" lon="1.41249">
        <ele>357</ele>
      </trkpt>
      <trkpt lat="45.92924" lon="1.41154">
        <ele>350</ele>
      </trkpt>
      <trkpt lat="45.92748" lon="1.41003">
        <ele>342</ele>
      </trkpt>
      <trkpt lat="45.92662" lon="1.40915">
        <ele>330</ele>
      </trkpt>
      <trkpt lat="45.92552" lon="1.40792">
        <ele>315</ele>
      </trkpt>
      <trkpt lat="45.925" lon="1.40703">
        <ele>307</ele>
      </trkpt>
      <trkpt lat="45.92487" lon="1.4063">
        <ele>292</ele>
      </trkpt>
      <trkpt lat="45.92492" lon="1.40553">
        <ele>286</ele>
      </trkpt>
      <trkpt lat="45.92516" lon="1.40429">
        <ele>280</ele>
      </trkpt>
      <trkpt lat="45.9249" lon="1.40391">
        <ele>283</ele>
      </trkpt>
      <trkpt lat="45.92459" lon="1.40379">
        <ele>284</ele>
      </trkpt>
      <trkpt lat="45.9243" lon="1.40418">
        <ele>281</ele>
      </trkpt>
      <trkpt lat="45.92393" lon="1.4043">
        <ele>286</ele>
      </trkpt>
      <trkpt lat="45.92371" lon="1.40407">
        <ele>291</ele>
      </trkpt>
      <trkpt lat="45.92363" lon="1.40458">
        <ele>289</ele>
      </trkpt>
      <trkpt lat="45.92334" lon="1.40518">
        <ele>291</ele>
      </trkpt>
      <trkpt lat="45.92262" lon="1.40549">
        <ele>297</ele>
      </trkpt>
      <trkpt lat="45.92223" lon="1.4052">
        <ele>309</ele>
      </trkpt>
      <trkpt lat="45.92195" lon="1.40517">
        <ele>312</ele>
      </trkpt>
      <trkpt lat="45.92164" lon="1.40614">
        <ele>310</ele>
      </trkpt>
      <trkpt lat="45.92123" lon="1.40634">
        <ele>310</ele>
      </trkpt>
      <trkpt lat="45.92084" lon="1.40596">
        <ele>316</ele>
      </trkpt>
      <trkpt lat="45.92077" lon="1.4052">
        <ele>325</ele>
      </trkpt>
      <trkpt lat="45.92029" lon="1.40462">
        <ele>332</ele>
      </trkpt>
      <trkpt lat="45.91978" lon="1.40367">
        <ele>341</ele>
      </trkpt>
      <trkpt lat="45.91935" lon="1.40334">
        <ele>343</ele>
      </trkpt>
      <trkpt lat="45.91873" lon="1.40336">
        <ele>345</ele>
      </trkpt>
      <trkpt lat="45.9185" lon="1.40316">
        <ele>345</ele>
      </trkpt>
      <trkpt lat="45.91826" lon="1.40212">
        <ele>346</ele>
      </trkpt>
      <trkpt lat="45.9181" lon="1.40179">
        <ele>345</ele>
      </trkpt>
      <trkpt lat="45.91745" lon="1.4016">
        <ele>343</ele>
      </trkpt>
      <trkpt lat="45.91682" lon="1.40185">
        <ele>344</ele>
      </trkpt>
      <trkpt lat="45.91648" lon="1.40171">
        <ele>344</ele>
      </trkpt>
      <trkpt lat="45.91585" lon="1.40108">
        <ele>342</ele>
      </trkpt>
      <trkpt lat="45.9151" lon="1.40022">
        <ele>343</ele>
      </trkpt>
      <trkpt lat="45.91391" lon="1.39928">
        <ele>346</ele>
      </trkpt>
      <trkpt lat="45.91328" lon="1.39887">
        <ele>347</ele>
      </trkpt>
      <trkpt lat="45.91265" lon="1.39855">
        <ele>347</ele>
      </trkpt>
      <trkpt lat="45.91239" lon="1.39777">
        <ele>345</ele>
      </trkpt>
      <trkpt lat="45.91199" lon="1.39703">
        <ele>340</ele>
      </trkpt>
      <trkpt lat="45.91146" lon="1.39667">
        <ele>335</ele>
      </trkpt>
      <trkpt lat="45.91082" lon="1.39697">
        <ele>330</ele>
      </trkpt>
      <trkpt lat="45.91002" lon="1.39708">
        <ele>327</ele>
      </trkpt>
      <trkpt lat="45.90838" lon="1.39721">
        <ele>325</ele>
      </trkpt>
      <trkpt lat="45.90773" lon="1.39779">
        <ele>320</ele>
      </trkpt>
      <trkpt lat="45.90485" lon="1.39776">
        <ele>328</ele>
      </trkpt>
      <trkpt lat="45.90417" lon="1.39794">
        <ele>329</ele>
      </trkpt>
      <trkpt lat="45.90386" lon="1.39795">
        <ele>330</ele>
      </trkpt>
      <trkpt lat="45.90341" lon="1.39747">
        <ele>328</ele>
      </trkpt>
      <trkpt lat="45.90302" lon="1.39735">
        <ele>327</ele>
      </trkpt>
      <trkpt lat="45.90187" lon="1.39738">
        <ele>325</ele>
      </trkpt>
      <trkpt lat="45.90037" lon="1.39673">
        <ele>318</ele>
      </trkpt>
      <trkpt lat="45.89966" lon="1.39598">
        <ele>311</ele>
      </trkpt>
      <trkpt lat="45.89917" lon="1.39575">
        <ele>308</ele>
      </trkpt>
      <trkpt lat="45.89777" lon="1.39568">
        <ele>291</ele>
      </trkpt>
      <trkpt lat="45.89569" lon="1.3956">
        <ele>274</ele>
      </trkpt>
      <trkpt lat="45.89531" lon="1.39595">
        <ele>272</ele>
      </trkpt>
      <trkpt lat="45.89479" lon="1.39708">
        <ele>271</ele>
      </trkpt>
      <trkpt lat="45.8944" lon="1.39762">
        <ele>268</ele>
      </trkpt>
      <trkpt lat="45.89387" lon="1.39787">
        <ele>259</ele>
      </trkpt>
      <trkpt lat="45.89329" lon="1.3979">
        <ele>254</ele>
      </trkpt>
      <trkpt lat="45.89277" lon="1.39768">
        <ele>252</ele>
      </trkpt>
      <trkpt lat="45.89029" lon="1.3958">
        <ele>261</ele>
      </trkpt>
      <trkpt lat="45.88798" lon="1.39484">
        <ele>244</ele>
      </trkpt>
      <trkpt lat="45.88768" lon="1.39434">
        <ele>244</ele>
      </trkpt>
      <trkpt lat="45.88717" lon="1.39393">
        <ele>242</ele>
      </trkpt>
      <trkpt lat="45.88717" lon="1.39393">
        <ele>242</ele>
      </trkpt>
      <trkpt lat="45.88717" lon="1.39393">
        <ele>242</ele>
      </trkpt>
      <trkpt lat="45.88669" lon="1.39575">
        <ele>238</ele>
      </trkpt>
      <trkpt lat="45.88651" lon="1.39921">
        <ele>247</ele>
      </trkpt>
      <trkpt lat="45.88429" lon="1.39905">
        <ele>252</ele>
      </trkpt>
      <trkpt lat="45.8841" lon="1.39947">
        <ele>262</ele>
      </trkpt>
      <trkpt lat="45.88399" lon="1.40024">
        <ele>259</ele>
      </trkpt>
      <trkpt lat="45.88401" lon="1.40059">
        <ele>259</ele>
      </trkpt>
      <trkpt lat="45.88387" lon="1.40119">
        <ele>260</ele>
      </trkpt>
      <trkpt lat="45.88368" lon="1.40133">
        <ele>263</ele>
      </trkpt>
      <trkpt lat="45.88226" lon="1.40077">
        <ele>284</ele>
      </trkpt>
      <trkpt lat="45.88187" lon="1.40048">
        <ele>287</ele>
      </trkpt>
      <trkpt lat="45.88149" lon="1.39995">
        <ele>293</ele>
      </trkpt>
      <trkpt lat="45.88137" lon="1.39957">
        <ele>294</ele>
      </trkpt>
      <trkpt lat="45.88111" lon="1.39922">
        <ele>296</ele>
      </trkpt>
      <trkpt lat="45.88071" lon="1.39893">
        <ele>300</ele>
      </trkpt>
      <trkpt lat="45.87983" lon="1.39855">
        <ele>305</ele>
      </trkpt>
      <trkpt lat="45.87951" lon="1.39809">
        <ele>304</ele>
      </trkpt>
      <trkpt lat="45.87888" lon="1.39796">
        <ele>308</ele>
      </trkpt>
      <trkpt lat="45.87782" lon="1.39603">
        <ele>308</ele>
      </trkpt>
      <trkpt lat="45.87735" lon="1.39599">
        <ele>311</ele>
      </trkpt>
      <trkpt lat="45.87701" lon="1.39606">
        <ele>311</ele>
      </trkpt>
      <trkpt lat="45.87603" lon="1.39621">
        <ele>311</ele>
      </trkpt>
      <trkpt lat="45.87561" lon="1.39619">
        <ele>312</ele>
      </trkpt>
      <trkpt lat="45.875" lon="1.39635">
        <ele>314</ele>
      </trkpt>
      <trkpt lat="45.87465" lon="1.39616">
        <ele>316</ele>
      </trkpt>
      <trkpt lat="45.87358" lon="1.39581">
        <ele>315</ele>
      </trkpt>
      <trkpt lat="45.87307" lon="1.39573">
        <ele>316</ele>
      </trkpt>
      <trkpt lat="45.87238" lon="1.39535">
        <ele>319</ele>
      </trkpt>
      <trkpt lat="45.87211" lon="1.39499">
        <ele>317</ele>
      </trkpt>
      <trkpt lat="45.87191" lon="1.39478">
        <ele>319</ele>
      </trkpt>
      <trkpt lat="45.87163" lon="1.39468">
        <ele>326</ele>
      </trkpt>
      <trkpt lat="45.87134" lon="1.39375">
        <ele>326</ele>
      </trkpt>
      <trkpt lat="45.87067" lon="1.39303">
        <ele>332</ele>
      </trkpt>
      <trkpt lat="45.8702" lon="1.39217">
        <ele>327</ele>
      </trkpt>
      <trkpt lat="45.86953" lon="1.39119">
        <ele>320</ele>
      </trkpt>
      <trkpt lat="45.86933" lon="1.39067">
        <ele>317</ele>
      </trkpt>
      <trkpt lat="45.86911" lon="1.39042">
        <ele>321</ele>
      </trkpt>
      <trkpt lat="45.86893" lon="1.39038">
        <ele>321</ele>
      </trkpt>
      <trkpt lat="45.86864" lon="1.3906">
        <ele>323</ele>
      </trkpt>
      <trkpt lat="45.86837" lon="1.39068">
        <ele>325</ele>
      </trkpt>
      <trkpt lat="45.86788" lon="1.39046">
        <ele>331</ele>
      </trkpt>
      <trkpt lat="45.86653" lon="1.38959">
        <ele>343</ele>
      </trkpt>
      <trkpt lat="45.86555" lon="1.38457">
        <ele>324</ele>
      </trkpt>
      <trkpt lat="45.8648" lon="1.38327">
        <ele>319</ele>
      </trkpt>
      <trkpt lat="45.86438" lon="1.38354">
        <ele>319</ele>
      </trkpt>
      <trkpt lat="45.86333" lon="1.38174">
        <ele>309</ele>
      </trkpt>
      <trkpt lat="45.86314" lon="1.37778">
        <ele>290</ele>
      </trkpt>
      <trkpt lat="45.86248" lon="1.37577">
        <ele>283</ele>
      </trkpt>
      <trkpt lat="45.86092" lon="1.37247">
        <ele>283</ele>
      </trkpt>
      <trkpt lat="45.85904" lon="1.37007">
        <ele>295.4</ele>
      </trkpt>
      <trkpt lat="45.85884" lon="1.3683">
        <ele>290</ele>
      </trkpt>
      <trkpt lat="45.85693" lon="1.36206">
        <ele>324.9</ele>
      </trkpt>
      <trkpt lat="45.85566" lon="1.35968">
        <ele>340</ele>
      </trkpt>
      <trkpt lat="45.85323" lon="1.35427">
        <ele>346</ele>
      </trkpt>
      <trkpt lat="45.85058" lon="1.34885">
        <ele>341</ele>
      </trkpt>
      <trkpt lat="45.84879" lon="1.34669">
        <ele>336</ele>
      </trkpt>
      <trkpt lat="45.84804" lon="1.34658">
        <ele>332.7</ele>
      </trkpt>
      <trkpt lat="45.84308" lon="1.33623">
        <ele>334</ele>
      </trkpt>
      <trkpt lat="45.84054" lon="1.32673">
        <ele>313</ele>
      </trkpt>
      <trkpt lat="45.8361" lon="1.31873">
        <ele>312.9</ele>
      </trkpt>
      <trkpt lat="45.83424" lon="1.30839">
        <ele>304</ele>
      </trkpt>
      <trkpt lat="45.83053" lon="1.29928">
        <ele>296</ele>
      </trkpt>
      <trkpt lat="45.83053" lon="1.29323">
        <ele>298.4</ele>
      </trkpt>
      <trkpt lat="45.83065" lon="1.28934">
        <ele>291.8</ele>
      </trkpt>
      <trkpt lat="45.82928" lon="1.28567">
        <ele>279.9</ele>
      </trkpt>
      <trkpt lat="45.82905" lon="1.28394">
        <ele>265</ele>
      </trkpt>
      <trkpt lat="45.82812" lon="1.28224">
        <ele>255.7</ele>
      </trkpt>
      <trkpt lat="45.82979" lon="1.27623">
        <ele>242</ele>
      </trkpt>
      <trkpt lat="45.82915" lon="1.27332">
        <ele>236</ele>
      </trkpt>
      <trkpt lat="45.82852" lon="1.2718">
        <ele>228</ele>
      </trkpt>
      <trkpt lat="45.82559" lon="1.2707">
        <ele>232</ele>
      </trkpt>
      <trkpt lat="45.82611" lon="1.26799">
        <ele>233.1</ele>
      </trkpt>
      <trkpt lat="45.82639" lon="1.26626">
        <ele>244.6</ele>
      </trkpt>
      <trkpt lat="45.82697" lon="1.26239">
        <ele>263</ele>
      </trkpt>
      <trkpt lat="45.82858" lon="1.25611">
        <ele>290.6</ele>
      </trkpt>
      <trkpt lat="45.82685" lon="1.25255">
        <ele>284.8</ele>
      </trkpt>
    </trkseg>
  </trk>
</gpx>